<?xml version="1.0" encoding="UTF-8" standalone="no" ?>
<gpx xmlns="http://www.topografix.com/GPX/1/1" xmlns:xsi="http://www.w3.org/2001/XMLSchema-instance" xsi:schemaLocation="http://www.topografix.com/GPX/1/1 http://www.topografix.com/GPX/1/1/gpx.xsd" version="1.1" creator="VisuGPX - https://www.visugpx.com">
  <metadata>
    <name>Nancy E4</name>
    <desc><![CDATA[Rando Aulnay Nancy Allemagne juin 2014
hub03grall]]></desc>
  </metadata>
  <trk>
    <name><![CDATA[Nancy E4_1]]></name>
    <trkseg>
      <trkpt lat="48.70608" lon="6.25305">
        <ele>257</ele>
        <time>2014-06-01T07:13:49Z</time>
      </trkpt>
      <trkpt lat="48.70588" lon="6.25335">
        <ele>251</ele>
        <time>2014-06-01T07:13:56Z</time>
      </trkpt>
      <trkpt lat="48.70593" lon="6.25367">
        <ele>248</ele>
        <time>2014-06-01T07:14:02Z</time>
      </trkpt>
      <trkpt lat="48.70592" lon="6.25401">
        <ele>247</ele>
        <time>2014-06-01T07:14:07Z</time>
      </trkpt>
      <trkpt lat="48.70585" lon="6.25434">
        <ele>242</ele>
        <time>2014-06-01T07:14:12Z</time>
      </trkpt>
      <trkpt lat="48.70565" lon="6.25453">
        <ele>240</ele>
        <time>2014-06-01T07:14:17Z</time>
      </trkpt>
      <trkpt lat="48.70553" lon="6.25481">
        <ele>235</ele>
        <time>2014-06-01T07:14:23Z</time>
      </trkpt>
      <trkpt lat="48.70538" lon="6.25498">
        <ele>225</ele>
        <time>2014-06-01T07:14:28Z</time>
      </trkpt>
      <trkpt lat="48.7052" lon="6.25515">
        <ele>211</ele>
        <time>2014-06-01T07:14:34Z</time>
      </trkpt>
      <trkpt lat="48.70503" lon="6.25528">
        <ele>201</ele>
        <time>2014-06-01T07:14:39Z</time>
      </trkpt>
      <trkpt lat="48.70487" lon="6.25539">
        <ele>194</ele>
        <time>2014-06-01T07:14:44Z</time>
      </trkpt>
      <trkpt lat="48.70478" lon="6.25557">
        <ele>189</ele>
        <time>2014-06-01T07:14:49Z</time>
      </trkpt>
      <trkpt lat="48.70487" lon="6.25595">
        <ele>183</ele>
        <time>2014-06-01T07:14:55Z</time>
      </trkpt>
      <trkpt lat="48.70496" lon="6.25631">
        <ele>177</ele>
        <time>2014-06-01T07:15:00Z</time>
      </trkpt>
      <trkpt lat="48.70504" lon="6.25664">
        <ele>171</ele>
        <time>2014-06-01T07:15:06Z</time>
      </trkpt>
      <trkpt lat="48.70495" lon="6.25674">
        <ele>167</ele>
        <time>2014-06-01T07:15:11Z</time>
      </trkpt>
      <trkpt lat="48.70482" lon="6.2568">
        <ele>170</ele>
        <time>2014-06-01T07:15:16Z</time>
      </trkpt>
      <trkpt lat="48.70468" lon="6.2569">
        <ele>174</ele>
        <time>2014-06-01T07:15:21Z</time>
      </trkpt>
      <trkpt lat="48.70451" lon="6.25702">
        <ele>174</ele>
        <time>2014-06-01T07:15:26Z</time>
      </trkpt>
      <trkpt lat="48.70433" lon="6.25715">
        <ele>174</ele>
        <time>2014-06-01T07:15:31Z</time>
      </trkpt>
      <trkpt lat="48.70412" lon="6.25729">
        <ele>174</ele>
        <time>2014-06-01T07:15:36Z</time>
      </trkpt>
      <trkpt lat="48.70394" lon="6.25741">
        <ele>174</ele>
        <time>2014-06-01T07:15:41Z</time>
      </trkpt>
      <trkpt lat="48.7038" lon="6.25752">
        <ele>174</ele>
        <time>2014-06-01T07:15:46Z</time>
      </trkpt>
      <trkpt lat="48.70367" lon="6.25761">
        <ele>173</ele>
        <time>2014-06-01T07:15:51Z</time>
      </trkpt>
      <trkpt lat="48.70352" lon="6.25777">
        <ele>174</ele>
        <time>2014-06-01T07:15:56Z</time>
      </trkpt>
      <trkpt lat="48.70341" lon="6.25787">
        <ele>183</ele>
        <time>2014-06-01T07:16:01Z</time>
      </trkpt>
      <trkpt lat="48.70333" lon="6.25794">
        <ele>193</ele>
        <time>2014-06-01T07:16:06Z</time>
      </trkpt>
      <trkpt lat="48.70324" lon="6.25798">
        <ele>198</ele>
        <time>2014-06-01T07:16:11Z</time>
      </trkpt>
      <trkpt lat="48.70314" lon="6.25805">
        <ele>203</ele>
        <time>2014-06-01T07:16:16Z</time>
      </trkpt>
      <trkpt lat="48.70302" lon="6.25809">
        <ele>204</ele>
        <time>2014-06-01T07:16:21Z</time>
      </trkpt>
      <trkpt lat="48.70293" lon="6.25813">
        <ele>204</ele>
        <time>2014-06-01T07:16:26Z</time>
      </trkpt>
      <trkpt lat="48.70286" lon="6.25816">
        <ele>204</ele>
        <time>2014-06-01T07:16:31Z</time>
      </trkpt>
      <trkpt lat="48.70279" lon="6.25822">
        <ele>203</ele>
        <time>2014-06-01T07:16:38Z</time>
      </trkpt>
      <trkpt lat="48.70274" lon="6.25824">
        <ele>199</ele>
        <time>2014-06-01T07:16:43Z</time>
      </trkpt>
      <trkpt lat="48.70259" lon="6.2582">
        <ele>199</ele>
        <time>2014-06-01T07:16:48Z</time>
      </trkpt>
      <trkpt lat="48.70237" lon="6.25812">
        <ele>199</ele>
        <time>2014-06-01T07:16:53Z</time>
      </trkpt>
      <trkpt lat="48.70219" lon="6.25793">
        <ele>199</ele>
        <time>2014-06-01T07:16:58Z</time>
      </trkpt>
      <trkpt lat="48.70199" lon="6.25765">
        <ele>199</ele>
        <time>2014-06-01T07:17:03Z</time>
      </trkpt>
      <trkpt lat="48.7018" lon="6.25739">
        <ele>199</ele>
        <time>2014-06-01T07:17:08Z</time>
      </trkpt>
      <trkpt lat="48.7016" lon="6.25714">
        <ele>199</ele>
        <time>2014-06-01T07:17:13Z</time>
      </trkpt>
      <trkpt lat="48.70136" lon="6.25699">
        <ele>198</ele>
        <time>2014-06-01T07:17:18Z</time>
      </trkpt>
      <trkpt lat="48.70112" lon="6.25686">
        <ele>198</ele>
        <time>2014-06-01T07:17:23Z</time>
      </trkpt>
      <trkpt lat="48.70086" lon="6.25674">
        <ele>198</ele>
        <time>2014-06-01T07:17:28Z</time>
      </trkpt>
      <trkpt lat="48.70061" lon="6.25656">
        <ele>198</ele>
        <time>2014-06-01T07:17:33Z</time>
      </trkpt>
      <trkpt lat="48.70035" lon="6.25633">
        <ele>198</ele>
        <time>2014-06-01T07:17:38Z</time>
      </trkpt>
      <trkpt lat="48.70015" lon="6.25606">
        <ele>198</ele>
        <time>2014-06-01T07:17:43Z</time>
      </trkpt>
      <trkpt lat="48.69998" lon="6.25578">
        <ele>198</ele>
        <time>2014-06-01T07:17:48Z</time>
      </trkpt>
      <trkpt lat="48.69979" lon="6.2555">
        <ele>198</ele>
        <time>2014-06-01T07:17:53Z</time>
      </trkpt>
      <trkpt lat="48.69958" lon="6.25523">
        <ele>198</ele>
        <time>2014-06-01T07:17:58Z</time>
      </trkpt>
      <trkpt lat="48.69933" lon="6.2549">
        <ele>198</ele>
        <time>2014-06-01T07:18:03Z</time>
      </trkpt>
      <trkpt lat="48.69915" lon="6.25464">
        <ele>198</ele>
        <time>2014-06-01T07:18:08Z</time>
      </trkpt>
      <trkpt lat="48.69902" lon="6.25441">
        <ele>199</ele>
        <time>2014-06-01T07:18:13Z</time>
      </trkpt>
      <trkpt lat="48.6989" lon="6.25422">
        <ele>201</ele>
        <time>2014-06-01T07:18:18Z</time>
      </trkpt>
      <trkpt lat="48.69884" lon="6.25415">
        <ele>204</ele>
        <time>2014-06-01T07:18:23Z</time>
      </trkpt>
      <trkpt lat="48.69891" lon="6.25391">
        <ele>208</ele>
        <time>2014-06-01T07:18:28Z</time>
      </trkpt>
      <trkpt lat="48.699" lon="6.25358">
        <ele>211</ele>
        <time>2014-06-01T07:18:33Z</time>
      </trkpt>
      <trkpt lat="48.6991" lon="6.25323">
        <ele>213</ele>
        <time>2014-06-01T07:18:38Z</time>
      </trkpt>
      <trkpt lat="48.69916" lon="6.25298">
        <ele>215</ele>
        <time>2014-06-01T07:18:43Z</time>
      </trkpt>
      <trkpt lat="48.69923" lon="6.25276">
        <ele>216</ele>
        <time>2014-06-01T07:18:48Z</time>
      </trkpt>
      <trkpt lat="48.69931" lon="6.25249">
        <ele>216</ele>
        <time>2014-06-01T07:18:53Z</time>
      </trkpt>
      <trkpt lat="48.69941" lon="6.25216">
        <ele>216</ele>
        <time>2014-06-01T07:18:58Z</time>
      </trkpt>
      <trkpt lat="48.69944" lon="6.25188">
        <ele>217</ele>
        <time>2014-06-01T07:19:03Z</time>
      </trkpt>
      <trkpt lat="48.69946" lon="6.2515">
        <ele>219</ele>
        <time>2014-06-01T07:19:08Z</time>
      </trkpt>
      <trkpt lat="48.69944" lon="6.25108">
        <ele>219</ele>
        <time>2014-06-01T07:19:13Z</time>
      </trkpt>
      <trkpt lat="48.69938" lon="6.25065">
        <ele>219</ele>
        <time>2014-06-01T07:19:18Z</time>
      </trkpt>
      <trkpt lat="48.69932" lon="6.25025">
        <ele>219</ele>
        <time>2014-06-01T07:19:23Z</time>
      </trkpt>
      <trkpt lat="48.69928" lon="6.24987">
        <ele>219</ele>
        <time>2014-06-01T07:19:28Z</time>
      </trkpt>
      <trkpt lat="48.69922" lon="6.24953">
        <ele>219</ele>
        <time>2014-06-01T07:19:33Z</time>
      </trkpt>
      <trkpt lat="48.69918" lon="6.24921">
        <ele>219</ele>
        <time>2014-06-01T07:19:38Z</time>
      </trkpt>
      <trkpt lat="48.69911" lon="6.2489">
        <ele>219</ele>
        <time>2014-06-01T07:19:43Z</time>
      </trkpt>
      <trkpt lat="48.69904" lon="6.24865">
        <ele>219</ele>
        <time>2014-06-01T07:19:48Z</time>
      </trkpt>
      <trkpt lat="48.69894" lon="6.24852">
        <ele>219</ele>
        <time>2014-06-01T07:19:53Z</time>
      </trkpt>
      <trkpt lat="48.69889" lon="6.24829">
        <ele>219</ele>
        <time>2014-06-01T07:19:58Z</time>
      </trkpt>
      <trkpt lat="48.69889" lon="6.24805">
        <ele>219</ele>
        <time>2014-06-01T07:20:03Z</time>
      </trkpt>
      <trkpt lat="48.69896" lon="6.24773">
        <ele>219</ele>
        <time>2014-06-01T07:20:08Z</time>
      </trkpt>
      <trkpt lat="48.69888" lon="6.24733">
        <ele>219</ele>
        <time>2014-06-01T07:20:13Z</time>
      </trkpt>
      <trkpt lat="48.6988" lon="6.24691">
        <ele>219</ele>
        <time>2014-06-01T07:20:18Z</time>
      </trkpt>
      <trkpt lat="48.69872" lon="6.24649">
        <ele>219</ele>
        <time>2014-06-01T07:20:23Z</time>
      </trkpt>
      <trkpt lat="48.69865" lon="6.24607">
        <ele>219</ele>
        <time>2014-06-01T07:20:28Z</time>
      </trkpt>
      <trkpt lat="48.69858" lon="6.24567">
        <ele>219</ele>
        <time>2014-06-01T07:20:33Z</time>
      </trkpt>
      <trkpt lat="48.69851" lon="6.24527">
        <ele>219</ele>
        <time>2014-06-01T07:20:38Z</time>
      </trkpt>
      <trkpt lat="48.69844" lon="6.24486">
        <ele>219</ele>
        <time>2014-06-01T07:20:43Z</time>
      </trkpt>
      <trkpt lat="48.69838" lon="6.24445">
        <ele>219</ele>
        <time>2014-06-01T07:20:49Z</time>
      </trkpt>
      <trkpt lat="48.69831" lon="6.24397">
        <ele>219</ele>
        <time>2014-06-01T07:20:54Z</time>
      </trkpt>
      <trkpt lat="48.69818" lon="6.24368">
        <ele>219</ele>
        <time>2014-06-01T07:20:59Z</time>
      </trkpt>
      <trkpt lat="48.69803" lon="6.24344">
        <ele>219</ele>
        <time>2014-06-01T07:21:04Z</time>
      </trkpt>
      <trkpt lat="48.69783" lon="6.24326">
        <ele>219</ele>
        <time>2014-06-01T07:21:09Z</time>
      </trkpt>
      <trkpt lat="48.6976" lon="6.24314">
        <ele>219</ele>
        <time>2014-06-01T07:21:14Z</time>
      </trkpt>
      <trkpt lat="48.69736" lon="6.24301">
        <ele>219</ele>
        <time>2014-06-01T07:21:19Z</time>
      </trkpt>
      <trkpt lat="48.6971" lon="6.24291">
        <ele>219</ele>
        <time>2014-06-01T07:21:24Z</time>
      </trkpt>
      <trkpt lat="48.69684" lon="6.24279">
        <ele>219</ele>
        <time>2014-06-01T07:21:29Z</time>
      </trkpt>
      <trkpt lat="48.69659" lon="6.24264">
        <ele>219</ele>
        <time>2014-06-01T07:21:34Z</time>
      </trkpt>
      <trkpt lat="48.69633" lon="6.24249">
        <ele>219</ele>
        <time>2014-06-01T07:21:39Z</time>
      </trkpt>
      <trkpt lat="48.69607" lon="6.24233">
        <ele>219</ele>
        <time>2014-06-01T07:21:44Z</time>
      </trkpt>
      <trkpt lat="48.69582" lon="6.24218">
        <ele>219</ele>
        <time>2014-06-01T07:21:49Z</time>
      </trkpt>
      <trkpt lat="48.69557" lon="6.242">
        <ele>219</ele>
        <time>2014-06-01T07:21:54Z</time>
      </trkpt>
      <trkpt lat="48.69531" lon="6.24184">
        <ele>219</ele>
        <time>2014-06-01T07:21:59Z</time>
      </trkpt>
      <trkpt lat="48.69507" lon="6.24167">
        <ele>219</ele>
        <time>2014-06-01T07:22:04Z</time>
      </trkpt>
      <trkpt lat="48.69481" lon="6.24148">
        <ele>219</ele>
        <time>2014-06-01T07:22:09Z</time>
      </trkpt>
      <trkpt lat="48.69451" lon="6.24126">
        <ele>217</ele>
        <time>2014-06-01T07:22:14Z</time>
      </trkpt>
      <trkpt lat="48.69422" lon="6.24104">
        <ele>216</ele>
        <time>2014-06-01T07:22:19Z</time>
      </trkpt>
      <trkpt lat="48.69395" lon="6.24084">
        <ele>216</ele>
        <time>2014-06-01T07:22:24Z</time>
      </trkpt>
      <trkpt lat="48.69365" lon="6.24065">
        <ele>214</ele>
        <time>2014-06-01T07:22:29Z</time>
      </trkpt>
      <trkpt lat="48.69337" lon="6.24041">
        <ele>213</ele>
        <time>2014-06-01T07:22:34Z</time>
      </trkpt>
      <trkpt lat="48.69312" lon="6.24016">
        <ele>213</ele>
        <time>2014-06-01T07:22:39Z</time>
      </trkpt>
      <trkpt lat="48.6929" lon="6.24">
        <ele>213</ele>
        <time>2014-06-01T07:22:44Z</time>
      </trkpt>
      <trkpt lat="48.6927" lon="6.23985">
        <ele>213</ele>
        <time>2014-06-01T07:22:49Z</time>
      </trkpt>
      <trkpt lat="48.69259" lon="6.23983">
        <ele>213</ele>
        <time>2014-06-01T07:22:55Z</time>
      </trkpt>
      <trkpt lat="48.69249" lon="6.23976">
        <ele>213</ele>
        <time>2014-06-01T07:23:00Z</time>
      </trkpt>
      <trkpt lat="48.69232" lon="6.23963">
        <ele>213</ele>
        <time>2014-06-01T07:23:05Z</time>
      </trkpt>
      <trkpt lat="48.69209" lon="6.23945">
        <ele>213</ele>
        <time>2014-06-01T07:23:10Z</time>
      </trkpt>
      <trkpt lat="48.69184" lon="6.23926">
        <ele>213</ele>
        <time>2014-06-01T07:23:15Z</time>
      </trkpt>
      <trkpt lat="48.69156" lon="6.23904">
        <ele>213</ele>
        <time>2014-06-01T07:23:20Z</time>
      </trkpt>
      <trkpt lat="48.69122" lon="6.23879">
        <ele>213</ele>
        <time>2014-06-01T07:23:25Z</time>
      </trkpt>
      <trkpt lat="48.69085" lon="6.23848">
        <ele>211</ele>
        <time>2014-06-01T07:23:30Z</time>
      </trkpt>
      <trkpt lat="48.69044" lon="6.23814">
        <ele>209</ele>
        <time>2014-06-01T07:23:35Z</time>
      </trkpt>
      <trkpt lat="48.69006" lon="6.23778">
        <ele>207</ele>
        <time>2014-06-01T07:23:40Z</time>
      </trkpt>
      <trkpt lat="48.68971" lon="6.23745">
        <ele>206</ele>
        <time>2014-06-01T07:23:45Z</time>
      </trkpt>
      <trkpt lat="48.68938" lon="6.23712">
        <ele>205</ele>
        <time>2014-06-01T07:23:50Z</time>
      </trkpt>
      <trkpt lat="48.68908" lon="6.23674">
        <ele>203</ele>
        <time>2014-06-01T07:23:55Z</time>
      </trkpt>
      <trkpt lat="48.68882" lon="6.23639">
        <ele>203</ele>
        <time>2014-06-01T07:24:00Z</time>
      </trkpt>
      <trkpt lat="48.68861" lon="6.23607">
        <ele>203</ele>
        <time>2014-06-01T07:24:05Z</time>
      </trkpt>
      <trkpt lat="48.68841" lon="6.23576">
        <ele>203</ele>
        <time>2014-06-01T07:24:10Z</time>
      </trkpt>
      <trkpt lat="48.68821" lon="6.23545">
        <ele>203</ele>
        <time>2014-06-01T07:24:15Z</time>
      </trkpt>
      <trkpt lat="48.68801" lon="6.23513">
        <ele>202</ele>
        <time>2014-06-01T07:24:20Z</time>
      </trkpt>
      <trkpt lat="48.68782" lon="6.2348">
        <ele>202</ele>
        <time>2014-06-01T07:24:25Z</time>
      </trkpt>
      <trkpt lat="48.68762" lon="6.23447">
        <ele>201</ele>
        <time>2014-06-01T07:24:30Z</time>
      </trkpt>
      <trkpt lat="48.68739" lon="6.2341">
        <ele>201</ele>
        <time>2014-06-01T07:24:35Z</time>
      </trkpt>
      <trkpt lat="48.68719" lon="6.23373">
        <ele>201</ele>
        <time>2014-06-01T07:24:40Z</time>
      </trkpt>
      <trkpt lat="48.687" lon="6.2334">
        <ele>200</ele>
        <time>2014-06-01T07:24:45Z</time>
      </trkpt>
      <trkpt lat="48.68683" lon="6.23307">
        <ele>200</ele>
        <time>2014-06-01T07:24:50Z</time>
      </trkpt>
      <trkpt lat="48.68665" lon="6.23274">
        <ele>200</ele>
        <time>2014-06-01T07:24:55Z</time>
      </trkpt>
      <trkpt lat="48.68646" lon="6.23244">
        <ele>200</ele>
        <time>2014-06-01T07:25:00Z</time>
      </trkpt>
      <trkpt lat="48.68627" lon="6.23212">
        <ele>199</ele>
        <time>2014-06-01T07:25:05Z</time>
      </trkpt>
      <trkpt lat="48.68608" lon="6.23182">
        <ele>198</ele>
        <time>2014-06-01T07:25:10Z</time>
      </trkpt>
      <trkpt lat="48.68587" lon="6.23152">
        <ele>196</ele>
        <time>2014-06-01T07:25:15Z</time>
      </trkpt>
      <trkpt lat="48.68565" lon="6.23143">
        <ele>195</ele>
        <time>2014-06-01T07:25:20Z</time>
      </trkpt>
      <trkpt lat="48.68553" lon="6.2313">
        <ele>194</ele>
        <time>2014-06-01T07:25:25Z</time>
      </trkpt>
      <trkpt lat="48.68544" lon="6.23115">
        <ele>194</ele>
        <time>2014-06-01T07:25:30Z</time>
      </trkpt>
      <trkpt lat="48.68539" lon="6.23087">
        <ele>194</ele>
        <time>2014-06-01T07:25:35Z</time>
      </trkpt>
      <trkpt lat="48.68541" lon="6.23048">
        <ele>194</ele>
        <time>2014-06-01T07:25:40Z</time>
      </trkpt>
      <trkpt lat="48.68534" lon="6.23007">
        <ele>194</ele>
        <time>2014-06-01T07:25:45Z</time>
      </trkpt>
      <trkpt lat="48.68525" lon="6.22964">
        <ele>194</ele>
        <time>2014-06-01T07:25:50Z</time>
      </trkpt>
      <trkpt lat="48.68516" lon="6.22921">
        <ele>194</ele>
        <time>2014-06-01T07:25:55Z</time>
      </trkpt>
      <trkpt lat="48.68506" lon="6.22879">
        <ele>194</ele>
        <time>2014-06-01T07:26:00Z</time>
      </trkpt>
      <trkpt lat="48.68496" lon="6.22838">
        <ele>194</ele>
        <time>2014-06-01T07:26:05Z</time>
      </trkpt>
      <trkpt lat="48.68485" lon="6.22797">
        <ele>194</ele>
        <time>2014-06-01T07:26:10Z</time>
      </trkpt>
      <trkpt lat="48.68477" lon="6.22756">
        <ele>194</ele>
        <time>2014-06-01T07:26:15Z</time>
      </trkpt>
      <trkpt lat="48.68472" lon="6.22715">
        <ele>194</ele>
        <time>2014-06-01T07:26:20Z</time>
      </trkpt>
      <trkpt lat="48.68467" lon="6.22676">
        <ele>194</ele>
        <time>2014-06-01T07:26:25Z</time>
      </trkpt>
      <trkpt lat="48.68462" lon="6.22636">
        <ele>194</ele>
        <time>2014-06-01T07:26:30Z</time>
      </trkpt>
      <trkpt lat="48.68457" lon="6.22596">
        <ele>194</ele>
        <time>2014-06-01T07:26:35Z</time>
      </trkpt>
      <trkpt lat="48.68453" lon="6.22555">
        <ele>194</ele>
        <time>2014-06-01T07:26:40Z</time>
      </trkpt>
      <trkpt lat="48.68448" lon="6.22514">
        <ele>194</ele>
        <time>2014-06-01T07:26:45Z</time>
      </trkpt>
      <trkpt lat="48.68441" lon="6.22473">
        <ele>194</ele>
        <time>2014-06-01T07:26:50Z</time>
      </trkpt>
      <trkpt lat="48.68433" lon="6.22433">
        <ele>194</ele>
        <time>2014-06-01T07:26:55Z</time>
      </trkpt>
      <trkpt lat="48.68423" lon="6.22393">
        <ele>194</ele>
        <time>2014-06-01T07:27:00Z</time>
      </trkpt>
      <trkpt lat="48.68413" lon="6.22355">
        <ele>194</ele>
        <time>2014-06-01T07:27:05Z</time>
      </trkpt>
      <trkpt lat="48.68403" lon="6.22318">
        <ele>194</ele>
        <time>2014-06-01T07:27:10Z</time>
      </trkpt>
      <trkpt lat="48.68399" lon="6.22288">
        <ele>195</ele>
        <time>2014-06-01T07:27:15Z</time>
      </trkpt>
      <trkpt lat="48.68398" lon="6.22264">
        <ele>195</ele>
        <time>2014-06-01T07:27:20Z</time>
      </trkpt>
      <trkpt lat="48.68389" lon="6.22254">
        <ele>195</ele>
        <time>2014-06-01T07:27:25Z</time>
      </trkpt>
      <trkpt lat="48.68377" lon="6.22248">
        <ele>196</ele>
        <time>2014-06-01T07:27:30Z</time>
      </trkpt>
      <trkpt lat="48.68365" lon="6.22226">
        <ele>196</ele>
        <time>2014-06-01T07:27:35Z</time>
      </trkpt>
      <trkpt lat="48.68343" lon="6.22215">
        <ele>196</ele>
        <time>2014-06-01T07:27:40Z</time>
      </trkpt>
      <trkpt lat="48.68321" lon="6.22217">
        <ele>196</ele>
        <time>2014-06-01T07:27:45Z</time>
      </trkpt>
      <trkpt lat="48.68311" lon="6.22219">
        <ele>196</ele>
        <time>2014-06-01T07:27:53Z</time>
      </trkpt>
      <trkpt lat="48.68306" lon="6.22201">
        <ele>196</ele>
        <time>2014-06-01T07:27:58Z</time>
      </trkpt>
      <trkpt lat="48.68302" lon="6.22182">
        <ele>196</ele>
        <time>2014-06-01T07:28:03Z</time>
      </trkpt>
      <trkpt lat="48.68315" lon="6.22168">
        <ele>196</ele>
        <time>2014-06-01T07:28:08Z</time>
      </trkpt>
      <trkpt lat="48.68319" lon="6.22137">
        <ele>196</ele>
        <time>2014-06-01T07:28:13Z</time>
      </trkpt>
      <trkpt lat="48.68305" lon="6.221">
        <ele>196</ele>
        <time>2014-06-01T07:28:18Z</time>
      </trkpt>
      <trkpt lat="48.68292" lon="6.22065">
        <ele>196</ele>
        <time>2014-06-01T07:28:23Z</time>
      </trkpt>
      <trkpt lat="48.68281" lon="6.22032">
        <ele>196</ele>
        <time>2014-06-01T07:28:28Z</time>
      </trkpt>
      <trkpt lat="48.68268" lon="6.21997">
        <ele>196</ele>
        <time>2014-06-01T07:28:33Z</time>
      </trkpt>
      <trkpt lat="48.68257" lon="6.21958">
        <ele>196</ele>
        <time>2014-06-01T07:28:38Z</time>
      </trkpt>
      <trkpt lat="48.68242" lon="6.2192">
        <ele>196</ele>
        <time>2014-06-01T07:28:43Z</time>
      </trkpt>
      <trkpt lat="48.6823" lon="6.21883">
        <ele>196</ele>
        <time>2014-06-01T07:28:48Z</time>
      </trkpt>
      <trkpt lat="48.68221" lon="6.21845">
        <ele>196</ele>
        <time>2014-06-01T07:28:53Z</time>
      </trkpt>
      <trkpt lat="48.68211" lon="6.21811">
        <ele>194</ele>
        <time>2014-06-01T07:28:58Z</time>
      </trkpt>
      <trkpt lat="48.68196" lon="6.21777">
        <ele>194</ele>
        <time>2014-06-01T07:29:03Z</time>
      </trkpt>
      <trkpt lat="48.68183" lon="6.2174">
        <ele>194</ele>
        <time>2014-06-01T07:29:08Z</time>
      </trkpt>
      <trkpt lat="48.6817" lon="6.21703">
        <ele>194</ele>
        <time>2014-06-01T07:29:13Z</time>
      </trkpt>
      <trkpt lat="48.68159" lon="6.2167">
        <ele>194</ele>
        <time>2014-06-01T07:29:18Z</time>
      </trkpt>
      <trkpt lat="48.68152" lon="6.21638">
        <ele>194</ele>
        <time>2014-06-01T07:29:23Z</time>
      </trkpt>
      <trkpt lat="48.68147" lon="6.21624">
        <ele>193</ele>
        <time>2014-06-01T07:29:29Z</time>
      </trkpt>
      <trkpt lat="48.68145" lon="6.21604">
        <ele>188</ele>
        <time>2014-06-01T07:29:34Z</time>
      </trkpt>
      <trkpt lat="48.68133" lon="6.2157">
        <ele>188</ele>
        <time>2014-06-01T07:29:39Z</time>
      </trkpt>
      <trkpt lat="48.68119" lon="6.21533">
        <ele>188</ele>
        <time>2014-06-01T07:29:44Z</time>
      </trkpt>
      <trkpt lat="48.68105" lon="6.21496">
        <ele>188</ele>
        <time>2014-06-01T07:29:49Z</time>
      </trkpt>
      <trkpt lat="48.68092" lon="6.21465">
        <ele>188</ele>
        <time>2014-06-01T07:29:54Z</time>
      </trkpt>
      <trkpt lat="48.68079" lon="6.21433">
        <ele>188</ele>
        <time>2014-06-01T07:29:59Z</time>
      </trkpt>
      <trkpt lat="48.68065" lon="6.21399">
        <ele>188</ele>
        <time>2014-06-01T07:30:04Z</time>
      </trkpt>
      <trkpt lat="48.6805" lon="6.21367">
        <ele>188</ele>
        <time>2014-06-01T07:30:09Z</time>
      </trkpt>
      <trkpt lat="48.68035" lon="6.21334">
        <ele>188</ele>
        <time>2014-06-01T07:30:14Z</time>
      </trkpt>
      <trkpt lat="48.6802" lon="6.21302">
        <ele>188</ele>
        <time>2014-06-01T07:30:19Z</time>
      </trkpt>
      <trkpt lat="48.68004" lon="6.21269">
        <ele>189</ele>
        <time>2014-06-01T07:30:24Z</time>
      </trkpt>
      <trkpt lat="48.67987" lon="6.21235">
        <ele>190</ele>
        <time>2014-06-01T07:30:29Z</time>
      </trkpt>
      <trkpt lat="48.67969" lon="6.21199">
        <ele>190</ele>
        <time>2014-06-01T07:30:34Z</time>
      </trkpt>
      <trkpt lat="48.6795" lon="6.21164">
        <ele>191</ele>
        <time>2014-06-01T07:30:39Z</time>
      </trkpt>
      <trkpt lat="48.67932" lon="6.21129">
        <ele>191</ele>
        <time>2014-06-01T07:30:44Z</time>
      </trkpt>
      <trkpt lat="48.67914" lon="6.21096">
        <ele>191</ele>
        <time>2014-06-01T07:30:49Z</time>
      </trkpt>
      <trkpt lat="48.67894" lon="6.21062">
        <ele>192</ele>
        <time>2014-06-01T07:30:54Z</time>
      </trkpt>
      <trkpt lat="48.67876" lon="6.21026">
        <ele>192</ele>
        <time>2014-06-01T07:30:59Z</time>
      </trkpt>
      <trkpt lat="48.6786" lon="6.20994">
        <ele>192</ele>
        <time>2014-06-01T07:31:04Z</time>
      </trkpt>
      <trkpt lat="48.67845" lon="6.20963">
        <ele>192</ele>
        <time>2014-06-01T07:31:09Z</time>
      </trkpt>
      <trkpt lat="48.67827" lon="6.20929">
        <ele>192</ele>
        <time>2014-06-01T07:31:14Z</time>
      </trkpt>
      <trkpt lat="48.67809" lon="6.20894">
        <ele>192</ele>
        <time>2014-06-01T07:31:19Z</time>
      </trkpt>
      <trkpt lat="48.67793" lon="6.20862">
        <ele>192</ele>
        <time>2014-06-01T07:31:24Z</time>
      </trkpt>
      <trkpt lat="48.67778" lon="6.20833">
        <ele>192</ele>
        <time>2014-06-01T07:31:29Z</time>
      </trkpt>
      <trkpt lat="48.67759" lon="6.2081">
        <ele>192</ele>
        <time>2014-06-01T07:31:34Z</time>
      </trkpt>
      <trkpt lat="48.67736" lon="6.20789">
        <ele>192</ele>
        <time>2014-06-01T07:31:39Z</time>
      </trkpt>
      <trkpt lat="48.67714" lon="6.20779">
        <ele>192</ele>
        <time>2014-06-01T07:31:44Z</time>
      </trkpt>
      <trkpt lat="48.677" lon="6.20786">
        <ele>192</ele>
        <time>2014-06-01T07:31:49Z</time>
      </trkpt>
      <trkpt lat="48.67693" lon="6.20763">
        <ele>192</ele>
        <time>2014-06-01T07:31:54Z</time>
      </trkpt>
      <trkpt lat="48.67687" lon="6.20724">
        <ele>192</ele>
        <time>2014-06-01T07:31:59Z</time>
      </trkpt>
      <trkpt lat="48.6768" lon="6.20682">
        <ele>192</ele>
        <time>2014-06-01T07:32:04Z</time>
      </trkpt>
      <trkpt lat="48.67664" lon="6.20648">
        <ele>192</ele>
        <time>2014-06-01T07:32:09Z</time>
      </trkpt>
      <trkpt lat="48.67649" lon="6.20628">
        <ele>192</ele>
        <time>2014-06-01T07:32:14Z</time>
      </trkpt>
      <trkpt lat="48.67643" lon="6.20611">
        <ele>192</ele>
        <time>2014-06-01T07:32:19Z</time>
      </trkpt>
      <trkpt lat="48.6764" lon="6.20592">
        <ele>192</ele>
        <time>2014-06-01T07:32:24Z</time>
      </trkpt>
      <trkpt lat="48.67649" lon="6.20564">
        <ele>192</ele>
        <time>2014-06-01T07:32:29Z</time>
      </trkpt>
      <trkpt lat="48.67658" lon="6.2053">
        <ele>192</ele>
        <time>2014-06-01T07:32:34Z</time>
      </trkpt>
      <trkpt lat="48.67653" lon="6.20494">
        <ele>192</ele>
        <time>2014-06-01T07:32:39Z</time>
      </trkpt>
      <trkpt lat="48.67646" lon="6.20458">
        <ele>192</ele>
        <time>2014-06-01T07:32:44Z</time>
      </trkpt>
      <trkpt lat="48.6763" lon="6.20426">
        <ele>192</ele>
        <time>2014-06-01T07:32:49Z</time>
      </trkpt>
      <trkpt lat="48.67608" lon="6.20404">
        <ele>192</ele>
        <time>2014-06-01T07:32:54Z</time>
      </trkpt>
      <trkpt lat="48.6759" lon="6.20387">
        <ele>192</ele>
        <time>2014-06-01T07:32:59Z</time>
      </trkpt>
      <trkpt lat="48.67581" lon="6.20375">
        <ele>192</ele>
        <time>2014-06-01T07:33:05Z</time>
      </trkpt>
      <trkpt lat="48.67574" lon="6.20366">
        <ele>192</ele>
        <time>2014-06-01T07:33:10Z</time>
      </trkpt>
      <trkpt lat="48.67568" lon="6.20363">
        <ele>192</ele>
        <time>2014-06-01T07:33:16Z</time>
      </trkpt>
      <trkpt lat="48.67564" lon="6.20356">
        <ele>192</ele>
        <time>2014-06-01T07:33:21Z</time>
      </trkpt>
      <trkpt lat="48.67559" lon="6.20347">
        <ele>192</ele>
        <time>2014-06-01T07:33:26Z</time>
      </trkpt>
      <trkpt lat="48.67561" lon="6.20328">
        <ele>192</ele>
        <time>2014-06-01T07:33:31Z</time>
      </trkpt>
      <trkpt lat="48.67574" lon="6.20316">
        <ele>193</ele>
        <time>2014-06-01T07:33:36Z</time>
      </trkpt>
      <trkpt lat="48.67588" lon="6.20298">
        <ele>193</ele>
        <time>2014-06-01T07:33:41Z</time>
      </trkpt>
      <trkpt lat="48.67578" lon="6.20292">
        <ele>193</ele>
        <time>2014-06-01T07:33:46Z</time>
      </trkpt>
      <trkpt lat="48.67559" lon="6.20302">
        <ele>193</ele>
        <time>2014-06-01T07:33:51Z</time>
      </trkpt>
      <trkpt lat="48.67538" lon="6.20316">
        <ele>193</ele>
        <time>2014-06-01T07:33:56Z</time>
      </trkpt>
      <trkpt lat="48.67515" lon="6.20332">
        <ele>193</ele>
        <time>2014-06-01T07:34:01Z</time>
      </trkpt>
      <trkpt lat="48.67493" lon="6.20347">
        <ele>193</ele>
        <time>2014-06-01T07:34:06Z</time>
      </trkpt>
      <trkpt lat="48.67471" lon="6.20364">
        <ele>195</ele>
        <time>2014-06-01T07:34:11Z</time>
      </trkpt>
      <trkpt lat="48.67453" lon="6.20379">
        <ele>195</ele>
        <time>2014-06-01T07:34:16Z</time>
      </trkpt>
      <trkpt lat="48.67432" lon="6.20398">
        <ele>195</ele>
        <time>2014-06-01T07:34:21Z</time>
      </trkpt>
      <trkpt lat="48.67407" lon="6.2042">
        <ele>195</ele>
        <time>2014-06-01T07:34:26Z</time>
      </trkpt>
      <trkpt lat="48.67382" lon="6.20445">
        <ele>195</ele>
        <time>2014-06-01T07:34:31Z</time>
      </trkpt>
      <trkpt lat="48.67359" lon="6.20468">
        <ele>194</ele>
        <time>2014-06-01T07:34:36Z</time>
      </trkpt>
      <trkpt lat="48.67338" lon="6.20491">
        <ele>194</ele>
        <time>2014-06-01T07:34:41Z</time>
      </trkpt>
      <trkpt lat="48.67317" lon="6.20517">
        <ele>194</ele>
        <time>2014-06-01T07:34:46Z</time>
      </trkpt>
      <trkpt lat="48.67298" lon="6.20545">
        <ele>194</ele>
        <time>2014-06-01T07:34:51Z</time>
      </trkpt>
      <trkpt lat="48.67283" lon="6.20576">
        <ele>194</ele>
        <time>2014-06-01T07:34:56Z</time>
      </trkpt>
      <trkpt lat="48.67265" lon="6.20603">
        <ele>194</ele>
        <time>2014-06-01T07:35:01Z</time>
      </trkpt>
      <trkpt lat="48.67247" lon="6.20623">
        <ele>194</ele>
        <time>2014-06-01T07:35:06Z</time>
      </trkpt>
      <trkpt lat="48.67231" lon="6.20643">
        <ele>194</ele>
        <time>2014-06-01T07:35:11Z</time>
      </trkpt>
      <trkpt lat="48.67216" lon="6.20666">
        <ele>194</ele>
        <time>2014-06-01T07:35:16Z</time>
      </trkpt>
      <trkpt lat="48.67201" lon="6.20697">
        <ele>194</ele>
        <time>2014-06-01T07:35:21Z</time>
      </trkpt>
      <trkpt lat="48.67185" lon="6.20731">
        <ele>192</ele>
        <time>2014-06-01T07:35:26Z</time>
      </trkpt>
      <trkpt lat="48.67165" lon="6.20754">
        <ele>188</ele>
        <time>2014-06-01T07:35:31Z</time>
      </trkpt>
      <trkpt lat="48.67145" lon="6.20782">
        <ele>186</ele>
        <time>2014-06-01T07:35:36Z</time>
      </trkpt>
      <trkpt lat="48.67123" lon="6.20809">
        <ele>186</ele>
        <time>2014-06-01T07:35:41Z</time>
      </trkpt>
      <trkpt lat="48.67101" lon="6.20825">
        <ele>186</ele>
        <time>2014-06-01T07:35:46Z</time>
      </trkpt>
      <trkpt lat="48.67078" lon="6.20845">
        <ele>186</ele>
        <time>2014-06-01T07:35:51Z</time>
      </trkpt>
      <trkpt lat="48.67058" lon="6.20871">
        <ele>188</ele>
        <time>2014-06-01T07:35:56Z</time>
      </trkpt>
      <trkpt lat="48.67039" lon="6.20895">
        <ele>188</ele>
        <time>2014-06-01T07:36:01Z</time>
      </trkpt>
      <trkpt lat="48.67018" lon="6.20923">
        <ele>188</ele>
        <time>2014-06-01T07:36:06Z</time>
      </trkpt>
      <trkpt lat="48.66996" lon="6.2095">
        <ele>189</ele>
        <time>2014-06-01T07:36:11Z</time>
      </trkpt>
      <trkpt lat="48.66977" lon="6.2098">
        <ele>190</ele>
        <time>2014-06-01T07:36:16Z</time>
      </trkpt>
      <trkpt lat="48.66956" lon="6.21011">
        <ele>192</ele>
        <time>2014-06-01T07:36:21Z</time>
      </trkpt>
      <trkpt lat="48.66935" lon="6.21044">
        <ele>193</ele>
        <time>2014-06-01T07:36:26Z</time>
      </trkpt>
      <trkpt lat="48.66916" lon="6.21079">
        <ele>194</ele>
        <time>2014-06-01T07:36:31Z</time>
      </trkpt>
      <trkpt lat="48.66895" lon="6.21113">
        <ele>195</ele>
        <time>2014-06-01T07:36:36Z</time>
      </trkpt>
      <trkpt lat="48.66875" lon="6.21148">
        <ele>195</ele>
        <time>2014-06-01T07:36:41Z</time>
      </trkpt>
      <trkpt lat="48.66856" lon="6.21181">
        <ele>195</ele>
        <time>2014-06-01T07:36:46Z</time>
      </trkpt>
      <trkpt lat="48.6684" lon="6.21215">
        <ele>195</ele>
        <time>2014-06-01T07:36:51Z</time>
      </trkpt>
      <trkpt lat="48.66824" lon="6.2125">
        <ele>196</ele>
        <time>2014-06-01T07:36:56Z</time>
      </trkpt>
      <trkpt lat="48.66808" lon="6.21285">
        <ele>200</ele>
        <time>2014-06-01T07:37:01Z</time>
      </trkpt>
      <trkpt lat="48.66794" lon="6.21323">
        <ele>201</ele>
        <time>2014-06-01T07:37:06Z</time>
      </trkpt>
      <trkpt lat="48.66776" lon="6.21357">
        <ele>201</ele>
        <time>2014-06-01T07:37:11Z</time>
      </trkpt>
      <trkpt lat="48.66762" lon="6.21395">
        <ele>201</ele>
        <time>2014-06-01T07:37:16Z</time>
      </trkpt>
      <trkpt lat="48.66748" lon="6.21434">
        <ele>201</ele>
        <time>2014-06-01T07:37:21Z</time>
      </trkpt>
      <trkpt lat="48.66732" lon="6.21473">
        <ele>201</ele>
        <time>2014-06-01T07:37:26Z</time>
      </trkpt>
      <trkpt lat="48.66716" lon="6.21512">
        <ele>201</ele>
        <time>2014-06-01T07:37:31Z</time>
      </trkpt>
      <trkpt lat="48.66702" lon="6.21552">
        <ele>201</ele>
        <time>2014-06-01T07:37:36Z</time>
      </trkpt>
      <trkpt lat="48.66686" lon="6.21593">
        <ele>201</ele>
        <time>2014-06-01T07:37:41Z</time>
      </trkpt>
      <trkpt lat="48.66671" lon="6.21635">
        <ele>201</ele>
        <time>2014-06-01T07:37:46Z</time>
      </trkpt>
      <trkpt lat="48.66654" lon="6.21677">
        <ele>201</ele>
        <time>2014-06-01T07:37:51Z</time>
      </trkpt>
      <trkpt lat="48.6664" lon="6.2172">
        <ele>201</ele>
        <time>2014-06-01T07:37:56Z</time>
      </trkpt>
      <trkpt lat="48.66625" lon="6.21763">
        <ele>200</ele>
        <time>2014-06-01T07:38:01Z</time>
      </trkpt>
      <trkpt lat="48.6661" lon="6.21804">
        <ele>199</ele>
        <time>2014-06-01T07:38:06Z</time>
      </trkpt>
      <trkpt lat="48.66597" lon="6.21844">
        <ele>199</ele>
        <time>2014-06-01T07:38:11Z</time>
      </trkpt>
      <trkpt lat="48.66583" lon="6.21883">
        <ele>199</ele>
        <time>2014-06-01T07:38:16Z</time>
      </trkpt>
      <trkpt lat="48.66568" lon="6.21923">
        <ele>199</ele>
        <time>2014-06-01T07:38:21Z</time>
      </trkpt>
      <trkpt lat="48.66553" lon="6.21965">
        <ele>199</ele>
        <time>2014-06-01T07:38:26Z</time>
      </trkpt>
      <trkpt lat="48.66539" lon="6.22006">
        <ele>199</ele>
        <time>2014-06-01T07:38:31Z</time>
      </trkpt>
      <trkpt lat="48.66523" lon="6.22044">
        <ele>197</ele>
        <time>2014-06-01T07:38:36Z</time>
      </trkpt>
      <trkpt lat="48.66508" lon="6.22086">
        <ele>196</ele>
        <time>2014-06-01T07:38:41Z</time>
      </trkpt>
      <trkpt lat="48.66491" lon="6.22126">
        <ele>195</ele>
        <time>2014-06-01T07:38:46Z</time>
      </trkpt>
      <trkpt lat="48.66474" lon="6.22164">
        <ele>195</ele>
        <time>2014-06-01T07:38:51Z</time>
      </trkpt>
      <trkpt lat="48.66458" lon="6.22202">
        <ele>195</ele>
        <time>2014-06-01T07:38:56Z</time>
      </trkpt>
      <trkpt lat="48.66441" lon="6.2224">
        <ele>195</ele>
        <time>2014-06-01T07:39:01Z</time>
      </trkpt>
      <trkpt lat="48.66422" lon="6.22279">
        <ele>195</ele>
        <time>2014-06-01T07:39:06Z</time>
      </trkpt>
      <trkpt lat="48.66405" lon="6.22316">
        <ele>195</ele>
        <time>2014-06-01T07:39:11Z</time>
      </trkpt>
      <trkpt lat="48.66386" lon="6.22352">
        <ele>195</ele>
        <time>2014-06-01T07:39:16Z</time>
      </trkpt>
      <trkpt lat="48.66366" lon="6.2239">
        <ele>195</ele>
        <time>2014-06-01T07:39:21Z</time>
      </trkpt>
      <trkpt lat="48.66346" lon="6.22425">
        <ele>195</ele>
        <time>2014-06-01T07:39:26Z</time>
      </trkpt>
      <trkpt lat="48.66325" lon="6.22462">
        <ele>195</ele>
        <time>2014-06-01T07:39:31Z</time>
      </trkpt>
      <trkpt lat="48.66304" lon="6.225">
        <ele>195</ele>
        <time>2014-06-01T07:39:36Z</time>
      </trkpt>
      <trkpt lat="48.66286" lon="6.22536">
        <ele>195</ele>
        <time>2014-06-01T07:39:41Z</time>
      </trkpt>
      <trkpt lat="48.6627" lon="6.22572">
        <ele>195</ele>
        <time>2014-06-01T07:39:46Z</time>
      </trkpt>
      <trkpt lat="48.66253" lon="6.22608">
        <ele>196</ele>
        <time>2014-06-01T07:39:51Z</time>
      </trkpt>
      <trkpt lat="48.66232" lon="6.22647">
        <ele>197</ele>
        <time>2014-06-01T07:39:56Z</time>
      </trkpt>
      <trkpt lat="48.66212" lon="6.22683">
        <ele>197</ele>
        <time>2014-06-01T07:40:01Z</time>
      </trkpt>
      <trkpt lat="48.66192" lon="6.22718">
        <ele>197</ele>
        <time>2014-06-01T07:40:06Z</time>
      </trkpt>
      <trkpt lat="48.66177" lon="6.22753">
        <ele>197</ele>
        <time>2014-06-01T07:40:11Z</time>
      </trkpt>
      <trkpt lat="48.66159" lon="6.22787">
        <ele>197</ele>
        <time>2014-06-01T07:40:16Z</time>
      </trkpt>
      <trkpt lat="48.66138" lon="6.22818">
        <ele>198</ele>
        <time>2014-06-01T07:40:21Z</time>
      </trkpt>
      <trkpt lat="48.66119" lon="6.22852">
        <ele>198</ele>
        <time>2014-06-01T07:40:26Z</time>
      </trkpt>
      <trkpt lat="48.66102" lon="6.22884">
        <ele>198</ele>
        <time>2014-06-01T07:40:31Z</time>
      </trkpt>
      <trkpt lat="48.66084" lon="6.22919">
        <ele>198</ele>
        <time>2014-06-01T07:40:36Z</time>
      </trkpt>
      <trkpt lat="48.66067" lon="6.22953">
        <ele>198</ele>
        <time>2014-06-01T07:40:41Z</time>
      </trkpt>
      <trkpt lat="48.66048" lon="6.22983">
        <ele>197</ele>
        <time>2014-06-01T07:40:46Z</time>
      </trkpt>
      <trkpt lat="48.66029" lon="6.23018">
        <ele>196</ele>
        <time>2014-06-01T07:40:51Z</time>
      </trkpt>
      <trkpt lat="48.66013" lon="6.23054">
        <ele>196</ele>
        <time>2014-06-01T07:40:56Z</time>
      </trkpt>
      <trkpt lat="48.65996" lon="6.23086">
        <ele>196</ele>
        <time>2014-06-01T07:41:01Z</time>
      </trkpt>
      <trkpt lat="48.65982" lon="6.2312">
        <ele>196</ele>
        <time>2014-06-01T07:41:06Z</time>
      </trkpt>
      <trkpt lat="48.65985" lon="6.23158">
        <ele>196</ele>
        <time>2014-06-01T07:41:11Z</time>
      </trkpt>
      <trkpt lat="48.6598" lon="6.23198">
        <ele>195</ele>
        <time>2014-06-01T07:41:16Z</time>
      </trkpt>
      <trkpt lat="48.65963" lon="6.23232">
        <ele>195</ele>
        <time>2014-06-01T07:41:21Z</time>
      </trkpt>
      <trkpt lat="48.65949" lon="6.23266">
        <ele>194</ele>
        <time>2014-06-01T07:41:26Z</time>
      </trkpt>
      <trkpt lat="48.65938" lon="6.23263">
        <ele>194</ele>
        <time>2014-06-01T07:41:31Z</time>
      </trkpt>
      <trkpt lat="48.65952" lon="6.23246">
        <ele>194</ele>
        <time>2014-06-01T07:41:36Z</time>
      </trkpt>
      <trkpt lat="48.65966" lon="6.23228">
        <ele>194</ele>
        <time>2014-06-01T07:41:41Z</time>
      </trkpt>
      <trkpt lat="48.65974" lon="6.23205">
        <ele>195</ele>
        <time>2014-06-01T07:41:46Z</time>
      </trkpt>
      <trkpt lat="48.65971" lon="6.23173">
        <ele>196</ele>
        <time>2014-06-01T07:41:51Z</time>
      </trkpt>
      <trkpt lat="48.65961" lon="6.23145">
        <ele>197</ele>
        <time>2014-06-01T07:41:56Z</time>
      </trkpt>
      <trkpt lat="48.6595" lon="6.23115">
        <ele>197</ele>
        <time>2014-06-01T07:42:01Z</time>
      </trkpt>
      <trkpt lat="48.65937" lon="6.23087">
        <ele>197</ele>
        <time>2014-06-01T07:42:06Z</time>
      </trkpt>
      <trkpt lat="48.65942" lon="6.23079">
        <ele>197</ele>
        <time>2014-06-01T07:42:12Z</time>
      </trkpt>
      <trkpt lat="48.65954" lon="6.2307">
        <ele>197</ele>
        <time>2014-06-01T07:42:17Z</time>
      </trkpt>
      <trkpt lat="48.65953" lon="6.23041">
        <ele>194</ele>
        <time>2014-06-01T07:42:22Z</time>
      </trkpt>
      <trkpt lat="48.65937" lon="6.23014">
        <ele>194</ele>
        <time>2014-06-01T07:42:27Z</time>
      </trkpt>
      <trkpt lat="48.65916" lon="6.22993">
        <ele>194</ele>
        <time>2014-06-01T07:42:32Z</time>
      </trkpt>
      <trkpt lat="48.65892" lon="6.22973">
        <ele>194</ele>
        <time>2014-06-01T07:42:37Z</time>
      </trkpt>
      <trkpt lat="48.6587" lon="6.2296">
        <ele>194</ele>
        <time>2014-06-01T07:42:42Z</time>
      </trkpt>
      <trkpt lat="48.65869" lon="6.22944">
        <ele>194</ele>
        <time>2014-06-01T07:42:47Z</time>
      </trkpt>
      <trkpt lat="48.65876" lon="6.22924">
        <ele>194</ele>
        <time>2014-06-01T07:42:52Z</time>
      </trkpt>
      <trkpt lat="48.65868" lon="6.22904">
        <ele>194</ele>
        <time>2014-06-01T07:42:57Z</time>
      </trkpt>
      <trkpt lat="48.65857" lon="6.2289">
        <ele>194</ele>
        <time>2014-06-01T07:43:02Z</time>
      </trkpt>
      <trkpt lat="48.65852" lon="6.22879">
        <ele>194</ele>
        <time>2014-06-01T07:43:07Z</time>
      </trkpt>
      <trkpt lat="48.6585" lon="6.22867">
        <ele>192</ele>
        <time>2014-06-01T07:43:15Z</time>
      </trkpt>
      <trkpt lat="48.65855" lon="6.22863">
        <ele>193</ele>
        <time>2014-06-01T07:43:22Z</time>
      </trkpt>
      <trkpt lat="48.65851" lon="6.2288">
        <ele>196</ele>
        <time>2014-06-01T07:43:32Z</time>
      </trkpt>
      <trkpt lat="48.65847" lon="6.22873">
        <ele>203</ele>
        <time>2014-06-01T07:43:37Z</time>
      </trkpt>
      <trkpt lat="48.65848" lon="6.22878">
        <ele>203</ele>
        <time>2014-06-01T07:43:42Z</time>
      </trkpt>
      <trkpt lat="48.65855" lon="6.22889">
        <ele>203</ele>
        <time>2014-06-01T07:43:47Z</time>
      </trkpt>
      <trkpt lat="48.65859" lon="6.22899">
        <ele>203</ele>
        <time>2014-06-01T07:43:52Z</time>
      </trkpt>
      <trkpt lat="48.6586" lon="6.22909">
        <ele>203</ele>
        <time>2014-06-01T07:43:57Z</time>
      </trkpt>
      <trkpt lat="48.65861" lon="6.22918">
        <ele>203</ele>
        <time>2014-06-01T07:44:04Z</time>
      </trkpt>
      <trkpt lat="48.65861" lon="6.22922">
        <ele>201</ele>
        <time>2014-06-01T07:44:09Z</time>
      </trkpt>
      <trkpt lat="48.6586" lon="6.22924">
        <ele>199</ele>
        <time>2014-06-01T07:44:14Z</time>
      </trkpt>
      <trkpt lat="48.65855" lon="6.22937">
        <ele>195</ele>
        <time>2014-06-01T07:44:19Z</time>
      </trkpt>
      <trkpt lat="48.6585" lon="6.22955">
        <ele>194</ele>
        <time>2014-06-01T07:44:24Z</time>
      </trkpt>
      <trkpt lat="48.65842" lon="6.22977">
        <ele>193</ele>
        <time>2014-06-01T07:44:29Z</time>
      </trkpt>
      <trkpt lat="48.65833" lon="6.23002">
        <ele>193</ele>
        <time>2014-06-01T07:44:34Z</time>
      </trkpt>
      <trkpt lat="48.65823" lon="6.23018">
        <ele>197</ele>
        <time>2014-06-01T07:44:39Z</time>
      </trkpt>
      <trkpt lat="48.6581" lon="6.23028">
        <ele>199</ele>
        <time>2014-06-01T07:44:44Z</time>
      </trkpt>
      <trkpt lat="48.65802" lon="6.23037">
        <ele>205</ele>
        <time>2014-06-01T07:44:53Z</time>
      </trkpt>
      <trkpt lat="48.65798" lon="6.2304">
        <ele>207</ele>
        <time>2014-06-01T07:44:59Z</time>
      </trkpt>
      <trkpt lat="48.65786" lon="6.23043">
        <ele>210</ele>
        <time>2014-06-01T07:45:04Z</time>
      </trkpt>
      <trkpt lat="48.65767" lon="6.23051">
        <ele>210</ele>
        <time>2014-06-01T07:45:09Z</time>
      </trkpt>
      <trkpt lat="48.65747" lon="6.23061">
        <ele>210</ele>
        <time>2014-06-01T07:45:14Z</time>
      </trkpt>
      <trkpt lat="48.65726" lon="6.23072">
        <ele>210</ele>
        <time>2014-06-01T07:45:19Z</time>
      </trkpt>
      <trkpt lat="48.65705" lon="6.23083">
        <ele>210</ele>
        <time>2014-06-01T07:45:24Z</time>
      </trkpt>
      <trkpt lat="48.65682" lon="6.23095">
        <ele>210</ele>
        <time>2014-06-01T07:45:30Z</time>
      </trkpt>
      <trkpt lat="48.65658" lon="6.23109">
        <ele>210</ele>
        <time>2014-06-01T07:45:36Z</time>
      </trkpt>
      <trkpt lat="48.65639" lon="6.2312">
        <ele>214</ele>
        <time>2014-06-01T07:45:42Z</time>
      </trkpt>
      <trkpt lat="48.6563" lon="6.23129">
        <ele>216</ele>
        <time>2014-06-01T07:45:47Z</time>
      </trkpt>
      <trkpt lat="48.65618" lon="6.23139">
        <ele>217</ele>
        <time>2014-06-01T07:45:52Z</time>
      </trkpt>
      <trkpt lat="48.65606" lon="6.23152">
        <ele>217</ele>
        <time>2014-06-01T07:45:57Z</time>
      </trkpt>
      <trkpt lat="48.6559" lon="6.23167">
        <ele>217</ele>
        <time>2014-06-01T07:46:02Z</time>
      </trkpt>
      <trkpt lat="48.65569" lon="6.23183">
        <ele>217</ele>
        <time>2014-06-01T07:46:08Z</time>
      </trkpt>
      <trkpt lat="48.65559" lon="6.23189">
        <ele>217</ele>
        <time>2014-06-01T07:46:13Z</time>
      </trkpt>
      <trkpt lat="48.65551" lon="6.23193">
        <ele>217</ele>
        <time>2014-06-01T07:46:18Z</time>
      </trkpt>
      <trkpt lat="48.65545" lon="6.23195">
        <ele>217</ele>
        <time>2014-06-01T07:46:24Z</time>
      </trkpt>
      <trkpt lat="48.65542" lon="6.23198">
        <ele>219</ele>
        <time>2014-06-01T07:46:31Z</time>
      </trkpt>
      <trkpt lat="48.65535" lon="6.23203">
        <ele>221</ele>
        <time>2014-06-01T07:46:37Z</time>
      </trkpt>
      <trkpt lat="48.65522" lon="6.23209">
        <ele>222</ele>
        <time>2014-06-01T07:46:42Z</time>
      </trkpt>
      <trkpt lat="48.65504" lon="6.23217">
        <ele>222</ele>
        <time>2014-06-01T07:46:47Z</time>
      </trkpt>
      <trkpt lat="48.65481" lon="6.23228">
        <ele>222</ele>
        <time>2014-06-01T07:46:53Z</time>
      </trkpt>
      <trkpt lat="48.65457" lon="6.23237">
        <ele>222</ele>
        <time>2014-06-01T07:46:59Z</time>
      </trkpt>
      <trkpt lat="48.65433" lon="6.23248">
        <ele>222</ele>
        <time>2014-06-01T07:47:04Z</time>
      </trkpt>
      <trkpt lat="48.65407" lon="6.2326">
        <ele>222</ele>
        <time>2014-06-01T07:47:09Z</time>
      </trkpt>
      <trkpt lat="48.65382" lon="6.23273">
        <ele>222</ele>
        <time>2014-06-01T07:47:14Z</time>
      </trkpt>
      <trkpt lat="48.65356" lon="6.23287">
        <ele>222</ele>
        <time>2014-06-01T07:47:19Z</time>
      </trkpt>
      <trkpt lat="48.65333" lon="6.23301">
        <ele>222</ele>
        <time>2014-06-01T07:47:24Z</time>
      </trkpt>
      <trkpt lat="48.65311" lon="6.23318">
        <ele>222</ele>
        <time>2014-06-01T07:47:29Z</time>
      </trkpt>
      <trkpt lat="48.65291" lon="6.23338">
        <ele>222</ele>
        <time>2014-06-01T07:47:34Z</time>
      </trkpt>
      <trkpt lat="48.65268" lon="6.2336">
        <ele>222</ele>
        <time>2014-06-01T07:47:39Z</time>
      </trkpt>
      <trkpt lat="48.65245" lon="6.23384">
        <ele>220</ele>
        <time>2014-06-01T07:47:44Z</time>
      </trkpt>
      <trkpt lat="48.65224" lon="6.23405">
        <ele>218</ele>
        <time>2014-06-01T07:47:49Z</time>
      </trkpt>
      <trkpt lat="48.65205" lon="6.23434">
        <ele>218</ele>
        <time>2014-06-01T07:47:54Z</time>
      </trkpt>
      <trkpt lat="48.65185" lon="6.23466">
        <ele>217</ele>
        <time>2014-06-01T07:47:59Z</time>
      </trkpt>
      <trkpt lat="48.65166" lon="6.23499">
        <ele>217</ele>
        <time>2014-06-01T07:48:04Z</time>
      </trkpt>
      <trkpt lat="48.65149" lon="6.23531">
        <ele>217</ele>
        <time>2014-06-01T07:48:09Z</time>
      </trkpt>
      <trkpt lat="48.65131" lon="6.23564">
        <ele>217</ele>
        <time>2014-06-01T07:48:14Z</time>
      </trkpt>
      <trkpt lat="48.65113" lon="6.23597">
        <ele>217</ele>
        <time>2014-06-01T07:48:19Z</time>
      </trkpt>
      <trkpt lat="48.65095" lon="6.2363">
        <ele>217</ele>
        <time>2014-06-01T07:48:24Z</time>
      </trkpt>
      <trkpt lat="48.65076" lon="6.23662">
        <ele>217</ele>
        <time>2014-06-01T07:48:29Z</time>
      </trkpt>
      <trkpt lat="48.65058" lon="6.23695">
        <ele>217</ele>
        <time>2014-06-01T07:48:34Z</time>
      </trkpt>
      <trkpt lat="48.65041" lon="6.23729">
        <ele>217</ele>
        <time>2014-06-01T07:48:39Z</time>
      </trkpt>
      <trkpt lat="48.65022" lon="6.23763">
        <ele>217</ele>
        <time>2014-06-01T07:48:44Z</time>
      </trkpt>
      <trkpt lat="48.65004" lon="6.23796">
        <ele>217</ele>
        <time>2014-06-01T07:48:49Z</time>
      </trkpt>
      <trkpt lat="48.64983" lon="6.23835">
        <ele>217</ele>
        <time>2014-06-01T07:48:54Z</time>
      </trkpt>
      <trkpt lat="48.64963" lon="6.2387">
        <ele>217</ele>
        <time>2014-06-01T07:48:59Z</time>
      </trkpt>
      <trkpt lat="48.64943" lon="6.23906">
        <ele>217</ele>
        <time>2014-06-01T07:49:04Z</time>
      </trkpt>
      <trkpt lat="48.64923" lon="6.23943">
        <ele>217</ele>
        <time>2014-06-01T07:49:09Z</time>
      </trkpt>
      <trkpt lat="48.64904" lon="6.23978">
        <ele>217</ele>
        <time>2014-06-01T07:49:15Z</time>
      </trkpt>
      <trkpt lat="48.64883" lon="6.24016">
        <ele>217</ele>
        <time>2014-06-01T07:49:20Z</time>
      </trkpt>
      <trkpt lat="48.64867" lon="6.24045">
        <ele>217</ele>
        <time>2014-06-01T07:49:25Z</time>
      </trkpt>
      <trkpt lat="48.64852" lon="6.24072">
        <ele>217</ele>
        <time>2014-06-01T07:49:30Z</time>
      </trkpt>
      <trkpt lat="48.64835" lon="6.24099">
        <ele>217</ele>
        <time>2014-06-01T07:49:35Z</time>
      </trkpt>
      <trkpt lat="48.64812" lon="6.2412">
        <ele>217</ele>
        <time>2014-06-01T07:49:40Z</time>
      </trkpt>
      <trkpt lat="48.64787" lon="6.24134">
        <ele>215</ele>
        <time>2014-06-01T07:49:45Z</time>
      </trkpt>
      <trkpt lat="48.64778" lon="6.24178">
        <ele>212</ele>
        <time>2014-06-01T07:49:50Z</time>
      </trkpt>
      <trkpt lat="48.6476" lon="6.24228">
        <ele>209</ele>
        <time>2014-06-01T07:49:55Z</time>
      </trkpt>
      <trkpt lat="48.64735" lon="6.24275">
        <ele>209</ele>
        <time>2014-06-01T07:50:00Z</time>
      </trkpt>
      <trkpt lat="48.64709" lon="6.24321">
        <ele>209</ele>
        <time>2014-06-01T07:50:05Z</time>
      </trkpt>
      <trkpt lat="48.64689" lon="6.24364">
        <ele>208</ele>
        <time>2014-06-01T07:50:10Z</time>
      </trkpt>
      <trkpt lat="48.64674" lon="6.24408">
        <ele>205</ele>
        <time>2014-06-01T07:50:15Z</time>
      </trkpt>
      <trkpt lat="48.64658" lon="6.24453">
        <ele>205</ele>
        <time>2014-06-01T07:50:20Z</time>
      </trkpt>
      <trkpt lat="48.64646" lon="6.245">
        <ele>205</ele>
        <time>2014-06-01T07:50:25Z</time>
      </trkpt>
      <trkpt lat="48.64636" lon="6.24541">
        <ele>205</ele>
        <time>2014-06-01T07:50:30Z</time>
      </trkpt>
      <trkpt lat="48.64623" lon="6.24584">
        <ele>203</ele>
        <time>2014-06-01T07:50:35Z</time>
      </trkpt>
      <trkpt lat="48.64609" lon="6.24623">
        <ele>199</ele>
        <time>2014-06-01T07:50:40Z</time>
      </trkpt>
      <trkpt lat="48.64594" lon="6.24659">
        <ele>198</ele>
        <time>2014-06-01T07:50:45Z</time>
      </trkpt>
      <trkpt lat="48.64576" lon="6.24692">
        <ele>198</ele>
        <time>2014-06-01T07:50:51Z</time>
      </trkpt>
      <trkpt lat="48.6455" lon="6.24738">
        <ele>197</ele>
        <time>2014-06-01T07:50:56Z</time>
      </trkpt>
      <trkpt lat="48.64528" lon="6.24779">
        <ele>197</ele>
        <time>2014-06-01T07:51:01Z</time>
      </trkpt>
      <trkpt lat="48.64508" lon="6.24816">
        <ele>197</ele>
        <time>2014-06-01T07:51:06Z</time>
      </trkpt>
      <trkpt lat="48.64489" lon="6.24853">
        <ele>198</ele>
        <time>2014-06-01T07:51:11Z</time>
      </trkpt>
      <trkpt lat="48.64473" lon="6.2489">
        <ele>198</ele>
        <time>2014-06-01T07:51:16Z</time>
      </trkpt>
      <trkpt lat="48.6446" lon="6.24928">
        <ele>198</ele>
        <time>2014-06-01T07:51:21Z</time>
      </trkpt>
      <trkpt lat="48.64445" lon="6.24965">
        <ele>198</ele>
        <time>2014-06-01T07:51:26Z</time>
      </trkpt>
      <trkpt lat="48.64432" lon="6.25004">
        <ele>198</ele>
        <time>2014-06-01T07:51:31Z</time>
      </trkpt>
      <trkpt lat="48.6442" lon="6.25045">
        <ele>198</ele>
        <time>2014-06-01T07:51:36Z</time>
      </trkpt>
      <trkpt lat="48.64408" lon="6.25082">
        <ele>198</ele>
        <time>2014-06-01T07:51:41Z</time>
      </trkpt>
      <trkpt lat="48.64397" lon="6.25118">
        <ele>198</ele>
        <time>2014-06-01T07:51:46Z</time>
      </trkpt>
      <trkpt lat="48.64386" lon="6.25151">
        <ele>198</ele>
        <time>2014-06-01T07:51:51Z</time>
      </trkpt>
      <trkpt lat="48.64376" lon="6.25188">
        <ele>198</ele>
        <time>2014-06-01T07:51:56Z</time>
      </trkpt>
      <trkpt lat="48.64362" lon="6.25222">
        <ele>197</ele>
        <time>2014-06-01T07:52:01Z</time>
      </trkpt>
      <trkpt lat="48.64344" lon="6.25253">
        <ele>195</ele>
        <time>2014-06-01T07:52:06Z</time>
      </trkpt>
      <trkpt lat="48.64331" lon="6.25282">
        <ele>195</ele>
        <time>2014-06-01T07:52:11Z</time>
      </trkpt>
      <trkpt lat="48.64331" lon="6.25305">
        <ele>195</ele>
        <time>2014-06-01T07:52:16Z</time>
      </trkpt>
      <trkpt lat="48.64325" lon="6.25328">
        <ele>195</ele>
        <time>2014-06-01T07:52:21Z</time>
      </trkpt>
      <trkpt lat="48.64331" lon="6.25358">
        <ele>195</ele>
        <time>2014-06-01T07:52:26Z</time>
      </trkpt>
      <trkpt lat="48.64328" lon="6.25392">
        <ele>195</ele>
        <time>2014-06-01T07:52:31Z</time>
      </trkpt>
      <trkpt lat="48.6432" lon="6.2543">
        <ele>195</ele>
        <time>2014-06-01T07:52:36Z</time>
      </trkpt>
      <trkpt lat="48.64312" lon="6.25471">
        <ele>195</ele>
        <time>2014-06-01T07:52:41Z</time>
      </trkpt>
      <trkpt lat="48.64304" lon="6.25514">
        <ele>195</ele>
        <time>2014-06-01T07:52:46Z</time>
      </trkpt>
      <trkpt lat="48.64296" lon="6.25557">
        <ele>195</ele>
        <time>2014-06-01T07:52:51Z</time>
      </trkpt>
      <trkpt lat="48.64289" lon="6.25598">
        <ele>196</ele>
        <time>2014-06-01T07:52:56Z</time>
      </trkpt>
      <trkpt lat="48.6428" lon="6.25639">
        <ele>196</ele>
        <time>2014-06-01T07:53:01Z</time>
      </trkpt>
      <trkpt lat="48.64272" lon="6.25684">
        <ele>196</ele>
        <time>2014-06-01T07:53:06Z</time>
      </trkpt>
      <trkpt lat="48.64262" lon="6.25727">
        <ele>198</ele>
        <time>2014-06-01T07:53:11Z</time>
      </trkpt>
      <trkpt lat="48.64253" lon="6.25768">
        <ele>198</ele>
        <time>2014-06-01T07:53:16Z</time>
      </trkpt>
      <trkpt lat="48.64244" lon="6.2581">
        <ele>198</ele>
        <time>2014-06-01T07:53:21Z</time>
      </trkpt>
      <trkpt lat="48.64235" lon="6.25852">
        <ele>198</ele>
        <time>2014-06-01T07:53:26Z</time>
      </trkpt>
      <trkpt lat="48.64227" lon="6.25893">
        <ele>198</ele>
        <time>2014-06-01T07:53:31Z</time>
      </trkpt>
      <trkpt lat="48.6422" lon="6.25934">
        <ele>200</ele>
        <time>2014-06-01T07:53:36Z</time>
      </trkpt>
      <trkpt lat="48.64212" lon="6.25973">
        <ele>201</ele>
        <time>2014-06-01T07:53:41Z</time>
      </trkpt>
      <trkpt lat="48.64204" lon="6.26014">
        <ele>201</ele>
        <time>2014-06-01T07:53:46Z</time>
      </trkpt>
      <trkpt lat="48.64197" lon="6.26055">
        <ele>201</ele>
        <time>2014-06-01T07:53:51Z</time>
      </trkpt>
      <trkpt lat="48.6419" lon="6.26097">
        <ele>201</ele>
        <time>2014-06-01T07:53:56Z</time>
      </trkpt>
      <trkpt lat="48.64182" lon="6.26139">
        <ele>202</ele>
        <time>2014-06-01T07:54:01Z</time>
      </trkpt>
      <trkpt lat="48.64175" lon="6.26179">
        <ele>203</ele>
        <time>2014-06-01T07:54:06Z</time>
      </trkpt>
      <trkpt lat="48.64169" lon="6.26216">
        <ele>203</ele>
        <time>2014-06-01T07:54:11Z</time>
      </trkpt>
      <trkpt lat="48.64162" lon="6.26254">
        <ele>203</ele>
        <time>2014-06-01T07:54:16Z</time>
      </trkpt>
      <trkpt lat="48.64156" lon="6.26293">
        <ele>203</ele>
        <time>2014-06-01T07:54:21Z</time>
      </trkpt>
      <trkpt lat="48.64149" lon="6.26332">
        <ele>203</ele>
        <time>2014-06-01T07:54:26Z</time>
      </trkpt>
      <trkpt lat="48.64142" lon="6.2637">
        <ele>203</ele>
        <time>2014-06-01T07:54:31Z</time>
      </trkpt>
      <trkpt lat="48.64135" lon="6.26404">
        <ele>203</ele>
        <time>2014-06-01T07:54:36Z</time>
      </trkpt>
      <trkpt lat="48.64129" lon="6.26438">
        <ele>203</ele>
        <time>2014-06-01T07:54:41Z</time>
      </trkpt>
      <trkpt lat="48.64123" lon="6.26475">
        <ele>203</ele>
        <time>2014-06-01T07:54:46Z</time>
      </trkpt>
      <trkpt lat="48.64117" lon="6.26511">
        <ele>203</ele>
        <time>2014-06-01T07:54:51Z</time>
      </trkpt>
      <trkpt lat="48.64111" lon="6.26544">
        <ele>203</ele>
        <time>2014-06-01T07:54:56Z</time>
      </trkpt>
      <trkpt lat="48.64106" lon="6.26576">
        <ele>203</ele>
        <time>2014-06-01T07:55:01Z</time>
      </trkpt>
      <trkpt lat="48.64101" lon="6.26608">
        <ele>203</ele>
        <time>2014-06-01T07:55:06Z</time>
      </trkpt>
      <trkpt lat="48.64097" lon="6.26645">
        <ele>203</ele>
        <time>2014-06-01T07:55:11Z</time>
      </trkpt>
      <trkpt lat="48.6409" lon="6.26686">
        <ele>206</ele>
        <time>2014-06-01T07:55:16Z</time>
      </trkpt>
      <trkpt lat="48.64081" lon="6.26729">
        <ele>206</ele>
        <time>2014-06-01T07:55:21Z</time>
      </trkpt>
      <trkpt lat="48.64073" lon="6.26769">
        <ele>206</ele>
        <time>2014-06-01T07:55:26Z</time>
      </trkpt>
      <trkpt lat="48.64065" lon="6.26808">
        <ele>206</ele>
        <time>2014-06-01T07:55:31Z</time>
      </trkpt>
      <trkpt lat="48.64058" lon="6.26848">
        <ele>206</ele>
        <time>2014-06-01T07:55:36Z</time>
      </trkpt>
      <trkpt lat="48.6405" lon="6.26888">
        <ele>207</ele>
        <time>2014-06-01T07:55:41Z</time>
      </trkpt>
      <trkpt lat="48.64043" lon="6.26928">
        <ele>208</ele>
        <time>2014-06-01T07:55:46Z</time>
      </trkpt>
      <trkpt lat="48.64035" lon="6.26968">
        <ele>208</ele>
        <time>2014-06-01T07:55:51Z</time>
      </trkpt>
      <trkpt lat="48.64027" lon="6.27009">
        <ele>208</ele>
        <time>2014-06-01T07:55:56Z</time>
      </trkpt>
      <trkpt lat="48.6402" lon="6.27051">
        <ele>208</ele>
        <time>2014-06-01T07:56:01Z</time>
      </trkpt>
      <trkpt lat="48.64013" lon="6.2709">
        <ele>209</ele>
        <time>2014-06-01T07:56:06Z</time>
      </trkpt>
      <trkpt lat="48.64004" lon="6.2713">
        <ele>209</ele>
        <time>2014-06-01T07:56:11Z</time>
      </trkpt>
      <trkpt lat="48.63992" lon="6.27171">
        <ele>209</ele>
        <time>2014-06-01T07:56:16Z</time>
      </trkpt>
      <trkpt lat="48.63982" lon="6.2721">
        <ele>210</ele>
        <time>2014-06-01T07:56:21Z</time>
      </trkpt>
      <trkpt lat="48.63971" lon="6.27248">
        <ele>212</ele>
        <time>2014-06-01T07:56:26Z</time>
      </trkpt>
      <trkpt lat="48.63959" lon="6.27286">
        <ele>214</ele>
        <time>2014-06-01T07:56:31Z</time>
      </trkpt>
      <trkpt lat="48.63949" lon="6.27318">
        <ele>216</ele>
        <time>2014-06-01T07:56:36Z</time>
      </trkpt>
      <trkpt lat="48.63936" lon="6.27351">
        <ele>216</ele>
        <time>2014-06-01T07:56:41Z</time>
      </trkpt>
      <trkpt lat="48.6392" lon="6.27382">
        <ele>216</ele>
        <time>2014-06-01T07:56:46Z</time>
      </trkpt>
      <trkpt lat="48.63905" lon="6.27415">
        <ele>213</ele>
        <time>2014-06-01T07:56:51Z</time>
      </trkpt>
      <trkpt lat="48.63892" lon="6.27446">
        <ele>209</ele>
        <time>2014-06-01T07:56:56Z</time>
      </trkpt>
      <trkpt lat="48.63877" lon="6.27478">
        <ele>207</ele>
        <time>2014-06-01T07:57:01Z</time>
      </trkpt>
      <trkpt lat="48.63863" lon="6.27511">
        <ele>204</ele>
        <time>2014-06-01T07:57:06Z</time>
      </trkpt>
      <trkpt lat="48.63849" lon="6.27543">
        <ele>202</ele>
        <time>2014-06-01T07:57:11Z</time>
      </trkpt>
      <trkpt lat="48.63835" lon="6.27576">
        <ele>201</ele>
        <time>2014-06-01T07:57:16Z</time>
      </trkpt>
      <trkpt lat="48.63821" lon="6.27611">
        <ele>201</ele>
        <time>2014-06-01T07:57:21Z</time>
      </trkpt>
      <trkpt lat="48.63807" lon="6.27644">
        <ele>201</ele>
        <time>2014-06-01T07:57:26Z</time>
      </trkpt>
      <trkpt lat="48.63792" lon="6.27678">
        <ele>201</ele>
        <time>2014-06-01T07:57:31Z</time>
      </trkpt>
      <trkpt lat="48.63778" lon="6.27712">
        <ele>201</ele>
        <time>2014-06-01T07:57:36Z</time>
      </trkpt>
      <trkpt lat="48.63764" lon="6.27745">
        <ele>201</ele>
        <time>2014-06-01T07:57:41Z</time>
      </trkpt>
      <trkpt lat="48.63751" lon="6.27778">
        <ele>201</ele>
        <time>2014-06-01T07:57:46Z</time>
      </trkpt>
      <trkpt lat="48.63739" lon="6.27811">
        <ele>203</ele>
        <time>2014-06-01T07:57:51Z</time>
      </trkpt>
      <trkpt lat="48.63729" lon="6.27848">
        <ele>207</ele>
        <time>2014-06-01T07:57:56Z</time>
      </trkpt>
      <trkpt lat="48.63719" lon="6.27882">
        <ele>209</ele>
        <time>2014-06-01T07:58:01Z</time>
      </trkpt>
      <trkpt lat="48.63709" lon="6.27923">
        <ele>209</ele>
        <time>2014-06-01T07:58:06Z</time>
      </trkpt>
      <trkpt lat="48.63697" lon="6.27965">
        <ele>209</ele>
        <time>2014-06-01T07:58:11Z</time>
      </trkpt>
      <trkpt lat="48.63685" lon="6.28011">
        <ele>209</ele>
        <time>2014-06-01T07:58:16Z</time>
      </trkpt>
      <trkpt lat="48.63673" lon="6.28062">
        <ele>209</ele>
        <time>2014-06-01T07:58:21Z</time>
      </trkpt>
      <trkpt lat="48.6366" lon="6.28115">
        <ele>209</ele>
        <time>2014-06-01T07:58:26Z</time>
      </trkpt>
      <trkpt lat="48.63645" lon="6.28171">
        <ele>209</ele>
        <time>2014-06-01T07:58:31Z</time>
      </trkpt>
      <trkpt lat="48.6363" lon="6.2823">
        <ele>209</ele>
        <time>2014-06-01T07:58:36Z</time>
      </trkpt>
      <trkpt lat="48.63614" lon="6.28293">
        <ele>209</ele>
        <time>2014-06-01T07:58:41Z</time>
      </trkpt>
      <trkpt lat="48.63597" lon="6.28357">
        <ele>209</ele>
        <time>2014-06-01T07:58:46Z</time>
      </trkpt>
      <trkpt lat="48.63583" lon="6.2842">
        <ele>209</ele>
        <time>2014-06-01T07:58:51Z</time>
      </trkpt>
      <trkpt lat="48.63575" lon="6.28483">
        <ele>207</ele>
        <time>2014-06-01T07:58:56Z</time>
      </trkpt>
      <trkpt lat="48.6357" lon="6.28544">
        <ele>206</ele>
        <time>2014-06-01T07:59:01Z</time>
      </trkpt>
      <trkpt lat="48.6357" lon="6.28598">
        <ele>206</ele>
        <time>2014-06-01T07:59:06Z</time>
      </trkpt>
      <trkpt lat="48.63568" lon="6.28643">
        <ele>206</ele>
        <time>2014-06-01T07:59:11Z</time>
      </trkpt>
      <trkpt lat="48.63563" lon="6.28684">
        <ele>206</ele>
        <time>2014-06-01T07:59:16Z</time>
      </trkpt>
      <trkpt lat="48.63556" lon="6.28722">
        <ele>206</ele>
        <time>2014-06-01T07:59:21Z</time>
      </trkpt>
      <trkpt lat="48.63548" lon="6.28759">
        <ele>206</ele>
        <time>2014-06-01T07:59:26Z</time>
      </trkpt>
      <trkpt lat="48.63535" lon="6.28795">
        <ele>206</ele>
        <time>2014-06-01T07:59:31Z</time>
      </trkpt>
      <trkpt lat="48.6352" lon="6.28828">
        <ele>206</ele>
        <time>2014-06-01T07:59:36Z</time>
      </trkpt>
      <trkpt lat="48.63505" lon="6.28859">
        <ele>206</ele>
        <time>2014-06-01T07:59:41Z</time>
      </trkpt>
      <trkpt lat="48.6349" lon="6.28891">
        <ele>206</ele>
        <time>2014-06-01T07:59:46Z</time>
      </trkpt>
      <trkpt lat="48.63476" lon="6.28925">
        <ele>207</ele>
        <time>2014-06-01T07:59:51Z</time>
      </trkpt>
      <trkpt lat="48.63465" lon="6.28958">
        <ele>207</ele>
        <time>2014-06-01T07:59:56Z</time>
      </trkpt>
      <trkpt lat="48.63457" lon="6.28991">
        <ele>208</ele>
        <time>2014-06-01T08:00:01Z</time>
      </trkpt>
      <trkpt lat="48.6345" lon="6.29022">
        <ele>208</ele>
        <time>2014-06-01T08:00:06Z</time>
      </trkpt>
      <trkpt lat="48.63445" lon="6.29054">
        <ele>208</ele>
        <time>2014-06-01T08:00:11Z</time>
      </trkpt>
      <trkpt lat="48.63442" lon="6.29092">
        <ele>208</ele>
        <time>2014-06-01T08:00:16Z</time>
      </trkpt>
      <trkpt lat="48.63443" lon="6.29138">
        <ele>208</ele>
        <time>2014-06-01T08:00:21Z</time>
      </trkpt>
      <trkpt lat="48.63452" lon="6.29192">
        <ele>208</ele>
        <time>2014-06-01T08:00:26Z</time>
      </trkpt>
      <trkpt lat="48.63469" lon="6.29248">
        <ele>208</ele>
        <time>2014-06-01T08:00:31Z</time>
      </trkpt>
      <trkpt lat="48.63489" lon="6.29307">
        <ele>207</ele>
        <time>2014-06-01T08:00:36Z</time>
      </trkpt>
      <trkpt lat="48.63506" lon="6.2937">
        <ele>205</ele>
        <time>2014-06-01T08:00:41Z</time>
      </trkpt>
      <trkpt lat="48.63518" lon="6.29436">
        <ele>203</ele>
        <time>2014-06-01T08:00:46Z</time>
      </trkpt>
      <trkpt lat="48.63523" lon="6.29499">
        <ele>201</ele>
        <time>2014-06-01T08:00:51Z</time>
      </trkpt>
      <trkpt lat="48.63527" lon="6.2956">
        <ele>200</ele>
        <time>2014-06-01T08:00:56Z</time>
      </trkpt>
      <trkpt lat="48.63532" lon="6.29618">
        <ele>200</ele>
        <time>2014-06-01T08:01:01Z</time>
      </trkpt>
      <trkpt lat="48.63539" lon="6.29672">
        <ele>200</ele>
        <time>2014-06-01T08:01:06Z</time>
      </trkpt>
      <trkpt lat="48.63546" lon="6.29723">
        <ele>200</ele>
        <time>2014-06-01T08:01:11Z</time>
      </trkpt>
      <trkpt lat="48.63552" lon="6.2977">
        <ele>200</ele>
        <time>2014-06-01T08:01:16Z</time>
      </trkpt>
      <trkpt lat="48.63558" lon="6.29813">
        <ele>200</ele>
        <time>2014-06-01T08:01:21Z</time>
      </trkpt>
      <trkpt lat="48.63565" lon="6.29857">
        <ele>200</ele>
        <time>2014-06-01T08:01:26Z</time>
      </trkpt>
      <trkpt lat="48.63572" lon="6.29901">
        <ele>200</ele>
        <time>2014-06-01T08:01:31Z</time>
      </trkpt>
      <trkpt lat="48.63578" lon="6.29943">
        <ele>200</ele>
        <time>2014-06-01T08:01:36Z</time>
      </trkpt>
      <trkpt lat="48.63582" lon="6.29986">
        <ele>200</ele>
        <time>2014-06-01T08:01:41Z</time>
      </trkpt>
      <trkpt lat="48.63587" lon="6.30028">
        <ele>200</ele>
        <time>2014-06-01T08:01:46Z</time>
      </trkpt>
      <trkpt lat="48.63592" lon="6.3007">
        <ele>200</ele>
        <time>2014-06-01T08:01:51Z</time>
      </trkpt>
      <trkpt lat="48.63597" lon="6.30114">
        <ele>201</ele>
        <time>2014-06-01T08:01:56Z</time>
      </trkpt>
      <trkpt lat="48.636" lon="6.30161">
        <ele>202</ele>
        <time>2014-06-01T08:02:01Z</time>
      </trkpt>
      <trkpt lat="48.63602" lon="6.30209">
        <ele>202</ele>
        <time>2014-06-01T08:02:06Z</time>
      </trkpt>
      <trkpt lat="48.63601" lon="6.30258">
        <ele>202</ele>
        <time>2014-06-01T08:02:11Z</time>
      </trkpt>
      <trkpt lat="48.63597" lon="6.30305">
        <ele>202</ele>
        <time>2014-06-01T08:02:16Z</time>
      </trkpt>
      <trkpt lat="48.63589" lon="6.3035">
        <ele>202</ele>
        <time>2014-06-01T08:02:21Z</time>
      </trkpt>
      <trkpt lat="48.6358" lon="6.30393">
        <ele>202</ele>
        <time>2014-06-01T08:02:26Z</time>
      </trkpt>
      <trkpt lat="48.63567" lon="6.30435">
        <ele>202</ele>
        <time>2014-06-01T08:02:31Z</time>
      </trkpt>
      <trkpt lat="48.63554" lon="6.30471">
        <ele>200</ele>
        <time>2014-06-01T08:02:36Z</time>
      </trkpt>
      <trkpt lat="48.6354" lon="6.30505">
        <ele>197</ele>
        <time>2014-06-01T08:02:41Z</time>
      </trkpt>
      <trkpt lat="48.63523" lon="6.3054">
        <ele>197</ele>
        <time>2014-06-01T08:02:46Z</time>
      </trkpt>
      <trkpt lat="48.63504" lon="6.30574">
        <ele>197</ele>
        <time>2014-06-01T08:02:51Z</time>
      </trkpt>
      <trkpt lat="48.63487" lon="6.30607">
        <ele>197</ele>
        <time>2014-06-01T08:02:56Z</time>
      </trkpt>
      <trkpt lat="48.63468" lon="6.3064">
        <ele>197</ele>
        <time>2014-06-01T08:03:01Z</time>
      </trkpt>
      <trkpt lat="48.63448" lon="6.30672">
        <ele>197</ele>
        <time>2014-06-01T08:03:06Z</time>
      </trkpt>
      <trkpt lat="48.63431" lon="6.30703">
        <ele>197</ele>
        <time>2014-06-01T08:03:11Z</time>
      </trkpt>
      <trkpt lat="48.63408" lon="6.3073">
        <ele>197</ele>
        <time>2014-06-01T08:03:16Z</time>
      </trkpt>
      <trkpt lat="48.63383" lon="6.30743">
        <ele>197</ele>
        <time>2014-06-01T08:03:21Z</time>
      </trkpt>
      <trkpt lat="48.6336" lon="6.30744">
        <ele>197</ele>
        <time>2014-06-01T08:03:26Z</time>
      </trkpt>
      <trkpt lat="48.63339" lon="6.30741">
        <ele>197</ele>
        <time>2014-06-01T08:03:31Z</time>
      </trkpt>
      <trkpt lat="48.63321" lon="6.30748">
        <ele>197</ele>
        <time>2014-06-01T08:03:36Z</time>
      </trkpt>
      <trkpt lat="48.63309" lon="6.30762">
        <ele>197</ele>
        <time>2014-06-01T08:03:41Z</time>
      </trkpt>
      <trkpt lat="48.63302" lon="6.30773">
        <ele>198</ele>
        <time>2014-06-01T08:03:46Z</time>
      </trkpt>
      <trkpt lat="48.63297" lon="6.30794">
        <ele>202</ele>
        <time>2014-06-01T08:03:53Z</time>
      </trkpt>
      <trkpt lat="48.63305" lon="6.30817">
        <ele>202</ele>
        <time>2014-06-01T08:03:58Z</time>
      </trkpt>
      <trkpt lat="48.63318" lon="6.30839">
        <ele>202</ele>
        <time>2014-06-01T08:04:03Z</time>
      </trkpt>
      <trkpt lat="48.63334" lon="6.30862">
        <ele>202</ele>
        <time>2014-06-01T08:04:08Z</time>
      </trkpt>
      <trkpt lat="48.63349" lon="6.30886">
        <ele>202</ele>
        <time>2014-06-01T08:04:13Z</time>
      </trkpt>
      <trkpt lat="48.63366" lon="6.30912">
        <ele>202</ele>
        <time>2014-06-01T08:04:18Z</time>
      </trkpt>
      <trkpt lat="48.63381" lon="6.30941">
        <ele>201</ele>
        <time>2014-06-01T08:04:23Z</time>
      </trkpt>
      <trkpt lat="48.63396" lon="6.30978">
        <ele>201</ele>
        <time>2014-06-01T08:04:28Z</time>
      </trkpt>
      <trkpt lat="48.63411" lon="6.31013">
        <ele>201</ele>
        <time>2014-06-01T08:04:33Z</time>
      </trkpt>
      <trkpt lat="48.63435" lon="6.31035">
        <ele>201</ele>
        <time>2014-06-01T08:04:38Z</time>
      </trkpt>
      <trkpt lat="48.63458" lon="6.3105">
        <ele>201</ele>
        <time>2014-06-01T08:04:43Z</time>
      </trkpt>
      <trkpt lat="48.63483" lon="6.31067">
        <ele>201</ele>
        <time>2014-06-01T08:04:48Z</time>
      </trkpt>
      <trkpt lat="48.63506" lon="6.31081">
        <ele>201</ele>
        <time>2014-06-01T08:04:53Z</time>
      </trkpt>
      <trkpt lat="48.63528" lon="6.31094">
        <ele>201</ele>
        <time>2014-06-01T08:04:58Z</time>
      </trkpt>
      <trkpt lat="48.63549" lon="6.31108">
        <ele>201</ele>
        <time>2014-06-01T08:05:03Z</time>
      </trkpt>
      <trkpt lat="48.63568" lon="6.3112">
        <ele>202</ele>
        <time>2014-06-01T08:05:08Z</time>
      </trkpt>
      <trkpt lat="48.63584" lon="6.31132">
        <ele>203</ele>
        <time>2014-06-01T08:05:13Z</time>
      </trkpt>
      <trkpt lat="48.63603" lon="6.31144">
        <ele>203</ele>
        <time>2014-06-01T08:05:18Z</time>
      </trkpt>
      <trkpt lat="48.63624" lon="6.31161">
        <ele>204</ele>
        <time>2014-06-01T08:05:23Z</time>
      </trkpt>
      <trkpt lat="48.6364" lon="6.31193">
        <ele>204</ele>
        <time>2014-06-01T08:05:28Z</time>
      </trkpt>
      <trkpt lat="48.63645" lon="6.31231">
        <ele>204</ele>
        <time>2014-06-01T08:05:33Z</time>
      </trkpt>
      <trkpt lat="48.6364" lon="6.31272">
        <ele>204</ele>
        <time>2014-06-01T08:05:38Z</time>
      </trkpt>
      <trkpt lat="48.6363" lon="6.31313">
        <ele>204</ele>
        <time>2014-06-01T08:05:43Z</time>
      </trkpt>
      <trkpt lat="48.63619" lon="6.31356">
        <ele>204</ele>
        <time>2014-06-01T08:05:48Z</time>
      </trkpt>
      <trkpt lat="48.63605" lon="6.31398">
        <ele>204</ele>
        <time>2014-06-01T08:05:53Z</time>
      </trkpt>
      <trkpt lat="48.63589" lon="6.31439">
        <ele>204</ele>
        <time>2014-06-01T08:05:58Z</time>
      </trkpt>
      <trkpt lat="48.63571" lon="6.31478">
        <ele>204</ele>
        <time>2014-06-01T08:06:03Z</time>
      </trkpt>
      <trkpt lat="48.63549" lon="6.31516">
        <ele>204</ele>
        <time>2014-06-01T08:06:08Z</time>
      </trkpt>
      <trkpt lat="48.63529" lon="6.31555">
        <ele>204</ele>
        <time>2014-06-01T08:06:13Z</time>
      </trkpt>
      <trkpt lat="48.63516" lon="6.316">
        <ele>204</ele>
        <time>2014-06-01T08:06:18Z</time>
      </trkpt>
      <trkpt lat="48.63506" lon="6.31646">
        <ele>204</ele>
        <time>2014-06-01T08:06:23Z</time>
      </trkpt>
      <trkpt lat="48.63496" lon="6.31693">
        <ele>202</ele>
        <time>2014-06-01T08:06:28Z</time>
      </trkpt>
      <trkpt lat="48.63487" lon="6.31737">
        <ele>202</ele>
        <time>2014-06-01T08:06:33Z</time>
      </trkpt>
      <trkpt lat="48.63479" lon="6.31777">
        <ele>202</ele>
        <time>2014-06-01T08:06:38Z</time>
      </trkpt>
      <trkpt lat="48.63471" lon="6.31816">
        <ele>202</ele>
        <time>2014-06-01T08:06:43Z</time>
      </trkpt>
      <trkpt lat="48.63465" lon="6.31855">
        <ele>202</ele>
        <time>2014-06-01T08:06:48Z</time>
      </trkpt>
      <trkpt lat="48.63456" lon="6.31897">
        <ele>202</ele>
        <time>2014-06-01T08:06:53Z</time>
      </trkpt>
      <trkpt lat="48.63448" lon="6.31939">
        <ele>202</ele>
        <time>2014-06-01T08:06:58Z</time>
      </trkpt>
      <trkpt lat="48.6344" lon="6.31978">
        <ele>202</ele>
        <time>2014-06-01T08:07:03Z</time>
      </trkpt>
      <trkpt lat="48.63432" lon="6.32011">
        <ele>202</ele>
        <time>2014-06-01T08:07:08Z</time>
      </trkpt>
      <trkpt lat="48.63427" lon="6.32037">
        <ele>202</ele>
        <time>2014-06-01T08:07:13Z</time>
      </trkpt>
      <trkpt lat="48.63424" lon="6.3205">
        <ele>202</ele>
        <time>2014-06-01T08:07:18Z</time>
      </trkpt>
      <trkpt lat="48.63422" lon="6.3206">
        <ele>203</ele>
        <time>2014-06-01T08:07:23Z</time>
      </trkpt>
      <trkpt lat="48.63419" lon="6.3207">
        <ele>203</ele>
        <time>2014-06-01T08:07:28Z</time>
      </trkpt>
      <trkpt lat="48.63418" lon="6.3208">
        <ele>203</ele>
        <time>2014-06-01T08:07:34Z</time>
      </trkpt>
      <trkpt lat="48.63415" lon="6.32099">
        <ele>204</ele>
        <time>2014-06-01T08:07:39Z</time>
      </trkpt>
      <trkpt lat="48.63421" lon="6.32125">
        <ele>206</ele>
        <time>2014-06-01T08:07:44Z</time>
      </trkpt>
      <trkpt lat="48.63432" lon="6.32154">
        <ele>208</ele>
        <time>2014-06-01T08:07:49Z</time>
      </trkpt>
      <trkpt lat="48.63444" lon="6.32181">
        <ele>210</ele>
        <time>2014-06-01T08:07:54Z</time>
      </trkpt>
      <trkpt lat="48.63456" lon="6.32204">
        <ele>211</ele>
        <time>2014-06-01T08:07:59Z</time>
      </trkpt>
      <trkpt lat="48.6347" lon="6.32226">
        <ele>211</ele>
        <time>2014-06-01T08:08:04Z</time>
      </trkpt>
      <trkpt lat="48.63481" lon="6.32238">
        <ele>211</ele>
        <time>2014-06-01T08:08:09Z</time>
      </trkpt>
      <trkpt lat="48.63488" lon="6.32246">
        <ele>211</ele>
        <time>2014-06-01T08:08:14Z</time>
      </trkpt>
      <trkpt lat="48.63495" lon="6.32253">
        <ele>211</ele>
        <time>2014-06-01T08:08:19Z</time>
      </trkpt>
      <trkpt lat="48.63502" lon="6.32259">
        <ele>211</ele>
        <time>2014-06-01T08:08:24Z</time>
      </trkpt>
      <trkpt lat="48.6351" lon="6.32265">
        <ele>211</ele>
        <time>2014-06-01T08:08:29Z</time>
      </trkpt>
      <trkpt lat="48.6352" lon="6.32277">
        <ele>211</ele>
        <time>2014-06-01T08:08:37Z</time>
      </trkpt>
      <trkpt lat="48.63515" lon="6.32262">
        <ele>211</ele>
        <time>2014-06-01T08:08:42Z</time>
      </trkpt>
      <trkpt lat="48.63494" lon="6.32249">
        <ele>211</ele>
        <time>2014-06-01T08:08:47Z</time>
      </trkpt>
      <trkpt lat="48.63476" lon="6.32232">
        <ele>212</ele>
        <time>2014-06-01T08:08:52Z</time>
      </trkpt>
      <trkpt lat="48.63461" lon="6.32208">
        <ele>214</ele>
        <time>2014-06-01T08:08:57Z</time>
      </trkpt>
      <trkpt lat="48.63449" lon="6.32185">
        <ele>214</ele>
        <time>2014-06-01T08:09:02Z</time>
      </trkpt>
      <trkpt lat="48.63437" lon="6.32158">
        <ele>214</ele>
        <time>2014-06-01T08:09:07Z</time>
      </trkpt>
      <trkpt lat="48.6342" lon="6.32129">
        <ele>214</ele>
        <time>2014-06-01T08:09:12Z</time>
      </trkpt>
      <trkpt lat="48.6341" lon="6.32145">
        <ele>211</ele>
        <time>2014-06-01T08:09:17Z</time>
      </trkpt>
      <trkpt lat="48.63404" lon="6.3218">
        <ele>209</ele>
        <time>2014-06-01T08:09:22Z</time>
      </trkpt>
      <trkpt lat="48.63395" lon="6.32212">
        <ele>208</ele>
        <time>2014-06-01T08:09:27Z</time>
      </trkpt>
      <trkpt lat="48.63385" lon="6.32248">
        <ele>208</ele>
        <time>2014-06-01T08:09:32Z</time>
      </trkpt>
      <trkpt lat="48.6337" lon="6.32281">
        <ele>208</ele>
        <time>2014-06-01T08:09:37Z</time>
      </trkpt>
      <trkpt lat="48.63354" lon="6.32315">
        <ele>208</ele>
        <time>2014-06-01T08:09:42Z</time>
      </trkpt>
      <trkpt lat="48.63338" lon="6.32349">
        <ele>206</ele>
        <time>2014-06-01T08:09:47Z</time>
      </trkpt>
      <trkpt lat="48.63324" lon="6.32382">
        <ele>205</ele>
        <time>2014-06-01T08:09:52Z</time>
      </trkpt>
      <trkpt lat="48.63313" lon="6.32418">
        <ele>205</ele>
        <time>2014-06-01T08:09:57Z</time>
      </trkpt>
      <trkpt lat="48.63304" lon="6.32453">
        <ele>205</ele>
        <time>2014-06-01T08:10:02Z</time>
      </trkpt>
      <trkpt lat="48.63292" lon="6.32487">
        <ele>207</ele>
        <time>2014-06-01T08:10:07Z</time>
      </trkpt>
      <trkpt lat="48.63279" lon="6.32522">
        <ele>208</ele>
        <time>2014-06-01T08:10:12Z</time>
      </trkpt>
      <trkpt lat="48.63267" lon="6.32556">
        <ele>209</ele>
        <time>2014-06-01T08:10:17Z</time>
      </trkpt>
      <trkpt lat="48.63252" lon="6.32589">
        <ele>210</ele>
        <time>2014-06-01T08:10:22Z</time>
      </trkpt>
      <trkpt lat="48.63239" lon="6.32624">
        <ele>210</ele>
        <time>2014-06-01T08:10:27Z</time>
      </trkpt>
      <trkpt lat="48.63227" lon="6.32662">
        <ele>210</ele>
        <time>2014-06-01T08:10:32Z</time>
      </trkpt>
      <trkpt lat="48.63215" lon="6.32695">
        <ele>210</ele>
        <time>2014-06-01T08:10:37Z</time>
      </trkpt>
      <trkpt lat="48.63203" lon="6.3273">
        <ele>210</ele>
        <time>2014-06-01T08:10:42Z</time>
      </trkpt>
      <trkpt lat="48.6319" lon="6.32766">
        <ele>210</ele>
        <time>2014-06-01T08:10:47Z</time>
      </trkpt>
      <trkpt lat="48.6318" lon="6.32801">
        <ele>210</ele>
        <time>2014-06-01T08:10:52Z</time>
      </trkpt>
      <trkpt lat="48.6317" lon="6.32841">
        <ele>210</ele>
        <time>2014-06-01T08:10:57Z</time>
      </trkpt>
      <trkpt lat="48.63161" lon="6.3288">
        <ele>210</ele>
        <time>2014-06-01T08:11:02Z</time>
      </trkpt>
      <trkpt lat="48.63153" lon="6.32915">
        <ele>210</ele>
        <time>2014-06-01T08:11:07Z</time>
      </trkpt>
      <trkpt lat="48.63146" lon="6.32948">
        <ele>209</ele>
        <time>2014-06-01T08:11:12Z</time>
      </trkpt>
      <trkpt lat="48.63139" lon="6.32986">
        <ele>209</ele>
        <time>2014-06-01T08:11:17Z</time>
      </trkpt>
      <trkpt lat="48.63133" lon="6.33019">
        <ele>209</ele>
        <time>2014-06-01T08:11:22Z</time>
      </trkpt>
      <trkpt lat="48.63126" lon="6.33049">
        <ele>209</ele>
        <time>2014-06-01T08:11:27Z</time>
      </trkpt>
      <trkpt lat="48.63118" lon="6.33082">
        <ele>209</ele>
        <time>2014-06-01T08:11:32Z</time>
      </trkpt>
      <trkpt lat="48.63111" lon="6.33116">
        <ele>209</ele>
        <time>2014-06-01T08:11:37Z</time>
      </trkpt>
      <trkpt lat="48.63103" lon="6.33149">
        <ele>209</ele>
        <time>2014-06-01T08:11:42Z</time>
      </trkpt>
      <trkpt lat="48.63099" lon="6.33181">
        <ele>209</ele>
        <time>2014-06-01T08:11:47Z</time>
      </trkpt>
      <trkpt lat="48.63091" lon="6.33213">
        <ele>209</ele>
        <time>2014-06-01T08:11:52Z</time>
      </trkpt>
      <trkpt lat="48.63083" lon="6.33247">
        <ele>209</ele>
        <time>2014-06-01T08:11:57Z</time>
      </trkpt>
      <trkpt lat="48.63075" lon="6.33281">
        <ele>209</ele>
        <time>2014-06-01T08:12:02Z</time>
      </trkpt>
      <trkpt lat="48.63067" lon="6.33315">
        <ele>209</ele>
        <time>2014-06-01T08:12:07Z</time>
      </trkpt>
      <trkpt lat="48.63059" lon="6.33349">
        <ele>209</ele>
        <time>2014-06-01T08:12:12Z</time>
      </trkpt>
      <trkpt lat="48.6305" lon="6.33387">
        <ele>209</ele>
        <time>2014-06-01T08:12:17Z</time>
      </trkpt>
      <trkpt lat="48.6304" lon="6.33427">
        <ele>209</ele>
        <time>2014-06-01T08:12:22Z</time>
      </trkpt>
      <trkpt lat="48.63028" lon="6.33474">
        <ele>209</ele>
        <time>2014-06-01T08:12:27Z</time>
      </trkpt>
      <trkpt lat="48.63016" lon="6.33521">
        <ele>209</ele>
        <time>2014-06-01T08:12:32Z</time>
      </trkpt>
      <trkpt lat="48.63006" lon="6.33568">
        <ele>209</ele>
        <time>2014-06-01T08:12:37Z</time>
      </trkpt>
      <trkpt lat="48.62996" lon="6.33611">
        <ele>209</ele>
        <time>2014-06-01T08:12:42Z</time>
      </trkpt>
      <trkpt lat="48.62985" lon="6.33651">
        <ele>209</ele>
        <time>2014-06-01T08:12:47Z</time>
      </trkpt>
      <trkpt lat="48.62975" lon="6.3369">
        <ele>209</ele>
        <time>2014-06-01T08:12:52Z</time>
      </trkpt>
      <trkpt lat="48.62966" lon="6.33729">
        <ele>209</ele>
        <time>2014-06-01T08:12:57Z</time>
      </trkpt>
      <trkpt lat="48.62958" lon="6.33763">
        <ele>209</ele>
        <time>2014-06-01T08:13:02Z</time>
      </trkpt>
      <trkpt lat="48.62949" lon="6.33801">
        <ele>209</ele>
        <time>2014-06-01T08:13:07Z</time>
      </trkpt>
      <trkpt lat="48.6294" lon="6.33843">
        <ele>209</ele>
        <time>2014-06-01T08:13:12Z</time>
      </trkpt>
      <trkpt lat="48.62931" lon="6.33886">
        <ele>209</ele>
        <time>2014-06-01T08:13:17Z</time>
      </trkpt>
      <trkpt lat="48.6292" lon="6.33923">
        <ele>209</ele>
        <time>2014-06-01T08:13:22Z</time>
      </trkpt>
      <trkpt lat="48.62908" lon="6.33954">
        <ele>213</ele>
        <time>2014-06-01T08:13:27Z</time>
      </trkpt>
      <trkpt lat="48.62894" lon="6.3398">
        <ele>217</ele>
        <time>2014-06-01T08:13:32Z</time>
      </trkpt>
      <trkpt lat="48.62885" lon="6.34016">
        <ele>222</ele>
        <time>2014-06-01T08:13:37Z</time>
      </trkpt>
      <trkpt lat="48.62877" lon="6.34054">
        <ele>227</ele>
        <time>2014-06-01T08:13:42Z</time>
      </trkpt>
      <trkpt lat="48.62868" lon="6.34093">
        <ele>230</ele>
        <time>2014-06-01T08:13:47Z</time>
      </trkpt>
      <trkpt lat="48.62862" lon="6.34127">
        <ele>231</ele>
        <time>2014-06-01T08:13:52Z</time>
      </trkpt>
      <trkpt lat="48.62855" lon="6.34165">
        <ele>231</ele>
        <time>2014-06-01T08:13:57Z</time>
      </trkpt>
      <trkpt lat="48.62847" lon="6.34205">
        <ele>229</ele>
        <time>2014-06-01T08:14:02Z</time>
      </trkpt>
      <trkpt lat="48.62841" lon="6.3425">
        <ele>226</ele>
        <time>2014-06-01T08:14:07Z</time>
      </trkpt>
      <trkpt lat="48.62842" lon="6.34291">
        <ele>224</ele>
        <time>2014-06-01T08:14:12Z</time>
      </trkpt>
      <trkpt lat="48.62847" lon="6.34328">
        <ele>224</ele>
        <time>2014-06-01T08:14:17Z</time>
      </trkpt>
      <trkpt lat="48.62857" lon="6.34363">
        <ele>223</ele>
        <time>2014-06-01T08:14:22Z</time>
      </trkpt>
      <trkpt lat="48.62869" lon="6.34397">
        <ele>222</ele>
        <time>2014-06-01T08:14:27Z</time>
      </trkpt>
      <trkpt lat="48.62883" lon="6.34429">
        <ele>220</ele>
        <time>2014-06-01T08:14:32Z</time>
      </trkpt>
      <trkpt lat="48.62892" lon="6.34462">
        <ele>218</ele>
        <time>2014-06-01T08:14:37Z</time>
      </trkpt>
      <trkpt lat="48.62903" lon="6.34498">
        <ele>217</ele>
        <time>2014-06-01T08:14:42Z</time>
      </trkpt>
      <trkpt lat="48.62914" lon="6.34537">
        <ele>214</ele>
        <time>2014-06-01T08:14:47Z</time>
      </trkpt>
      <trkpt lat="48.62927" lon="6.34576">
        <ele>213</ele>
        <time>2014-06-01T08:14:52Z</time>
      </trkpt>
      <trkpt lat="48.62939" lon="6.34614">
        <ele>212</ele>
        <time>2014-06-01T08:14:57Z</time>
      </trkpt>
      <trkpt lat="48.62949" lon="6.34648">
        <ele>210</ele>
        <time>2014-06-01T08:15:02Z</time>
      </trkpt>
      <trkpt lat="48.62947" lon="6.34675">
        <ele>210</ele>
        <time>2014-06-01T08:15:07Z</time>
      </trkpt>
      <trkpt lat="48.62933" lon="6.3469">
        <ele>210</ele>
        <time>2014-06-01T08:15:12Z</time>
      </trkpt>
      <trkpt lat="48.62913" lon="6.34702">
        <ele>210</ele>
        <time>2014-06-01T08:15:17Z</time>
      </trkpt>
      <trkpt lat="48.62887" lon="6.3472">
        <ele>210</ele>
        <time>2014-06-01T08:15:22Z</time>
      </trkpt>
      <trkpt lat="48.62855" lon="6.34741">
        <ele>209</ele>
        <time>2014-06-01T08:15:27Z</time>
      </trkpt>
      <trkpt lat="48.62822" lon="6.34743">
        <ele>206</ele>
        <time>2014-06-01T08:15:32Z</time>
      </trkpt>
      <trkpt lat="48.62785" lon="6.34735">
        <ele>204</ele>
        <time>2014-06-01T08:15:37Z</time>
      </trkpt>
      <trkpt lat="48.62753" lon="6.3473">
        <ele>203</ele>
        <time>2014-06-01T08:15:42Z</time>
      </trkpt>
      <trkpt lat="48.62723" lon="6.34729">
        <ele>202</ele>
        <time>2014-06-01T08:15:47Z</time>
      </trkpt>
      <trkpt lat="48.62695" lon="6.34745">
        <ele>201</ele>
        <time>2014-06-01T08:15:52Z</time>
      </trkpt>
      <trkpt lat="48.62674" lon="6.34771">
        <ele>201</ele>
        <time>2014-06-01T08:15:57Z</time>
      </trkpt>
      <trkpt lat="48.62655" lon="6.34795">
        <ele>201</ele>
        <time>2014-06-01T08:16:02Z</time>
      </trkpt>
      <trkpt lat="48.62637" lon="6.34808">
        <ele>201</ele>
        <time>2014-06-01T08:16:07Z</time>
      </trkpt>
      <trkpt lat="48.62625" lon="6.34813">
        <ele>201</ele>
        <time>2014-06-01T08:16:12Z</time>
      </trkpt>
      <trkpt lat="48.62618" lon="6.34817">
        <ele>201</ele>
        <time>2014-06-01T08:16:17Z</time>
      </trkpt>
      <trkpt lat="48.62616" lon="6.34831">
        <ele>199</ele>
        <time>2014-06-01T08:16:22Z</time>
      </trkpt>
      <trkpt lat="48.62624" lon="6.34851">
        <ele>199</ele>
        <time>2014-06-01T08:16:27Z</time>
      </trkpt>
      <trkpt lat="48.62633" lon="6.34876">
        <ele>199</ele>
        <time>2014-06-01T08:16:32Z</time>
      </trkpt>
      <trkpt lat="48.6264" lon="6.34904">
        <ele>199</ele>
        <time>2014-06-01T08:16:37Z</time>
      </trkpt>
      <trkpt lat="48.62646" lon="6.34933">
        <ele>200</ele>
        <time>2014-06-01T08:16:42Z</time>
      </trkpt>
      <trkpt lat="48.62651" lon="6.34959">
        <ele>203</ele>
        <time>2014-06-01T08:16:47Z</time>
      </trkpt>
      <trkpt lat="48.62655" lon="6.34982">
        <ele>205</ele>
        <time>2014-06-01T08:16:52Z</time>
      </trkpt>
      <trkpt lat="48.62663" lon="6.35013">
        <ele>206</ele>
        <time>2014-06-01T08:16:57Z</time>
      </trkpt>
      <trkpt lat="48.6267" lon="6.35046">
        <ele>206</ele>
        <time>2014-06-01T08:17:02Z</time>
      </trkpt>
      <trkpt lat="48.62678" lon="6.35081">
        <ele>207</ele>
        <time>2014-06-01T08:17:07Z</time>
      </trkpt>
      <trkpt lat="48.62688" lon="6.35116">
        <ele>207</ele>
        <time>2014-06-01T08:17:12Z</time>
      </trkpt>
      <trkpt lat="48.62693" lon="6.35149">
        <ele>209</ele>
        <time>2014-06-01T08:17:17Z</time>
      </trkpt>
      <trkpt lat="48.62697" lon="6.35185">
        <ele>209</ele>
        <time>2014-06-01T08:17:22Z</time>
      </trkpt>
      <trkpt lat="48.62698" lon="6.35225">
        <ele>209</ele>
        <time>2014-06-01T08:17:27Z</time>
      </trkpt>
      <trkpt lat="48.62698" lon="6.35267">
        <ele>209</ele>
        <time>2014-06-01T08:17:32Z</time>
      </trkpt>
      <trkpt lat="48.62698" lon="6.35311">
        <ele>209</ele>
        <time>2014-06-01T08:17:37Z</time>
      </trkpt>
      <trkpt lat="48.62698" lon="6.35356">
        <ele>209</ele>
        <time>2014-06-01T08:17:42Z</time>
      </trkpt>
      <trkpt lat="48.62698" lon="6.35399">
        <ele>209</ele>
        <time>2014-06-01T08:17:47Z</time>
      </trkpt>
      <trkpt lat="48.627" lon="6.35441">
        <ele>209</ele>
        <time>2014-06-01T08:17:52Z</time>
      </trkpt>
      <trkpt lat="48.62703" lon="6.35484">
        <ele>209</ele>
        <time>2014-06-01T08:17:57Z</time>
      </trkpt>
      <trkpt lat="48.62708" lon="6.35526">
        <ele>209</ele>
        <time>2014-06-01T08:18:02Z</time>
      </trkpt>
      <trkpt lat="48.62714" lon="6.35571">
        <ele>209</ele>
        <time>2014-06-01T08:18:07Z</time>
      </trkpt>
      <trkpt lat="48.62723" lon="6.35612">
        <ele>209</ele>
        <time>2014-06-01T08:18:12Z</time>
      </trkpt>
      <trkpt lat="48.62736" lon="6.35652">
        <ele>209</ele>
        <time>2014-06-01T08:18:17Z</time>
      </trkpt>
      <trkpt lat="48.62752" lon="6.35695">
        <ele>209</ele>
        <time>2014-06-01T08:18:22Z</time>
      </trkpt>
      <trkpt lat="48.62772" lon="6.35744">
        <ele>208</ele>
        <time>2014-06-01T08:18:27Z</time>
      </trkpt>
      <trkpt lat="48.6279" lon="6.35793">
        <ele>206</ele>
        <time>2014-06-01T08:18:32Z</time>
      </trkpt>
      <trkpt lat="48.62801" lon="6.35842">
        <ele>205</ele>
        <time>2014-06-01T08:18:37Z</time>
      </trkpt>
      <trkpt lat="48.62809" lon="6.35889">
        <ele>205</ele>
        <time>2014-06-01T08:18:42Z</time>
      </trkpt>
      <trkpt lat="48.62817" lon="6.35936">
        <ele>205</ele>
        <time>2014-06-01T08:18:47Z</time>
      </trkpt>
      <trkpt lat="48.62825" lon="6.3598">
        <ele>205</ele>
        <time>2014-06-01T08:18:52Z</time>
      </trkpt>
      <trkpt lat="48.62836" lon="6.36022">
        <ele>205</ele>
        <time>2014-06-01T08:18:57Z</time>
      </trkpt>
      <trkpt lat="48.62847" lon="6.36062">
        <ele>205</ele>
        <time>2014-06-01T08:19:02Z</time>
      </trkpt>
      <trkpt lat="48.62859" lon="6.361">
        <ele>205</ele>
        <time>2014-06-01T08:19:07Z</time>
      </trkpt>
      <trkpt lat="48.6287" lon="6.3614">
        <ele>206</ele>
        <time>2014-06-01T08:19:12Z</time>
      </trkpt>
      <trkpt lat="48.62879" lon="6.36186">
        <ele>206</ele>
        <time>2014-06-01T08:19:17Z</time>
      </trkpt>
      <trkpt lat="48.62886" lon="6.36231">
        <ele>206</ele>
        <time>2014-06-01T08:19:22Z</time>
      </trkpt>
      <trkpt lat="48.62893" lon="6.36274">
        <ele>207</ele>
        <time>2014-06-01T08:19:27Z</time>
      </trkpt>
      <trkpt lat="48.62899" lon="6.36315">
        <ele>208</ele>
        <time>2014-06-01T08:19:32Z</time>
      </trkpt>
      <trkpt lat="48.62906" lon="6.36356">
        <ele>208</ele>
        <time>2014-06-01T08:19:37Z</time>
      </trkpt>
      <trkpt lat="48.62913" lon="6.36399">
        <ele>210</ele>
        <time>2014-06-01T08:19:42Z</time>
      </trkpt>
      <trkpt lat="48.6292" lon="6.36441">
        <ele>210</ele>
        <time>2014-06-01T08:19:47Z</time>
      </trkpt>
      <trkpt lat="48.62928" lon="6.36483">
        <ele>211</ele>
        <time>2014-06-01T08:19:52Z</time>
      </trkpt>
      <trkpt lat="48.62936" lon="6.36524">
        <ele>211</ele>
        <time>2014-06-01T08:19:57Z</time>
      </trkpt>
      <trkpt lat="48.62948" lon="6.36566">
        <ele>211</ele>
        <time>2014-06-01T08:20:02Z</time>
      </trkpt>
      <trkpt lat="48.62961" lon="6.36611">
        <ele>211</ele>
        <time>2014-06-01T08:20:07Z</time>
      </trkpt>
      <trkpt lat="48.62976" lon="6.36656">
        <ele>211</ele>
        <time>2014-06-01T08:20:12Z</time>
      </trkpt>
      <trkpt lat="48.62988" lon="6.367">
        <ele>210</ele>
        <time>2014-06-01T08:20:17Z</time>
      </trkpt>
      <trkpt lat="48.62999" lon="6.36741">
        <ele>209</ele>
        <time>2014-06-01T08:20:22Z</time>
      </trkpt>
      <trkpt lat="48.63012" lon="6.36777">
        <ele>209</ele>
        <time>2014-06-01T08:20:27Z</time>
      </trkpt>
      <trkpt lat="48.63023" lon="6.36812">
        <ele>209</ele>
        <time>2014-06-01T08:20:32Z</time>
      </trkpt>
      <trkpt lat="48.63035" lon="6.36846">
        <ele>208</ele>
        <time>2014-06-01T08:20:37Z</time>
      </trkpt>
      <trkpt lat="48.63049" lon="6.36879">
        <ele>208</ele>
        <time>2014-06-01T08:20:42Z</time>
      </trkpt>
      <trkpt lat="48.63059" lon="6.36915">
        <ele>208</ele>
        <time>2014-06-01T08:20:47Z</time>
      </trkpt>
      <trkpt lat="48.63072" lon="6.36947">
        <ele>207</ele>
        <time>2014-06-01T08:20:52Z</time>
      </trkpt>
      <trkpt lat="48.63082" lon="6.36975">
        <ele>206</ele>
        <time>2014-06-01T08:20:57Z</time>
      </trkpt>
      <trkpt lat="48.63094" lon="6.37007">
        <ele>204</ele>
        <time>2014-06-01T08:21:03Z</time>
      </trkpt>
      <trkpt lat="48.63105" lon="6.37037">
        <ele>202</ele>
        <time>2014-06-01T08:21:08Z</time>
      </trkpt>
      <trkpt lat="48.6311" lon="6.37063">
        <ele>202</ele>
        <time>2014-06-01T08:21:13Z</time>
      </trkpt>
      <trkpt lat="48.63118" lon="6.37083">
        <ele>201</ele>
        <time>2014-06-01T08:21:19Z</time>
      </trkpt>
      <trkpt lat="48.63128" lon="6.37084">
        <ele>199</ele>
        <time>2014-06-01T08:21:25Z</time>
      </trkpt>
      <trkpt lat="48.63132" lon="6.37083">
        <ele>197</ele>
        <time>2014-06-01T08:21:30Z</time>
      </trkpt>
      <trkpt lat="48.63139" lon="6.3708">
        <ele>195</ele>
        <time>2014-06-01T08:21:35Z</time>
      </trkpt>
      <trkpt lat="48.63153" lon="6.37072">
        <ele>192</ele>
        <time>2014-06-01T08:21:40Z</time>
      </trkpt>
      <trkpt lat="48.6317" lon="6.37062">
        <ele>192</ele>
        <time>2014-06-01T08:21:45Z</time>
      </trkpt>
      <trkpt lat="48.63185" lon="6.37053">
        <ele>192</ele>
        <time>2014-06-01T08:21:50Z</time>
      </trkpt>
      <trkpt lat="48.63196" lon="6.37048">
        <ele>192</ele>
        <time>2014-06-01T08:21:55Z</time>
      </trkpt>
      <trkpt lat="48.63208" lon="6.37042">
        <ele>192</ele>
        <time>2014-06-01T08:22:00Z</time>
      </trkpt>
      <trkpt lat="48.63217" lon="6.3703">
        <ele>192</ele>
        <time>2014-06-01T08:22:05Z</time>
      </trkpt>
      <trkpt lat="48.63235" lon="6.37015">
        <ele>194</ele>
        <time>2014-06-01T08:22:10Z</time>
      </trkpt>
      <trkpt lat="48.63257" lon="6.36999">
        <ele>195</ele>
        <time>2014-06-01T08:22:16Z</time>
      </trkpt>
      <trkpt lat="48.63277" lon="6.36984">
        <ele>196</ele>
        <time>2014-06-01T08:22:21Z</time>
      </trkpt>
      <trkpt lat="48.63294" lon="6.36969">
        <ele>197</ele>
        <time>2014-06-01T08:22:26Z</time>
      </trkpt>
      <trkpt lat="48.6331" lon="6.36956">
        <ele>200</ele>
        <time>2014-06-01T08:22:31Z</time>
      </trkpt>
      <trkpt lat="48.63328" lon="6.36938">
        <ele>205</ele>
        <time>2014-06-01T08:22:37Z</time>
      </trkpt>
      <trkpt lat="48.63341" lon="6.36925">
        <ele>208</ele>
        <time>2014-06-01T08:22:42Z</time>
      </trkpt>
      <trkpt lat="48.63349" lon="6.36914">
        <ele>211</ele>
        <time>2014-06-01T08:22:47Z</time>
      </trkpt>
      <trkpt lat="48.63362" lon="6.36902">
        <ele>211</ele>
        <time>2014-06-01T08:22:53Z</time>
      </trkpt>
      <trkpt lat="48.63376" lon="6.3689">
        <ele>211</ele>
        <time>2014-06-01T08:22:58Z</time>
      </trkpt>
      <trkpt lat="48.63389" lon="6.36907">
        <ele>211</ele>
        <time>2014-06-01T08:23:03Z</time>
      </trkpt>
      <trkpt lat="48.63405" lon="6.36942">
        <ele>209</ele>
        <time>2014-06-01T08:23:08Z</time>
      </trkpt>
      <trkpt lat="48.63423" lon="6.36981">
        <ele>208</ele>
        <time>2014-06-01T08:23:13Z</time>
      </trkpt>
      <trkpt lat="48.63439" lon="6.37016">
        <ele>206</ele>
        <time>2014-06-01T08:23:18Z</time>
      </trkpt>
      <trkpt lat="48.63454" lon="6.37051">
        <ele>206</ele>
        <time>2014-06-01T08:23:23Z</time>
      </trkpt>
      <trkpt lat="48.63469" lon="6.37084">
        <ele>206</ele>
        <time>2014-06-01T08:23:28Z</time>
      </trkpt>
      <trkpt lat="48.63486" lon="6.37121">
        <ele>206</ele>
        <time>2014-06-01T08:23:33Z</time>
      </trkpt>
      <trkpt lat="48.63503" lon="6.37155">
        <ele>204</ele>
        <time>2014-06-01T08:23:38Z</time>
      </trkpt>
      <trkpt lat="48.63522" lon="6.37197">
        <ele>202</ele>
        <time>2014-06-01T08:23:44Z</time>
      </trkpt>
      <trkpt lat="48.63538" lon="6.37232">
        <ele>200</ele>
        <time>2014-06-01T08:23:49Z</time>
      </trkpt>
      <trkpt lat="48.63554" lon="6.37266">
        <ele>199</ele>
        <time>2014-06-01T08:23:54Z</time>
      </trkpt>
      <trkpt lat="48.63568" lon="6.37304">
        <ele>199</ele>
        <time>2014-06-01T08:23:59Z</time>
      </trkpt>
      <trkpt lat="48.63583" lon="6.3734">
        <ele>198</ele>
        <time>2014-06-01T08:24:04Z</time>
      </trkpt>
      <trkpt lat="48.63596" lon="6.37375">
        <ele>197</ele>
        <time>2014-06-01T08:24:09Z</time>
      </trkpt>
      <trkpt lat="48.63608" lon="6.37413">
        <ele>196</ele>
        <time>2014-06-01T08:24:14Z</time>
      </trkpt>
      <trkpt lat="48.6362" lon="6.37454">
        <ele>196</ele>
        <time>2014-06-01T08:24:19Z</time>
      </trkpt>
      <trkpt lat="48.63631" lon="6.37494">
        <ele>196</ele>
        <time>2014-06-01T08:24:24Z</time>
      </trkpt>
      <trkpt lat="48.63646" lon="6.3753">
        <ele>195</ele>
        <time>2014-06-01T08:24:29Z</time>
      </trkpt>
      <trkpt lat="48.63662" lon="6.37567">
        <ele>195</ele>
        <time>2014-06-01T08:24:34Z</time>
      </trkpt>
      <trkpt lat="48.63677" lon="6.37602">
        <ele>195</ele>
        <time>2014-06-01T08:24:39Z</time>
      </trkpt>
      <trkpt lat="48.63689" lon="6.37635">
        <ele>195</ele>
        <time>2014-06-01T08:24:44Z</time>
      </trkpt>
      <trkpt lat="48.63701" lon="6.3767">
        <ele>195</ele>
        <time>2014-06-01T08:24:49Z</time>
      </trkpt>
      <trkpt lat="48.63714" lon="6.37699">
        <ele>195</ele>
        <time>2014-06-01T08:24:54Z</time>
      </trkpt>
      <trkpt lat="48.63729" lon="6.37721">
        <ele>195</ele>
        <time>2014-06-01T08:24:59Z</time>
      </trkpt>
      <trkpt lat="48.63745" lon="6.37741">
        <ele>195</ele>
        <time>2014-06-01T08:25:04Z</time>
      </trkpt>
      <trkpt lat="48.63758" lon="6.37767">
        <ele>195</ele>
        <time>2014-06-01T08:25:09Z</time>
      </trkpt>
      <trkpt lat="48.63759" lon="6.37802">
        <ele>195</ele>
        <time>2014-06-01T08:25:14Z</time>
      </trkpt>
      <trkpt lat="48.63752" lon="6.37833">
        <ele>195</ele>
        <time>2014-06-01T08:25:19Z</time>
      </trkpt>
      <trkpt lat="48.6374" lon="6.37863">
        <ele>195</ele>
        <time>2014-06-01T08:25:24Z</time>
      </trkpt>
      <trkpt lat="48.63729" lon="6.37893">
        <ele>195</ele>
        <time>2014-06-01T08:25:29Z</time>
      </trkpt>
      <trkpt lat="48.63738" lon="6.37927">
        <ele>195</ele>
        <time>2014-06-01T08:25:34Z</time>
      </trkpt>
      <trkpt lat="48.63749" lon="6.37965">
        <ele>198</ele>
        <time>2014-06-01T08:25:39Z</time>
      </trkpt>
      <trkpt lat="48.6376" lon="6.38004">
        <ele>199</ele>
        <time>2014-06-01T08:25:44Z</time>
      </trkpt>
      <trkpt lat="48.6377" lon="6.38043">
        <ele>200</ele>
        <time>2014-06-01T08:25:49Z</time>
      </trkpt>
      <trkpt lat="48.63783" lon="6.38089">
        <ele>202</ele>
        <time>2014-06-01T08:25:55Z</time>
      </trkpt>
      <trkpt lat="48.63793" lon="6.38128">
        <ele>202</ele>
        <time>2014-06-01T08:26:00Z</time>
      </trkpt>
      <trkpt lat="48.63803" lon="6.38165">
        <ele>202</ele>
        <time>2014-06-01T08:26:05Z</time>
      </trkpt>
      <trkpt lat="48.63816" lon="6.38203">
        <ele>202</ele>
        <time>2014-06-01T08:26:10Z</time>
      </trkpt>
      <trkpt lat="48.63826" lon="6.38238">
        <ele>199</ele>
        <time>2014-06-01T08:26:15Z</time>
      </trkpt>
      <trkpt lat="48.63835" lon="6.38275">
        <ele>196</ele>
        <time>2014-06-01T08:26:20Z</time>
      </trkpt>
      <trkpt lat="48.6384" lon="6.3831">
        <ele>195</ele>
        <time>2014-06-01T08:26:25Z</time>
      </trkpt>
      <trkpt lat="48.63844" lon="6.38347">
        <ele>195</ele>
        <time>2014-06-01T08:26:30Z</time>
      </trkpt>
      <trkpt lat="48.63846" lon="6.38389">
        <ele>196</ele>
        <time>2014-06-01T08:26:35Z</time>
      </trkpt>
      <trkpt lat="48.63845" lon="6.38434">
        <ele>197</ele>
        <time>2014-06-01T08:26:40Z</time>
      </trkpt>
      <trkpt lat="48.63844" lon="6.38482">
        <ele>198</ele>
        <time>2014-06-01T08:26:45Z</time>
      </trkpt>
      <trkpt lat="48.63849" lon="6.3853">
        <ele>198</ele>
        <time>2014-06-01T08:26:50Z</time>
      </trkpt>
      <trkpt lat="48.63855" lon="6.38573">
        <ele>199</ele>
        <time>2014-06-01T08:26:55Z</time>
      </trkpt>
      <trkpt lat="48.63856" lon="6.38615">
        <ele>199</ele>
        <time>2014-06-01T08:27:00Z</time>
      </trkpt>
      <trkpt lat="48.63853" lon="6.38654">
        <ele>202</ele>
        <time>2014-06-01T08:27:05Z</time>
      </trkpt>
      <trkpt lat="48.63849" lon="6.38693">
        <ele>203</ele>
        <time>2014-06-01T08:27:10Z</time>
      </trkpt>
      <trkpt lat="48.6385" lon="6.38731">
        <ele>204</ele>
        <time>2014-06-01T08:27:15Z</time>
      </trkpt>
      <trkpt lat="48.63853" lon="6.38769">
        <ele>205</ele>
        <time>2014-06-01T08:27:20Z</time>
      </trkpt>
      <trkpt lat="48.63855" lon="6.38802">
        <ele>207</ele>
        <time>2014-06-01T08:27:25Z</time>
      </trkpt>
      <trkpt lat="48.63859" lon="6.38834">
        <ele>209</ele>
        <time>2014-06-01T08:27:30Z</time>
      </trkpt>
      <trkpt lat="48.63864" lon="6.38865">
        <ele>210</ele>
        <time>2014-06-01T08:27:35Z</time>
      </trkpt>
      <trkpt lat="48.63869" lon="6.38893">
        <ele>212</ele>
        <time>2014-06-01T08:27:40Z</time>
      </trkpt>
      <trkpt lat="48.63874" lon="6.3892">
        <ele>212</ele>
        <time>2014-06-01T08:27:45Z</time>
      </trkpt>
      <trkpt lat="48.63877" lon="6.3895">
        <ele>212</ele>
        <time>2014-06-01T08:27:50Z</time>
      </trkpt>
      <trkpt lat="48.63879" lon="6.38984">
        <ele>212</ele>
        <time>2014-06-01T08:27:55Z</time>
      </trkpt>
      <trkpt lat="48.63881" lon="6.39017">
        <ele>212</ele>
        <time>2014-06-01T08:28:00Z</time>
      </trkpt>
      <trkpt lat="48.63885" lon="6.39053">
        <ele>212</ele>
        <time>2014-06-01T08:28:05Z</time>
      </trkpt>
      <trkpt lat="48.63889" lon="6.39091">
        <ele>210</ele>
        <time>2014-06-01T08:28:10Z</time>
      </trkpt>
      <trkpt lat="48.63897" lon="6.39132">
        <ele>210</ele>
        <time>2014-06-01T08:28:15Z</time>
      </trkpt>
      <trkpt lat="48.63908" lon="6.39168">
        <ele>210</ele>
        <time>2014-06-01T08:28:20Z</time>
      </trkpt>
      <trkpt lat="48.63924" lon="6.39198">
        <ele>210</ele>
        <time>2014-06-01T08:28:25Z</time>
      </trkpt>
      <trkpt lat="48.63938" lon="6.39219">
        <ele>210</ele>
        <time>2014-06-01T08:28:30Z</time>
      </trkpt>
      <trkpt lat="48.63949" lon="6.39245">
        <ele>210</ele>
        <time>2014-06-01T08:28:35Z</time>
      </trkpt>
      <trkpt lat="48.63963" lon="6.39272">
        <ele>210</ele>
        <time>2014-06-01T08:28:40Z</time>
      </trkpt>
      <trkpt lat="48.63982" lon="6.39299">
        <ele>209</ele>
        <time>2014-06-01T08:28:45Z</time>
      </trkpt>
      <trkpt lat="48.64005" lon="6.39327">
        <ele>209</ele>
        <time>2014-06-01T08:28:50Z</time>
      </trkpt>
      <trkpt lat="48.64024" lon="6.39356">
        <ele>208</ele>
        <time>2014-06-01T08:28:55Z</time>
      </trkpt>
      <trkpt lat="48.64046" lon="6.39383">
        <ele>207</ele>
        <time>2014-06-01T08:29:00Z</time>
      </trkpt>
      <trkpt lat="48.64068" lon="6.39409">
        <ele>207</ele>
        <time>2014-06-01T08:29:05Z</time>
      </trkpt>
      <trkpt lat="48.64092" lon="6.39425">
        <ele>207</ele>
        <time>2014-06-01T08:29:10Z</time>
      </trkpt>
      <trkpt lat="48.64117" lon="6.39436">
        <ele>207</ele>
        <time>2014-06-01T08:29:15Z</time>
      </trkpt>
      <trkpt lat="48.6414" lon="6.39447">
        <ele>207</ele>
        <time>2014-06-01T08:29:20Z</time>
      </trkpt>
      <trkpt lat="48.64162" lon="6.3946">
        <ele>207</ele>
        <time>2014-06-01T08:29:25Z</time>
      </trkpt>
      <trkpt lat="48.64184" lon="6.39473">
        <ele>207</ele>
        <time>2014-06-01T08:29:30Z</time>
      </trkpt>
      <trkpt lat="48.64207" lon="6.39489">
        <ele>207</ele>
        <time>2014-06-01T08:29:35Z</time>
      </trkpt>
      <trkpt lat="48.64229" lon="6.39511">
        <ele>207</ele>
        <time>2014-06-01T08:29:40Z</time>
      </trkpt>
      <trkpt lat="48.64247" lon="6.39536">
        <ele>207</ele>
        <time>2014-06-01T08:29:45Z</time>
      </trkpt>
      <trkpt lat="48.64265" lon="6.39568">
        <ele>205</ele>
        <time>2014-06-01T08:29:50Z</time>
      </trkpt>
      <trkpt lat="48.64283" lon="6.39603">
        <ele>204</ele>
        <time>2014-06-01T08:29:55Z</time>
      </trkpt>
      <trkpt lat="48.64298" lon="6.39642">
        <ele>204</ele>
        <time>2014-06-01T08:30:00Z</time>
      </trkpt>
      <trkpt lat="48.64308" lon="6.39679">
        <ele>204</ele>
        <time>2014-06-01T08:30:05Z</time>
      </trkpt>
      <trkpt lat="48.64314" lon="6.39717">
        <ele>204</ele>
        <time>2014-06-01T08:30:10Z</time>
      </trkpt>
      <trkpt lat="48.64316" lon="6.39759">
        <ele>207</ele>
        <time>2014-06-01T08:30:15Z</time>
      </trkpt>
      <trkpt lat="48.64315" lon="6.398">
        <ele>210</ele>
        <time>2014-06-01T08:30:20Z</time>
      </trkpt>
      <trkpt lat="48.64313" lon="6.39836">
        <ele>212</ele>
        <time>2014-06-01T08:30:25Z</time>
      </trkpt>
      <trkpt lat="48.64308" lon="6.39876">
        <ele>212</ele>
        <time>2014-06-01T08:30:30Z</time>
      </trkpt>
      <trkpt lat="48.64299" lon="6.39917">
        <ele>212</ele>
        <time>2014-06-01T08:30:35Z</time>
      </trkpt>
      <trkpt lat="48.6429" lon="6.39954">
        <ele>212</ele>
        <time>2014-06-01T08:30:40Z</time>
      </trkpt>
      <trkpt lat="48.64281" lon="6.39993">
        <ele>212</ele>
        <time>2014-06-01T08:30:45Z</time>
      </trkpt>
      <trkpt lat="48.64276" lon="6.40031">
        <ele>212</ele>
        <time>2014-06-01T08:30:50Z</time>
      </trkpt>
      <trkpt lat="48.64274" lon="6.40059">
        <ele>212</ele>
        <time>2014-06-01T08:30:55Z</time>
      </trkpt>
      <trkpt lat="48.64275" lon="6.40076">
        <ele>212</ele>
        <time>2014-06-01T08:31:00Z</time>
      </trkpt>
      <trkpt lat="48.64277" lon="6.40095">
        <ele>213</ele>
        <time>2014-06-01T08:31:05Z</time>
      </trkpt>
      <trkpt lat="48.64277" lon="6.40115">
        <ele>213</ele>
        <time>2014-06-01T08:31:10Z</time>
      </trkpt>
      <trkpt lat="48.64269" lon="6.40133">
        <ele>213</ele>
        <time>2014-06-01T08:31:15Z</time>
      </trkpt>
      <trkpt lat="48.6426" lon="6.4015">
        <ele>213</ele>
        <time>2014-06-01T08:31:20Z</time>
      </trkpt>
      <trkpt lat="48.64249" lon="6.40169">
        <ele>213</ele>
        <time>2014-06-01T08:31:25Z</time>
      </trkpt>
      <trkpt lat="48.64238" lon="6.40181">
        <ele>213</ele>
        <time>2014-06-01T08:31:30Z</time>
      </trkpt>
      <trkpt lat="48.64226" lon="6.40195">
        <ele>213</ele>
        <time>2014-06-01T08:31:35Z</time>
      </trkpt>
      <trkpt lat="48.64209" lon="6.4021">
        <ele>213</ele>
        <time>2014-06-01T08:31:40Z</time>
      </trkpt>
      <trkpt lat="48.64191" lon="6.4023">
        <ele>213</ele>
        <time>2014-06-01T08:31:45Z</time>
      </trkpt>
      <trkpt lat="48.64169" lon="6.40257">
        <ele>213</ele>
        <time>2014-06-01T08:31:50Z</time>
      </trkpt>
      <trkpt lat="48.64143" lon="6.40295">
        <ele>212</ele>
        <time>2014-06-01T08:31:55Z</time>
      </trkpt>
      <trkpt lat="48.64122" lon="6.40341">
        <ele>211</ele>
        <time>2014-06-01T08:32:00Z</time>
      </trkpt>
      <trkpt lat="48.64106" lon="6.40389">
        <ele>211</ele>
        <time>2014-06-01T08:32:05Z</time>
      </trkpt>
      <trkpt lat="48.64096" lon="6.40422">
        <ele>210</ele>
        <time>2014-06-01T08:32:10Z</time>
      </trkpt>
      <trkpt lat="48.64094" lon="6.40461">
        <ele>209</ele>
        <time>2014-06-01T08:32:15Z</time>
      </trkpt>
      <trkpt lat="48.64096" lon="6.40504">
        <ele>209</ele>
        <time>2014-06-01T08:32:20Z</time>
      </trkpt>
      <trkpt lat="48.64106" lon="6.40546">
        <ele>209</ele>
        <time>2014-06-01T08:32:25Z</time>
      </trkpt>
      <trkpt lat="48.64123" lon="6.40585">
        <ele>209</ele>
        <time>2014-06-01T08:32:30Z</time>
      </trkpt>
      <trkpt lat="48.64146" lon="6.40626">
        <ele>209</ele>
        <time>2014-06-01T08:32:35Z</time>
      </trkpt>
      <trkpt lat="48.64171" lon="6.40672">
        <ele>206</ele>
        <time>2014-06-01T08:32:40Z</time>
      </trkpt>
      <trkpt lat="48.64196" lon="6.40712">
        <ele>206</ele>
        <time>2014-06-01T08:32:45Z</time>
      </trkpt>
      <trkpt lat="48.64217" lon="6.40744">
        <ele>206</ele>
        <time>2014-06-01T08:32:50Z</time>
      </trkpt>
      <trkpt lat="48.64235" lon="6.40766">
        <ele>206</ele>
        <time>2014-06-01T08:32:55Z</time>
      </trkpt>
      <trkpt lat="48.64247" lon="6.40784">
        <ele>206</ele>
        <time>2014-06-01T08:33:00Z</time>
      </trkpt>
      <trkpt lat="48.64259" lon="6.40806">
        <ele>208</ele>
        <time>2014-06-01T08:33:05Z</time>
      </trkpt>
      <trkpt lat="48.64272" lon="6.40828">
        <ele>209</ele>
        <time>2014-06-01T08:33:10Z</time>
      </trkpt>
      <trkpt lat="48.64285" lon="6.40842">
        <ele>210</ele>
        <time>2014-06-01T08:33:15Z</time>
      </trkpt>
      <trkpt lat="48.64293" lon="6.40852">
        <ele>218</ele>
        <time>2014-06-01T08:33:25Z</time>
      </trkpt>
      <trkpt lat="48.6429" lon="6.40856">
        <ele>220</ele>
        <time>2014-06-01T08:33:34Z</time>
      </trkpt>
      <trkpt lat="48.64289" lon="6.40859">
        <ele>220</ele>
        <time>2014-06-01T08:33:39Z</time>
      </trkpt>
      <trkpt lat="48.64294" lon="6.40859">
        <ele>223</ele>
        <time>2014-06-01T08:33:48Z</time>
      </trkpt>
      <trkpt lat="48.64298" lon="6.4085">
        <ele>217</ele>
        <time>2014-06-01T08:33:55Z</time>
      </trkpt>
      <trkpt lat="48.64294" lon="6.40858">
        <ele>204</ele>
        <time>2014-06-01T08:34:01Z</time>
      </trkpt>
      <trkpt lat="48.64292" lon="6.40864">
        <ele>207</ele>
        <time>2014-06-01T08:34:07Z</time>
      </trkpt>
      <trkpt lat="48.6429" lon="6.40868">
        <ele>216</ele>
        <time>2014-06-01T08:34:13Z</time>
      </trkpt>
      <trkpt lat="48.64288" lon="6.40871">
        <ele>216</ele>
        <time>2014-06-01T08:34:18Z</time>
      </trkpt>
      <trkpt lat="48.64289" lon="6.40863">
        <ele>214</ele>
        <time>2014-06-01T08:34:24Z</time>
      </trkpt>
      <trkpt lat="48.64294" lon="6.4087">
        <ele>214</ele>
        <time>2014-06-01T08:34:31Z</time>
      </trkpt>
      <trkpt lat="48.64302" lon="6.40883">
        <ele>214</ele>
        <time>2014-06-01T08:34:36Z</time>
      </trkpt>
      <trkpt lat="48.64311" lon="6.40899">
        <ele>214</ele>
        <time>2014-06-01T08:34:41Z</time>
      </trkpt>
      <trkpt lat="48.64321" lon="6.4092">
        <ele>214</ele>
        <time>2014-06-01T08:34:46Z</time>
      </trkpt>
      <trkpt lat="48.64331" lon="6.40945">
        <ele>214</ele>
        <time>2014-06-01T08:34:51Z</time>
      </trkpt>
      <trkpt lat="48.64339" lon="6.40975">
        <ele>212</ele>
        <time>2014-06-01T08:34:56Z</time>
      </trkpt>
      <trkpt lat="48.64345" lon="6.41014">
        <ele>210</ele>
        <time>2014-06-01T08:35:01Z</time>
      </trkpt>
      <trkpt lat="48.6435" lon="6.41059">
        <ele>210</ele>
        <time>2014-06-01T08:35:06Z</time>
      </trkpt>
      <trkpt lat="48.64349" lon="6.41105">
        <ele>208</ele>
        <time>2014-06-01T08:35:11Z</time>
      </trkpt>
      <trkpt lat="48.64345" lon="6.4115">
        <ele>207</ele>
        <time>2014-06-01T08:35:16Z</time>
      </trkpt>
      <trkpt lat="48.6434" lon="6.41189">
        <ele>203</ele>
        <time>2014-06-01T08:35:21Z</time>
      </trkpt>
      <trkpt lat="48.64329" lon="6.41227">
        <ele>203</ele>
        <time>2014-06-01T08:35:26Z</time>
      </trkpt>
      <trkpt lat="48.64316" lon="6.4126">
        <ele>203</ele>
        <time>2014-06-01T08:35:31Z</time>
      </trkpt>
      <trkpt lat="48.64303" lon="6.41293">
        <ele>203</ele>
        <time>2014-06-01T08:35:36Z</time>
      </trkpt>
      <trkpt lat="48.64291" lon="6.41327">
        <ele>203</ele>
        <time>2014-06-01T08:35:41Z</time>
      </trkpt>
      <trkpt lat="48.6428" lon="6.4136">
        <ele>203</ele>
        <time>2014-06-01T08:35:46Z</time>
      </trkpt>
      <trkpt lat="48.64271" lon="6.4139">
        <ele>203</ele>
        <time>2014-06-01T08:35:51Z</time>
      </trkpt>
      <trkpt lat="48.64259" lon="6.4142">
        <ele>203</ele>
        <time>2014-06-01T08:35:56Z</time>
      </trkpt>
      <trkpt lat="48.64248" lon="6.41449">
        <ele>203</ele>
        <time>2014-06-01T08:36:01Z</time>
      </trkpt>
      <trkpt lat="48.64238" lon="6.41475">
        <ele>203</ele>
        <time>2014-06-01T08:36:06Z</time>
      </trkpt>
      <trkpt lat="48.64228" lon="6.41501">
        <ele>203</ele>
        <time>2014-06-01T08:36:11Z</time>
      </trkpt>
      <trkpt lat="48.64217" lon="6.41526">
        <ele>203</ele>
        <time>2014-06-01T08:36:16Z</time>
      </trkpt>
      <trkpt lat="48.64207" lon="6.41552">
        <ele>203</ele>
        <time>2014-06-01T08:36:21Z</time>
      </trkpt>
      <trkpt lat="48.64197" lon="6.41578">
        <ele>203</ele>
        <time>2014-06-01T08:36:26Z</time>
      </trkpt>
      <trkpt lat="48.64186" lon="6.41603">
        <ele>203</ele>
        <time>2014-06-01T08:36:31Z</time>
      </trkpt>
      <trkpt lat="48.64176" lon="6.41628">
        <ele>206</ele>
        <time>2014-06-01T08:36:36Z</time>
      </trkpt>
      <trkpt lat="48.64166" lon="6.41652">
        <ele>206</ele>
        <time>2014-06-01T08:36:41Z</time>
      </trkpt>
      <trkpt lat="48.64155" lon="6.41677">
        <ele>209</ele>
        <time>2014-06-01T08:36:46Z</time>
      </trkpt>
      <trkpt lat="48.64147" lon="6.41703">
        <ele>211</ele>
        <time>2014-06-01T08:36:51Z</time>
      </trkpt>
      <trkpt lat="48.64142" lon="6.41732">
        <ele>213</ele>
        <time>2014-06-01T08:36:56Z</time>
      </trkpt>
      <trkpt lat="48.64139" lon="6.41761">
        <ele>215</ele>
        <time>2014-06-01T08:37:01Z</time>
      </trkpt>
      <trkpt lat="48.64138" lon="6.4179">
        <ele>216</ele>
        <time>2014-06-01T08:37:06Z</time>
      </trkpt>
      <trkpt lat="48.6414" lon="6.41818">
        <ele>216</ele>
        <time>2014-06-01T08:37:11Z</time>
      </trkpt>
      <trkpt lat="48.64143" lon="6.41846">
        <ele>216</ele>
        <time>2014-06-01T08:37:16Z</time>
      </trkpt>
      <trkpt lat="48.64147" lon="6.41872">
        <ele>216</ele>
        <time>2014-06-01T08:37:21Z</time>
      </trkpt>
      <trkpt lat="48.64153" lon="6.41899">
        <ele>216</ele>
        <time>2014-06-01T08:37:26Z</time>
      </trkpt>
      <trkpt lat="48.64158" lon="6.41926">
        <ele>219</ele>
        <time>2014-06-01T08:37:31Z</time>
      </trkpt>
      <trkpt lat="48.64165" lon="6.41958">
        <ele>220</ele>
        <time>2014-06-01T08:37:36Z</time>
      </trkpt>
      <trkpt lat="48.64177" lon="6.42001">
        <ele>220</ele>
        <time>2014-06-01T08:37:41Z</time>
      </trkpt>
      <trkpt lat="48.64194" lon="6.42053">
        <ele>220</ele>
        <time>2014-06-01T08:37:46Z</time>
      </trkpt>
      <trkpt lat="48.64205" lon="6.42112">
        <ele>220</ele>
        <time>2014-06-01T08:37:51Z</time>
      </trkpt>
      <trkpt lat="48.64212" lon="6.42172">
        <ele>219</ele>
        <time>2014-06-01T08:37:56Z</time>
      </trkpt>
      <trkpt lat="48.64218" lon="6.42231">
        <ele>219</ele>
        <time>2014-06-01T08:38:01Z</time>
      </trkpt>
      <trkpt lat="48.64225" lon="6.42291">
        <ele>218</ele>
        <time>2014-06-01T08:38:06Z</time>
      </trkpt>
      <trkpt lat="48.6424" lon="6.42357">
        <ele>216</ele>
        <time>2014-06-01T08:38:11Z</time>
      </trkpt>
      <trkpt lat="48.6426" lon="6.42449">
        <ele>211</ele>
        <time>2014-06-01T08:38:17Z</time>
      </trkpt>
      <trkpt lat="48.64272" lon="6.42532">
        <ele>207</ele>
        <time>2014-06-01T08:38:22Z</time>
      </trkpt>
      <trkpt lat="48.64283" lon="6.42611">
        <ele>206</ele>
        <time>2014-06-01T08:38:27Z</time>
      </trkpt>
      <trkpt lat="48.64291" lon="6.42678">
        <ele>206</ele>
        <time>2014-06-01T08:38:32Z</time>
      </trkpt>
      <trkpt lat="48.64297" lon="6.42731">
        <ele>206</ele>
        <time>2014-06-01T08:38:37Z</time>
      </trkpt>
      <trkpt lat="48.64303" lon="6.42779">
        <ele>206</ele>
        <time>2014-06-01T08:38:42Z</time>
      </trkpt>
      <trkpt lat="48.64311" lon="6.42825">
        <ele>206</ele>
        <time>2014-06-01T08:38:47Z</time>
      </trkpt>
      <trkpt lat="48.64319" lon="6.4287">
        <ele>207</ele>
        <time>2014-06-01T08:38:52Z</time>
      </trkpt>
      <trkpt lat="48.64325" lon="6.42912">
        <ele>207</ele>
        <time>2014-06-01T08:38:57Z</time>
      </trkpt>
      <trkpt lat="48.64329" lon="6.42955">
        <ele>207</ele>
        <time>2014-06-01T08:39:02Z</time>
      </trkpt>
      <trkpt lat="48.64333" lon="6.42998">
        <ele>208</ele>
        <time>2014-06-01T08:39:07Z</time>
      </trkpt>
      <trkpt lat="48.64337" lon="6.43044">
        <ele>208</ele>
        <time>2014-06-01T08:39:12Z</time>
      </trkpt>
      <trkpt lat="48.64337" lon="6.43089">
        <ele>208</ele>
        <time>2014-06-01T08:39:17Z</time>
      </trkpt>
      <trkpt lat="48.64333" lon="6.43137">
        <ele>209</ele>
        <time>2014-06-01T08:39:22Z</time>
      </trkpt>
      <trkpt lat="48.64327" lon="6.43182">
        <ele>209</ele>
        <time>2014-06-01T08:39:27Z</time>
      </trkpt>
      <trkpt lat="48.64322" lon="6.43225">
        <ele>209</ele>
        <time>2014-06-01T08:39:32Z</time>
      </trkpt>
      <trkpt lat="48.64317" lon="6.43269">
        <ele>209</ele>
        <time>2014-06-01T08:39:37Z</time>
      </trkpt>
      <trkpt lat="48.64312" lon="6.43312">
        <ele>209</ele>
        <time>2014-06-01T08:39:42Z</time>
      </trkpt>
      <trkpt lat="48.64309" lon="6.43351">
        <ele>209</ele>
        <time>2014-06-01T08:39:47Z</time>
      </trkpt>
      <trkpt lat="48.64305" lon="6.43387">
        <ele>209</ele>
        <time>2014-06-01T08:39:52Z</time>
      </trkpt>
      <trkpt lat="48.643" lon="6.43425">
        <ele>209</ele>
        <time>2014-06-01T08:39:57Z</time>
      </trkpt>
      <trkpt lat="48.64297" lon="6.43459">
        <ele>209</ele>
        <time>2014-06-01T08:40:02Z</time>
      </trkpt>
      <trkpt lat="48.64295" lon="6.43493">
        <ele>209</ele>
        <time>2014-06-01T08:40:07Z</time>
      </trkpt>
      <trkpt lat="48.64295" lon="6.43527">
        <ele>209</ele>
        <time>2014-06-01T08:40:12Z</time>
      </trkpt>
      <trkpt lat="48.64299" lon="6.43564">
        <ele>209</ele>
        <time>2014-06-01T08:40:17Z</time>
      </trkpt>
      <trkpt lat="48.64305" lon="6.436">
        <ele>209</ele>
        <time>2014-06-01T08:40:22Z</time>
      </trkpt>
      <trkpt lat="48.64313" lon="6.43632">
        <ele>209</ele>
        <time>2014-06-01T08:40:27Z</time>
      </trkpt>
      <trkpt lat="48.64322" lon="6.43661">
        <ele>209</ele>
        <time>2014-06-01T08:40:32Z</time>
      </trkpt>
      <trkpt lat="48.64331" lon="6.43689">
        <ele>209</ele>
        <time>2014-06-01T08:40:37Z</time>
      </trkpt>
      <trkpt lat="48.64343" lon="6.43715">
        <ele>209</ele>
        <time>2014-06-01T08:40:42Z</time>
      </trkpt>
      <trkpt lat="48.64357" lon="6.43742">
        <ele>209</ele>
        <time>2014-06-01T08:40:47Z</time>
      </trkpt>
      <trkpt lat="48.6437" lon="6.43769">
        <ele>209</ele>
        <time>2014-06-01T08:40:52Z</time>
      </trkpt>
      <trkpt lat="48.64384" lon="6.43798">
        <ele>209</ele>
        <time>2014-06-01T08:40:57Z</time>
      </trkpt>
      <trkpt lat="48.64399" lon="6.43828">
        <ele>209</ele>
        <time>2014-06-01T08:41:02Z</time>
      </trkpt>
      <trkpt lat="48.64413" lon="6.43856">
        <ele>209</ele>
        <time>2014-06-01T08:41:07Z</time>
      </trkpt>
      <trkpt lat="48.64425" lon="6.4388">
        <ele>209</ele>
        <time>2014-06-01T08:41:12Z</time>
      </trkpt>
      <trkpt lat="48.64431" lon="6.43902">
        <ele>209</ele>
        <time>2014-06-01T08:41:17Z</time>
      </trkpt>
      <trkpt lat="48.64435" lon="6.4393">
        <ele>209</ele>
        <time>2014-06-01T08:41:22Z</time>
      </trkpt>
      <trkpt lat="48.64439" lon="6.4396">
        <ele>209</ele>
        <time>2014-06-01T08:41:27Z</time>
      </trkpt>
      <trkpt lat="48.64445" lon="6.43988">
        <ele>209</ele>
        <time>2014-06-01T08:41:32Z</time>
      </trkpt>
      <trkpt lat="48.64451" lon="6.44018">
        <ele>208</ele>
        <time>2014-06-01T08:41:37Z</time>
      </trkpt>
      <trkpt lat="48.64463" lon="6.44053">
        <ele>208</ele>
        <time>2014-06-01T08:41:42Z</time>
      </trkpt>
      <trkpt lat="48.64478" lon="6.44096">
        <ele>206</ele>
        <time>2014-06-01T08:41:47Z</time>
      </trkpt>
      <trkpt lat="48.64495" lon="6.44151">
        <ele>205</ele>
        <time>2014-06-01T08:41:52Z</time>
      </trkpt>
      <trkpt lat="48.64514" lon="6.44205">
        <ele>203</ele>
        <time>2014-06-01T08:41:57Z</time>
      </trkpt>
      <trkpt lat="48.64527" lon="6.44258">
        <ele>201</ele>
        <time>2014-06-01T08:42:02Z</time>
      </trkpt>
      <trkpt lat="48.64537" lon="6.44307">
        <ele>201</ele>
        <time>2014-06-01T08:42:07Z</time>
      </trkpt>
      <trkpt lat="48.64535" lon="6.44355">
        <ele>200</ele>
        <time>2014-06-01T08:42:12Z</time>
      </trkpt>
      <trkpt lat="48.64523" lon="6.44397">
        <ele>200</ele>
        <time>2014-06-01T08:42:17Z</time>
      </trkpt>
      <trkpt lat="48.64516" lon="6.44434">
        <ele>199</ele>
        <time>2014-06-01T08:42:22Z</time>
      </trkpt>
      <trkpt lat="48.6452" lon="6.44465">
        <ele>199</ele>
        <time>2014-06-01T08:42:27Z</time>
      </trkpt>
      <trkpt lat="48.6453" lon="6.44495">
        <ele>199</ele>
        <time>2014-06-01T08:42:32Z</time>
      </trkpt>
      <trkpt lat="48.64539" lon="6.44523">
        <ele>199</ele>
        <time>2014-06-01T08:42:37Z</time>
      </trkpt>
      <trkpt lat="48.6455" lon="6.44552">
        <ele>199</ele>
        <time>2014-06-01T08:42:42Z</time>
      </trkpt>
      <trkpt lat="48.6456" lon="6.4458">
        <ele>199</ele>
        <time>2014-06-01T08:42:47Z</time>
      </trkpt>
      <trkpt lat="48.6457" lon="6.44607">
        <ele>200</ele>
        <time>2014-06-01T08:42:52Z</time>
      </trkpt>
      <trkpt lat="48.6458" lon="6.44635">
        <ele>203</ele>
        <time>2014-06-01T08:42:57Z</time>
      </trkpt>
      <trkpt lat="48.64591" lon="6.44663">
        <ele>206</ele>
        <time>2014-06-01T08:43:02Z</time>
      </trkpt>
      <trkpt lat="48.64602" lon="6.44689">
        <ele>209</ele>
        <time>2014-06-01T08:43:07Z</time>
      </trkpt>
      <trkpt lat="48.64615" lon="6.44716">
        <ele>212</ele>
        <time>2014-06-01T08:43:12Z</time>
      </trkpt>
      <trkpt lat="48.64627" lon="6.44743">
        <ele>214</ele>
        <time>2014-06-01T08:43:17Z</time>
      </trkpt>
      <trkpt lat="48.64637" lon="6.4477">
        <ele>214</ele>
        <time>2014-06-01T08:43:22Z</time>
      </trkpt>
      <trkpt lat="48.64645" lon="6.44798">
        <ele>214</ele>
        <time>2014-06-01T08:43:27Z</time>
      </trkpt>
      <trkpt lat="48.64652" lon="6.44829">
        <ele>214</ele>
        <time>2014-06-01T08:43:32Z</time>
      </trkpt>
      <trkpt lat="48.64659" lon="6.44861">
        <ele>214</ele>
        <time>2014-06-01T08:43:37Z</time>
      </trkpt>
      <trkpt lat="48.64667" lon="6.44894">
        <ele>214</ele>
        <time>2014-06-01T08:43:42Z</time>
      </trkpt>
      <trkpt lat="48.64676" lon="6.44931">
        <ele>214</ele>
        <time>2014-06-01T08:43:47Z</time>
      </trkpt>
      <trkpt lat="48.64687" lon="6.44969">
        <ele>214</ele>
        <time>2014-06-01T08:43:52Z</time>
      </trkpt>
      <trkpt lat="48.64702" lon="6.45007">
        <ele>214</ele>
        <time>2014-06-01T08:43:57Z</time>
      </trkpt>
      <trkpt lat="48.6472" lon="6.45045">
        <ele>214</ele>
        <time>2014-06-01T08:44:02Z</time>
      </trkpt>
      <trkpt lat="48.64737" lon="6.45081">
        <ele>214</ele>
        <time>2014-06-01T08:44:07Z</time>
      </trkpt>
      <trkpt lat="48.64755" lon="6.45117">
        <ele>214</ele>
        <time>2014-06-01T08:44:12Z</time>
      </trkpt>
      <trkpt lat="48.6477" lon="6.45156">
        <ele>214</ele>
        <time>2014-06-01T08:44:17Z</time>
      </trkpt>
      <trkpt lat="48.6478" lon="6.452">
        <ele>214</ele>
        <time>2014-06-01T08:44:22Z</time>
      </trkpt>
      <trkpt lat="48.64785" lon="6.45249">
        <ele>214</ele>
        <time>2014-06-01T08:44:27Z</time>
      </trkpt>
      <trkpt lat="48.64785" lon="6.45301">
        <ele>214</ele>
        <time>2014-06-01T08:44:32Z</time>
      </trkpt>
      <trkpt lat="48.64785" lon="6.45348">
        <ele>214</ele>
        <time>2014-06-01T08:44:37Z</time>
      </trkpt>
      <trkpt lat="48.64785" lon="6.45392">
        <ele>214</ele>
        <time>2014-06-01T08:44:42Z</time>
      </trkpt>
      <trkpt lat="48.64793" lon="6.45434">
        <ele>214</ele>
        <time>2014-06-01T08:44:47Z</time>
      </trkpt>
      <trkpt lat="48.64804" lon="6.45474">
        <ele>214</ele>
        <time>2014-06-01T08:44:52Z</time>
      </trkpt>
      <trkpt lat="48.64816" lon="6.45514">
        <ele>213</ele>
        <time>2014-06-01T08:44:57Z</time>
      </trkpt>
      <trkpt lat="48.64829" lon="6.45555">
        <ele>212</ele>
        <time>2014-06-01T08:45:02Z</time>
      </trkpt>
      <trkpt lat="48.64843" lon="6.45598">
        <ele>211</ele>
        <time>2014-06-01T08:45:07Z</time>
      </trkpt>
      <trkpt lat="48.64857" lon="6.45645">
        <ele>210</ele>
        <time>2014-06-01T08:45:12Z</time>
      </trkpt>
      <trkpt lat="48.64874" lon="6.45697">
        <ele>210</ele>
        <time>2014-06-01T08:45:17Z</time>
      </trkpt>
      <trkpt lat="48.64893" lon="6.45755">
        <ele>208</ele>
        <time>2014-06-01T08:45:22Z</time>
      </trkpt>
      <trkpt lat="48.64921" lon="6.45832">
        <ele>205</ele>
        <time>2014-06-01T08:45:28Z</time>
      </trkpt>
      <trkpt lat="48.64953" lon="6.45893">
        <ele>203</ele>
        <time>2014-06-01T08:45:33Z</time>
      </trkpt>
      <trkpt lat="48.64978" lon="6.45951">
        <ele>203</ele>
        <time>2014-06-01T08:45:38Z</time>
      </trkpt>
      <trkpt lat="48.64995" lon="6.46008">
        <ele>203</ele>
        <time>2014-06-01T08:45:43Z</time>
      </trkpt>
      <trkpt lat="48.65009" lon="6.46062">
        <ele>203</ele>
        <time>2014-06-01T08:45:48Z</time>
      </trkpt>
      <trkpt lat="48.65032" lon="6.46114">
        <ele>202</ele>
        <time>2014-06-01T08:45:54Z</time>
      </trkpt>
      <trkpt lat="48.65055" lon="6.46148">
        <ele>199</ele>
        <time>2014-06-01T08:45:59Z</time>
      </trkpt>
      <trkpt lat="48.65073" lon="6.46179">
        <ele>199</ele>
        <time>2014-06-01T08:46:04Z</time>
      </trkpt>
      <trkpt lat="48.65088" lon="6.46213">
        <ele>199</ele>
        <time>2014-06-01T08:46:09Z</time>
      </trkpt>
      <trkpt lat="48.651" lon="6.46253">
        <ele>199</ele>
        <time>2014-06-01T08:46:14Z</time>
      </trkpt>
      <trkpt lat="48.65113" lon="6.463">
        <ele>199</ele>
        <time>2014-06-01T08:46:19Z</time>
      </trkpt>
      <trkpt lat="48.65129" lon="6.46355">
        <ele>199</ele>
        <time>2014-06-01T08:46:25Z</time>
      </trkpt>
      <trkpt lat="48.65148" lon="6.46395">
        <ele>199</ele>
        <time>2014-06-01T08:46:30Z</time>
      </trkpt>
      <trkpt lat="48.65173" lon="6.46424">
        <ele>199</ele>
        <time>2014-06-01T08:46:35Z</time>
      </trkpt>
      <trkpt lat="48.65198" lon="6.46447">
        <ele>199</ele>
        <time>2014-06-01T08:46:40Z</time>
      </trkpt>
      <trkpt lat="48.65227" lon="6.46468">
        <ele>199</ele>
        <time>2014-06-01T08:46:46Z</time>
      </trkpt>
      <trkpt lat="48.65255" lon="6.46488">
        <ele>199</ele>
        <time>2014-06-01T08:46:52Z</time>
      </trkpt>
      <trkpt lat="48.65277" lon="6.46503">
        <ele>199</ele>
        <time>2014-06-01T08:46:57Z</time>
      </trkpt>
      <trkpt lat="48.65297" lon="6.4652">
        <ele>200</ele>
        <time>2014-06-01T08:47:02Z</time>
      </trkpt>
      <trkpt lat="48.65315" lon="6.46538">
        <ele>200</ele>
        <time>2014-06-01T08:47:07Z</time>
      </trkpt>
      <trkpt lat="48.65332" lon="6.46566">
        <ele>200</ele>
        <time>2014-06-01T08:47:12Z</time>
      </trkpt>
      <trkpt lat="48.65351" lon="6.46608">
        <ele>200</ele>
        <time>2014-06-01T08:47:18Z</time>
      </trkpt>
      <trkpt lat="48.65371" lon="6.46652">
        <ele>200</ele>
        <time>2014-06-01T08:47:24Z</time>
      </trkpt>
      <trkpt lat="48.65386" lon="6.46692">
        <ele>200</ele>
        <time>2014-06-01T08:47:29Z</time>
      </trkpt>
      <trkpt lat="48.65399" lon="6.46734">
        <ele>200</ele>
        <time>2014-06-01T08:47:34Z</time>
      </trkpt>
      <trkpt lat="48.65411" lon="6.46776">
        <ele>200</ele>
        <time>2014-06-01T08:47:39Z</time>
      </trkpt>
      <trkpt lat="48.6542" lon="6.46819">
        <ele>199</ele>
        <time>2014-06-01T08:47:44Z</time>
      </trkpt>
      <trkpt lat="48.65426" lon="6.46865">
        <ele>198</ele>
        <time>2014-06-01T08:47:49Z</time>
      </trkpt>
      <trkpt lat="48.65429" lon="6.46907">
        <ele>198</ele>
        <time>2014-06-01T08:47:54Z</time>
      </trkpt>
      <trkpt lat="48.6543" lon="6.46951">
        <ele>197</ele>
        <time>2014-06-01T08:47:59Z</time>
      </trkpt>
      <trkpt lat="48.65431" lon="6.46994">
        <ele>197</ele>
        <time>2014-06-01T08:48:04Z</time>
      </trkpt>
      <trkpt lat="48.6543" lon="6.47034">
        <ele>197</ele>
        <time>2014-06-01T08:48:09Z</time>
      </trkpt>
      <trkpt lat="48.65433" lon="6.47069">
        <ele>197</ele>
        <time>2014-06-01T08:48:14Z</time>
      </trkpt>
      <trkpt lat="48.65434" lon="6.47096">
        <ele>197</ele>
        <time>2014-06-01T08:48:19Z</time>
      </trkpt>
      <trkpt lat="48.65432" lon="6.47105">
        <ele>197</ele>
        <time>2014-06-01T08:48:24Z</time>
      </trkpt>
      <trkpt lat="48.65426" lon="6.47118">
        <ele>203</ele>
        <time>2014-06-01T08:48:30Z</time>
      </trkpt>
      <trkpt lat="48.65425" lon="6.47126">
        <ele>202</ele>
        <time>2014-06-01T08:48:36Z</time>
      </trkpt>
      <trkpt lat="48.65429" lon="6.47131">
        <ele>203</ele>
        <time>2014-06-01T08:48:42Z</time>
      </trkpt>
      <trkpt lat="48.6543" lon="6.47131">
        <ele>207</ele>
        <time>2014-06-01T08:48:47Z</time>
      </trkpt>
      <trkpt lat="48.65428" lon="6.47142">
        <ele>208</ele>
        <time>2014-06-01T08:49:07Z</time>
      </trkpt>
      <trkpt lat="48.65429" lon="6.47154">
        <ele>208</ele>
        <time>2014-06-01T08:49:12Z</time>
      </trkpt>
      <trkpt lat="48.65438" lon="6.4716">
        <ele>208</ele>
        <time>2014-06-01T08:49:17Z</time>
      </trkpt>
      <trkpt lat="48.65446" lon="6.47165">
        <ele>207</ele>
        <time>2014-06-01T08:49:22Z</time>
      </trkpt>
      <trkpt lat="48.65451" lon="6.47178">
        <ele>207</ele>
        <time>2014-06-01T08:49:27Z</time>
      </trkpt>
      <trkpt lat="48.65458" lon="6.47194">
        <ele>204</ele>
        <time>2014-06-01T08:49:32Z</time>
      </trkpt>
      <trkpt lat="48.65464" lon="6.47216">
        <ele>203</ele>
        <time>2014-06-01T08:49:37Z</time>
      </trkpt>
      <trkpt lat="48.65472" lon="6.4724">
        <ele>202</ele>
        <time>2014-06-01T08:49:42Z</time>
      </trkpt>
      <trkpt lat="48.65479" lon="6.47265">
        <ele>201</ele>
        <time>2014-06-01T08:49:47Z</time>
      </trkpt>
      <trkpt lat="48.65487" lon="6.47289">
        <ele>200</ele>
        <time>2014-06-01T08:49:52Z</time>
      </trkpt>
      <trkpt lat="48.65495" lon="6.47309">
        <ele>200</ele>
        <time>2014-06-01T08:49:57Z</time>
      </trkpt>
      <trkpt lat="48.65502" lon="6.47329">
        <ele>200</ele>
        <time>2014-06-01T08:50:02Z</time>
      </trkpt>
      <trkpt lat="48.6551" lon="6.47347">
        <ele>201</ele>
        <time>2014-06-01T08:50:07Z</time>
      </trkpt>
      <trkpt lat="48.65521" lon="6.47371">
        <ele>204</ele>
        <time>2014-06-01T08:50:12Z</time>
      </trkpt>
      <trkpt lat="48.65534" lon="6.47395">
        <ele>206</ele>
        <time>2014-06-01T08:50:17Z</time>
      </trkpt>
      <trkpt lat="48.65547" lon="6.47418">
        <ele>208</ele>
        <time>2014-06-01T08:50:22Z</time>
      </trkpt>
      <trkpt lat="48.6556" lon="6.4744">
        <ele>212</ele>
        <time>2014-06-01T08:50:27Z</time>
      </trkpt>
      <trkpt lat="48.65574" lon="6.47461">
        <ele>214</ele>
        <time>2014-06-01T08:50:32Z</time>
      </trkpt>
      <trkpt lat="48.65588" lon="6.47479">
        <ele>216</ele>
        <time>2014-06-01T08:50:37Z</time>
      </trkpt>
      <trkpt lat="48.65603" lon="6.47497">
        <ele>220</ele>
        <time>2014-06-01T08:50:42Z</time>
      </trkpt>
      <trkpt lat="48.65619" lon="6.47514">
        <ele>224</ele>
        <time>2014-06-01T08:50:47Z</time>
      </trkpt>
      <trkpt lat="48.65634" lon="6.47532">
        <ele>226</ele>
        <time>2014-06-01T08:50:52Z</time>
      </trkpt>
      <trkpt lat="48.6565" lon="6.47548">
        <ele>226</ele>
        <time>2014-06-01T08:50:57Z</time>
      </trkpt>
      <trkpt lat="48.65664" lon="6.47565">
        <ele>226</ele>
        <time>2014-06-01T08:51:02Z</time>
      </trkpt>
      <trkpt lat="48.65678" lon="6.47581">
        <ele>228</ele>
        <time>2014-06-01T08:51:07Z</time>
      </trkpt>
      <trkpt lat="48.65694" lon="6.47599">
        <ele>230</ele>
        <time>2014-06-01T08:51:12Z</time>
      </trkpt>
      <trkpt lat="48.6571" lon="6.47615">
        <ele>230</ele>
        <time>2014-06-01T08:51:17Z</time>
      </trkpt>
      <trkpt lat="48.65726" lon="6.47632">
        <ele>230</ele>
        <time>2014-06-01T08:51:22Z</time>
      </trkpt>
      <trkpt lat="48.6574" lon="6.47649">
        <ele>230</ele>
        <time>2014-06-01T08:51:27Z</time>
      </trkpt>
      <trkpt lat="48.65754" lon="6.47666">
        <ele>232</ele>
        <time>2014-06-01T08:51:32Z</time>
      </trkpt>
      <trkpt lat="48.65769" lon="6.47682">
        <ele>234</ele>
        <time>2014-06-01T08:51:37Z</time>
      </trkpt>
      <trkpt lat="48.65783" lon="6.477">
        <ele>236</ele>
        <time>2014-06-01T08:51:42Z</time>
      </trkpt>
      <trkpt lat="48.65797" lon="6.47717">
        <ele>238</ele>
        <time>2014-06-01T08:51:47Z</time>
      </trkpt>
      <trkpt lat="48.65813" lon="6.47733">
        <ele>238</ele>
        <time>2014-06-01T08:51:52Z</time>
      </trkpt>
      <trkpt lat="48.65829" lon="6.4775">
        <ele>238</ele>
        <time>2014-06-01T08:51:57Z</time>
      </trkpt>
      <trkpt lat="48.65844" lon="6.47766">
        <ele>238</ele>
        <time>2014-06-01T08:52:02Z</time>
      </trkpt>
      <trkpt lat="48.65859" lon="6.47784">
        <ele>238</ele>
        <time>2014-06-01T08:52:07Z</time>
      </trkpt>
      <trkpt lat="48.65873" lon="6.478">
        <ele>239</ele>
        <time>2014-06-01T08:52:12Z</time>
      </trkpt>
      <trkpt lat="48.65889" lon="6.47817">
        <ele>241</ele>
        <time>2014-06-01T08:52:17Z</time>
      </trkpt>
      <trkpt lat="48.65905" lon="6.47833">
        <ele>241</ele>
        <time>2014-06-01T08:52:22Z</time>
      </trkpt>
      <trkpt lat="48.6592" lon="6.4785">
        <ele>241</ele>
        <time>2014-06-01T08:52:27Z</time>
      </trkpt>
      <trkpt lat="48.65936" lon="6.47866">
        <ele>241</ele>
        <time>2014-06-01T08:52:32Z</time>
      </trkpt>
      <trkpt lat="48.65952" lon="6.47883">
        <ele>241</ele>
        <time>2014-06-01T08:52:37Z</time>
      </trkpt>
      <trkpt lat="48.65968" lon="6.47901">
        <ele>242</ele>
        <time>2014-06-01T08:52:42Z</time>
      </trkpt>
      <trkpt lat="48.65983" lon="6.4792">
        <ele>244</ele>
        <time>2014-06-01T08:52:47Z</time>
      </trkpt>
      <trkpt lat="48.65999" lon="6.47939">
        <ele>245</ele>
        <time>2014-06-01T08:52:52Z</time>
      </trkpt>
      <trkpt lat="48.66015" lon="6.47958">
        <ele>246</ele>
        <time>2014-06-01T08:52:57Z</time>
      </trkpt>
      <trkpt lat="48.66031" lon="6.47977">
        <ele>247</ele>
        <time>2014-06-01T08:53:02Z</time>
      </trkpt>
      <trkpt lat="48.66047" lon="6.47997">
        <ele>249</ele>
        <time>2014-06-01T08:53:07Z</time>
      </trkpt>
      <trkpt lat="48.66064" lon="6.48019">
        <ele>249</ele>
        <time>2014-06-01T08:53:12Z</time>
      </trkpt>
      <trkpt lat="48.66082" lon="6.48042">
        <ele>249</ele>
        <time>2014-06-01T08:53:17Z</time>
      </trkpt>
      <trkpt lat="48.66098" lon="6.48066">
        <ele>249</ele>
        <time>2014-06-01T08:53:22Z</time>
      </trkpt>
      <trkpt lat="48.66116" lon="6.4809">
        <ele>249</ele>
        <time>2014-06-01T08:53:27Z</time>
      </trkpt>
      <trkpt lat="48.66132" lon="6.48114">
        <ele>249</ele>
        <time>2014-06-01T08:53:32Z</time>
      </trkpt>
      <trkpt lat="48.66148" lon="6.48139">
        <ele>249</ele>
        <time>2014-06-01T08:53:37Z</time>
      </trkpt>
      <trkpt lat="48.66164" lon="6.48164">
        <ele>250</ele>
        <time>2014-06-01T08:53:42Z</time>
      </trkpt>
      <trkpt lat="48.66179" lon="6.4819">
        <ele>251</ele>
        <time>2014-06-01T08:53:47Z</time>
      </trkpt>
      <trkpt lat="48.66196" lon="6.48215">
        <ele>251</ele>
        <time>2014-06-01T08:53:52Z</time>
      </trkpt>
      <trkpt lat="48.66211" lon="6.48241">
        <ele>251</ele>
        <time>2014-06-01T08:53:57Z</time>
      </trkpt>
      <trkpt lat="48.66226" lon="6.48267">
        <ele>251</ele>
        <time>2014-06-01T08:54:02Z</time>
      </trkpt>
      <trkpt lat="48.66242" lon="6.48294">
        <ele>251</ele>
        <time>2014-06-01T08:54:07Z</time>
      </trkpt>
      <trkpt lat="48.66258" lon="6.4832">
        <ele>251</ele>
        <time>2014-06-01T08:54:12Z</time>
      </trkpt>
      <trkpt lat="48.66275" lon="6.4835">
        <ele>251</ele>
        <time>2014-06-01T08:54:17Z</time>
      </trkpt>
      <trkpt lat="48.66289" lon="6.48378">
        <ele>251</ele>
        <time>2014-06-01T08:54:22Z</time>
      </trkpt>
      <trkpt lat="48.66304" lon="6.48406">
        <ele>250</ele>
        <time>2014-06-01T08:54:27Z</time>
      </trkpt>
      <trkpt lat="48.66319" lon="6.48434">
        <ele>248</ele>
        <time>2014-06-01T08:54:32Z</time>
      </trkpt>
      <trkpt lat="48.66333" lon="6.48465">
        <ele>248</ele>
        <time>2014-06-01T08:54:37Z</time>
      </trkpt>
      <trkpt lat="48.66347" lon="6.48498">
        <ele>248</ele>
        <time>2014-06-01T08:54:42Z</time>
      </trkpt>
      <trkpt lat="48.66362" lon="6.48531">
        <ele>248</ele>
        <time>2014-06-01T08:54:47Z</time>
      </trkpt>
      <trkpt lat="48.66378" lon="6.48568">
        <ele>248</ele>
        <time>2014-06-01T08:54:52Z</time>
      </trkpt>
      <trkpt lat="48.66393" lon="6.48606">
        <ele>248</ele>
        <time>2014-06-01T08:54:57Z</time>
      </trkpt>
      <trkpt lat="48.66409" lon="6.48645">
        <ele>249</ele>
        <time>2014-06-01T08:55:02Z</time>
      </trkpt>
      <trkpt lat="48.66426" lon="6.48685">
        <ele>250</ele>
        <time>2014-06-01T08:55:07Z</time>
      </trkpt>
      <trkpt lat="48.66445" lon="6.48729">
        <ele>248</ele>
        <time>2014-06-01T08:55:12Z</time>
      </trkpt>
      <trkpt lat="48.66465" lon="6.48778">
        <ele>243</ele>
        <time>2014-06-01T08:55:17Z</time>
      </trkpt>
      <trkpt lat="48.66487" lon="6.48834">
        <ele>239</ele>
        <time>2014-06-01T08:55:22Z</time>
      </trkpt>
      <trkpt lat="48.6651" lon="6.48896">
        <ele>236</ele>
        <time>2014-06-01T08:55:27Z</time>
      </trkpt>
      <trkpt lat="48.66528" lon="6.48955">
        <ele>233</ele>
        <time>2014-06-01T08:55:32Z</time>
      </trkpt>
      <trkpt lat="48.66535" lon="6.48982">
        <ele>231</ele>
        <time>2014-06-01T08:55:37Z</time>
      </trkpt>
      <trkpt lat="48.66541" lon="6.48997">
        <ele>228</ele>
        <time>2014-06-01T08:55:42Z</time>
      </trkpt>
      <trkpt lat="48.66546" lon="6.49025">
        <ele>228</ele>
        <time>2014-06-01T08:55:47Z</time>
      </trkpt>
      <trkpt lat="48.66561" lon="6.49053">
        <ele>228</ele>
        <time>2014-06-01T08:55:52Z</time>
      </trkpt>
      <trkpt lat="48.66578" lon="6.49081">
        <ele>230</ele>
        <time>2014-06-01T08:55:57Z</time>
      </trkpt>
      <trkpt lat="48.66592" lon="6.49111">
        <ele>232</ele>
        <time>2014-06-01T08:56:02Z</time>
      </trkpt>
      <trkpt lat="48.66605" lon="6.49145">
        <ele>232</ele>
        <time>2014-06-01T08:56:07Z</time>
      </trkpt>
      <trkpt lat="48.66618" lon="6.49179">
        <ele>233</ele>
        <time>2014-06-01T08:56:12Z</time>
      </trkpt>
      <trkpt lat="48.6663" lon="6.49212">
        <ele>235</ele>
        <time>2014-06-01T08:56:17Z</time>
      </trkpt>
      <trkpt lat="48.66644" lon="6.49246">
        <ele>237</ele>
        <time>2014-06-01T08:56:22Z</time>
      </trkpt>
      <trkpt lat="48.66657" lon="6.4928">
        <ele>237</ele>
        <time>2014-06-01T08:56:27Z</time>
      </trkpt>
      <trkpt lat="48.66671" lon="6.49315">
        <ele>238</ele>
        <time>2014-06-01T08:56:32Z</time>
      </trkpt>
      <trkpt lat="48.66685" lon="6.49351">
        <ele>238</ele>
        <time>2014-06-01T08:56:37Z</time>
      </trkpt>
      <trkpt lat="48.66699" lon="6.4939">
        <ele>238</ele>
        <time>2014-06-01T08:56:42Z</time>
      </trkpt>
      <trkpt lat="48.66713" lon="6.49427">
        <ele>238</ele>
        <time>2014-06-01T08:56:47Z</time>
      </trkpt>
      <trkpt lat="48.66728" lon="6.49466">
        <ele>238</ele>
        <time>2014-06-01T08:56:52Z</time>
      </trkpt>
      <trkpt lat="48.66743" lon="6.49505">
        <ele>238</ele>
        <time>2014-06-01T08:56:57Z</time>
      </trkpt>
      <trkpt lat="48.66758" lon="6.49543">
        <ele>238</ele>
        <time>2014-06-01T08:57:02Z</time>
      </trkpt>
      <trkpt lat="48.66772" lon="6.4958">
        <ele>236</ele>
        <time>2014-06-01T08:57:07Z</time>
      </trkpt>
      <trkpt lat="48.66787" lon="6.49619">
        <ele>236</ele>
        <time>2014-06-01T08:57:12Z</time>
      </trkpt>
      <trkpt lat="48.668" lon="6.49657">
        <ele>236</ele>
        <time>2014-06-01T08:57:17Z</time>
      </trkpt>
      <trkpt lat="48.66814" lon="6.49697">
        <ele>236</ele>
        <time>2014-06-01T08:57:22Z</time>
      </trkpt>
      <trkpt lat="48.66827" lon="6.49734">
        <ele>236</ele>
        <time>2014-06-01T08:57:27Z</time>
      </trkpt>
      <trkpt lat="48.6684" lon="6.49771">
        <ele>236</ele>
        <time>2014-06-01T08:57:32Z</time>
      </trkpt>
      <trkpt lat="48.66853" lon="6.49809">
        <ele>235</ele>
        <time>2014-06-01T08:57:37Z</time>
      </trkpt>
      <trkpt lat="48.66865" lon="6.49847">
        <ele>233</ele>
        <time>2014-06-01T08:57:42Z</time>
      </trkpt>
      <trkpt lat="48.66877" lon="6.49886">
        <ele>230</ele>
        <time>2014-06-01T08:57:47Z</time>
      </trkpt>
      <trkpt lat="48.66885" lon="6.49925">
        <ele>230</ele>
        <time>2014-06-01T08:57:52Z</time>
      </trkpt>
      <trkpt lat="48.66894" lon="6.49965">
        <ele>232</ele>
        <time>2014-06-01T08:57:57Z</time>
      </trkpt>
      <trkpt lat="48.66903" lon="6.50005">
        <ele>232</ele>
        <time>2014-06-01T08:58:02Z</time>
      </trkpt>
      <trkpt lat="48.6691" lon="6.50047">
        <ele>236</ele>
        <time>2014-06-01T08:58:07Z</time>
      </trkpt>
      <trkpt lat="48.66918" lon="6.50089">
        <ele>241</ele>
        <time>2014-06-01T08:58:12Z</time>
      </trkpt>
      <trkpt lat="48.66925" lon="6.50131">
        <ele>245</ele>
        <time>2014-06-01T08:58:17Z</time>
      </trkpt>
      <trkpt lat="48.66934" lon="6.50173">
        <ele>247</ele>
        <time>2014-06-01T08:58:22Z</time>
      </trkpt>
      <trkpt lat="48.66941" lon="6.50216">
        <ele>248</ele>
        <time>2014-06-01T08:58:27Z</time>
      </trkpt>
      <trkpt lat="48.66949" lon="6.50259">
        <ele>248</ele>
        <time>2014-06-01T08:58:32Z</time>
      </trkpt>
      <trkpt lat="48.66957" lon="6.50303">
        <ele>248</ele>
        <time>2014-06-01T08:58:37Z</time>
      </trkpt>
      <trkpt lat="48.66965" lon="6.50346">
        <ele>248</ele>
        <time>2014-06-01T08:58:42Z</time>
      </trkpt>
      <trkpt lat="48.66972" lon="6.50388">
        <ele>248</ele>
        <time>2014-06-01T08:58:47Z</time>
      </trkpt>
      <trkpt lat="48.66979" lon="6.50428">
        <ele>248</ele>
        <time>2014-06-01T08:58:52Z</time>
      </trkpt>
      <trkpt lat="48.66986" lon="6.50471">
        <ele>248</ele>
        <time>2014-06-01T08:58:57Z</time>
      </trkpt>
      <trkpt lat="48.66994" lon="6.50518">
        <ele>248</ele>
        <time>2014-06-01T08:59:02Z</time>
      </trkpt>
      <trkpt lat="48.67002" lon="6.50567">
        <ele>248</ele>
        <time>2014-06-01T08:59:07Z</time>
      </trkpt>
      <trkpt lat="48.67011" lon="6.50619">
        <ele>248</ele>
        <time>2014-06-01T08:59:12Z</time>
      </trkpt>
      <trkpt lat="48.67021" lon="6.50675">
        <ele>247</ele>
        <time>2014-06-01T08:59:17Z</time>
      </trkpt>
      <trkpt lat="48.67031" lon="6.50738">
        <ele>246</ele>
        <time>2014-06-01T08:59:22Z</time>
      </trkpt>
      <trkpt lat="48.67043" lon="6.50807">
        <ele>243</ele>
        <time>2014-06-01T08:59:27Z</time>
      </trkpt>
      <trkpt lat="48.67058" lon="6.50896">
        <ele>240</ele>
        <time>2014-06-01T08:59:33Z</time>
      </trkpt>
      <trkpt lat="48.6707" lon="6.50972">
        <ele>239</ele>
        <time>2014-06-01T08:59:38Z</time>
      </trkpt>
      <trkpt lat="48.67083" lon="6.51053">
        <ele>237</ele>
        <time>2014-06-01T08:59:43Z</time>
      </trkpt>
      <trkpt lat="48.67096" lon="6.51134">
        <ele>236</ele>
        <time>2014-06-01T08:59:48Z</time>
      </trkpt>
      <trkpt lat="48.67109" lon="6.51209">
        <ele>235</ele>
        <time>2014-06-01T08:59:53Z</time>
      </trkpt>
      <trkpt lat="48.67122" lon="6.51279">
        <ele>232</ele>
        <time>2014-06-01T08:59:58Z</time>
      </trkpt>
      <trkpt lat="48.67134" lon="6.51347">
        <ele>230</ele>
        <time>2014-06-01T09:00:03Z</time>
      </trkpt>
      <trkpt lat="48.67145" lon="6.51411">
        <ele>227</ele>
        <time>2014-06-01T09:00:08Z</time>
      </trkpt>
      <trkpt lat="48.67155" lon="6.51465">
        <ele>225</ele>
        <time>2014-06-01T09:00:13Z</time>
      </trkpt>
      <trkpt lat="48.67163" lon="6.51507">
        <ele>224</ele>
        <time>2014-06-01T09:00:18Z</time>
      </trkpt>
      <trkpt lat="48.6717" lon="6.51546">
        <ele>222</ele>
        <time>2014-06-01T09:00:23Z</time>
      </trkpt>
      <trkpt lat="48.67177" lon="6.51582">
        <ele>220</ele>
        <time>2014-06-01T09:00:28Z</time>
      </trkpt>
      <trkpt lat="48.67182" lon="6.51611">
        <ele>218</ele>
        <time>2014-06-01T09:00:33Z</time>
      </trkpt>
      <trkpt lat="48.67187" lon="6.51641">
        <ele>218</ele>
        <time>2014-06-01T09:00:38Z</time>
      </trkpt>
      <trkpt lat="48.67192" lon="6.51668">
        <ele>217</ele>
        <time>2014-06-01T09:00:43Z</time>
      </trkpt>
      <trkpt lat="48.67197" lon="6.51693">
        <ele>217</ele>
        <time>2014-06-01T09:00:48Z</time>
      </trkpt>
      <trkpt lat="48.67202" lon="6.51718">
        <ele>217</ele>
        <time>2014-06-01T09:00:53Z</time>
      </trkpt>
      <trkpt lat="48.67206" lon="6.51743">
        <ele>217</ele>
        <time>2014-06-01T09:00:58Z</time>
      </trkpt>
      <trkpt lat="48.6721" lon="6.51769">
        <ele>217</ele>
        <time>2014-06-01T09:01:03Z</time>
      </trkpt>
      <trkpt lat="48.67215" lon="6.51798">
        <ele>217</ele>
        <time>2014-06-01T09:01:08Z</time>
      </trkpt>
      <trkpt lat="48.67221" lon="6.51823">
        <ele>217</ele>
        <time>2014-06-01T09:01:13Z</time>
      </trkpt>
      <trkpt lat="48.67226" lon="6.51851">
        <ele>216</ele>
        <time>2014-06-01T09:01:18Z</time>
      </trkpt>
      <trkpt lat="48.67229" lon="6.51874">
        <ele>216</ele>
        <time>2014-06-01T09:01:23Z</time>
      </trkpt>
      <trkpt lat="48.67233" lon="6.51899">
        <ele>216</ele>
        <time>2014-06-01T09:01:28Z</time>
      </trkpt>
      <trkpt lat="48.67237" lon="6.51922">
        <ele>217</ele>
        <time>2014-06-01T09:01:33Z</time>
      </trkpt>
      <trkpt lat="48.6724" lon="6.51946">
        <ele>219</ele>
        <time>2014-06-01T09:01:38Z</time>
      </trkpt>
      <trkpt lat="48.67244" lon="6.51971">
        <ele>220</ele>
        <time>2014-06-01T09:01:43Z</time>
      </trkpt>
      <trkpt lat="48.67249" lon="6.51995">
        <ele>220</ele>
        <time>2014-06-01T09:01:48Z</time>
      </trkpt>
      <trkpt lat="48.67254" lon="6.52021">
        <ele>220</ele>
        <time>2014-06-01T09:01:53Z</time>
      </trkpt>
      <trkpt lat="48.67258" lon="6.52047">
        <ele>220</ele>
        <time>2014-06-01T09:01:58Z</time>
      </trkpt>
      <trkpt lat="48.67262" lon="6.52076">
        <ele>222</ele>
        <time>2014-06-01T09:02:03Z</time>
      </trkpt>
      <trkpt lat="48.67268" lon="6.52105">
        <ele>223</ele>
        <time>2014-06-01T09:02:08Z</time>
      </trkpt>
      <trkpt lat="48.67272" lon="6.52132">
        <ele>224</ele>
        <time>2014-06-01T09:02:13Z</time>
      </trkpt>
      <trkpt lat="48.67277" lon="6.52162">
        <ele>225</ele>
        <time>2014-06-01T09:02:18Z</time>
      </trkpt>
      <trkpt lat="48.67281" lon="6.52188">
        <ele>226</ele>
        <time>2014-06-01T09:02:23Z</time>
      </trkpt>
      <trkpt lat="48.67286" lon="6.52216">
        <ele>226</ele>
        <time>2014-06-01T09:02:28Z</time>
      </trkpt>
      <trkpt lat="48.6729" lon="6.52243">
        <ele>228</ele>
        <time>2014-06-01T09:02:33Z</time>
      </trkpt>
      <trkpt lat="48.67295" lon="6.52269">
        <ele>229</ele>
        <time>2014-06-01T09:02:38Z</time>
      </trkpt>
      <trkpt lat="48.673" lon="6.52296">
        <ele>230</ele>
        <time>2014-06-01T09:02:43Z</time>
      </trkpt>
      <trkpt lat="48.67304" lon="6.52325">
        <ele>230</ele>
        <time>2014-06-01T09:02:48Z</time>
      </trkpt>
      <trkpt lat="48.67309" lon="6.52357">
        <ele>232</ele>
        <time>2014-06-01T09:02:53Z</time>
      </trkpt>
      <trkpt lat="48.67315" lon="6.5239">
        <ele>234</ele>
        <time>2014-06-01T09:02:58Z</time>
      </trkpt>
      <trkpt lat="48.67321" lon="6.52426">
        <ele>234</ele>
        <time>2014-06-01T09:03:03Z</time>
      </trkpt>
      <trkpt lat="48.67328" lon="6.52464">
        <ele>234</ele>
        <time>2014-06-01T09:03:08Z</time>
      </trkpt>
      <trkpt lat="48.67333" lon="6.52503">
        <ele>235</ele>
        <time>2014-06-01T09:03:13Z</time>
      </trkpt>
      <trkpt lat="48.67332" lon="6.52564">
        <ele>235</ele>
        <time>2014-06-01T09:03:19Z</time>
      </trkpt>
      <trkpt lat="48.67309" lon="6.52616">
        <ele>233</ele>
        <time>2014-06-01T09:03:24Z</time>
      </trkpt>
      <trkpt lat="48.67296" lon="6.52671">
        <ele>230</ele>
        <time>2014-06-01T09:03:29Z</time>
      </trkpt>
      <trkpt lat="48.67301" lon="6.5271">
        <ele>230</ele>
        <time>2014-06-01T09:03:34Z</time>
      </trkpt>
      <trkpt lat="48.67313" lon="6.5275">
        <ele>230</ele>
        <time>2014-06-01T09:03:39Z</time>
      </trkpt>
      <trkpt lat="48.67329" lon="6.52788">
        <ele>230</ele>
        <time>2014-06-01T09:03:44Z</time>
      </trkpt>
      <trkpt lat="48.67355" lon="6.52799">
        <ele>234</ele>
        <time>2014-06-01T09:03:49Z</time>
      </trkpt>
      <trkpt lat="48.67379" lon="6.52811">
        <ele>238</ele>
        <time>2014-06-01T09:03:54Z</time>
      </trkpt>
      <trkpt lat="48.674" lon="6.52835">
        <ele>240</ele>
        <time>2014-06-01T09:03:59Z</time>
      </trkpt>
      <trkpt lat="48.67415" lon="6.52866">
        <ele>242</ele>
        <time>2014-06-01T09:04:04Z</time>
      </trkpt>
      <trkpt lat="48.6743" lon="6.52898">
        <ele>243</ele>
        <time>2014-06-01T09:04:09Z</time>
      </trkpt>
      <trkpt lat="48.67448" lon="6.52932">
        <ele>244</ele>
        <time>2014-06-01T09:04:14Z</time>
      </trkpt>
      <trkpt lat="48.67466" lon="6.52967">
        <ele>244</ele>
        <time>2014-06-01T09:04:19Z</time>
      </trkpt>
      <trkpt lat="48.67484" lon="6.53001">
        <ele>245</ele>
        <time>2014-06-01T09:04:24Z</time>
      </trkpt>
      <trkpt lat="48.67502" lon="6.53035">
        <ele>245</ele>
        <time>2014-06-01T09:04:29Z</time>
      </trkpt>
      <trkpt lat="48.67519" lon="6.53069">
        <ele>245</ele>
        <time>2014-06-01T09:04:34Z</time>
      </trkpt>
      <trkpt lat="48.67535" lon="6.531">
        <ele>245</ele>
        <time>2014-06-01T09:04:39Z</time>
      </trkpt>
      <trkpt lat="48.67553" lon="6.53131">
        <ele>246</ele>
        <time>2014-06-01T09:04:44Z</time>
      </trkpt>
      <trkpt lat="48.67573" lon="6.53164">
        <ele>246</ele>
        <time>2014-06-01T09:04:50Z</time>
      </trkpt>
      <trkpt lat="48.67584" lon="6.53188">
        <ele>247</ele>
        <time>2014-06-01T09:04:55Z</time>
      </trkpt>
      <trkpt lat="48.67595" lon="6.53215">
        <ele>247</ele>
        <time>2014-06-01T09:05:00Z</time>
      </trkpt>
      <trkpt lat="48.67611" lon="6.53258">
        <ele>247</ele>
        <time>2014-06-01T09:05:06Z</time>
      </trkpt>
      <trkpt lat="48.67625" lon="6.53297">
        <ele>247</ele>
        <time>2014-06-01T09:05:11Z</time>
      </trkpt>
      <trkpt lat="48.67638" lon="6.53335">
        <ele>247</ele>
        <time>2014-06-01T09:05:16Z</time>
      </trkpt>
      <trkpt lat="48.67653" lon="6.53376">
        <ele>247</ele>
        <time>2014-06-01T09:05:22Z</time>
      </trkpt>
      <trkpt lat="48.67664" lon="6.5341">
        <ele>247</ele>
        <time>2014-06-01T09:05:27Z</time>
      </trkpt>
      <trkpt lat="48.67674" lon="6.53445">
        <ele>247</ele>
        <time>2014-06-01T09:05:32Z</time>
      </trkpt>
      <trkpt lat="48.67683" lon="6.53476">
        <ele>247</ele>
        <time>2014-06-01T09:05:37Z</time>
      </trkpt>
      <trkpt lat="48.67692" lon="6.5351">
        <ele>247</ele>
        <time>2014-06-01T09:05:42Z</time>
      </trkpt>
      <trkpt lat="48.67702" lon="6.53544">
        <ele>246</ele>
        <time>2014-06-01T09:05:47Z</time>
      </trkpt>
      <trkpt lat="48.67717" lon="6.5359">
        <ele>244</ele>
        <time>2014-06-01T09:05:53Z</time>
      </trkpt>
      <trkpt lat="48.67737" lon="6.53639">
        <ele>241</ele>
        <time>2014-06-01T09:05:58Z</time>
      </trkpt>
      <trkpt lat="48.67772" lon="6.53716">
        <ele>237</ele>
        <time>2014-06-01T09:06:04Z</time>
      </trkpt>
      <trkpt lat="48.6779" lon="6.53794">
        <ele>234</ele>
        <time>2014-06-01T09:06:09Z</time>
      </trkpt>
      <trkpt lat="48.67777" lon="6.53872">
        <ele>231</ele>
        <time>2014-06-01T09:06:14Z</time>
      </trkpt>
      <trkpt lat="48.67745" lon="6.53935">
        <ele>231</ele>
        <time>2014-06-01T09:06:19Z</time>
      </trkpt>
      <trkpt lat="48.67717" lon="6.53997">
        <ele>231</ele>
        <time>2014-06-01T09:06:24Z</time>
      </trkpt>
      <trkpt lat="48.67705" lon="6.54059">
        <ele>231</ele>
        <time>2014-06-01T09:06:29Z</time>
      </trkpt>
      <trkpt lat="48.67703" lon="6.54113">
        <ele>231</ele>
        <time>2014-06-01T09:06:34Z</time>
      </trkpt>
      <trkpt lat="48.67703" lon="6.54162">
        <ele>231</ele>
        <time>2014-06-01T09:06:39Z</time>
      </trkpt>
      <trkpt lat="48.67703" lon="6.54206">
        <ele>231</ele>
        <time>2014-06-01T09:06:44Z</time>
      </trkpt>
      <trkpt lat="48.67705" lon="6.54252">
        <ele>231</ele>
        <time>2014-06-01T09:06:49Z</time>
      </trkpt>
      <trkpt lat="48.67707" lon="6.54301">
        <ele>231</ele>
        <time>2014-06-01T09:06:54Z</time>
      </trkpt>
      <trkpt lat="48.67709" lon="6.54351">
        <ele>231</ele>
        <time>2014-06-01T09:06:59Z</time>
      </trkpt>
      <trkpt lat="48.67712" lon="6.54414">
        <ele>231</ele>
        <time>2014-06-01T09:07:05Z</time>
      </trkpt>
      <trkpt lat="48.67715" lon="6.54469">
        <ele>231</ele>
        <time>2014-06-01T09:07:10Z</time>
      </trkpt>
      <trkpt lat="48.67719" lon="6.54533">
        <ele>228</ele>
        <time>2014-06-01T09:07:16Z</time>
      </trkpt>
      <trkpt lat="48.67716" lon="6.54588">
        <ele>228</ele>
        <time>2014-06-01T09:07:21Z</time>
      </trkpt>
      <trkpt lat="48.67701" lon="6.54637">
        <ele>228</ele>
        <time>2014-06-01T09:07:26Z</time>
      </trkpt>
      <trkpt lat="48.67674" lon="6.54674">
        <ele>227</ele>
        <time>2014-06-01T09:07:31Z</time>
      </trkpt>
      <trkpt lat="48.67647" lon="6.54705">
        <ele>227</ele>
        <time>2014-06-01T09:07:36Z</time>
      </trkpt>
      <trkpt lat="48.67619" lon="6.54734">
        <ele>227</ele>
        <time>2014-06-01T09:07:41Z</time>
      </trkpt>
      <trkpt lat="48.67592" lon="6.54761">
        <ele>227</ele>
        <time>2014-06-01T09:07:46Z</time>
      </trkpt>
      <trkpt lat="48.67557" lon="6.54791">
        <ele>227</ele>
        <time>2014-06-01T09:07:52Z</time>
      </trkpt>
      <trkpt lat="48.6752" lon="6.54812">
        <ele>226</ele>
        <time>2014-06-01T09:07:57Z</time>
      </trkpt>
      <trkpt lat="48.6748" lon="6.54828">
        <ele>225</ele>
        <time>2014-06-01T09:08:02Z</time>
      </trkpt>
      <trkpt lat="48.67437" lon="6.54847">
        <ele>223</ele>
        <time>2014-06-01T09:08:07Z</time>
      </trkpt>
      <trkpt lat="48.67395" lon="6.54878">
        <ele>222</ele>
        <time>2014-06-01T09:08:12Z</time>
      </trkpt>
      <trkpt lat="48.67387" lon="6.54941">
        <ele>222</ele>
        <time>2014-06-01T09:08:17Z</time>
      </trkpt>
      <trkpt lat="48.67395" lon="6.55">
        <ele>221</ele>
        <time>2014-06-01T09:08:22Z</time>
      </trkpt>
      <trkpt lat="48.67399" lon="6.55056">
        <ele>220</ele>
        <time>2014-06-01T09:08:27Z</time>
      </trkpt>
      <trkpt lat="48.67401" lon="6.55108">
        <ele>218</ele>
        <time>2014-06-01T09:08:32Z</time>
      </trkpt>
      <trkpt lat="48.674" lon="6.55157">
        <ele>217</ele>
        <time>2014-06-01T09:08:37Z</time>
      </trkpt>
      <trkpt lat="48.67397" lon="6.55201">
        <ele>216</ele>
        <time>2014-06-01T09:08:42Z</time>
      </trkpt>
      <trkpt lat="48.67397" lon="6.55245">
        <ele>215</ele>
        <time>2014-06-01T09:08:47Z</time>
      </trkpt>
      <trkpt lat="48.67403" lon="6.5529">
        <ele>215</ele>
        <time>2014-06-01T09:08:52Z</time>
      </trkpt>
      <trkpt lat="48.67414" lon="6.55333">
        <ele>215</ele>
        <time>2014-06-01T09:08:57Z</time>
      </trkpt>
      <trkpt lat="48.67431" lon="6.55373">
        <ele>214</ele>
        <time>2014-06-01T09:09:02Z</time>
      </trkpt>
      <trkpt lat="48.67451" lon="6.55407">
        <ele>214</ele>
        <time>2014-06-01T09:09:07Z</time>
      </trkpt>
      <trkpt lat="48.67475" lon="6.55434">
        <ele>214</ele>
        <time>2014-06-01T09:09:12Z</time>
      </trkpt>
      <trkpt lat="48.67499" lon="6.55454">
        <ele>214</ele>
        <time>2014-06-01T09:09:17Z</time>
      </trkpt>
      <trkpt lat="48.67517" lon="6.55472">
        <ele>214</ele>
        <time>2014-06-01T09:09:22Z</time>
      </trkpt>
      <trkpt lat="48.67534" lon="6.55489">
        <ele>214</ele>
        <time>2014-06-01T09:09:27Z</time>
      </trkpt>
      <trkpt lat="48.67549" lon="6.55502">
        <ele>214</ele>
        <time>2014-06-01T09:09:32Z</time>
      </trkpt>
      <trkpt lat="48.67564" lon="6.55515">
        <ele>217</ele>
        <time>2014-06-01T09:09:37Z</time>
      </trkpt>
      <trkpt lat="48.67574" lon="6.55526">
        <ele>218</ele>
        <time>2014-06-01T09:09:42Z</time>
      </trkpt>
      <trkpt lat="48.67575" lon="6.55538">
        <ele>218</ele>
        <time>2014-06-01T09:09:47Z</time>
      </trkpt>
      <trkpt lat="48.67572" lon="6.55546">
        <ele>218</ele>
        <time>2014-06-01T09:09:52Z</time>
      </trkpt>
      <trkpt lat="48.67575" lon="6.55544">
        <ele>226</ele>
        <time>2014-06-01T09:09:58Z</time>
      </trkpt>
      <trkpt lat="48.67578" lon="6.55538">
        <ele>226</ele>
        <time>2014-06-01T09:10:04Z</time>
      </trkpt>
      <trkpt lat="48.67587" lon="6.55545">
        <ele>226</ele>
        <time>2014-06-01T09:10:09Z</time>
      </trkpt>
      <trkpt lat="48.67598" lon="6.55565">
        <ele>222</ele>
        <time>2014-06-01T09:10:15Z</time>
      </trkpt>
      <trkpt lat="48.67609" lon="6.55594">
        <ele>220</ele>
        <time>2014-06-01T09:10:20Z</time>
      </trkpt>
      <trkpt lat="48.67625" lon="6.5563">
        <ele>216</ele>
        <time>2014-06-01T09:10:25Z</time>
      </trkpt>
      <trkpt lat="48.67636" lon="6.55661">
        <ele>213</ele>
        <time>2014-06-01T09:10:30Z</time>
      </trkpt>
      <trkpt lat="48.67643" lon="6.55684">
        <ele>212</ele>
        <time>2014-06-01T09:10:35Z</time>
      </trkpt>
      <trkpt lat="48.67647" lon="6.55697">
        <ele>210</ele>
        <time>2014-06-01T09:10:40Z</time>
      </trkpt>
      <trkpt lat="48.67646" lon="6.55724">
        <ele>225</ele>
        <time>2014-06-01T09:10:49Z</time>
      </trkpt>
      <trkpt lat="48.6765" lon="6.5574">
        <ele>225</ele>
        <time>2014-06-01T09:10:54Z</time>
      </trkpt>
      <trkpt lat="48.67654" lon="6.55762">
        <ele>224</ele>
        <time>2014-06-01T09:10:59Z</time>
      </trkpt>
      <trkpt lat="48.67658" lon="6.55786">
        <ele>222</ele>
        <time>2014-06-01T09:11:04Z</time>
      </trkpt>
      <trkpt lat="48.67659" lon="6.55811">
        <ele>222</ele>
        <time>2014-06-01T09:11:09Z</time>
      </trkpt>
      <trkpt lat="48.67661" lon="6.55842">
        <ele>222</ele>
        <time>2014-06-01T09:11:14Z</time>
      </trkpt>
      <trkpt lat="48.67664" lon="6.5588">
        <ele>222</ele>
        <time>2014-06-01T09:11:19Z</time>
      </trkpt>
      <trkpt lat="48.67666" lon="6.55925">
        <ele>222</ele>
        <time>2014-06-01T09:11:24Z</time>
      </trkpt>
      <trkpt lat="48.67669" lon="6.55969">
        <ele>222</ele>
        <time>2014-06-01T09:11:29Z</time>
      </trkpt>
      <trkpt lat="48.67673" lon="6.56013">
        <ele>222</ele>
        <time>2014-06-01T09:11:34Z</time>
      </trkpt>
      <trkpt lat="48.67676" lon="6.56059">
        <ele>222</ele>
        <time>2014-06-01T09:11:39Z</time>
      </trkpt>
      <trkpt lat="48.67679" lon="6.56104">
        <ele>222</ele>
        <time>2014-06-01T09:11:44Z</time>
      </trkpt>
      <trkpt lat="48.67683" lon="6.56148">
        <ele>222</ele>
        <time>2014-06-01T09:11:49Z</time>
      </trkpt>
      <trkpt lat="48.67686" lon="6.56192">
        <ele>222</ele>
        <time>2014-06-01T09:11:54Z</time>
      </trkpt>
      <trkpt lat="48.67692" lon="6.56236">
        <ele>222</ele>
        <time>2014-06-01T09:11:59Z</time>
      </trkpt>
      <trkpt lat="48.67699" lon="6.56277">
        <ele>222</ele>
        <time>2014-06-01T09:12:04Z</time>
      </trkpt>
      <trkpt lat="48.67707" lon="6.56314">
        <ele>222</ele>
        <time>2014-06-01T09:12:09Z</time>
      </trkpt>
      <trkpt lat="48.67718" lon="6.56345">
        <ele>222</ele>
        <time>2014-06-01T09:12:14Z</time>
      </trkpt>
      <trkpt lat="48.6773" lon="6.56374">
        <ele>222</ele>
        <time>2014-06-01T09:12:19Z</time>
      </trkpt>
      <trkpt lat="48.67743" lon="6.56404">
        <ele>222</ele>
        <time>2014-06-01T09:12:24Z</time>
      </trkpt>
      <trkpt lat="48.67756" lon="6.56433">
        <ele>221</ele>
        <time>2014-06-01T09:12:29Z</time>
      </trkpt>
      <trkpt lat="48.67769" lon="6.56461">
        <ele>220</ele>
        <time>2014-06-01T09:12:34Z</time>
      </trkpt>
      <trkpt lat="48.67786" lon="6.56493">
        <ele>220</ele>
        <time>2014-06-01T09:12:39Z</time>
      </trkpt>
      <trkpt lat="48.67804" lon="6.56521">
        <ele>220</ele>
        <time>2014-06-01T09:12:44Z</time>
      </trkpt>
      <trkpt lat="48.6782" lon="6.5655">
        <ele>220</ele>
        <time>2014-06-01T09:12:49Z</time>
      </trkpt>
      <trkpt lat="48.67837" lon="6.56578">
        <ele>220</ele>
        <time>2014-06-01T09:12:54Z</time>
      </trkpt>
      <trkpt lat="48.67853" lon="6.56615">
        <ele>220</ele>
        <time>2014-06-01T09:12:59Z</time>
      </trkpt>
      <trkpt lat="48.67865" lon="6.56661">
        <ele>220</ele>
        <time>2014-06-01T09:13:04Z</time>
      </trkpt>
      <trkpt lat="48.67871" lon="6.56706">
        <ele>220</ele>
        <time>2014-06-01T09:13:09Z</time>
      </trkpt>
      <trkpt lat="48.67875" lon="6.56751">
        <ele>220</ele>
        <time>2014-06-01T09:13:14Z</time>
      </trkpt>
      <trkpt lat="48.67878" lon="6.56796">
        <ele>220</ele>
        <time>2014-06-01T09:13:19Z</time>
      </trkpt>
      <trkpt lat="48.67881" lon="6.56838">
        <ele>220</ele>
        <time>2014-06-01T09:13:24Z</time>
      </trkpt>
      <trkpt lat="48.67882" lon="6.56877">
        <ele>220</ele>
        <time>2014-06-01T09:13:29Z</time>
      </trkpt>
      <trkpt lat="48.67884" lon="6.56917">
        <ele>220</ele>
        <time>2014-06-01T09:13:34Z</time>
      </trkpt>
      <trkpt lat="48.67887" lon="6.56961">
        <ele>221</ele>
        <time>2014-06-01T09:13:39Z</time>
      </trkpt>
      <trkpt lat="48.67891" lon="6.57003">
        <ele>222</ele>
        <time>2014-06-01T09:13:44Z</time>
      </trkpt>
      <trkpt lat="48.67893" lon="6.57043">
        <ele>222</ele>
        <time>2014-06-01T09:13:49Z</time>
      </trkpt>
      <trkpt lat="48.67896" lon="6.5708">
        <ele>223</ele>
        <time>2014-06-01T09:13:54Z</time>
      </trkpt>
      <trkpt lat="48.67899" lon="6.57116">
        <ele>224</ele>
        <time>2014-06-01T09:13:59Z</time>
      </trkpt>
      <trkpt lat="48.67899" lon="6.57151">
        <ele>225</ele>
        <time>2014-06-01T09:14:04Z</time>
      </trkpt>
      <trkpt lat="48.67896" lon="6.57189">
        <ele>225</ele>
        <time>2014-06-01T09:14:09Z</time>
      </trkpt>
      <trkpt lat="48.67888" lon="6.57229">
        <ele>225</ele>
        <time>2014-06-01T09:14:14Z</time>
      </trkpt>
      <trkpt lat="48.6788" lon="6.57268">
        <ele>225</ele>
        <time>2014-06-01T09:14:19Z</time>
      </trkpt>
      <trkpt lat="48.67872" lon="6.57304">
        <ele>225</ele>
        <time>2014-06-01T09:14:24Z</time>
      </trkpt>
      <trkpt lat="48.67866" lon="6.57339">
        <ele>225</ele>
        <time>2014-06-01T09:14:29Z</time>
      </trkpt>
      <trkpt lat="48.67863" lon="6.5737">
        <ele>225</ele>
        <time>2014-06-01T09:14:34Z</time>
      </trkpt>
      <trkpt lat="48.67863" lon="6.574">
        <ele>225</ele>
        <time>2014-06-01T09:14:39Z</time>
      </trkpt>
      <trkpt lat="48.67862" lon="6.57434">
        <ele>225</ele>
        <time>2014-06-01T09:14:44Z</time>
      </trkpt>
      <trkpt lat="48.67859" lon="6.5747">
        <ele>225</ele>
        <time>2014-06-01T09:14:49Z</time>
      </trkpt>
      <trkpt lat="48.67856" lon="6.57508">
        <ele>225</ele>
        <time>2014-06-01T09:14:54Z</time>
      </trkpt>
      <trkpt lat="48.67854" lon="6.57548">
        <ele>225</ele>
        <time>2014-06-01T09:14:59Z</time>
      </trkpt>
      <trkpt lat="48.67852" lon="6.57585">
        <ele>225</ele>
        <time>2014-06-01T09:15:04Z</time>
      </trkpt>
      <trkpt lat="48.67852" lon="6.57621">
        <ele>225</ele>
        <time>2014-06-01T09:15:09Z</time>
      </trkpt>
      <trkpt lat="48.67853" lon="6.57657">
        <ele>225</ele>
        <time>2014-06-01T09:15:14Z</time>
      </trkpt>
      <trkpt lat="48.67858" lon="6.57695">
        <ele>225</ele>
        <time>2014-06-01T09:15:19Z</time>
      </trkpt>
      <trkpt lat="48.67865" lon="6.5773">
        <ele>225</ele>
        <time>2014-06-01T09:15:24Z</time>
      </trkpt>
      <trkpt lat="48.67872" lon="6.57762">
        <ele>225</ele>
        <time>2014-06-01T09:15:29Z</time>
      </trkpt>
      <trkpt lat="48.67881" lon="6.57797">
        <ele>225</ele>
        <time>2014-06-01T09:15:34Z</time>
      </trkpt>
      <trkpt lat="48.6789" lon="6.57835">
        <ele>225</ele>
        <time>2014-06-01T09:15:39Z</time>
      </trkpt>
      <trkpt lat="48.679" lon="6.57877">
        <ele>225</ele>
        <time>2014-06-01T09:15:44Z</time>
      </trkpt>
      <trkpt lat="48.67911" lon="6.5792">
        <ele>225</ele>
        <time>2014-06-01T09:15:49Z</time>
      </trkpt>
      <trkpt lat="48.67924" lon="6.5796">
        <ele>225</ele>
        <time>2014-06-01T09:15:54Z</time>
      </trkpt>
      <trkpt lat="48.6794" lon="6.58004">
        <ele>225</ele>
        <time>2014-06-01T09:15:59Z</time>
      </trkpt>
      <trkpt lat="48.67957" lon="6.58062">
        <ele>225</ele>
        <time>2014-06-01T09:16:04Z</time>
      </trkpt>
      <trkpt lat="48.6797" lon="6.58129">
        <ele>223</ele>
        <time>2014-06-01T09:16:09Z</time>
      </trkpt>
      <trkpt lat="48.67976" lon="6.58193">
        <ele>223</ele>
        <time>2014-06-01T09:16:14Z</time>
      </trkpt>
      <trkpt lat="48.67975" lon="6.58251">
        <ele>223</ele>
        <time>2014-06-01T09:16:19Z</time>
      </trkpt>
      <trkpt lat="48.67968" lon="6.58302">
        <ele>222</ele>
        <time>2014-06-01T09:16:24Z</time>
      </trkpt>
      <trkpt lat="48.67963" lon="6.58352">
        <ele>222</ele>
        <time>2014-06-01T09:16:29Z</time>
      </trkpt>
      <trkpt lat="48.67958" lon="6.5839">
        <ele>222</ele>
        <time>2014-06-01T09:16:34Z</time>
      </trkpt>
      <trkpt lat="48.67954" lon="6.58422">
        <ele>222</ele>
        <time>2014-06-01T09:16:39Z</time>
      </trkpt>
      <trkpt lat="48.6795" lon="6.58443">
        <ele>222</ele>
        <time>2014-06-01T09:16:44Z</time>
      </trkpt>
      <trkpt lat="48.6796" lon="6.58451">
        <ele>222</ele>
        <time>2014-06-01T09:16:49Z</time>
      </trkpt>
      <trkpt lat="48.67966" lon="6.58434">
        <ele>222</ele>
        <time>2014-06-01T09:16:54Z</time>
      </trkpt>
      <trkpt lat="48.6797" lon="6.58417">
        <ele>222</ele>
        <time>2014-06-01T09:16:59Z</time>
      </trkpt>
      <trkpt lat="48.6797" lon="6.5841">
        <ele>222</ele>
        <time>2014-06-01T09:17:04Z</time>
      </trkpt>
      <trkpt lat="48.67971" lon="6.58409">
        <ele>222</ele>
        <time>2014-06-01T09:17:09Z</time>
      </trkpt>
      <trkpt lat="48.67974" lon="6.58411">
        <ele>222</ele>
        <time>2014-06-01T09:17:18Z</time>
      </trkpt>
      <trkpt lat="48.67971" lon="6.58419">
        <ele>218</ele>
        <time>2014-06-01T09:17:24Z</time>
      </trkpt>
      <trkpt lat="48.67974" lon="6.58412">
        <ele>217</ele>
        <time>2014-06-01T09:17:30Z</time>
      </trkpt>
      <trkpt lat="48.67979" lon="6.5841">
        <ele>218</ele>
        <time>2014-06-01T09:17:37Z</time>
      </trkpt>
      <trkpt lat="48.67975" lon="6.58412">
        <ele>219</ele>
        <time>2014-06-01T09:17:42Z</time>
      </trkpt>
      <trkpt lat="48.67973" lon="6.5841">
        <ele>218</ele>
        <time>2014-06-01T09:17:51Z</time>
      </trkpt>
      <trkpt lat="48.67976" lon="6.58416">
        <ele>243</ele>
        <time>2014-06-01T09:17:56Z</time>
      </trkpt>
      <trkpt lat="48.67972" lon="6.58417">
        <ele>236</ele>
        <time>2014-06-01T09:18:03Z</time>
      </trkpt>
      <trkpt lat="48.6797" lon="6.58418">
        <ele>230</ele>
        <time>2014-06-01T09:18:09Z</time>
      </trkpt>
      <trkpt lat="48.67974" lon="6.58415">
        <ele>225</ele>
        <time>2014-06-01T09:18:14Z</time>
      </trkpt>
      <trkpt lat="48.67976" lon="6.58414">
        <ele>230</ele>
        <time>2014-06-01T09:18:19Z</time>
      </trkpt>
      <trkpt lat="48.67977" lon="6.58415">
        <ele>242</ele>
        <time>2014-06-01T09:18:29Z</time>
      </trkpt>
      <trkpt lat="48.67977" lon="6.58418">
        <ele>236</ele>
        <time>2014-06-01T09:18:36Z</time>
      </trkpt>
      <trkpt lat="48.67977" lon="6.58425">
        <ele>236</ele>
        <time>2014-06-01T09:18:41Z</time>
      </trkpt>
      <trkpt lat="48.67974" lon="6.58444">
        <ele>236</ele>
        <time>2014-06-01T09:18:46Z</time>
      </trkpt>
      <trkpt lat="48.67968" lon="6.58463">
        <ele>235</ele>
        <time>2014-06-01T09:18:51Z</time>
      </trkpt>
      <trkpt lat="48.67959" lon="6.58475">
        <ele>233</ele>
        <time>2014-06-01T09:18:56Z</time>
      </trkpt>
      <trkpt lat="48.67956" lon="6.58496">
        <ele>231</ele>
        <time>2014-06-01T09:19:01Z</time>
      </trkpt>
      <trkpt lat="48.67954" lon="6.58521">
        <ele>231</ele>
        <time>2014-06-01T09:19:06Z</time>
      </trkpt>
      <trkpt lat="48.67953" lon="6.58551">
        <ele>231</ele>
        <time>2014-06-01T09:19:11Z</time>
      </trkpt>
      <trkpt lat="48.67951" lon="6.58583">
        <ele>230</ele>
        <time>2014-06-01T09:19:16Z</time>
      </trkpt>
      <trkpt lat="48.67949" lon="6.58616">
        <ele>230</ele>
        <time>2014-06-01T09:19:21Z</time>
      </trkpt>
      <trkpt lat="48.67948" lon="6.5865">
        <ele>229</ele>
        <time>2014-06-01T09:19:26Z</time>
      </trkpt>
      <trkpt lat="48.67947" lon="6.58681">
        <ele>228</ele>
        <time>2014-06-01T09:19:31Z</time>
      </trkpt>
      <trkpt lat="48.67945" lon="6.58712">
        <ele>228</ele>
        <time>2014-06-01T09:19:36Z</time>
      </trkpt>
      <trkpt lat="48.67944" lon="6.58747">
        <ele>228</ele>
        <time>2014-06-01T09:19:41Z</time>
      </trkpt>
      <trkpt lat="48.67942" lon="6.58785">
        <ele>227</ele>
        <time>2014-06-01T09:19:46Z</time>
      </trkpt>
      <trkpt lat="48.6794" lon="6.58824">
        <ele>227</ele>
        <time>2014-06-01T09:19:51Z</time>
      </trkpt>
      <trkpt lat="48.67938" lon="6.58862">
        <ele>227</ele>
        <time>2014-06-01T09:19:56Z</time>
      </trkpt>
      <trkpt lat="48.67936" lon="6.58898">
        <ele>226</ele>
        <time>2014-06-01T09:20:01Z</time>
      </trkpt>
      <trkpt lat="48.67935" lon="6.58929">
        <ele>226</ele>
        <time>2014-06-01T09:20:06Z</time>
      </trkpt>
      <trkpt lat="48.67934" lon="6.58959">
        <ele>226</ele>
        <time>2014-06-01T09:20:11Z</time>
      </trkpt>
      <trkpt lat="48.67934" lon="6.58986">
        <ele>226</ele>
        <time>2014-06-01T09:20:16Z</time>
      </trkpt>
      <trkpt lat="48.67935" lon="6.59009">
        <ele>226</ele>
        <time>2014-06-01T09:20:21Z</time>
      </trkpt>
      <trkpt lat="48.67937" lon="6.59031">
        <ele>226</ele>
        <time>2014-06-01T09:20:26Z</time>
      </trkpt>
      <trkpt lat="48.67937" lon="6.59049">
        <ele>227</ele>
        <time>2014-06-01T09:20:31Z</time>
      </trkpt>
      <trkpt lat="48.67939" lon="6.59074">
        <ele>229</ele>
        <time>2014-06-01T09:20:36Z</time>
      </trkpt>
      <trkpt lat="48.67942" lon="6.591">
        <ele>230</ele>
        <time>2014-06-01T09:20:41Z</time>
      </trkpt>
      <trkpt lat="48.67945" lon="6.59125">
        <ele>231</ele>
        <time>2014-06-01T09:20:46Z</time>
      </trkpt>
      <trkpt lat="48.67948" lon="6.59148">
        <ele>231</ele>
        <time>2014-06-01T09:20:51Z</time>
      </trkpt>
      <trkpt lat="48.67952" lon="6.59172">
        <ele>233</ele>
        <time>2014-06-01T09:20:56Z</time>
      </trkpt>
      <trkpt lat="48.67956" lon="6.59194">
        <ele>233</ele>
        <time>2014-06-01T09:21:01Z</time>
      </trkpt>
      <trkpt lat="48.67962" lon="6.59217">
        <ele>233</ele>
        <time>2014-06-01T09:21:06Z</time>
      </trkpt>
      <trkpt lat="48.67969" lon="6.59241">
        <ele>233</ele>
        <time>2014-06-01T09:21:11Z</time>
      </trkpt>
      <trkpt lat="48.67978" lon="6.59266">
        <ele>233</ele>
        <time>2014-06-01T09:21:16Z</time>
      </trkpt>
      <trkpt lat="48.67985" lon="6.5929">
        <ele>233</ele>
        <time>2014-06-01T09:21:21Z</time>
      </trkpt>
      <trkpt lat="48.67991" lon="6.59308">
        <ele>233</ele>
        <time>2014-06-01T09:21:26Z</time>
      </trkpt>
      <trkpt lat="48.68" lon="6.5933">
        <ele>233</ele>
        <time>2014-06-01T09:21:31Z</time>
      </trkpt>
      <trkpt lat="48.68008" lon="6.59351">
        <ele>233</ele>
        <time>2014-06-01T09:21:36Z</time>
      </trkpt>
      <trkpt lat="48.68018" lon="6.59375">
        <ele>233</ele>
        <time>2014-06-01T09:21:41Z</time>
      </trkpt>
      <trkpt lat="48.68029" lon="6.59402">
        <ele>233</ele>
        <time>2014-06-01T09:21:46Z</time>
      </trkpt>
      <trkpt lat="48.68039" lon="6.5943">
        <ele>233</ele>
        <time>2014-06-01T09:21:51Z</time>
      </trkpt>
      <trkpt lat="48.68049" lon="6.59456">
        <ele>233</ele>
        <time>2014-06-01T09:21:56Z</time>
      </trkpt>
      <trkpt lat="48.68059" lon="6.59486">
        <ele>233</ele>
        <time>2014-06-01T09:22:01Z</time>
      </trkpt>
      <trkpt lat="48.68066" lon="6.59514">
        <ele>233</ele>
        <time>2014-06-01T09:22:06Z</time>
      </trkpt>
      <trkpt lat="48.68072" lon="6.59543">
        <ele>233</ele>
        <time>2014-06-01T09:22:11Z</time>
      </trkpt>
      <trkpt lat="48.68076" lon="6.59572">
        <ele>234</ele>
        <time>2014-06-01T09:22:16Z</time>
      </trkpt>
      <trkpt lat="48.68078" lon="6.59601">
        <ele>235</ele>
        <time>2014-06-01T09:22:21Z</time>
      </trkpt>
      <trkpt lat="48.68082" lon="6.59631">
        <ele>236</ele>
        <time>2014-06-01T09:22:26Z</time>
      </trkpt>
      <trkpt lat="48.6809" lon="6.59662">
        <ele>236</ele>
        <time>2014-06-01T09:22:31Z</time>
      </trkpt>
      <trkpt lat="48.68098" lon="6.59695">
        <ele>236</ele>
        <time>2014-06-01T09:22:36Z</time>
      </trkpt>
      <trkpt lat="48.68106" lon="6.59729">
        <ele>236</ele>
        <time>2014-06-01T09:22:41Z</time>
      </trkpt>
      <trkpt lat="48.68114" lon="6.59762">
        <ele>236</ele>
        <time>2014-06-01T09:22:46Z</time>
      </trkpt>
      <trkpt lat="48.68124" lon="6.59795">
        <ele>236</ele>
        <time>2014-06-01T09:22:51Z</time>
      </trkpt>
      <trkpt lat="48.68134" lon="6.59827">
        <ele>236</ele>
        <time>2014-06-01T09:22:56Z</time>
      </trkpt>
      <trkpt lat="48.68147" lon="6.59856">
        <ele>237</ele>
        <time>2014-06-01T09:23:01Z</time>
      </trkpt>
      <trkpt lat="48.68158" lon="6.59884">
        <ele>239</ele>
        <time>2014-06-01T09:23:06Z</time>
      </trkpt>
      <trkpt lat="48.68169" lon="6.59912">
        <ele>239</ele>
        <time>2014-06-01T09:23:11Z</time>
      </trkpt>
      <trkpt lat="48.6818" lon="6.59938">
        <ele>239</ele>
        <time>2014-06-01T09:23:16Z</time>
      </trkpt>
      <trkpt lat="48.68195" lon="6.59966">
        <ele>239</ele>
        <time>2014-06-01T09:23:21Z</time>
      </trkpt>
      <trkpt lat="48.68205" lon="6.59995">
        <ele>241</ele>
        <time>2014-06-01T09:23:26Z</time>
      </trkpt>
      <trkpt lat="48.6821" lon="6.60022">
        <ele>244</ele>
        <time>2014-06-01T09:23:31Z</time>
      </trkpt>
      <trkpt lat="48.68212" lon="6.60043">
        <ele>244</ele>
        <time>2014-06-01T09:23:36Z</time>
      </trkpt>
      <trkpt lat="48.68211" lon="6.60059">
        <ele>244</ele>
        <time>2014-06-01T09:23:41Z</time>
      </trkpt>
      <trkpt lat="48.68206" lon="6.60072">
        <ele>244</ele>
        <time>2014-06-01T09:23:46Z</time>
      </trkpt>
      <trkpt lat="48.6819" lon="6.60081">
        <ele>244</ele>
        <time>2014-06-01T09:23:51Z</time>
      </trkpt>
      <trkpt lat="48.68168" lon="6.60094">
        <ele>244</ele>
        <time>2014-06-01T09:23:56Z</time>
      </trkpt>
      <trkpt lat="48.68161" lon="6.60137">
        <ele>244</ele>
        <time>2014-06-01T09:24:01Z</time>
      </trkpt>
      <trkpt lat="48.68167" lon="6.60196">
        <ele>244</ele>
        <time>2014-06-01T09:24:06Z</time>
      </trkpt>
      <trkpt lat="48.68178" lon="6.6027">
        <ele>241</ele>
        <time>2014-06-01T09:24:11Z</time>
      </trkpt>
      <trkpt lat="48.68187" lon="6.6034">
        <ele>237</ele>
        <time>2014-06-01T09:24:16Z</time>
      </trkpt>
      <trkpt lat="48.68171" lon="6.604">
        <ele>233</ele>
        <time>2014-06-01T09:24:21Z</time>
      </trkpt>
      <trkpt lat="48.68131" lon="6.60437">
        <ele>233</ele>
        <time>2014-06-01T09:24:26Z</time>
      </trkpt>
      <trkpt lat="48.68096" lon="6.60479">
        <ele>232</ele>
        <time>2014-06-01T09:24:31Z</time>
      </trkpt>
      <trkpt lat="48.68063" lon="6.6052">
        <ele>230</ele>
        <time>2014-06-01T09:24:36Z</time>
      </trkpt>
      <trkpt lat="48.68032" lon="6.60556">
        <ele>229</ele>
        <time>2014-06-01T09:24:41Z</time>
      </trkpt>
      <trkpt lat="48.68008" lon="6.60582">
        <ele>229</ele>
        <time>2014-06-01T09:24:46Z</time>
      </trkpt>
      <trkpt lat="48.67991" lon="6.60592">
        <ele>229</ele>
        <time>2014-06-01T09:24:51Z</time>
      </trkpt>
      <trkpt lat="48.67982" lon="6.60595">
        <ele>229</ele>
        <time>2014-06-01T09:24:58Z</time>
      </trkpt>
      <trkpt lat="48.67954" lon="6.60609">
        <ele>229</ele>
        <time>2014-06-01T09:25:04Z</time>
      </trkpt>
      <trkpt lat="48.67935" lon="6.60617">
        <ele>229</ele>
        <time>2014-06-01T09:25:09Z</time>
      </trkpt>
      <trkpt lat="48.67904" lon="6.60635">
        <ele>228</ele>
        <time>2014-06-01T09:25:14Z</time>
      </trkpt>
      <trkpt lat="48.67869" lon="6.60666">
        <ele>225</ele>
        <time>2014-06-01T09:25:19Z</time>
      </trkpt>
      <trkpt lat="48.67858" lon="6.60726">
        <ele>224</ele>
        <time>2014-06-01T09:25:24Z</time>
      </trkpt>
      <trkpt lat="48.67861" lon="6.60787">
        <ele>224</ele>
        <time>2014-06-01T09:25:29Z</time>
      </trkpt>
      <trkpt lat="48.67866" lon="6.60843">
        <ele>224</ele>
        <time>2014-06-01T09:25:34Z</time>
      </trkpt>
      <trkpt lat="48.67872" lon="6.60898">
        <ele>224</ele>
        <time>2014-06-01T09:25:39Z</time>
      </trkpt>
      <trkpt lat="48.67878" lon="6.60955">
        <ele>224</ele>
        <time>2014-06-01T09:25:44Z</time>
      </trkpt>
      <trkpt lat="48.67888" lon="6.61007">
        <ele>224</ele>
        <time>2014-06-01T09:25:49Z</time>
      </trkpt>
      <trkpt lat="48.67901" lon="6.61058">
        <ele>224</ele>
        <time>2014-06-01T09:25:54Z</time>
      </trkpt>
      <trkpt lat="48.67918" lon="6.61102">
        <ele>224</ele>
        <time>2014-06-01T09:25:59Z</time>
      </trkpt>
      <trkpt lat="48.67939" lon="6.61138">
        <ele>224</ele>
        <time>2014-06-01T09:26:04Z</time>
      </trkpt>
      <trkpt lat="48.67958" lon="6.6117">
        <ele>224</ele>
        <time>2014-06-01T09:26:09Z</time>
      </trkpt>
      <trkpt lat="48.67977" lon="6.61201">
        <ele>224</ele>
        <time>2014-06-01T09:26:14Z</time>
      </trkpt>
      <trkpt lat="48.67997" lon="6.61231">
        <ele>224</ele>
        <time>2014-06-01T09:26:19Z</time>
      </trkpt>
      <trkpt lat="48.68016" lon="6.6126">
        <ele>224</ele>
        <time>2014-06-01T09:26:24Z</time>
      </trkpt>
      <trkpt lat="48.68036" lon="6.61289">
        <ele>224</ele>
        <time>2014-06-01T09:26:29Z</time>
      </trkpt>
      <trkpt lat="48.68057" lon="6.61318">
        <ele>224</ele>
        <time>2014-06-01T09:26:34Z</time>
      </trkpt>
      <trkpt lat="48.68078" lon="6.61349">
        <ele>224</ele>
        <time>2014-06-01T09:26:39Z</time>
      </trkpt>
      <trkpt lat="48.68098" lon="6.6138">
        <ele>224</ele>
        <time>2014-06-01T09:26:44Z</time>
      </trkpt>
      <trkpt lat="48.68119" lon="6.61411">
        <ele>224</ele>
        <time>2014-06-01T09:26:49Z</time>
      </trkpt>
      <trkpt lat="48.68139" lon="6.61443">
        <ele>224</ele>
        <time>2014-06-01T09:26:54Z</time>
      </trkpt>
      <trkpt lat="48.68159" lon="6.61474">
        <ele>224</ele>
        <time>2014-06-01T09:26:59Z</time>
      </trkpt>
      <trkpt lat="48.68179" lon="6.61507">
        <ele>224</ele>
        <time>2014-06-01T09:27:04Z</time>
      </trkpt>
      <trkpt lat="48.68197" lon="6.61541">
        <ele>223</ele>
        <time>2014-06-01T09:27:09Z</time>
      </trkpt>
      <trkpt lat="48.68212" lon="6.61578">
        <ele>223</ele>
        <time>2014-06-01T09:27:14Z</time>
      </trkpt>
      <trkpt lat="48.68225" lon="6.61621">
        <ele>223</ele>
        <time>2014-06-01T09:27:19Z</time>
      </trkpt>
      <trkpt lat="48.68236" lon="6.61663">
        <ele>223</ele>
        <time>2014-06-01T09:27:24Z</time>
      </trkpt>
      <trkpt lat="48.68242" lon="6.61709">
        <ele>223</ele>
        <time>2014-06-01T09:27:29Z</time>
      </trkpt>
      <trkpt lat="48.68244" lon="6.61756">
        <ele>223</ele>
        <time>2014-06-01T09:27:34Z</time>
      </trkpt>
      <trkpt lat="48.68243" lon="6.61803">
        <ele>223</ele>
        <time>2014-06-01T09:27:39Z</time>
      </trkpt>
      <trkpt lat="48.68239" lon="6.61849">
        <ele>223</ele>
        <time>2014-06-01T09:27:44Z</time>
      </trkpt>
      <trkpt lat="48.68235" lon="6.61894">
        <ele>223</ele>
        <time>2014-06-01T09:27:49Z</time>
      </trkpt>
      <trkpt lat="48.68232" lon="6.61938">
        <ele>223</ele>
        <time>2014-06-01T09:27:54Z</time>
      </trkpt>
      <trkpt lat="48.68231" lon="6.6198">
        <ele>223</ele>
        <time>2014-06-01T09:27:59Z</time>
      </trkpt>
      <trkpt lat="48.68232" lon="6.62023">
        <ele>223</ele>
        <time>2014-06-01T09:28:04Z</time>
      </trkpt>
      <trkpt lat="48.68233" lon="6.62068">
        <ele>224</ele>
        <time>2014-06-01T09:28:09Z</time>
      </trkpt>
      <trkpt lat="48.68236" lon="6.62111">
        <ele>224</ele>
        <time>2014-06-01T09:28:14Z</time>
      </trkpt>
      <trkpt lat="48.68242" lon="6.62155">
        <ele>224</ele>
        <time>2014-06-01T09:28:19Z</time>
      </trkpt>
      <trkpt lat="48.68248" lon="6.62199">
        <ele>224</ele>
        <time>2014-06-01T09:28:24Z</time>
      </trkpt>
      <trkpt lat="48.68254" lon="6.62241">
        <ele>224</ele>
        <time>2014-06-01T09:28:29Z</time>
      </trkpt>
      <trkpt lat="48.6826" lon="6.62285">
        <ele>224</ele>
        <time>2014-06-01T09:28:34Z</time>
      </trkpt>
      <trkpt lat="48.68266" lon="6.62331">
        <ele>224</ele>
        <time>2014-06-01T09:28:39Z</time>
      </trkpt>
      <trkpt lat="48.68268" lon="6.62377">
        <ele>224</ele>
        <time>2014-06-01T09:28:44Z</time>
      </trkpt>
      <trkpt lat="48.68267" lon="6.62421">
        <ele>224</ele>
        <time>2014-06-01T09:28:49Z</time>
      </trkpt>
      <trkpt lat="48.68266" lon="6.62464">
        <ele>224</ele>
        <time>2014-06-01T09:28:54Z</time>
      </trkpt>
      <trkpt lat="48.68268" lon="6.62503">
        <ele>224</ele>
        <time>2014-06-01T09:28:59Z</time>
      </trkpt>
      <trkpt lat="48.68272" lon="6.62533">
        <ele>224</ele>
        <time>2014-06-01T09:29:04Z</time>
      </trkpt>
      <trkpt lat="48.68277" lon="6.62552">
        <ele>224</ele>
        <time>2014-06-01T09:29:09Z</time>
      </trkpt>
      <trkpt lat="48.68287" lon="6.62568">
        <ele>224</ele>
        <time>2014-06-01T09:29:14Z</time>
      </trkpt>
      <trkpt lat="48.68296" lon="6.6258">
        <ele>225</ele>
        <time>2014-06-01T09:29:19Z</time>
      </trkpt>
      <trkpt lat="48.68303" lon="6.62589">
        <ele>226</ele>
        <time>2014-06-01T09:29:24Z</time>
      </trkpt>
      <trkpt lat="48.68311" lon="6.62589">
        <ele>226</ele>
        <time>2014-06-01T09:29:29Z</time>
      </trkpt>
      <trkpt lat="48.68317" lon="6.62603">
        <ele>226</ele>
        <time>2014-06-01T09:29:34Z</time>
      </trkpt>
      <trkpt lat="48.68323" lon="6.6261">
        <ele>226</ele>
        <time>2014-06-01T09:29:40Z</time>
      </trkpt>
      <trkpt lat="48.68332" lon="6.62622">
        <ele>230</ele>
        <time>2014-06-01T09:29:45Z</time>
      </trkpt>
      <trkpt lat="48.68334" lon="6.62649">
        <ele>230</ele>
        <time>2014-06-01T09:29:50Z</time>
      </trkpt>
      <trkpt lat="48.68325" lon="6.62669">
        <ele>230</ele>
        <time>2014-06-01T09:29:55Z</time>
      </trkpt>
      <trkpt lat="48.68312" lon="6.62687">
        <ele>230</ele>
        <time>2014-06-01T09:30:00Z</time>
      </trkpt>
      <trkpt lat="48.683" lon="6.62707">
        <ele>231</ele>
        <time>2014-06-01T09:30:05Z</time>
      </trkpt>
      <trkpt lat="48.68289" lon="6.62731">
        <ele>231</ele>
        <time>2014-06-01T09:30:10Z</time>
      </trkpt>
      <trkpt lat="48.68281" lon="6.62757">
        <ele>231</ele>
        <time>2014-06-01T09:30:15Z</time>
      </trkpt>
      <trkpt lat="48.68278" lon="6.62785">
        <ele>231</ele>
        <time>2014-06-01T09:30:20Z</time>
      </trkpt>
      <trkpt lat="48.68278" lon="6.62814">
        <ele>231</ele>
        <time>2014-06-01T09:30:25Z</time>
      </trkpt>
      <trkpt lat="48.68279" lon="6.6284">
        <ele>231</ele>
        <time>2014-06-01T09:30:30Z</time>
      </trkpt>
      <trkpt lat="48.6828" lon="6.62868">
        <ele>231</ele>
        <time>2014-06-01T09:30:35Z</time>
      </trkpt>
      <trkpt lat="48.68283" lon="6.62897">
        <ele>231</ele>
        <time>2014-06-01T09:30:40Z</time>
      </trkpt>
      <trkpt lat="48.68288" lon="6.62929">
        <ele>231</ele>
        <time>2014-06-01T09:30:45Z</time>
      </trkpt>
      <trkpt lat="48.68292" lon="6.62963">
        <ele>231</ele>
        <time>2014-06-01T09:30:50Z</time>
      </trkpt>
      <trkpt lat="48.68298" lon="6.62995">
        <ele>231</ele>
        <time>2014-06-01T09:30:55Z</time>
      </trkpt>
      <trkpt lat="48.68304" lon="6.63027">
        <ele>231</ele>
        <time>2014-06-01T09:31:00Z</time>
      </trkpt>
      <trkpt lat="48.68311" lon="6.63061">
        <ele>231</ele>
        <time>2014-06-01T09:31:05Z</time>
      </trkpt>
      <trkpt lat="48.68317" lon="6.63094">
        <ele>231</ele>
        <time>2014-06-01T09:31:10Z</time>
      </trkpt>
      <trkpt lat="48.68324" lon="6.63123">
        <ele>231</ele>
        <time>2014-06-01T09:31:15Z</time>
      </trkpt>
      <trkpt lat="48.68332" lon="6.63151">
        <ele>229</ele>
        <time>2014-06-01T09:31:20Z</time>
      </trkpt>
      <trkpt lat="48.68341" lon="6.63181">
        <ele>227</ele>
        <time>2014-06-01T09:31:25Z</time>
      </trkpt>
      <trkpt lat="48.68352" lon="6.63213">
        <ele>225</ele>
        <time>2014-06-01T09:31:30Z</time>
      </trkpt>
      <trkpt lat="48.68363" lon="6.63244">
        <ele>223</ele>
        <time>2014-06-01T09:31:35Z</time>
      </trkpt>
      <trkpt lat="48.68372" lon="6.63273">
        <ele>221</ele>
        <time>2014-06-01T09:31:40Z</time>
      </trkpt>
      <trkpt lat="48.68382" lon="6.63307">
        <ele>219</ele>
        <time>2014-06-01T09:31:45Z</time>
      </trkpt>
      <trkpt lat="48.68394" lon="6.63343">
        <ele>219</ele>
        <time>2014-06-01T09:31:50Z</time>
      </trkpt>
      <trkpt lat="48.68407" lon="6.63381">
        <ele>219</ele>
        <time>2014-06-01T09:31:55Z</time>
      </trkpt>
      <trkpt lat="48.68422" lon="6.63418">
        <ele>219</ele>
        <time>2014-06-01T09:32:00Z</time>
      </trkpt>
      <trkpt lat="48.68437" lon="6.63453">
        <ele>218</ele>
        <time>2014-06-01T09:32:05Z</time>
      </trkpt>
      <trkpt lat="48.68452" lon="6.63488">
        <ele>218</ele>
        <time>2014-06-01T09:32:10Z</time>
      </trkpt>
      <trkpt lat="48.68468" lon="6.63521">
        <ele>218</ele>
        <time>2014-06-01T09:32:15Z</time>
      </trkpt>
      <trkpt lat="48.68485" lon="6.63555">
        <ele>218</ele>
        <time>2014-06-01T09:32:20Z</time>
      </trkpt>
      <trkpt lat="48.68502" lon="6.63587">
        <ele>218</ele>
        <time>2014-06-01T09:32:25Z</time>
      </trkpt>
      <trkpt lat="48.68518" lon="6.63619">
        <ele>218</ele>
        <time>2014-06-01T09:32:30Z</time>
      </trkpt>
      <trkpt lat="48.68534" lon="6.63651">
        <ele>218</ele>
        <time>2014-06-01T09:32:35Z</time>
      </trkpt>
      <trkpt lat="48.68549" lon="6.63681">
        <ele>218</ele>
        <time>2014-06-01T09:32:40Z</time>
      </trkpt>
      <trkpt lat="48.68565" lon="6.6371">
        <ele>218</ele>
        <time>2014-06-01T09:32:45Z</time>
      </trkpt>
      <trkpt lat="48.68578" lon="6.63735">
        <ele>221</ele>
        <time>2014-06-01T09:32:50Z</time>
      </trkpt>
      <trkpt lat="48.68591" lon="6.63766">
        <ele>223</ele>
        <time>2014-06-01T09:32:56Z</time>
      </trkpt>
      <trkpt lat="48.68601" lon="6.63798">
        <ele>226</ele>
        <time>2014-06-01T09:33:02Z</time>
      </trkpt>
      <trkpt lat="48.68607" lon="6.63828">
        <ele>229</ele>
        <time>2014-06-01T09:33:07Z</time>
      </trkpt>
      <trkpt lat="48.68613" lon="6.63859">
        <ele>231</ele>
        <time>2014-06-01T09:33:12Z</time>
      </trkpt>
      <trkpt lat="48.68619" lon="6.63889">
        <ele>233</ele>
        <time>2014-06-01T09:33:17Z</time>
      </trkpt>
      <trkpt lat="48.68624" lon="6.63919">
        <ele>235</ele>
        <time>2014-06-01T09:33:22Z</time>
      </trkpt>
      <trkpt lat="48.68625" lon="6.63955">
        <ele>236</ele>
        <time>2014-06-01T09:33:27Z</time>
      </trkpt>
      <trkpt lat="48.68617" lon="6.63989">
        <ele>237</ele>
        <time>2014-06-01T09:33:32Z</time>
      </trkpt>
      <trkpt lat="48.68602" lon="6.64023">
        <ele>239</ele>
        <time>2014-06-01T09:33:38Z</time>
      </trkpt>
      <trkpt lat="48.68591" lon="6.64048">
        <ele>241</ele>
        <time>2014-06-01T09:33:43Z</time>
      </trkpt>
      <trkpt lat="48.68581" lon="6.64075">
        <ele>243</ele>
        <time>2014-06-01T09:33:48Z</time>
      </trkpt>
      <trkpt lat="48.68571" lon="6.6411">
        <ele>243</ele>
        <time>2014-06-01T09:33:54Z</time>
      </trkpt>
      <trkpt lat="48.68565" lon="6.64141">
        <ele>243</ele>
        <time>2014-06-01T09:33:59Z</time>
      </trkpt>
      <trkpt lat="48.68558" lon="6.64182">
        <ele>243</ele>
        <time>2014-06-01T09:34:04Z</time>
      </trkpt>
      <trkpt lat="48.68561" lon="6.64247">
        <ele>240</ele>
        <time>2014-06-01T09:34:10Z</time>
      </trkpt>
      <trkpt lat="48.68573" lon="6.64308">
        <ele>239</ele>
        <time>2014-06-01T09:34:15Z</time>
      </trkpt>
      <trkpt lat="48.68592" lon="6.64389">
        <ele>237</ele>
        <time>2014-06-01T09:34:21Z</time>
      </trkpt>
      <trkpt lat="48.68607" lon="6.64462">
        <ele>234</ele>
        <time>2014-06-01T09:34:26Z</time>
      </trkpt>
      <trkpt lat="48.68622" lon="6.64526">
        <ele>232</ele>
        <time>2014-06-01T09:34:31Z</time>
      </trkpt>
      <trkpt lat="48.68636" lon="6.64585">
        <ele>232</ele>
        <time>2014-06-01T09:34:36Z</time>
      </trkpt>
      <trkpt lat="48.68651" lon="6.64638">
        <ele>232</ele>
        <time>2014-06-01T09:34:41Z</time>
      </trkpt>
      <trkpt lat="48.68664" lon="6.64684">
        <ele>232</ele>
        <time>2014-06-01T09:34:46Z</time>
      </trkpt>
      <trkpt lat="48.68676" lon="6.64727">
        <ele>232</ele>
        <time>2014-06-01T09:34:51Z</time>
      </trkpt>
      <trkpt lat="48.68687" lon="6.64766">
        <ele>232</ele>
        <time>2014-06-01T09:34:56Z</time>
      </trkpt>
      <trkpt lat="48.68701" lon="6.64811">
        <ele>234</ele>
        <time>2014-06-01T09:35:02Z</time>
      </trkpt>
      <trkpt lat="48.68712" lon="6.64841">
        <ele>235</ele>
        <time>2014-06-01T09:35:07Z</time>
      </trkpt>
      <trkpt lat="48.68723" lon="6.64869">
        <ele>236</ele>
        <time>2014-06-01T09:35:12Z</time>
      </trkpt>
      <trkpt lat="48.68733" lon="6.64893">
        <ele>237</ele>
        <time>2014-06-01T09:35:17Z</time>
      </trkpt>
      <trkpt lat="48.68744" lon="6.64918">
        <ele>239</ele>
        <time>2014-06-01T09:35:22Z</time>
      </trkpt>
      <trkpt lat="48.68755" lon="6.64942">
        <ele>241</ele>
        <time>2014-06-01T09:35:27Z</time>
      </trkpt>
      <trkpt lat="48.68765" lon="6.64965">
        <ele>242</ele>
        <time>2014-06-01T09:35:32Z</time>
      </trkpt>
      <trkpt lat="48.68776" lon="6.6499">
        <ele>243</ele>
        <time>2014-06-01T09:35:37Z</time>
      </trkpt>
      <trkpt lat="48.68786" lon="6.65015">
        <ele>243</ele>
        <time>2014-06-01T09:35:42Z</time>
      </trkpt>
      <trkpt lat="48.68798" lon="6.65047">
        <ele>243</ele>
        <time>2014-06-01T09:35:48Z</time>
      </trkpt>
      <trkpt lat="48.68808" lon="6.65074">
        <ele>243</ele>
        <time>2014-06-01T09:35:53Z</time>
      </trkpt>
      <trkpt lat="48.6882" lon="6.65109">
        <ele>243</ele>
        <time>2014-06-01T09:35:58Z</time>
      </trkpt>
      <trkpt lat="48.68834" lon="6.65152">
        <ele>241</ele>
        <time>2014-06-01T09:36:03Z</time>
      </trkpt>
      <trkpt lat="48.68842" lon="6.652">
        <ele>241</ele>
        <time>2014-06-01T09:36:08Z</time>
      </trkpt>
      <trkpt lat="48.68848" lon="6.65248">
        <ele>241</ele>
        <time>2014-06-01T09:36:13Z</time>
      </trkpt>
      <trkpt lat="48.68857" lon="6.653">
        <ele>240</ele>
        <time>2014-06-01T09:36:18Z</time>
      </trkpt>
      <trkpt lat="48.68869" lon="6.65352">
        <ele>239</ele>
        <time>2014-06-01T09:36:23Z</time>
      </trkpt>
      <trkpt lat="48.6888" lon="6.65408">
        <ele>238</ele>
        <time>2014-06-01T09:36:28Z</time>
      </trkpt>
      <trkpt lat="48.68894" lon="6.65469">
        <ele>238</ele>
        <time>2014-06-01T09:36:33Z</time>
      </trkpt>
      <trkpt lat="48.68904" lon="6.6553">
        <ele>238</ele>
        <time>2014-06-01T09:36:38Z</time>
      </trkpt>
      <trkpt lat="48.68912" lon="6.6559">
        <ele>238</ele>
        <time>2014-06-01T09:36:43Z</time>
      </trkpt>
      <trkpt lat="48.68921" lon="6.65653">
        <ele>237</ele>
        <time>2014-06-01T09:36:48Z</time>
      </trkpt>
      <trkpt lat="48.68932" lon="6.65725">
        <ele>237</ele>
        <time>2014-06-01T09:36:54Z</time>
      </trkpt>
      <trkpt lat="48.68941" lon="6.65779">
        <ele>237</ele>
        <time>2014-06-01T09:36:59Z</time>
      </trkpt>
      <trkpt lat="48.68948" lon="6.65836">
        <ele>236</ele>
        <time>2014-06-01T09:37:05Z</time>
      </trkpt>
      <trkpt lat="48.68956" lon="6.65879">
        <ele>235</ele>
        <time>2014-06-01T09:37:10Z</time>
      </trkpt>
      <trkpt lat="48.68961" lon="6.65929">
        <ele>232</ele>
        <time>2014-06-01T09:37:15Z</time>
      </trkpt>
      <trkpt lat="48.68932" lon="6.65974">
        <ele>229</ele>
        <time>2014-06-01T09:37:21Z</time>
      </trkpt>
      <trkpt lat="48.68913" lon="6.65987">
        <ele>229</ele>
        <time>2014-06-01T09:37:26Z</time>
      </trkpt>
      <trkpt lat="48.68907" lon="6.65994">
        <ele>229</ele>
        <time>2014-06-01T09:37:35Z</time>
      </trkpt>
      <trkpt lat="48.68904" lon="6.65994">
        <ele>221</ele>
        <time>2014-06-01T09:37:44Z</time>
      </trkpt>
      <trkpt lat="48.68907" lon="6.65995">
        <ele>221</ele>
        <time>2014-06-01T09:37:51Z</time>
      </trkpt>
      <trkpt lat="48.68904" lon="6.66014">
        <ele>221</ele>
        <time>2014-06-01T09:37:56Z</time>
      </trkpt>
      <trkpt lat="48.68907" lon="6.66048">
        <ele>220</ele>
        <time>2014-06-01T09:38:01Z</time>
      </trkpt>
      <trkpt lat="48.68918" lon="6.66082">
        <ele>220</ele>
        <time>2014-06-01T09:38:06Z</time>
      </trkpt>
      <trkpt lat="48.68931" lon="6.66119">
        <ele>220</ele>
        <time>2014-06-01T09:38:12Z</time>
      </trkpt>
      <trkpt lat="48.68942" lon="6.66154">
        <ele>220</ele>
        <time>2014-06-01T09:38:17Z</time>
      </trkpt>
      <trkpt lat="48.68953" lon="6.66197">
        <ele>220</ele>
        <time>2014-06-01T09:38:23Z</time>
      </trkpt>
      <trkpt lat="48.68954" lon="6.66238">
        <ele>220</ele>
        <time>2014-06-01T09:38:28Z</time>
      </trkpt>
      <trkpt lat="48.6895" lon="6.6629">
        <ele>220</ele>
        <time>2014-06-01T09:38:34Z</time>
      </trkpt>
      <trkpt lat="48.68932" lon="6.66322">
        <ele>220</ele>
        <time>2014-06-01T09:38:39Z</time>
      </trkpt>
      <trkpt lat="48.68906" lon="6.6635">
        <ele>220</ele>
        <time>2014-06-01T09:38:45Z</time>
      </trkpt>
      <trkpt lat="48.68885" lon="6.66363">
        <ele>220</ele>
        <time>2014-06-01T09:38:50Z</time>
      </trkpt>
      <trkpt lat="48.68868" lon="6.66361">
        <ele>221</ele>
        <time>2014-06-01T09:38:55Z</time>
      </trkpt>
      <trkpt lat="48.68855" lon="6.66356">
        <ele>222</ele>
        <time>2014-06-01T09:39:00Z</time>
      </trkpt>
      <trkpt lat="48.68841" lon="6.66352">
        <ele>223</ele>
        <time>2014-06-01T09:39:05Z</time>
      </trkpt>
      <trkpt lat="48.68821" lon="6.66369">
        <ele>223</ele>
        <time>2014-06-01T09:39:10Z</time>
      </trkpt>
      <trkpt lat="48.68814" lon="6.66411">
        <ele>222</ele>
        <time>2014-06-01T09:39:15Z</time>
      </trkpt>
      <trkpt lat="48.68811" lon="6.66455">
        <ele>222</ele>
        <time>2014-06-01T09:39:20Z</time>
      </trkpt>
      <trkpt lat="48.68806" lon="6.66496">
        <ele>222</ele>
        <time>2014-06-01T09:39:25Z</time>
      </trkpt>
      <trkpt lat="48.68804" lon="6.66539">
        <ele>222</ele>
        <time>2014-06-01T09:39:30Z</time>
      </trkpt>
      <trkpt lat="48.68805" lon="6.66578">
        <ele>222</ele>
        <time>2014-06-01T09:39:35Z</time>
      </trkpt>
      <trkpt lat="48.6881" lon="6.66625">
        <ele>222</ele>
        <time>2014-06-01T09:39:41Z</time>
      </trkpt>
      <trkpt lat="48.68818" lon="6.66666">
        <ele>222</ele>
        <time>2014-06-01T09:39:46Z</time>
      </trkpt>
      <trkpt lat="48.68824" lon="6.66714">
        <ele>222</ele>
        <time>2014-06-01T09:39:51Z</time>
      </trkpt>
      <trkpt lat="48.68833" lon="6.66766">
        <ele>222</ele>
        <time>2014-06-01T09:39:56Z</time>
      </trkpt>
      <trkpt lat="48.68843" lon="6.66816">
        <ele>222</ele>
        <time>2014-06-01T09:40:01Z</time>
      </trkpt>
      <trkpt lat="48.68854" lon="6.66874">
        <ele>222</ele>
        <time>2014-06-01T09:40:07Z</time>
      </trkpt>
      <trkpt lat="48.68864" lon="6.66923">
        <ele>222</ele>
        <time>2014-06-01T09:40:13Z</time>
      </trkpt>
      <trkpt lat="48.68866" lon="6.66961">
        <ele>222</ele>
        <time>2014-06-01T09:40:18Z</time>
      </trkpt>
      <trkpt lat="48.68859" lon="6.67002">
        <ele>222</ele>
        <time>2014-06-01T09:40:23Z</time>
      </trkpt>
      <trkpt lat="48.68845" lon="6.67051">
        <ele>222</ele>
        <time>2014-06-01T09:40:29Z</time>
      </trkpt>
      <trkpt lat="48.68835" lon="6.67099">
        <ele>222</ele>
        <time>2014-06-01T09:40:35Z</time>
      </trkpt>
      <trkpt lat="48.68829" lon="6.67136">
        <ele>222</ele>
        <time>2014-06-01T09:40:40Z</time>
      </trkpt>
      <trkpt lat="48.68823" lon="6.67173">
        <ele>219</ele>
        <time>2014-06-01T09:40:45Z</time>
      </trkpt>
      <trkpt lat="48.68818" lon="6.6721">
        <ele>218</ele>
        <time>2014-06-01T09:40:50Z</time>
      </trkpt>
      <trkpt lat="48.68812" lon="6.67255">
        <ele>216</ele>
        <time>2014-06-01T09:40:56Z</time>
      </trkpt>
      <trkpt lat="48.68809" lon="6.67294">
        <ele>216</ele>
        <time>2014-06-01T09:41:01Z</time>
      </trkpt>
      <trkpt lat="48.68808" lon="6.67332">
        <ele>216</ele>
        <time>2014-06-01T09:41:06Z</time>
      </trkpt>
      <trkpt lat="48.68812" lon="6.67369">
        <ele>216</ele>
        <time>2014-06-01T09:41:11Z</time>
      </trkpt>
      <trkpt lat="48.68819" lon="6.67406">
        <ele>216</ele>
        <time>2014-06-01T09:41:16Z</time>
      </trkpt>
      <trkpt lat="48.68829" lon="6.67442">
        <ele>216</ele>
        <time>2014-06-01T09:41:21Z</time>
      </trkpt>
      <trkpt lat="48.68841" lon="6.67479">
        <ele>216</ele>
        <time>2014-06-01T09:41:26Z</time>
      </trkpt>
      <trkpt lat="48.68854" lon="6.67515">
        <ele>216</ele>
        <time>2014-06-01T09:41:31Z</time>
      </trkpt>
      <trkpt lat="48.68866" lon="6.67554">
        <ele>217</ele>
        <time>2014-06-01T09:41:36Z</time>
      </trkpt>
      <trkpt lat="48.68877" lon="6.67593">
        <ele>218</ele>
        <time>2014-06-01T09:41:41Z</time>
      </trkpt>
      <trkpt lat="48.68888" lon="6.67633">
        <ele>219</ele>
        <time>2014-06-01T09:41:46Z</time>
      </trkpt>
      <trkpt lat="48.68899" lon="6.67673">
        <ele>221</ele>
        <time>2014-06-01T09:41:51Z</time>
      </trkpt>
      <trkpt lat="48.6891" lon="6.67715">
        <ele>222</ele>
        <time>2014-06-01T09:41:56Z</time>
      </trkpt>
      <trkpt lat="48.6892" lon="6.67757">
        <ele>222</ele>
        <time>2014-06-01T09:42:01Z</time>
      </trkpt>
      <trkpt lat="48.6893" lon="6.67801">
        <ele>222</ele>
        <time>2014-06-01T09:42:06Z</time>
      </trkpt>
      <trkpt lat="48.68938" lon="6.67846">
        <ele>222</ele>
        <time>2014-06-01T09:42:11Z</time>
      </trkpt>
      <trkpt lat="48.68943" lon="6.6789">
        <ele>222</ele>
        <time>2014-06-01T09:42:16Z</time>
      </trkpt>
      <trkpt lat="48.68948" lon="6.67934">
        <ele>222</ele>
        <time>2014-06-01T09:42:21Z</time>
      </trkpt>
      <trkpt lat="48.68952" lon="6.67977">
        <ele>222</ele>
        <time>2014-06-01T09:42:26Z</time>
      </trkpt>
      <trkpt lat="48.68954" lon="6.6802">
        <ele>222</ele>
        <time>2014-06-01T09:42:31Z</time>
      </trkpt>
      <trkpt lat="48.68952" lon="6.68071">
        <ele>222</ele>
        <time>2014-06-01T09:42:37Z</time>
      </trkpt>
      <trkpt lat="48.68946" lon="6.6811">
        <ele>222</ele>
        <time>2014-06-01T09:42:42Z</time>
      </trkpt>
      <trkpt lat="48.68942" lon="6.68151">
        <ele>222</ele>
        <time>2014-06-01T09:42:47Z</time>
      </trkpt>
      <trkpt lat="48.6894" lon="6.68201">
        <ele>221</ele>
        <time>2014-06-01T09:42:53Z</time>
      </trkpt>
      <trkpt lat="48.68943" lon="6.68243">
        <ele>221</ele>
        <time>2014-06-01T09:42:58Z</time>
      </trkpt>
      <trkpt lat="48.68947" lon="6.68296">
        <ele>221</ele>
        <time>2014-06-01T09:43:04Z</time>
      </trkpt>
      <trkpt lat="48.68949" lon="6.68341">
        <ele>221</ele>
        <time>2014-06-01T09:43:09Z</time>
      </trkpt>
      <trkpt lat="48.68943" lon="6.68381">
        <ele>221</ele>
        <time>2014-06-01T09:43:14Z</time>
      </trkpt>
      <trkpt lat="48.6893" lon="6.68421">
        <ele>221</ele>
        <time>2014-06-01T09:43:20Z</time>
      </trkpt>
      <trkpt lat="48.6892" lon="6.68447">
        <ele>222</ele>
        <time>2014-06-01T09:43:25Z</time>
      </trkpt>
      <trkpt lat="48.68913" lon="6.68473">
        <ele>225</ele>
        <time>2014-06-01T09:43:31Z</time>
      </trkpt>
      <trkpt lat="48.68915" lon="6.68492">
        <ele>225</ele>
        <time>2014-06-01T09:43:36Z</time>
      </trkpt>
      <trkpt lat="48.68924" lon="6.6851">
        <ele>227</ele>
        <time>2014-06-01T09:43:41Z</time>
      </trkpt>
      <trkpt lat="48.68933" lon="6.68523">
        <ele>228</ele>
        <time>2014-06-01T09:43:46Z</time>
      </trkpt>
      <trkpt lat="48.68935" lon="6.68552">
        <ele>228</ele>
        <time>2014-06-01T09:43:51Z</time>
      </trkpt>
      <trkpt lat="48.68919" lon="6.68582">
        <ele>228</ele>
        <time>2014-06-01T09:43:56Z</time>
      </trkpt>
      <trkpt lat="48.68901" lon="6.68608">
        <ele>228</ele>
        <time>2014-06-01T09:44:01Z</time>
      </trkpt>
      <trkpt lat="48.6889" lon="6.68639">
        <ele>228</ele>
        <time>2014-06-01T09:44:06Z</time>
      </trkpt>
      <trkpt lat="48.68884" lon="6.68674">
        <ele>228</ele>
        <time>2014-06-01T09:44:11Z</time>
      </trkpt>
      <trkpt lat="48.68883" lon="6.68706">
        <ele>228</ele>
        <time>2014-06-01T09:44:16Z</time>
      </trkpt>
      <trkpt lat="48.6889" lon="6.68735">
        <ele>229</ele>
        <time>2014-06-01T09:44:21Z</time>
      </trkpt>
      <trkpt lat="48.68898" lon="6.68761">
        <ele>232</ele>
        <time>2014-06-01T09:44:26Z</time>
      </trkpt>
      <trkpt lat="48.68907" lon="6.68784">
        <ele>233</ele>
        <time>2014-06-01T09:44:31Z</time>
      </trkpt>
      <trkpt lat="48.68917" lon="6.68803">
        <ele>235</ele>
        <time>2014-06-01T09:44:36Z</time>
      </trkpt>
      <trkpt lat="48.68928" lon="6.68822">
        <ele>236</ele>
        <time>2014-06-01T09:44:41Z</time>
      </trkpt>
      <trkpt lat="48.68939" lon="6.6884">
        <ele>237</ele>
        <time>2014-06-01T09:44:46Z</time>
      </trkpt>
      <trkpt lat="48.68951" lon="6.68857">
        <ele>239</ele>
        <time>2014-06-01T09:44:51Z</time>
      </trkpt>
      <trkpt lat="48.68963" lon="6.68875">
        <ele>240</ele>
        <time>2014-06-01T09:44:56Z</time>
      </trkpt>
      <trkpt lat="48.68974" lon="6.68892">
        <ele>241</ele>
        <time>2014-06-01T09:45:01Z</time>
      </trkpt>
      <trkpt lat="48.68985" lon="6.6891">
        <ele>242</ele>
        <time>2014-06-01T09:45:06Z</time>
      </trkpt>
      <trkpt lat="48.68996" lon="6.6893">
        <ele>243</ele>
        <time>2014-06-01T09:45:11Z</time>
      </trkpt>
      <trkpt lat="48.69007" lon="6.68951">
        <ele>244</ele>
        <time>2014-06-01T09:45:16Z</time>
      </trkpt>
      <trkpt lat="48.69018" lon="6.68974">
        <ele>244</ele>
        <time>2014-06-01T09:45:21Z</time>
      </trkpt>
      <trkpt lat="48.69028" lon="6.68999">
        <ele>244</ele>
        <time>2014-06-01T09:45:26Z</time>
      </trkpt>
      <trkpt lat="48.69038" lon="6.69027">
        <ele>244</ele>
        <time>2014-06-01T09:45:31Z</time>
      </trkpt>
      <trkpt lat="48.69048" lon="6.69057">
        <ele>244</ele>
        <time>2014-06-01T09:45:36Z</time>
      </trkpt>
      <trkpt lat="48.69057" lon="6.69089">
        <ele>244</ele>
        <time>2014-06-01T09:45:41Z</time>
      </trkpt>
      <trkpt lat="48.69068" lon="6.69132">
        <ele>244</ele>
        <time>2014-06-01T09:45:47Z</time>
      </trkpt>
      <trkpt lat="48.6908" lon="6.69179">
        <ele>244</ele>
        <time>2014-06-01T09:45:53Z</time>
      </trkpt>
      <trkpt lat="48.69089" lon="6.69218">
        <ele>244</ele>
        <time>2014-06-01T09:45:58Z</time>
      </trkpt>
      <trkpt lat="48.69098" lon="6.6926">
        <ele>244</ele>
        <time>2014-06-01T09:46:03Z</time>
      </trkpt>
      <trkpt lat="48.69103" lon="6.69301">
        <ele>244</ele>
        <time>2014-06-01T09:46:08Z</time>
      </trkpt>
      <trkpt lat="48.69104" lon="6.69342">
        <ele>244</ele>
        <time>2014-06-01T09:46:13Z</time>
      </trkpt>
      <trkpt lat="48.69104" lon="6.69385">
        <ele>244</ele>
        <time>2014-06-01T09:46:18Z</time>
      </trkpt>
      <trkpt lat="48.69103" lon="6.69431">
        <ele>244</ele>
        <time>2014-06-01T09:46:23Z</time>
      </trkpt>
      <trkpt lat="48.69102" lon="6.69475">
        <ele>244</ele>
        <time>2014-06-01T09:46:28Z</time>
      </trkpt>
      <trkpt lat="48.69101" lon="6.69519">
        <ele>244</ele>
        <time>2014-06-01T09:46:33Z</time>
      </trkpt>
      <trkpt lat="48.691" lon="6.69565">
        <ele>244</ele>
        <time>2014-06-01T09:46:38Z</time>
      </trkpt>
      <trkpt lat="48.69099" lon="6.69614">
        <ele>244</ele>
        <time>2014-06-01T09:46:43Z</time>
      </trkpt>
      <trkpt lat="48.69098" lon="6.69664">
        <ele>244</ele>
        <time>2014-06-01T09:46:48Z</time>
      </trkpt>
      <trkpt lat="48.69097" lon="6.69713">
        <ele>244</ele>
        <time>2014-06-01T09:46:53Z</time>
      </trkpt>
      <trkpt lat="48.69099" lon="6.69755">
        <ele>244</ele>
        <time>2014-06-01T09:46:58Z</time>
      </trkpt>
      <trkpt lat="48.69102" lon="6.69794">
        <ele>244</ele>
        <time>2014-06-01T09:47:03Z</time>
      </trkpt>
      <trkpt lat="48.69111" lon="6.69836">
        <ele>244</ele>
        <time>2014-06-01T09:47:08Z</time>
      </trkpt>
      <trkpt lat="48.69122" lon="6.69879">
        <ele>244</ele>
        <time>2014-06-01T09:47:13Z</time>
      </trkpt>
      <trkpt lat="48.69138" lon="6.69938">
        <ele>244</ele>
        <time>2014-06-01T09:47:19Z</time>
      </trkpt>
      <trkpt lat="48.69149" lon="6.69992">
        <ele>244</ele>
        <time>2014-06-01T09:47:24Z</time>
      </trkpt>
      <trkpt lat="48.69155" lon="6.70042">
        <ele>244</ele>
        <time>2014-06-01T09:47:29Z</time>
      </trkpt>
      <trkpt lat="48.69159" lon="6.70083">
        <ele>244</ele>
        <time>2014-06-01T09:47:34Z</time>
      </trkpt>
      <trkpt lat="48.69164" lon="6.70124">
        <ele>244</ele>
        <time>2014-06-01T09:47:39Z</time>
      </trkpt>
      <trkpt lat="48.69168" lon="6.7017">
        <ele>244</ele>
        <time>2014-06-01T09:47:44Z</time>
      </trkpt>
      <trkpt lat="48.69169" lon="6.70224">
        <ele>244</ele>
        <time>2014-06-01T09:47:49Z</time>
      </trkpt>
      <trkpt lat="48.69168" lon="6.70282">
        <ele>242</ele>
        <time>2014-06-01T09:47:54Z</time>
      </trkpt>
      <trkpt lat="48.69167" lon="6.70338">
        <ele>240</ele>
        <time>2014-06-01T09:47:59Z</time>
      </trkpt>
      <trkpt lat="48.69167" lon="6.70387">
        <ele>237</ele>
        <time>2014-06-01T09:48:04Z</time>
      </trkpt>
      <trkpt lat="48.69165" lon="6.70427">
        <ele>237</ele>
        <time>2014-06-01T09:48:09Z</time>
      </trkpt>
      <trkpt lat="48.69173" lon="6.70478">
        <ele>237</ele>
        <time>2014-06-01T09:48:15Z</time>
      </trkpt>
      <trkpt lat="48.69183" lon="6.7052">
        <ele>237</ele>
        <time>2014-06-01T09:48:20Z</time>
      </trkpt>
      <trkpt lat="48.69175" lon="6.70567">
        <ele>237</ele>
        <time>2014-06-01T09:48:26Z</time>
      </trkpt>
      <trkpt lat="48.69168" lon="6.70592">
        <ele>237</ele>
        <time>2014-06-01T09:48:31Z</time>
      </trkpt>
      <trkpt lat="48.69169" lon="6.70606">
        <ele>237</ele>
        <time>2014-06-01T09:48:37Z</time>
      </trkpt>
      <trkpt lat="48.6917" lon="6.70593">
        <ele>237</ele>
        <time>2014-06-01T09:48:43Z</time>
      </trkpt>
      <trkpt lat="48.69169" lon="6.70583">
        <ele>233</ele>
        <time>2014-06-01T09:48:49Z</time>
      </trkpt>
      <trkpt lat="48.69162" lon="6.7058">
        <ele>231</ele>
        <time>2014-06-01T09:48:55Z</time>
      </trkpt>
      <trkpt lat="48.69157" lon="6.70583">
        <ele>239</ele>
        <time>2014-06-01T09:49:12Z</time>
      </trkpt>
      <trkpt lat="48.6916" lon="6.7058">
        <ele>239</ele>
        <time>2014-06-01T09:49:19Z</time>
      </trkpt>
      <trkpt lat="48.69168" lon="6.70569">
        <ele>239</ele>
        <time>2014-06-01T09:49:26Z</time>
      </trkpt>
      <trkpt lat="48.6917" lon="6.70565">
        <ele>239</ele>
        <time>2014-06-01T09:49:34Z</time>
      </trkpt>
      <trkpt lat="48.69172" lon="6.70564">
        <ele>239</ele>
        <time>2014-06-01T09:49:40Z</time>
      </trkpt>
      <trkpt lat="48.69162" lon="6.7058">
        <ele>240</ele>
        <time>2014-06-01T09:49:46Z</time>
      </trkpt>
      <trkpt lat="48.69161" lon="6.70578">
        <ele>240</ele>
        <time>2014-06-01T09:49:51Z</time>
      </trkpt>
      <trkpt lat="48.69159" lon="6.70576">
        <ele>240</ele>
        <time>2014-06-01T09:50:01Z</time>
      </trkpt>
      <trkpt lat="48.69154" lon="6.70581">
        <ele>241</ele>
        <time>2014-06-01T09:50:07Z</time>
      </trkpt>
      <trkpt lat="48.69154" lon="6.70591">
        <ele>241</ele>
        <time>2014-06-01T09:50:12Z</time>
      </trkpt>
      <trkpt lat="48.6916" lon="6.70598">
        <ele>241</ele>
        <time>2014-06-01T09:50:17Z</time>
      </trkpt>
      <trkpt lat="48.69168" lon="6.70613">
        <ele>241</ele>
        <time>2014-06-01T09:50:22Z</time>
      </trkpt>
      <trkpt lat="48.69169" lon="6.7064">
        <ele>241</ele>
        <time>2014-06-01T09:50:27Z</time>
      </trkpt>
      <trkpt lat="48.69169" lon="6.70671">
        <ele>241</ele>
        <time>2014-06-01T09:50:32Z</time>
      </trkpt>
      <trkpt lat="48.69167" lon="6.70702">
        <ele>239</ele>
        <time>2014-06-01T09:50:37Z</time>
      </trkpt>
      <trkpt lat="48.69162" lon="6.70736">
        <ele>239</ele>
        <time>2014-06-01T09:50:42Z</time>
      </trkpt>
      <trkpt lat="48.69153" lon="6.70767">
        <ele>239</ele>
        <time>2014-06-01T09:50:47Z</time>
      </trkpt>
      <trkpt lat="48.69145" lon="6.70798">
        <ele>239</ele>
        <time>2014-06-01T09:50:52Z</time>
      </trkpt>
      <trkpt lat="48.69136" lon="6.70828">
        <ele>239</ele>
        <time>2014-06-01T09:50:57Z</time>
      </trkpt>
      <trkpt lat="48.69127" lon="6.70856">
        <ele>239</ele>
        <time>2014-06-01T09:51:02Z</time>
      </trkpt>
      <trkpt lat="48.69118" lon="6.70883">
        <ele>239</ele>
        <time>2014-06-01T09:51:07Z</time>
      </trkpt>
      <trkpt lat="48.69109" lon="6.70909">
        <ele>239</ele>
        <time>2014-06-01T09:51:12Z</time>
      </trkpt>
      <trkpt lat="48.69099" lon="6.70938">
        <ele>239</ele>
        <time>2014-06-01T09:51:17Z</time>
      </trkpt>
      <trkpt lat="48.69089" lon="6.7097">
        <ele>239</ele>
        <time>2014-06-01T09:51:22Z</time>
      </trkpt>
      <trkpt lat="48.69079" lon="6.71">
        <ele>239</ele>
        <time>2014-06-01T09:51:27Z</time>
      </trkpt>
      <trkpt lat="48.69061" lon="6.71024">
        <ele>239</ele>
        <time>2014-06-01T09:51:32Z</time>
      </trkpt>
      <trkpt lat="48.69042" lon="6.71031">
        <ele>239</ele>
        <time>2014-06-01T09:51:37Z</time>
      </trkpt>
      <trkpt lat="48.69028" lon="6.71032">
        <ele>239</ele>
        <time>2014-06-01T09:51:42Z</time>
      </trkpt>
      <trkpt lat="48.69011" lon="6.71047">
        <ele>239</ele>
        <time>2014-06-01T09:51:47Z</time>
      </trkpt>
      <trkpt lat="48.69006" lon="6.71081">
        <ele>239</ele>
        <time>2014-06-01T09:51:52Z</time>
      </trkpt>
      <trkpt lat="48.6901" lon="6.7112">
        <ele>238</ele>
        <time>2014-06-01T09:51:57Z</time>
      </trkpt>
      <trkpt lat="48.69012" lon="6.71157">
        <ele>238</ele>
        <time>2014-06-01T09:52:02Z</time>
      </trkpt>
      <trkpt lat="48.69014" lon="6.71193">
        <ele>238</ele>
        <time>2014-06-01T09:52:07Z</time>
      </trkpt>
      <trkpt lat="48.69017" lon="6.71235">
        <ele>237</ele>
        <time>2014-06-01T09:52:12Z</time>
      </trkpt>
      <trkpt lat="48.69018" lon="6.71277">
        <ele>235</ele>
        <time>2014-06-01T09:52:17Z</time>
      </trkpt>
      <trkpt lat="48.69021" lon="6.71322">
        <ele>234</ele>
        <time>2014-06-01T09:52:22Z</time>
      </trkpt>
      <trkpt lat="48.69023" lon="6.71371">
        <ele>233</ele>
        <time>2014-06-01T09:52:27Z</time>
      </trkpt>
      <trkpt lat="48.69025" lon="6.71418">
        <ele>232</ele>
        <time>2014-06-01T09:52:32Z</time>
      </trkpt>
      <trkpt lat="48.69027" lon="6.71465">
        <ele>232</ele>
        <time>2014-06-01T09:52:37Z</time>
      </trkpt>
      <trkpt lat="48.69023" lon="6.71514">
        <ele>231</ele>
        <time>2014-06-01T09:52:42Z</time>
      </trkpt>
      <trkpt lat="48.69013" lon="6.71557">
        <ele>230</ele>
        <time>2014-06-01T09:52:47Z</time>
      </trkpt>
      <trkpt lat="48.68997" lon="6.716">
        <ele>230</ele>
        <time>2014-06-01T09:52:52Z</time>
      </trkpt>
      <trkpt lat="48.68977" lon="6.7164">
        <ele>230</ele>
        <time>2014-06-01T09:52:57Z</time>
      </trkpt>
      <trkpt lat="48.68956" lon="6.71672">
        <ele>230</ele>
        <time>2014-06-01T09:53:02Z</time>
      </trkpt>
      <trkpt lat="48.68933" lon="6.71699">
        <ele>230</ele>
        <time>2014-06-01T09:53:07Z</time>
      </trkpt>
      <trkpt lat="48.68908" lon="6.71717">
        <ele>230</ele>
        <time>2014-06-01T09:53:12Z</time>
      </trkpt>
      <trkpt lat="48.68885" lon="6.71732">
        <ele>230</ele>
        <time>2014-06-01T09:53:17Z</time>
      </trkpt>
      <trkpt lat="48.6886" lon="6.71748">
        <ele>230</ele>
        <time>2014-06-01T09:53:22Z</time>
      </trkpt>
      <trkpt lat="48.68836" lon="6.71766">
        <ele>230</ele>
        <time>2014-06-01T09:53:27Z</time>
      </trkpt>
      <trkpt lat="48.68813" lon="6.71791">
        <ele>230</ele>
        <time>2014-06-01T09:53:32Z</time>
      </trkpt>
      <trkpt lat="48.68793" lon="6.7182">
        <ele>230</ele>
        <time>2014-06-01T09:53:37Z</time>
      </trkpt>
      <trkpt lat="48.68779" lon="6.71853">
        <ele>230</ele>
        <time>2014-06-01T09:53:42Z</time>
      </trkpt>
      <trkpt lat="48.68768" lon="6.71891">
        <ele>230</ele>
        <time>2014-06-01T09:53:47Z</time>
      </trkpt>
      <trkpt lat="48.6876" lon="6.71931">
        <ele>230</ele>
        <time>2014-06-01T09:53:52Z</time>
      </trkpt>
      <trkpt lat="48.6875" lon="6.71972">
        <ele>230</ele>
        <time>2014-06-01T09:53:57Z</time>
      </trkpt>
      <trkpt lat="48.68741" lon="6.72012">
        <ele>230</ele>
        <time>2014-06-01T09:54:02Z</time>
      </trkpt>
      <trkpt lat="48.68732" lon="6.72053">
        <ele>230</ele>
        <time>2014-06-01T09:54:07Z</time>
      </trkpt>
      <trkpt lat="48.68721" lon="6.72096">
        <ele>230</ele>
        <time>2014-06-01T09:54:12Z</time>
      </trkpt>
      <trkpt lat="48.68711" lon="6.7214">
        <ele>230</ele>
        <time>2014-06-01T09:54:17Z</time>
      </trkpt>
      <trkpt lat="48.68701" lon="6.72183">
        <ele>230</ele>
        <time>2014-06-01T09:54:22Z</time>
      </trkpt>
      <trkpt lat="48.6869" lon="6.72225">
        <ele>230</ele>
        <time>2014-06-01T09:54:27Z</time>
      </trkpt>
      <trkpt lat="48.68681" lon="6.72267">
        <ele>230</ele>
        <time>2014-06-01T09:54:32Z</time>
      </trkpt>
      <trkpt lat="48.68672" lon="6.72307">
        <ele>230</ele>
        <time>2014-06-01T09:54:37Z</time>
      </trkpt>
      <trkpt lat="48.68663" lon="6.72347">
        <ele>230</ele>
        <time>2014-06-01T09:54:42Z</time>
      </trkpt>
      <trkpt lat="48.68654" lon="6.72389">
        <ele>230</ele>
        <time>2014-06-01T09:54:47Z</time>
      </trkpt>
      <trkpt lat="48.68647" lon="6.72429">
        <ele>230</ele>
        <time>2014-06-01T09:54:52Z</time>
      </trkpt>
      <trkpt lat="48.6864" lon="6.72469">
        <ele>230</ele>
        <time>2014-06-01T09:54:57Z</time>
      </trkpt>
      <trkpt lat="48.68634" lon="6.72509">
        <ele>232</ele>
        <time>2014-06-01T09:55:02Z</time>
      </trkpt>
      <trkpt lat="48.68627" lon="6.72548">
        <ele>233</ele>
        <time>2014-06-01T09:55:07Z</time>
      </trkpt>
      <trkpt lat="48.68619" lon="6.72583">
        <ele>237</ele>
        <time>2014-06-01T09:55:12Z</time>
      </trkpt>
      <trkpt lat="48.68613" lon="6.72624">
        <ele>240</ele>
        <time>2014-06-01T09:55:17Z</time>
      </trkpt>
      <trkpt lat="48.68607" lon="6.72666">
        <ele>241</ele>
        <time>2014-06-01T09:55:22Z</time>
      </trkpt>
      <trkpt lat="48.68598" lon="6.72705">
        <ele>241</ele>
        <time>2014-06-01T09:55:27Z</time>
      </trkpt>
      <trkpt lat="48.68591" lon="6.72746">
        <ele>241</ele>
        <time>2014-06-01T09:55:32Z</time>
      </trkpt>
      <trkpt lat="48.68586" lon="6.72786">
        <ele>241</ele>
        <time>2014-06-01T09:55:37Z</time>
      </trkpt>
      <trkpt lat="48.68581" lon="6.72817">
        <ele>241</ele>
        <time>2014-06-01T09:55:42Z</time>
      </trkpt>
      <trkpt lat="48.68574" lon="6.72855">
        <ele>241</ele>
        <time>2014-06-01T09:55:47Z</time>
      </trkpt>
      <trkpt lat="48.68568" lon="6.7289">
        <ele>241</ele>
        <time>2014-06-01T09:55:52Z</time>
      </trkpt>
      <trkpt lat="48.68562" lon="6.72922">
        <ele>241</ele>
        <time>2014-06-01T09:55:57Z</time>
      </trkpt>
      <trkpt lat="48.68557" lon="6.72954">
        <ele>241</ele>
        <time>2014-06-01T09:56:02Z</time>
      </trkpt>
      <trkpt lat="48.68551" lon="6.72987">
        <ele>241</ele>
        <time>2014-06-01T09:56:07Z</time>
      </trkpt>
      <trkpt lat="48.68546" lon="6.73019">
        <ele>243</ele>
        <time>2014-06-01T09:56:12Z</time>
      </trkpt>
      <trkpt lat="48.68541" lon="6.73056">
        <ele>243</ele>
        <time>2014-06-01T09:56:17Z</time>
      </trkpt>
      <trkpt lat="48.68536" lon="6.73085">
        <ele>243</ele>
        <time>2014-06-01T09:56:22Z</time>
      </trkpt>
      <trkpt lat="48.68531" lon="6.73114">
        <ele>243</ele>
        <time>2014-06-01T09:56:27Z</time>
      </trkpt>
      <trkpt lat="48.68527" lon="6.73141">
        <ele>244</ele>
        <time>2014-06-01T09:56:32Z</time>
      </trkpt>
      <trkpt lat="48.68522" lon="6.73167">
        <ele>244</ele>
        <time>2014-06-01T09:56:37Z</time>
      </trkpt>
      <trkpt lat="48.68517" lon="6.73195">
        <ele>245</ele>
        <time>2014-06-01T09:56:42Z</time>
      </trkpt>
      <trkpt lat="48.68512" lon="6.73223">
        <ele>246</ele>
        <time>2014-06-01T09:56:47Z</time>
      </trkpt>
      <trkpt lat="48.68507" lon="6.73252">
        <ele>247</ele>
        <time>2014-06-01T09:56:52Z</time>
      </trkpt>
      <trkpt lat="48.68502" lon="6.73281">
        <ele>247</ele>
        <time>2014-06-01T09:56:57Z</time>
      </trkpt>
      <trkpt lat="48.68496" lon="6.73311">
        <ele>247</ele>
        <time>2014-06-01T09:57:02Z</time>
      </trkpt>
      <trkpt lat="48.68488" lon="6.73347">
        <ele>248</ele>
        <time>2014-06-01T09:57:07Z</time>
      </trkpt>
      <trkpt lat="48.6848" lon="6.73393">
        <ele>248</ele>
        <time>2014-06-01T09:57:12Z</time>
      </trkpt>
      <trkpt lat="48.6847" lon="6.73452">
        <ele>248</ele>
        <time>2014-06-01T09:57:17Z</time>
      </trkpt>
      <trkpt lat="48.68456" lon="6.73538">
        <ele>248</ele>
        <time>2014-06-01T09:57:23Z</time>
      </trkpt>
      <trkpt lat="48.68439" lon="6.73636">
        <ele>245</ele>
        <time>2014-06-01T09:57:29Z</time>
      </trkpt>
      <trkpt lat="48.68426" lon="6.73714">
        <ele>242</ele>
        <time>2014-06-01T09:57:34Z</time>
      </trkpt>
      <trkpt lat="48.68417" lon="6.7377">
        <ele>242</ele>
        <time>2014-06-01T09:57:39Z</time>
      </trkpt>
      <trkpt lat="48.68411" lon="6.73808">
        <ele>242</ele>
        <time>2014-06-01T09:57:44Z</time>
      </trkpt>
      <trkpt lat="48.68406" lon="6.73838">
        <ele>242</ele>
        <time>2014-06-01T09:57:49Z</time>
      </trkpt>
      <trkpt lat="48.68402" lon="6.73869">
        <ele>242</ele>
        <time>2014-06-01T09:57:54Z</time>
      </trkpt>
      <trkpt lat="48.68396" lon="6.73901">
        <ele>242</ele>
        <time>2014-06-01T09:57:59Z</time>
      </trkpt>
      <trkpt lat="48.68389" lon="6.73942">
        <ele>242</ele>
        <time>2014-06-01T09:58:04Z</time>
      </trkpt>
      <trkpt lat="48.68382" lon="6.73989">
        <ele>242</ele>
        <time>2014-06-01T09:58:09Z</time>
      </trkpt>
      <trkpt lat="48.68375" lon="6.74034">
        <ele>242</ele>
        <time>2014-06-01T09:58:14Z</time>
      </trkpt>
      <trkpt lat="48.68367" lon="6.74076">
        <ele>242</ele>
        <time>2014-06-01T09:58:19Z</time>
      </trkpt>
      <trkpt lat="48.6836" lon="6.74117">
        <ele>242</ele>
        <time>2014-06-01T09:58:24Z</time>
      </trkpt>
      <trkpt lat="48.68353" lon="6.74159">
        <ele>242</ele>
        <time>2014-06-01T09:58:29Z</time>
      </trkpt>
      <trkpt lat="48.68346" lon="6.74198">
        <ele>242</ele>
        <time>2014-06-01T09:58:34Z</time>
      </trkpt>
      <trkpt lat="48.6834" lon="6.74244">
        <ele>242</ele>
        <time>2014-06-01T09:58:39Z</time>
      </trkpt>
      <trkpt lat="48.68332" lon="6.74286">
        <ele>242</ele>
        <time>2014-06-01T09:58:44Z</time>
      </trkpt>
      <trkpt lat="48.68322" lon="6.74333">
        <ele>242</ele>
        <time>2014-06-01T09:58:49Z</time>
      </trkpt>
      <trkpt lat="48.68314" lon="6.74387">
        <ele>242</ele>
        <time>2014-06-01T09:58:54Z</time>
      </trkpt>
      <trkpt lat="48.68303" lon="6.74452">
        <ele>242</ele>
        <time>2014-06-01T09:58:59Z</time>
      </trkpt>
      <trkpt lat="48.68292" lon="6.74523">
        <ele>242</ele>
        <time>2014-06-01T09:59:04Z</time>
      </trkpt>
      <trkpt lat="48.68282" lon="6.74576">
        <ele>241</ele>
        <time>2014-06-01T09:59:09Z</time>
      </trkpt>
      <trkpt lat="48.68273" lon="6.74621">
        <ele>240</ele>
        <time>2014-06-01T09:59:14Z</time>
      </trkpt>
      <trkpt lat="48.68264" lon="6.74667">
        <ele>240</ele>
        <time>2014-06-01T09:59:19Z</time>
      </trkpt>
      <trkpt lat="48.68256" lon="6.74712">
        <ele>240</ele>
        <time>2014-06-01T09:59:24Z</time>
      </trkpt>
      <trkpt lat="48.68249" lon="6.74754">
        <ele>240</ele>
        <time>2014-06-01T09:59:29Z</time>
      </trkpt>
      <trkpt lat="48.68242" lon="6.74789">
        <ele>240</ele>
        <time>2014-06-01T09:59:34Z</time>
      </trkpt>
      <trkpt lat="48.68236" lon="6.74821">
        <ele>240</ele>
        <time>2014-06-01T09:59:39Z</time>
      </trkpt>
      <trkpt lat="48.6823" lon="6.74854">
        <ele>240</ele>
        <time>2014-06-01T09:59:44Z</time>
      </trkpt>
      <trkpt lat="48.68222" lon="6.74894">
        <ele>240</ele>
        <time>2014-06-01T09:59:49Z</time>
      </trkpt>
      <trkpt lat="48.68212" lon="6.74947">
        <ele>240</ele>
        <time>2014-06-01T09:59:54Z</time>
      </trkpt>
      <trkpt lat="48.68201" lon="6.75015">
        <ele>240</ele>
        <time>2014-06-01T09:59:59Z</time>
      </trkpt>
      <trkpt lat="48.6819" lon="6.75085">
        <ele>238</ele>
        <time>2014-06-01T10:00:04Z</time>
      </trkpt>
      <trkpt lat="48.6818" lon="6.75144">
        <ele>236</ele>
        <time>2014-06-01T10:00:09Z</time>
      </trkpt>
      <trkpt lat="48.68171" lon="6.75186">
        <ele>236</ele>
        <time>2014-06-01T10:00:14Z</time>
      </trkpt>
      <trkpt lat="48.68165" lon="6.7522">
        <ele>236</ele>
        <time>2014-06-01T10:00:19Z</time>
      </trkpt>
      <trkpt lat="48.68157" lon="6.75257">
        <ele>236</ele>
        <time>2014-06-01T10:00:24Z</time>
      </trkpt>
      <trkpt lat="48.68148" lon="6.75303">
        <ele>236</ele>
        <time>2014-06-01T10:00:29Z</time>
      </trkpt>
      <trkpt lat="48.68138" lon="6.75363">
        <ele>236</ele>
        <time>2014-06-01T10:00:34Z</time>
      </trkpt>
      <trkpt lat="48.68127" lon="6.75427">
        <ele>236</ele>
        <time>2014-06-01T10:00:39Z</time>
      </trkpt>
      <trkpt lat="48.68116" lon="6.75488">
        <ele>235</ele>
        <time>2014-06-01T10:00:44Z</time>
      </trkpt>
      <trkpt lat="48.68107" lon="6.75535">
        <ele>235</ele>
        <time>2014-06-01T10:00:49Z</time>
      </trkpt>
      <trkpt lat="48.68101" lon="6.75574">
        <ele>235</ele>
        <time>2014-06-01T10:00:54Z</time>
      </trkpt>
      <trkpt lat="48.68094" lon="6.75611">
        <ele>235</ele>
        <time>2014-06-01T10:00:59Z</time>
      </trkpt>
      <trkpt lat="48.68089" lon="6.75645">
        <ele>236</ele>
        <time>2014-06-01T10:01:04Z</time>
      </trkpt>
      <trkpt lat="48.68083" lon="6.75678">
        <ele>237</ele>
        <time>2014-06-01T10:01:09Z</time>
      </trkpt>
      <trkpt lat="48.68077" lon="6.7571">
        <ele>238</ele>
        <time>2014-06-01T10:01:14Z</time>
      </trkpt>
      <trkpt lat="48.6807" lon="6.7575">
        <ele>239</ele>
        <time>2014-06-01T10:01:19Z</time>
      </trkpt>
      <trkpt lat="48.68061" lon="6.75799">
        <ele>239</ele>
        <time>2014-06-01T10:01:24Z</time>
      </trkpt>
      <trkpt lat="48.6805" lon="6.75856">
        <ele>239</ele>
        <time>2014-06-01T10:01:29Z</time>
      </trkpt>
      <trkpt lat="48.68039" lon="6.7592">
        <ele>239</ele>
        <time>2014-06-01T10:01:34Z</time>
      </trkpt>
      <trkpt lat="48.6803" lon="6.75979">
        <ele>237</ele>
        <time>2014-06-01T10:01:39Z</time>
      </trkpt>
      <trkpt lat="48.68023" lon="6.76023">
        <ele>237</ele>
        <time>2014-06-01T10:01:44Z</time>
      </trkpt>
      <trkpt lat="48.68017" lon="6.76056">
        <ele>237</ele>
        <time>2014-06-01T10:01:49Z</time>
      </trkpt>
      <trkpt lat="48.68011" lon="6.76085">
        <ele>237</ele>
        <time>2014-06-01T10:01:54Z</time>
      </trkpt>
      <trkpt lat="48.68006" lon="6.76113">
        <ele>237</ele>
        <time>2014-06-01T10:01:59Z</time>
      </trkpt>
      <trkpt lat="48.68001" lon="6.76141">
        <ele>237</ele>
        <time>2014-06-01T10:02:04Z</time>
      </trkpt>
      <trkpt lat="48.67996" lon="6.76169">
        <ele>238</ele>
        <time>2014-06-01T10:02:09Z</time>
      </trkpt>
      <trkpt lat="48.6799" lon="6.76198">
        <ele>239</ele>
        <time>2014-06-01T10:02:14Z</time>
      </trkpt>
      <trkpt lat="48.67984" lon="6.7623">
        <ele>240</ele>
        <time>2014-06-01T10:02:19Z</time>
      </trkpt>
      <trkpt lat="48.67978" lon="6.76263">
        <ele>241</ele>
        <time>2014-06-01T10:02:24Z</time>
      </trkpt>
      <trkpt lat="48.67972" lon="6.76296">
        <ele>241</ele>
        <time>2014-06-01T10:02:29Z</time>
      </trkpt>
      <trkpt lat="48.67967" lon="6.76327">
        <ele>241</ele>
        <time>2014-06-01T10:02:34Z</time>
      </trkpt>
      <trkpt lat="48.67961" lon="6.76361">
        <ele>241</ele>
        <time>2014-06-01T10:02:39Z</time>
      </trkpt>
      <trkpt lat="48.67955" lon="6.76391">
        <ele>241</ele>
        <time>2014-06-01T10:02:44Z</time>
      </trkpt>
      <trkpt lat="48.67949" lon="6.76419">
        <ele>241</ele>
        <time>2014-06-01T10:02:49Z</time>
      </trkpt>
      <trkpt lat="48.67943" lon="6.76447">
        <ele>241</ele>
        <time>2014-06-01T10:02:54Z</time>
      </trkpt>
      <trkpt lat="48.67936" lon="6.76475">
        <ele>242</ele>
        <time>2014-06-01T10:02:59Z</time>
      </trkpt>
      <trkpt lat="48.67928" lon="6.76509">
        <ele>242</ele>
        <time>2014-06-01T10:03:04Z</time>
      </trkpt>
      <trkpt lat="48.6792" lon="6.76549">
        <ele>242</ele>
        <time>2014-06-01T10:03:09Z</time>
      </trkpt>
      <trkpt lat="48.67909" lon="6.76594">
        <ele>242</ele>
        <time>2014-06-01T10:03:14Z</time>
      </trkpt>
      <trkpt lat="48.67898" lon="6.76643">
        <ele>242</ele>
        <time>2014-06-01T10:03:19Z</time>
      </trkpt>
      <trkpt lat="48.67886" lon="6.76692">
        <ele>242</ele>
        <time>2014-06-01T10:03:24Z</time>
      </trkpt>
      <trkpt lat="48.67874" lon="6.76744">
        <ele>242</ele>
        <time>2014-06-01T10:03:29Z</time>
      </trkpt>
      <trkpt lat="48.67863" lon="6.76799">
        <ele>241</ele>
        <time>2014-06-01T10:03:34Z</time>
      </trkpt>
      <trkpt lat="48.6785" lon="6.76856">
        <ele>238</ele>
        <time>2014-06-01T10:03:39Z</time>
      </trkpt>
      <trkpt lat="48.67837" lon="6.76915">
        <ele>236</ele>
        <time>2014-06-01T10:03:44Z</time>
      </trkpt>
      <trkpt lat="48.67825" lon="6.76966">
        <ele>236</ele>
        <time>2014-06-01T10:03:49Z</time>
      </trkpt>
      <trkpt lat="48.67815" lon="6.77008">
        <ele>236</ele>
        <time>2014-06-01T10:03:54Z</time>
      </trkpt>
      <trkpt lat="48.67806" lon="6.77046">
        <ele>236</ele>
        <time>2014-06-01T10:03:59Z</time>
      </trkpt>
      <trkpt lat="48.67798" lon="6.77083">
        <ele>236</ele>
        <time>2014-06-01T10:04:04Z</time>
      </trkpt>
      <trkpt lat="48.6779" lon="6.77118">
        <ele>236</ele>
        <time>2014-06-01T10:04:09Z</time>
      </trkpt>
      <trkpt lat="48.6778" lon="6.77155">
        <ele>236</ele>
        <time>2014-06-01T10:04:14Z</time>
      </trkpt>
      <trkpt lat="48.6777" lon="6.77199">
        <ele>236</ele>
        <time>2014-06-01T10:04:19Z</time>
      </trkpt>
      <trkpt lat="48.67759" lon="6.77246">
        <ele>236</ele>
        <time>2014-06-01T10:04:24Z</time>
      </trkpt>
      <trkpt lat="48.67747" lon="6.77298">
        <ele>236</ele>
        <time>2014-06-01T10:04:29Z</time>
      </trkpt>
      <trkpt lat="48.67736" lon="6.7735">
        <ele>236</ele>
        <time>2014-06-01T10:04:34Z</time>
      </trkpt>
      <trkpt lat="48.67724" lon="6.774">
        <ele>235</ele>
        <time>2014-06-01T10:04:39Z</time>
      </trkpt>
      <trkpt lat="48.67714" lon="6.77444">
        <ele>235</ele>
        <time>2014-06-01T10:04:44Z</time>
      </trkpt>
      <trkpt lat="48.67703" lon="6.77485">
        <ele>235</ele>
        <time>2014-06-01T10:04:49Z</time>
      </trkpt>
      <trkpt lat="48.67694" lon="6.77526">
        <ele>235</ele>
        <time>2014-06-01T10:04:54Z</time>
      </trkpt>
      <trkpt lat="48.67685" lon="6.77564">
        <ele>235</ele>
        <time>2014-06-01T10:04:59Z</time>
      </trkpt>
      <trkpt lat="48.67676" lon="6.77598">
        <ele>235</ele>
        <time>2014-06-01T10:05:04Z</time>
      </trkpt>
      <trkpt lat="48.67664" lon="6.7763">
        <ele>235</ele>
        <time>2014-06-01T10:05:09Z</time>
      </trkpt>
      <trkpt lat="48.67652" lon="6.77664">
        <ele>235</ele>
        <time>2014-06-01T10:05:14Z</time>
      </trkpt>
      <trkpt lat="48.67638" lon="6.77698">
        <ele>235</ele>
        <time>2014-06-01T10:05:19Z</time>
      </trkpt>
      <trkpt lat="48.67625" lon="6.77734">
        <ele>235</ele>
        <time>2014-06-01T10:05:24Z</time>
      </trkpt>
      <trkpt lat="48.67612" lon="6.77767">
        <ele>235</ele>
        <time>2014-06-01T10:05:29Z</time>
      </trkpt>
      <trkpt lat="48.67601" lon="6.778">
        <ele>235</ele>
        <time>2014-06-01T10:05:34Z</time>
      </trkpt>
      <trkpt lat="48.67589" lon="6.77832">
        <ele>235</ele>
        <time>2014-06-01T10:05:39Z</time>
      </trkpt>
      <trkpt lat="48.67578" lon="6.77863">
        <ele>235</ele>
        <time>2014-06-01T10:05:44Z</time>
      </trkpt>
      <trkpt lat="48.67568" lon="6.77892">
        <ele>235</ele>
        <time>2014-06-01T10:05:49Z</time>
      </trkpt>
      <trkpt lat="48.67558" lon="6.77919">
        <ele>235</ele>
        <time>2014-06-01T10:05:54Z</time>
      </trkpt>
      <trkpt lat="48.67549" lon="6.77946">
        <ele>235</ele>
        <time>2014-06-01T10:05:59Z</time>
      </trkpt>
      <trkpt lat="48.67541" lon="6.77969">
        <ele>235</ele>
        <time>2014-06-01T10:06:04Z</time>
      </trkpt>
      <trkpt lat="48.67537" lon="6.77985">
        <ele>235</ele>
        <time>2014-06-01T10:06:09Z</time>
      </trkpt>
      <trkpt lat="48.67529" lon="6.78002">
        <ele>235</ele>
        <time>2014-06-01T10:06:14Z</time>
      </trkpt>
      <trkpt lat="48.67516" lon="6.78024">
        <ele>235</ele>
        <time>2014-06-01T10:06:19Z</time>
      </trkpt>
      <trkpt lat="48.67502" lon="6.78047">
        <ele>235</ele>
        <time>2014-06-01T10:06:24Z</time>
      </trkpt>
      <trkpt lat="48.67485" lon="6.78068">
        <ele>235</ele>
        <time>2014-06-01T10:06:29Z</time>
      </trkpt>
      <trkpt lat="48.67464" lon="6.78083">
        <ele>235</ele>
        <time>2014-06-01T10:06:34Z</time>
      </trkpt>
      <trkpt lat="48.67441" lon="6.78095">
        <ele>235</ele>
        <time>2014-06-01T10:06:39Z</time>
      </trkpt>
      <trkpt lat="48.67421" lon="6.78106">
        <ele>235</ele>
        <time>2014-06-01T10:06:44Z</time>
      </trkpt>
      <trkpt lat="48.67403" lon="6.78116">
        <ele>235</ele>
        <time>2014-06-01T10:06:49Z</time>
      </trkpt>
      <trkpt lat="48.67385" lon="6.78127">
        <ele>235</ele>
        <time>2014-06-01T10:06:54Z</time>
      </trkpt>
      <trkpt lat="48.67367" lon="6.78142">
        <ele>235</ele>
        <time>2014-06-01T10:06:59Z</time>
      </trkpt>
      <trkpt lat="48.67354" lon="6.78169">
        <ele>235</ele>
        <time>2014-06-01T10:07:04Z</time>
      </trkpt>
      <trkpt lat="48.6735" lon="6.78203">
        <ele>235</ele>
        <time>2014-06-01T10:07:09Z</time>
      </trkpt>
      <trkpt lat="48.67345" lon="6.78237">
        <ele>235</ele>
        <time>2014-06-01T10:07:14Z</time>
      </trkpt>
      <trkpt lat="48.67342" lon="6.78274">
        <ele>235</ele>
        <time>2014-06-01T10:07:19Z</time>
      </trkpt>
      <trkpt lat="48.67337" lon="6.78314">
        <ele>235</ele>
        <time>2014-06-01T10:07:24Z</time>
      </trkpt>
      <trkpt lat="48.67334" lon="6.78354">
        <ele>235</ele>
        <time>2014-06-01T10:07:29Z</time>
      </trkpt>
      <trkpt lat="48.6733" lon="6.78392">
        <ele>235</ele>
        <time>2014-06-01T10:07:34Z</time>
      </trkpt>
      <trkpt lat="48.67327" lon="6.78425">
        <ele>235</ele>
        <time>2014-06-01T10:07:39Z</time>
      </trkpt>
      <trkpt lat="48.67324" lon="6.78448">
        <ele>235</ele>
        <time>2014-06-01T10:07:44Z</time>
      </trkpt>
      <trkpt lat="48.6732" lon="6.7847">
        <ele>235</ele>
        <time>2014-06-01T10:07:49Z</time>
      </trkpt>
      <trkpt lat="48.67314" lon="6.78491">
        <ele>235</ele>
        <time>2014-06-01T10:07:54Z</time>
      </trkpt>
      <trkpt lat="48.67308" lon="6.78515">
        <ele>235</ele>
        <time>2014-06-01T10:07:59Z</time>
      </trkpt>
      <trkpt lat="48.67303" lon="6.78545">
        <ele>235</ele>
        <time>2014-06-01T10:08:04Z</time>
      </trkpt>
      <trkpt lat="48.67298" lon="6.7858">
        <ele>235</ele>
        <time>2014-06-01T10:08:09Z</time>
      </trkpt>
      <trkpt lat="48.67292" lon="6.78617">
        <ele>235</ele>
        <time>2014-06-01T10:08:14Z</time>
      </trkpt>
      <trkpt lat="48.67288" lon="6.78659">
        <ele>235</ele>
        <time>2014-06-01T10:08:19Z</time>
      </trkpt>
      <trkpt lat="48.67283" lon="6.78707">
        <ele>233</ele>
        <time>2014-06-01T10:08:24Z</time>
      </trkpt>
      <trkpt lat="48.67278" lon="6.78752">
        <ele>229</ele>
        <time>2014-06-01T10:08:29Z</time>
      </trkpt>
      <trkpt lat="48.67272" lon="6.78794">
        <ele>228</ele>
        <time>2014-06-01T10:08:34Z</time>
      </trkpt>
      <trkpt lat="48.67267" lon="6.78837">
        <ele>227</ele>
        <time>2014-06-01T10:08:39Z</time>
      </trkpt>
      <trkpt lat="48.67263" lon="6.78875">
        <ele>227</ele>
        <time>2014-06-01T10:08:44Z</time>
      </trkpt>
      <trkpt lat="48.67261" lon="6.78912">
        <ele>227</ele>
        <time>2014-06-01T10:08:49Z</time>
      </trkpt>
      <trkpt lat="48.67262" lon="6.78949">
        <ele>229</ele>
        <time>2014-06-01T10:08:54Z</time>
      </trkpt>
      <trkpt lat="48.67265" lon="6.78987">
        <ele>232</ele>
        <time>2014-06-01T10:08:59Z</time>
      </trkpt>
      <trkpt lat="48.67268" lon="6.79026">
        <ele>232</ele>
        <time>2014-06-01T10:09:04Z</time>
      </trkpt>
      <trkpt lat="48.67271" lon="6.79063">
        <ele>232</ele>
        <time>2014-06-01T10:09:09Z</time>
      </trkpt>
      <trkpt lat="48.67275" lon="6.79101">
        <ele>234</ele>
        <time>2014-06-01T10:09:14Z</time>
      </trkpt>
      <trkpt lat="48.67279" lon="6.79138">
        <ele>234</ele>
        <time>2014-06-01T10:09:19Z</time>
      </trkpt>
      <trkpt lat="48.67283" lon="6.79176">
        <ele>235</ele>
        <time>2014-06-01T10:09:24Z</time>
      </trkpt>
      <trkpt lat="48.67287" lon="6.79212">
        <ele>236</ele>
        <time>2014-06-01T10:09:29Z</time>
      </trkpt>
      <trkpt lat="48.67292" lon="6.7925">
        <ele>237</ele>
        <time>2014-06-01T10:09:34Z</time>
      </trkpt>
      <trkpt lat="48.67296" lon="6.79286">
        <ele>237</ele>
        <time>2014-06-01T10:09:39Z</time>
      </trkpt>
      <trkpt lat="48.67297" lon="6.79326">
        <ele>237</ele>
        <time>2014-06-01T10:09:44Z</time>
      </trkpt>
      <trkpt lat="48.67295" lon="6.79367">
        <ele>237</ele>
        <time>2014-06-01T10:09:49Z</time>
      </trkpt>
      <trkpt lat="48.6729" lon="6.79407">
        <ele>237</ele>
        <time>2014-06-01T10:09:54Z</time>
      </trkpt>
      <trkpt lat="48.67283" lon="6.79447">
        <ele>237</ele>
        <time>2014-06-01T10:09:59Z</time>
      </trkpt>
      <trkpt lat="48.67273" lon="6.79485">
        <ele>237</ele>
        <time>2014-06-01T10:10:04Z</time>
      </trkpt>
      <trkpt lat="48.6726" lon="6.79519">
        <ele>237</ele>
        <time>2014-06-01T10:10:09Z</time>
      </trkpt>
      <trkpt lat="48.67247" lon="6.79549">
        <ele>237</ele>
        <time>2014-06-01T10:10:14Z</time>
      </trkpt>
      <trkpt lat="48.67231" lon="6.79575">
        <ele>239</ele>
        <time>2014-06-01T10:10:19Z</time>
      </trkpt>
      <trkpt lat="48.67213" lon="6.79598">
        <ele>240</ele>
        <time>2014-06-01T10:10:24Z</time>
      </trkpt>
      <trkpt lat="48.67194" lon="6.7962">
        <ele>241</ele>
        <time>2014-06-01T10:10:29Z</time>
      </trkpt>
      <trkpt lat="48.67175" lon="6.7964">
        <ele>243</ele>
        <time>2014-06-01T10:10:34Z</time>
      </trkpt>
      <trkpt lat="48.67156" lon="6.79659">
        <ele>244</ele>
        <time>2014-06-01T10:10:39Z</time>
      </trkpt>
      <trkpt lat="48.67139" lon="6.79674">
        <ele>245</ele>
        <time>2014-06-01T10:10:44Z</time>
      </trkpt>
      <trkpt lat="48.67121" lon="6.79692">
        <ele>245</ele>
        <time>2014-06-01T10:10:49Z</time>
      </trkpt>
      <trkpt lat="48.67103" lon="6.79711">
        <ele>246</ele>
        <time>2014-06-01T10:10:54Z</time>
      </trkpt>
      <trkpt lat="48.67083" lon="6.79733">
        <ele>247</ele>
        <time>2014-06-01T10:10:59Z</time>
      </trkpt>
      <trkpt lat="48.67063" lon="6.79754">
        <ele>247</ele>
        <time>2014-06-01T10:11:04Z</time>
      </trkpt>
      <trkpt lat="48.6704" lon="6.79777">
        <ele>247</ele>
        <time>2014-06-01T10:11:09Z</time>
      </trkpt>
      <trkpt lat="48.67015" lon="6.79803">
        <ele>247</ele>
        <time>2014-06-01T10:11:14Z</time>
      </trkpt>
      <trkpt lat="48.6699" lon="6.79829">
        <ele>247</ele>
        <time>2014-06-01T10:11:19Z</time>
      </trkpt>
      <trkpt lat="48.66966" lon="6.79852">
        <ele>247</ele>
        <time>2014-06-01T10:11:24Z</time>
      </trkpt>
      <trkpt lat="48.66945" lon="6.79873">
        <ele>247</ele>
        <time>2014-06-01T10:11:29Z</time>
      </trkpt>
      <trkpt lat="48.66927" lon="6.79892">
        <ele>247</ele>
        <time>2014-06-01T10:11:34Z</time>
      </trkpt>
      <trkpt lat="48.66911" lon="6.79908">
        <ele>248</ele>
        <time>2014-06-01T10:11:39Z</time>
      </trkpt>
      <trkpt lat="48.66896" lon="6.79919">
        <ele>249</ele>
        <time>2014-06-01T10:11:44Z</time>
      </trkpt>
      <trkpt lat="48.66882" lon="6.79932">
        <ele>250</ele>
        <time>2014-06-01T10:11:49Z</time>
      </trkpt>
      <trkpt lat="48.66865" lon="6.79947">
        <ele>250</ele>
        <time>2014-06-01T10:11:54Z</time>
      </trkpt>
      <trkpt lat="48.66848" lon="6.79961">
        <ele>251</ele>
        <time>2014-06-01T10:11:59Z</time>
      </trkpt>
      <trkpt lat="48.6683" lon="6.79976">
        <ele>251</ele>
        <time>2014-06-01T10:12:04Z</time>
      </trkpt>
      <trkpt lat="48.6681" lon="6.79992">
        <ele>251</ele>
        <time>2014-06-01T10:12:09Z</time>
      </trkpt>
      <trkpt lat="48.66789" lon="6.80012">
        <ele>251</ele>
        <time>2014-06-01T10:12:14Z</time>
      </trkpt>
      <trkpt lat="48.66764" lon="6.80039">
        <ele>251</ele>
        <time>2014-06-01T10:12:19Z</time>
      </trkpt>
      <trkpt lat="48.66736" lon="6.80071">
        <ele>251</ele>
        <time>2014-06-01T10:12:24Z</time>
      </trkpt>
      <trkpt lat="48.66708" lon="6.80108">
        <ele>251</ele>
        <time>2014-06-01T10:12:29Z</time>
      </trkpt>
      <trkpt lat="48.66683" lon="6.80142">
        <ele>251</ele>
        <time>2014-06-01T10:12:34Z</time>
      </trkpt>
      <trkpt lat="48.66663" lon="6.80173">
        <ele>251</ele>
        <time>2014-06-01T10:12:39Z</time>
      </trkpt>
      <trkpt lat="48.66653" lon="6.80208">
        <ele>251</ele>
        <time>2014-06-01T10:12:44Z</time>
      </trkpt>
      <trkpt lat="48.66668" lon="6.80242">
        <ele>251</ele>
        <time>2014-06-01T10:12:49Z</time>
      </trkpt>
      <trkpt lat="48.66696" lon="6.80266">
        <ele>251</ele>
        <time>2014-06-01T10:12:54Z</time>
      </trkpt>
      <trkpt lat="48.66727" lon="6.80291">
        <ele>250</ele>
        <time>2014-06-01T10:12:59Z</time>
      </trkpt>
      <trkpt lat="48.66761" lon="6.80321">
        <ele>247</ele>
        <time>2014-06-01T10:13:04Z</time>
      </trkpt>
      <trkpt lat="48.66798" lon="6.8035">
        <ele>245</ele>
        <time>2014-06-01T10:13:09Z</time>
      </trkpt>
      <trkpt lat="48.66831" lon="6.80382">
        <ele>245</ele>
        <time>2014-06-01T10:13:14Z</time>
      </trkpt>
      <trkpt lat="48.66856" lon="6.80423">
        <ele>244</ele>
        <time>2014-06-01T10:13:19Z</time>
      </trkpt>
      <trkpt lat="48.66874" lon="6.80465">
        <ele>244</ele>
        <time>2014-06-01T10:13:24Z</time>
      </trkpt>
      <trkpt lat="48.66891" lon="6.80506">
        <ele>244</ele>
        <time>2014-06-01T10:13:29Z</time>
      </trkpt>
      <trkpt lat="48.66906" lon="6.80548">
        <ele>243</ele>
        <time>2014-06-01T10:13:34Z</time>
      </trkpt>
      <trkpt lat="48.66922" lon="6.80587">
        <ele>243</ele>
        <time>2014-06-01T10:13:39Z</time>
      </trkpt>
      <trkpt lat="48.66937" lon="6.80626">
        <ele>243</ele>
        <time>2014-06-01T10:13:44Z</time>
      </trkpt>
      <trkpt lat="48.66953" lon="6.80664">
        <ele>242</ele>
        <time>2014-06-01T10:13:49Z</time>
      </trkpt>
      <trkpt lat="48.66971" lon="6.80702">
        <ele>242</ele>
        <time>2014-06-01T10:13:54Z</time>
      </trkpt>
      <trkpt lat="48.66992" lon="6.80731">
        <ele>242</ele>
        <time>2014-06-01T10:13:59Z</time>
      </trkpt>
      <trkpt lat="48.67012" lon="6.80753">
        <ele>242</ele>
        <time>2014-06-01T10:14:04Z</time>
      </trkpt>
      <trkpt lat="48.6703" lon="6.80775">
        <ele>242</ele>
        <time>2014-06-01T10:14:09Z</time>
      </trkpt>
      <trkpt lat="48.67046" lon="6.80796">
        <ele>242</ele>
        <time>2014-06-01T10:14:14Z</time>
      </trkpt>
      <trkpt lat="48.67061" lon="6.8082">
        <ele>242</ele>
        <time>2014-06-01T10:14:19Z</time>
      </trkpt>
      <trkpt lat="48.67069" lon="6.80848">
        <ele>242</ele>
        <time>2014-06-01T10:14:24Z</time>
      </trkpt>
      <trkpt lat="48.67072" lon="6.80875">
        <ele>242</ele>
        <time>2014-06-01T10:14:29Z</time>
      </trkpt>
      <trkpt lat="48.67073" lon="6.80902">
        <ele>242</ele>
        <time>2014-06-01T10:14:34Z</time>
      </trkpt>
      <trkpt lat="48.67072" lon="6.80927">
        <ele>244</ele>
        <time>2014-06-01T10:14:39Z</time>
      </trkpt>
      <trkpt lat="48.67072" lon="6.8095">
        <ele>246</ele>
        <time>2014-06-01T10:14:44Z</time>
      </trkpt>
      <trkpt lat="48.67072" lon="6.80974">
        <ele>247</ele>
        <time>2014-06-01T10:14:49Z</time>
      </trkpt>
      <trkpt lat="48.67072" lon="6.80999">
        <ele>248</ele>
        <time>2014-06-01T10:14:54Z</time>
      </trkpt>
      <trkpt lat="48.67073" lon="6.81024">
        <ele>249</ele>
        <time>2014-06-01T10:14:59Z</time>
      </trkpt>
      <trkpt lat="48.67073" lon="6.81049">
        <ele>250</ele>
        <time>2014-06-01T10:15:04Z</time>
      </trkpt>
      <trkpt lat="48.67074" lon="6.81075">
        <ele>250</ele>
        <time>2014-06-01T10:15:09Z</time>
      </trkpt>
      <trkpt lat="48.67074" lon="6.81102">
        <ele>250</ele>
        <time>2014-06-01T10:15:14Z</time>
      </trkpt>
      <trkpt lat="48.67073" lon="6.81128">
        <ele>251</ele>
        <time>2014-06-01T10:15:19Z</time>
      </trkpt>
      <trkpt lat="48.6707" lon="6.81153">
        <ele>251</ele>
        <time>2014-06-01T10:15:24Z</time>
      </trkpt>
      <trkpt lat="48.67064" lon="6.81184">
        <ele>251</ele>
        <time>2014-06-01T10:15:29Z</time>
      </trkpt>
      <trkpt lat="48.67058" lon="6.81221">
        <ele>251</ele>
        <time>2014-06-01T10:15:34Z</time>
      </trkpt>
      <trkpt lat="48.67046" lon="6.81258">
        <ele>251</ele>
        <time>2014-06-01T10:15:39Z</time>
      </trkpt>
      <trkpt lat="48.6703" lon="6.81285">
        <ele>251</ele>
        <time>2014-06-01T10:15:44Z</time>
      </trkpt>
      <trkpt lat="48.67012" lon="6.81313">
        <ele>251</ele>
        <time>2014-06-01T10:15:49Z</time>
      </trkpt>
      <trkpt lat="48.66992" lon="6.81342">
        <ele>251</ele>
        <time>2014-06-01T10:15:54Z</time>
      </trkpt>
      <trkpt lat="48.66972" lon="6.81373">
        <ele>251</ele>
        <time>2014-06-01T10:15:59Z</time>
      </trkpt>
      <trkpt lat="48.66951" lon="6.81408">
        <ele>251</ele>
        <time>2014-06-01T10:16:04Z</time>
      </trkpt>
      <trkpt lat="48.66937" lon="6.8145">
        <ele>251</ele>
        <time>2014-06-01T10:16:09Z</time>
      </trkpt>
      <trkpt lat="48.66925" lon="6.81491">
        <ele>251</ele>
        <time>2014-06-01T10:16:14Z</time>
      </trkpt>
      <trkpt lat="48.66914" lon="6.81532">
        <ele>251</ele>
        <time>2014-06-01T10:16:19Z</time>
      </trkpt>
      <trkpt lat="48.66903" lon="6.81569">
        <ele>251</ele>
        <time>2014-06-01T10:16:24Z</time>
      </trkpt>
      <trkpt lat="48.66893" lon="6.81603">
        <ele>251</ele>
        <time>2014-06-01T10:16:29Z</time>
      </trkpt>
      <trkpt lat="48.66882" lon="6.81639">
        <ele>251</ele>
        <time>2014-06-01T10:16:34Z</time>
      </trkpt>
      <trkpt lat="48.66869" lon="6.81681">
        <ele>251</ele>
        <time>2014-06-01T10:16:39Z</time>
      </trkpt>
      <trkpt lat="48.66857" lon="6.81724">
        <ele>251</ele>
        <time>2014-06-01T10:16:44Z</time>
      </trkpt>
      <trkpt lat="48.66845" lon="6.81767">
        <ele>251</ele>
        <time>2014-06-01T10:16:49Z</time>
      </trkpt>
      <trkpt lat="48.66833" lon="6.81808">
        <ele>251</ele>
        <time>2014-06-01T10:16:54Z</time>
      </trkpt>
      <trkpt lat="48.66822" lon="6.81847">
        <ele>251</ele>
        <time>2014-06-01T10:16:59Z</time>
      </trkpt>
      <trkpt lat="48.66812" lon="6.81882">
        <ele>251</ele>
        <time>2014-06-01T10:17:04Z</time>
      </trkpt>
      <trkpt lat="48.66803" lon="6.81911">
        <ele>251</ele>
        <time>2014-06-01T10:17:09Z</time>
      </trkpt>
      <trkpt lat="48.66794" lon="6.81938">
        <ele>251</ele>
        <time>2014-06-01T10:17:14Z</time>
      </trkpt>
      <trkpt lat="48.66787" lon="6.81963">
        <ele>251</ele>
        <time>2014-06-01T10:17:19Z</time>
      </trkpt>
      <trkpt lat="48.66783" lon="6.81981">
        <ele>251</ele>
        <time>2014-06-01T10:17:24Z</time>
      </trkpt>
      <trkpt lat="48.66779" lon="6.81993">
        <ele>251</ele>
        <time>2014-06-01T10:17:30Z</time>
      </trkpt>
      <trkpt lat="48.66775" lon="6.81999">
        <ele>251</ele>
        <time>2014-06-01T10:17:35Z</time>
      </trkpt>
      <trkpt lat="48.66772" lon="6.82009">
        <ele>251</ele>
        <time>2014-06-01T10:17:40Z</time>
      </trkpt>
      <trkpt lat="48.66767" lon="6.82028">
        <ele>251</ele>
        <time>2014-06-01T10:17:45Z</time>
      </trkpt>
      <trkpt lat="48.66757" lon="6.82059">
        <ele>251</ele>
        <time>2014-06-01T10:17:50Z</time>
      </trkpt>
      <trkpt lat="48.66741" lon="6.82113">
        <ele>250</ele>
        <time>2014-06-01T10:17:56Z</time>
      </trkpt>
      <trkpt lat="48.66725" lon="6.82168">
        <ele>247</ele>
        <time>2014-06-01T10:18:01Z</time>
      </trkpt>
      <trkpt lat="48.66706" lon="6.82236">
        <ele>245</ele>
        <time>2014-06-01T10:18:07Z</time>
      </trkpt>
      <trkpt lat="48.6669" lon="6.82288">
        <ele>245</ele>
        <time>2014-06-01T10:18:12Z</time>
      </trkpt>
      <trkpt lat="48.66677" lon="6.82329">
        <ele>245</ele>
        <time>2014-06-01T10:18:17Z</time>
      </trkpt>
      <trkpt lat="48.66661" lon="6.82367">
        <ele>245</ele>
        <time>2014-06-01T10:18:23Z</time>
      </trkpt>
      <trkpt lat="48.66646" lon="6.82398">
        <ele>245</ele>
        <time>2014-06-01T10:18:28Z</time>
      </trkpt>
      <trkpt lat="48.66626" lon="6.82438">
        <ele>245</ele>
        <time>2014-06-01T10:18:34Z</time>
      </trkpt>
      <trkpt lat="48.6661" lon="6.82468">
        <ele>245</ele>
        <time>2014-06-01T10:18:39Z</time>
      </trkpt>
      <trkpt lat="48.66593" lon="6.82502">
        <ele>245</ele>
        <time>2014-06-01T10:18:45Z</time>
      </trkpt>
      <trkpt lat="48.66581" lon="6.82529">
        <ele>245</ele>
        <time>2014-06-01T10:18:50Z</time>
      </trkpt>
      <trkpt lat="48.66571" lon="6.82554">
        <ele>245</ele>
        <time>2014-06-01T10:18:55Z</time>
      </trkpt>
      <trkpt lat="48.66565" lon="6.82577">
        <ele>245</ele>
        <time>2014-06-01T10:19:00Z</time>
      </trkpt>
      <trkpt lat="48.6656" lon="6.82595">
        <ele>245</ele>
        <time>2014-06-01T10:19:05Z</time>
      </trkpt>
      <trkpt lat="48.66557" lon="6.82611">
        <ele>245</ele>
        <time>2014-06-01T10:19:11Z</time>
      </trkpt>
      <trkpt lat="48.66555" lon="6.82619">
        <ele>245</ele>
        <time>2014-06-01T10:19:17Z</time>
      </trkpt>
      <trkpt lat="48.66548" lon="6.82651">
        <ele>245</ele>
        <time>2014-06-01T10:19:23Z</time>
      </trkpt>
      <trkpt lat="48.66541" lon="6.82683">
        <ele>245</ele>
        <time>2014-06-01T10:19:28Z</time>
      </trkpt>
      <trkpt lat="48.66534" lon="6.82715">
        <ele>245</ele>
        <time>2014-06-01T10:19:33Z</time>
      </trkpt>
      <trkpt lat="48.66526" lon="6.82756">
        <ele>245</ele>
        <time>2014-06-01T10:19:39Z</time>
      </trkpt>
      <trkpt lat="48.66523" lon="6.82794">
        <ele>245</ele>
        <time>2014-06-01T10:19:44Z</time>
      </trkpt>
      <trkpt lat="48.66522" lon="6.82832">
        <ele>245</ele>
        <time>2014-06-01T10:19:49Z</time>
      </trkpt>
      <trkpt lat="48.66523" lon="6.82871">
        <ele>245</ele>
        <time>2014-06-01T10:19:54Z</time>
      </trkpt>
      <trkpt lat="48.66522" lon="6.82919">
        <ele>245</ele>
        <time>2014-06-01T10:20:00Z</time>
      </trkpt>
      <trkpt lat="48.66519" lon="6.82954">
        <ele>245</ele>
        <time>2014-06-01T10:20:05Z</time>
      </trkpt>
      <trkpt lat="48.66514" lon="6.82988">
        <ele>245</ele>
        <time>2014-06-01T10:20:11Z</time>
      </trkpt>
      <trkpt lat="48.66508" lon="6.83014">
        <ele>245</ele>
        <time>2014-06-01T10:20:16Z</time>
      </trkpt>
      <trkpt lat="48.66503" lon="6.8304">
        <ele>245</ele>
        <time>2014-06-01T10:20:21Z</time>
      </trkpt>
      <trkpt lat="48.66497" lon="6.8307">
        <ele>245</ele>
        <time>2014-06-01T10:20:27Z</time>
      </trkpt>
      <trkpt lat="48.66493" lon="6.83095">
        <ele>246</ele>
        <time>2014-06-01T10:20:32Z</time>
      </trkpt>
      <trkpt lat="48.66488" lon="6.83118">
        <ele>247</ele>
        <time>2014-06-01T10:20:37Z</time>
      </trkpt>
      <trkpt lat="48.66483" lon="6.83147">
        <ele>248</ele>
        <time>2014-06-01T10:20:43Z</time>
      </trkpt>
      <trkpt lat="48.66478" lon="6.83171">
        <ele>248</ele>
        <time>2014-06-01T10:20:48Z</time>
      </trkpt>
      <trkpt lat="48.66474" lon="6.83194">
        <ele>251</ele>
        <time>2014-06-01T10:20:53Z</time>
      </trkpt>
      <trkpt lat="48.66468" lon="6.83218">
        <ele>253</ele>
        <time>2014-06-01T10:20:58Z</time>
      </trkpt>
      <trkpt lat="48.66464" lon="6.83243">
        <ele>255</ele>
        <time>2014-06-01T10:21:03Z</time>
      </trkpt>
      <trkpt lat="48.66459" lon="6.83272">
        <ele>255</ele>
        <time>2014-06-01T10:21:08Z</time>
      </trkpt>
      <trkpt lat="48.66453" lon="6.83301">
        <ele>257</ele>
        <time>2014-06-01T10:21:13Z</time>
      </trkpt>
      <trkpt lat="48.66447" lon="6.83329">
        <ele>258</ele>
        <time>2014-06-01T10:21:18Z</time>
      </trkpt>
      <trkpt lat="48.66442" lon="6.83358">
        <ele>258</ele>
        <time>2014-06-01T10:21:23Z</time>
      </trkpt>
      <trkpt lat="48.66438" lon="6.8339">
        <ele>259</ele>
        <time>2014-06-01T10:21:28Z</time>
      </trkpt>
      <trkpt lat="48.66433" lon="6.83421">
        <ele>259</ele>
        <time>2014-06-01T10:21:33Z</time>
      </trkpt>
      <trkpt lat="48.66427" lon="6.83454">
        <ele>259</ele>
        <time>2014-06-01T10:21:38Z</time>
      </trkpt>
      <trkpt lat="48.66421" lon="6.83485">
        <ele>259</ele>
        <time>2014-06-01T10:21:43Z</time>
      </trkpt>
      <trkpt lat="48.66417" lon="6.83517">
        <ele>259</ele>
        <time>2014-06-01T10:21:48Z</time>
      </trkpt>
      <trkpt lat="48.66429" lon="6.83545">
        <ele>259</ele>
        <time>2014-06-01T10:21:53Z</time>
      </trkpt>
      <trkpt lat="48.66455" lon="6.8358">
        <ele>259</ele>
        <time>2014-06-01T10:21:59Z</time>
      </trkpt>
      <trkpt lat="48.66474" lon="6.8362">
        <ele>259</ele>
        <time>2014-06-01T10:22:04Z</time>
      </trkpt>
      <trkpt lat="48.6649" lon="6.83666">
        <ele>259</ele>
        <time>2014-06-01T10:22:09Z</time>
      </trkpt>
      <trkpt lat="48.66505" lon="6.83712">
        <ele>259</ele>
        <time>2014-06-01T10:22:14Z</time>
      </trkpt>
      <trkpt lat="48.66508" lon="6.83758">
        <ele>259</ele>
        <time>2014-06-01T10:22:19Z</time>
      </trkpt>
      <trkpt lat="48.66504" lon="6.83795">
        <ele>259</ele>
        <time>2014-06-01T10:22:24Z</time>
      </trkpt>
      <trkpt lat="48.66497" lon="6.83827">
        <ele>259</ele>
        <time>2014-06-01T10:22:29Z</time>
      </trkpt>
      <trkpt lat="48.66499" lon="6.83859">
        <ele>259</ele>
        <time>2014-06-01T10:22:34Z</time>
      </trkpt>
      <trkpt lat="48.66506" lon="6.8389">
        <ele>262</ele>
        <time>2014-06-01T10:22:39Z</time>
      </trkpt>
      <trkpt lat="48.66509" lon="6.83922">
        <ele>264</ele>
        <time>2014-06-01T10:22:44Z</time>
      </trkpt>
      <trkpt lat="48.6651" lon="6.83957">
        <ele>264</ele>
        <time>2014-06-01T10:22:49Z</time>
      </trkpt>
      <trkpt lat="48.66512" lon="6.83993">
        <ele>265</ele>
        <time>2014-06-01T10:22:54Z</time>
      </trkpt>
      <trkpt lat="48.66517" lon="6.84024">
        <ele>265</ele>
        <time>2014-06-01T10:22:59Z</time>
      </trkpt>
      <trkpt lat="48.66517" lon="6.84061">
        <ele>268</ele>
        <time>2014-06-01T10:23:04Z</time>
      </trkpt>
      <trkpt lat="48.6652" lon="6.84093">
        <ele>273</ele>
        <time>2014-06-01T10:23:09Z</time>
      </trkpt>
      <trkpt lat="48.66521" lon="6.8412">
        <ele>276</ele>
        <time>2014-06-01T10:23:14Z</time>
      </trkpt>
      <trkpt lat="48.66528" lon="6.84147">
        <ele>276</ele>
        <time>2014-06-01T10:23:19Z</time>
      </trkpt>
      <trkpt lat="48.66532" lon="6.8418">
        <ele>276</ele>
        <time>2014-06-01T10:23:24Z</time>
      </trkpt>
      <trkpt lat="48.66535" lon="6.84209">
        <ele>273</ele>
        <time>2014-06-01T10:23:29Z</time>
      </trkpt>
      <trkpt lat="48.6654" lon="6.84235">
        <ele>271</ele>
        <time>2014-06-01T10:23:34Z</time>
      </trkpt>
      <trkpt lat="48.66547" lon="6.8426">
        <ele>269</ele>
        <time>2014-06-01T10:23:39Z</time>
      </trkpt>
      <trkpt lat="48.66555" lon="6.84278">
        <ele>269</ele>
        <time>2014-06-01T10:23:44Z</time>
      </trkpt>
      <trkpt lat="48.66561" lon="6.843">
        <ele>268</ele>
        <time>2014-06-01T10:23:49Z</time>
      </trkpt>
      <trkpt lat="48.6657" lon="6.84325">
        <ele>264</ele>
        <time>2014-06-01T10:23:54Z</time>
      </trkpt>
      <trkpt lat="48.66579" lon="6.84343">
        <ele>264</ele>
        <time>2014-06-01T10:23:59Z</time>
      </trkpt>
      <trkpt lat="48.66589" lon="6.84363">
        <ele>264</ele>
        <time>2014-06-01T10:24:04Z</time>
      </trkpt>
      <trkpt lat="48.66603" lon="6.84385">
        <ele>263</ele>
        <time>2014-06-01T10:24:09Z</time>
      </trkpt>
      <trkpt lat="48.66612" lon="6.84401">
        <ele>263</ele>
        <time>2014-06-01T10:24:14Z</time>
      </trkpt>
      <trkpt lat="48.66621" lon="6.84419">
        <ele>263</ele>
        <time>2014-06-01T10:24:19Z</time>
      </trkpt>
      <trkpt lat="48.66631" lon="6.84439">
        <ele>262</ele>
        <time>2014-06-01T10:24:24Z</time>
      </trkpt>
      <trkpt lat="48.6664" lon="6.84457">
        <ele>260</ele>
        <time>2014-06-01T10:24:29Z</time>
      </trkpt>
      <trkpt lat="48.66651" lon="6.84478">
        <ele>260</ele>
        <time>2014-06-01T10:24:34Z</time>
      </trkpt>
      <trkpt lat="48.66664" lon="6.84502">
        <ele>260</ele>
        <time>2014-06-01T10:24:39Z</time>
      </trkpt>
      <trkpt lat="48.66676" lon="6.84523">
        <ele>260</ele>
        <time>2014-06-01T10:24:44Z</time>
      </trkpt>
      <trkpt lat="48.66689" lon="6.84549">
        <ele>260</ele>
        <time>2014-06-01T10:24:49Z</time>
      </trkpt>
      <trkpt lat="48.66703" lon="6.84577">
        <ele>260</ele>
        <time>2014-06-01T10:24:54Z</time>
      </trkpt>
      <trkpt lat="48.66716" lon="6.84603">
        <ele>260</ele>
        <time>2014-06-01T10:24:59Z</time>
      </trkpt>
      <trkpt lat="48.66722" lon="6.84627">
        <ele>260</ele>
        <time>2014-06-01T10:25:04Z</time>
      </trkpt>
      <trkpt lat="48.66722" lon="6.84651">
        <ele>264</ele>
        <time>2014-06-01T10:25:09Z</time>
      </trkpt>
      <trkpt lat="48.66719" lon="6.84675">
        <ele>266</ele>
        <time>2014-06-01T10:25:14Z</time>
      </trkpt>
      <trkpt lat="48.66712" lon="6.84695">
        <ele>267</ele>
        <time>2014-06-01T10:25:19Z</time>
      </trkpt>
      <trkpt lat="48.66705" lon="6.84712">
        <ele>269</ele>
        <time>2014-06-01T10:25:24Z</time>
      </trkpt>
      <trkpt lat="48.66696" lon="6.8473">
        <ele>270</ele>
        <time>2014-06-01T10:25:29Z</time>
      </trkpt>
      <trkpt lat="48.66688" lon="6.84748">
        <ele>271</ele>
        <time>2014-06-01T10:25:34Z</time>
      </trkpt>
      <trkpt lat="48.66679" lon="6.84765">
        <ele>272</ele>
        <time>2014-06-01T10:25:39Z</time>
      </trkpt>
      <trkpt lat="48.66671" lon="6.84784">
        <ele>273</ele>
        <time>2014-06-01T10:25:44Z</time>
      </trkpt>
      <trkpt lat="48.66664" lon="6.848">
        <ele>274</ele>
        <time>2014-06-01T10:25:49Z</time>
      </trkpt>
      <trkpt lat="48.66655" lon="6.84818">
        <ele>274</ele>
        <time>2014-06-01T10:25:54Z</time>
      </trkpt>
      <trkpt lat="48.66647" lon="6.84836">
        <ele>276</ele>
        <time>2014-06-01T10:25:59Z</time>
      </trkpt>
      <trkpt lat="48.66638" lon="6.84854">
        <ele>277</ele>
        <time>2014-06-01T10:26:04Z</time>
      </trkpt>
      <trkpt lat="48.66629" lon="6.84873">
        <ele>277</ele>
        <time>2014-06-01T10:26:09Z</time>
      </trkpt>
      <trkpt lat="48.6662" lon="6.84892">
        <ele>278</ele>
        <time>2014-06-01T10:26:14Z</time>
      </trkpt>
      <trkpt lat="48.66611" lon="6.84911">
        <ele>279</ele>
        <time>2014-06-01T10:26:19Z</time>
      </trkpt>
      <trkpt lat="48.66602" lon="6.8493">
        <ele>279</ele>
        <time>2014-06-01T10:26:24Z</time>
      </trkpt>
      <trkpt lat="48.66594" lon="6.84948">
        <ele>280</ele>
        <time>2014-06-01T10:26:29Z</time>
      </trkpt>
      <trkpt lat="48.66586" lon="6.84966">
        <ele>280</ele>
        <time>2014-06-01T10:26:34Z</time>
      </trkpt>
      <trkpt lat="48.66574" lon="6.8499">
        <ele>281</ele>
        <time>2014-06-01T10:26:39Z</time>
      </trkpt>
      <trkpt lat="48.6656" lon="6.85016">
        <ele>281</ele>
        <time>2014-06-01T10:26:44Z</time>
      </trkpt>
      <trkpt lat="48.66547" lon="6.85041">
        <ele>281</ele>
        <time>2014-06-01T10:26:49Z</time>
      </trkpt>
      <trkpt lat="48.66533" lon="6.85065">
        <ele>281</ele>
        <time>2014-06-01T10:26:54Z</time>
      </trkpt>
      <trkpt lat="48.6652" lon="6.85089">
        <ele>281</ele>
        <time>2014-06-01T10:26:59Z</time>
      </trkpt>
      <trkpt lat="48.66506" lon="6.85113">
        <ele>282</ele>
        <time>2014-06-01T10:27:04Z</time>
      </trkpt>
      <trkpt lat="48.66493" lon="6.85136">
        <ele>282</ele>
        <time>2014-06-01T10:27:09Z</time>
      </trkpt>
      <trkpt lat="48.66481" lon="6.85158">
        <ele>283</ele>
        <time>2014-06-01T10:27:14Z</time>
      </trkpt>
      <trkpt lat="48.66469" lon="6.85179">
        <ele>284</ele>
        <time>2014-06-01T10:27:19Z</time>
      </trkpt>
      <trkpt lat="48.66458" lon="6.85199">
        <ele>285</ele>
        <time>2014-06-01T10:27:24Z</time>
      </trkpt>
      <trkpt lat="48.66447" lon="6.85218">
        <ele>286</ele>
        <time>2014-06-01T10:27:29Z</time>
      </trkpt>
      <trkpt lat="48.66436" lon="6.85237">
        <ele>287</ele>
        <time>2014-06-01T10:27:34Z</time>
      </trkpt>
      <trkpt lat="48.66425" lon="6.85256">
        <ele>288</ele>
        <time>2014-06-01T10:27:39Z</time>
      </trkpt>
      <trkpt lat="48.66415" lon="6.85275">
        <ele>289</ele>
        <time>2014-06-01T10:27:44Z</time>
      </trkpt>
      <trkpt lat="48.66403" lon="6.8529">
        <ele>290</ele>
        <time>2014-06-01T10:27:49Z</time>
      </trkpt>
      <trkpt lat="48.66391" lon="6.85308">
        <ele>290</ele>
        <time>2014-06-01T10:27:54Z</time>
      </trkpt>
      <trkpt lat="48.66382" lon="6.85324">
        <ele>290</ele>
        <time>2014-06-01T10:27:59Z</time>
      </trkpt>
      <trkpt lat="48.66373" lon="6.85338">
        <ele>290</ele>
        <time>2014-06-01T10:28:04Z</time>
      </trkpt>
      <trkpt lat="48.66367" lon="6.85352">
        <ele>290</ele>
        <time>2014-06-01T10:28:09Z</time>
      </trkpt>
      <trkpt lat="48.66365" lon="6.85359">
        <ele>290</ele>
        <time>2014-06-01T10:28:16Z</time>
      </trkpt>
      <trkpt lat="48.6636" lon="6.85366">
        <ele>299</ele>
        <time>2014-06-01T10:28:40Z</time>
      </trkpt>
      <trkpt lat="48.66363" lon="6.85365">
        <ele>300</ele>
        <time>2014-06-01T10:28:47Z</time>
      </trkpt>
      <trkpt lat="48.66361" lon="6.85383">
        <ele>300</ele>
        <time>2014-06-01T10:29:00Z</time>
      </trkpt>
      <trkpt lat="48.66361" lon="6.85395">
        <ele>300</ele>
        <time>2014-06-01T10:29:06Z</time>
      </trkpt>
      <trkpt lat="48.66363" lon="6.85406">
        <ele>300</ele>
        <time>2014-06-01T10:29:11Z</time>
      </trkpt>
      <trkpt lat="48.66365" lon="6.8542">
        <ele>300</ele>
        <time>2014-06-01T10:29:16Z</time>
      </trkpt>
      <trkpt lat="48.66366" lon="6.85436">
        <ele>300</ele>
        <time>2014-06-01T10:29:21Z</time>
      </trkpt>
      <trkpt lat="48.66368" lon="6.85454">
        <ele>300</ele>
        <time>2014-06-01T10:29:26Z</time>
      </trkpt>
      <trkpt lat="48.66368" lon="6.85472">
        <ele>300</ele>
        <time>2014-06-01T10:29:31Z</time>
      </trkpt>
      <trkpt lat="48.66369" lon="6.8549">
        <ele>300</ele>
        <time>2014-06-01T10:29:36Z</time>
      </trkpt>
      <trkpt lat="48.66369" lon="6.85507">
        <ele>300</ele>
        <time>2014-06-01T10:29:41Z</time>
      </trkpt>
      <trkpt lat="48.6637" lon="6.85526">
        <ele>300</ele>
        <time>2014-06-01T10:29:46Z</time>
      </trkpt>
      <trkpt lat="48.66372" lon="6.85544">
        <ele>300</ele>
        <time>2014-06-01T10:29:51Z</time>
      </trkpt>
      <trkpt lat="48.66373" lon="6.85564">
        <ele>300</ele>
        <time>2014-06-01T10:29:56Z</time>
      </trkpt>
      <trkpt lat="48.66375" lon="6.85585">
        <ele>300</ele>
        <time>2014-06-01T10:30:01Z</time>
      </trkpt>
      <trkpt lat="48.6638" lon="6.85613">
        <ele>300</ele>
        <time>2014-06-01T10:30:06Z</time>
      </trkpt>
      <trkpt lat="48.66381" lon="6.85641">
        <ele>300</ele>
        <time>2014-06-01T10:30:11Z</time>
      </trkpt>
      <trkpt lat="48.66382" lon="6.85669">
        <ele>300</ele>
        <time>2014-06-01T10:30:16Z</time>
      </trkpt>
      <trkpt lat="48.66382" lon="6.85694">
        <ele>300</ele>
        <time>2014-06-01T10:30:21Z</time>
      </trkpt>
      <trkpt lat="48.66384" lon="6.85718">
        <ele>300</ele>
        <time>2014-06-01T10:30:26Z</time>
      </trkpt>
      <trkpt lat="48.66384" lon="6.8574">
        <ele>300</ele>
        <time>2014-06-01T10:30:31Z</time>
      </trkpt>
      <trkpt lat="48.66388" lon="6.85762">
        <ele>300</ele>
        <time>2014-06-01T10:30:36Z</time>
      </trkpt>
      <trkpt lat="48.66391" lon="6.85787">
        <ele>301</ele>
        <time>2014-06-01T10:30:41Z</time>
      </trkpt>
      <trkpt lat="48.66393" lon="6.85814">
        <ele>303</ele>
        <time>2014-06-01T10:30:46Z</time>
      </trkpt>
      <trkpt lat="48.66395" lon="6.8584">
        <ele>303</ele>
        <time>2014-06-01T10:30:51Z</time>
      </trkpt>
      <trkpt lat="48.66396" lon="6.85869">
        <ele>303</ele>
        <time>2014-06-01T10:30:56Z</time>
      </trkpt>
      <trkpt lat="48.66396" lon="6.85904">
        <ele>303</ele>
        <time>2014-06-01T10:31:01Z</time>
      </trkpt>
      <trkpt lat="48.66394" lon="6.85942">
        <ele>303</ele>
        <time>2014-06-01T10:31:06Z</time>
      </trkpt>
      <trkpt lat="48.66392" lon="6.8598">
        <ele>303</ele>
        <time>2014-06-01T10:31:11Z</time>
      </trkpt>
      <trkpt lat="48.66387" lon="6.86025">
        <ele>303</ele>
        <time>2014-06-01T10:31:16Z</time>
      </trkpt>
      <trkpt lat="48.66382" lon="6.86077">
        <ele>303</ele>
        <time>2014-06-01T10:31:21Z</time>
      </trkpt>
      <trkpt lat="48.66378" lon="6.86134">
        <ele>301</ele>
        <time>2014-06-01T10:31:26Z</time>
      </trkpt>
      <trkpt lat="48.66373" lon="6.86187">
        <ele>299</ele>
        <time>2014-06-01T10:31:31Z</time>
      </trkpt>
      <trkpt lat="48.66369" lon="6.86231">
        <ele>298</ele>
        <time>2014-06-01T10:31:36Z</time>
      </trkpt>
      <trkpt lat="48.66365" lon="6.86269">
        <ele>298</ele>
        <time>2014-06-01T10:31:41Z</time>
      </trkpt>
      <trkpt lat="48.66362" lon="6.863">
        <ele>298</ele>
        <time>2014-06-01T10:31:46Z</time>
      </trkpt>
      <trkpt lat="48.66359" lon="6.86323">
        <ele>298</ele>
        <time>2014-06-01T10:31:51Z</time>
      </trkpt>
      <trkpt lat="48.66358" lon="6.86342">
        <ele>300</ele>
        <time>2014-06-01T10:31:56Z</time>
      </trkpt>
      <trkpt lat="48.6636" lon="6.86362">
        <ele>302</ele>
        <time>2014-06-01T10:32:01Z</time>
      </trkpt>
      <trkpt lat="48.66368" lon="6.86383">
        <ele>304</ele>
        <time>2014-06-01T10:32:06Z</time>
      </trkpt>
      <trkpt lat="48.66381" lon="6.86406">
        <ele>304</ele>
        <time>2014-06-01T10:32:11Z</time>
      </trkpt>
      <trkpt lat="48.66395" lon="6.86432">
        <ele>304</ele>
        <time>2014-06-01T10:32:16Z</time>
      </trkpt>
      <trkpt lat="48.6641" lon="6.86458">
        <ele>304</ele>
        <time>2014-06-01T10:32:21Z</time>
      </trkpt>
      <trkpt lat="48.66425" lon="6.86484">
        <ele>304</ele>
        <time>2014-06-01T10:32:26Z</time>
      </trkpt>
      <trkpt lat="48.66439" lon="6.86513">
        <ele>304</ele>
        <time>2014-06-01T10:32:31Z</time>
      </trkpt>
      <trkpt lat="48.66454" lon="6.86539">
        <ele>304</ele>
        <time>2014-06-01T10:32:36Z</time>
      </trkpt>
      <trkpt lat="48.66468" lon="6.86564">
        <ele>304</ele>
        <time>2014-06-01T10:32:41Z</time>
      </trkpt>
      <trkpt lat="48.66482" lon="6.86588">
        <ele>304</ele>
        <time>2014-06-01T10:32:46Z</time>
      </trkpt>
      <trkpt lat="48.66497" lon="6.86613">
        <ele>304</ele>
        <time>2014-06-01T10:32:51Z</time>
      </trkpt>
      <trkpt lat="48.66512" lon="6.86637">
        <ele>305</ele>
        <time>2014-06-01T10:32:56Z</time>
      </trkpt>
      <trkpt lat="48.66529" lon="6.86662">
        <ele>307</ele>
        <time>2014-06-01T10:33:01Z</time>
      </trkpt>
      <trkpt lat="48.66546" lon="6.86688">
        <ele>308</ele>
        <time>2014-06-01T10:33:06Z</time>
      </trkpt>
      <trkpt lat="48.66562" lon="6.86714">
        <ele>308</ele>
        <time>2014-06-01T10:33:11Z</time>
      </trkpt>
      <trkpt lat="48.66575" lon="6.8674">
        <ele>308</ele>
        <time>2014-06-01T10:33:16Z</time>
      </trkpt>
      <trkpt lat="48.6659" lon="6.86767">
        <ele>308</ele>
        <time>2014-06-01T10:33:21Z</time>
      </trkpt>
      <trkpt lat="48.66605" lon="6.86795">
        <ele>308</ele>
        <time>2014-06-01T10:33:26Z</time>
      </trkpt>
      <trkpt lat="48.66622" lon="6.86824">
        <ele>308</ele>
        <time>2014-06-01T10:33:31Z</time>
      </trkpt>
      <trkpt lat="48.6664" lon="6.86856">
        <ele>308</ele>
        <time>2014-06-01T10:33:36Z</time>
      </trkpt>
      <trkpt lat="48.66658" lon="6.86887">
        <ele>308</ele>
        <time>2014-06-01T10:33:41Z</time>
      </trkpt>
      <trkpt lat="48.66676" lon="6.86918">
        <ele>308</ele>
        <time>2014-06-01T10:33:46Z</time>
      </trkpt>
      <trkpt lat="48.66695" lon="6.86949">
        <ele>308</ele>
        <time>2014-06-01T10:33:51Z</time>
      </trkpt>
      <trkpt lat="48.66712" lon="6.86978">
        <ele>308</ele>
        <time>2014-06-01T10:33:56Z</time>
      </trkpt>
      <trkpt lat="48.66729" lon="6.87009">
        <ele>308</ele>
        <time>2014-06-01T10:34:01Z</time>
      </trkpt>
      <trkpt lat="48.66747" lon="6.87038">
        <ele>308</ele>
        <time>2014-06-01T10:34:06Z</time>
      </trkpt>
      <trkpt lat="48.66764" lon="6.87067">
        <ele>308</ele>
        <time>2014-06-01T10:34:11Z</time>
      </trkpt>
      <trkpt lat="48.66782" lon="6.87098">
        <ele>308</ele>
        <time>2014-06-01T10:34:16Z</time>
      </trkpt>
      <trkpt lat="48.66802" lon="6.87128">
        <ele>310</ele>
        <time>2014-06-01T10:34:21Z</time>
      </trkpt>
      <trkpt lat="48.66821" lon="6.87158">
        <ele>311</ele>
        <time>2014-06-01T10:34:26Z</time>
      </trkpt>
      <trkpt lat="48.66839" lon="6.87187">
        <ele>312</ele>
        <time>2014-06-01T10:34:31Z</time>
      </trkpt>
      <trkpt lat="48.66856" lon="6.87215">
        <ele>315</ele>
        <time>2014-06-01T10:34:36Z</time>
      </trkpt>
      <trkpt lat="48.66871" lon="6.87241">
        <ele>316</ele>
        <time>2014-06-01T10:34:41Z</time>
      </trkpt>
      <trkpt lat="48.66885" lon="6.87266">
        <ele>317</ele>
        <time>2014-06-01T10:34:46Z</time>
      </trkpt>
      <trkpt lat="48.66901" lon="6.8729">
        <ele>317</ele>
        <time>2014-06-01T10:34:51Z</time>
      </trkpt>
      <trkpt lat="48.66916" lon="6.87317">
        <ele>318</ele>
        <time>2014-06-01T10:34:56Z</time>
      </trkpt>
      <trkpt lat="48.66933" lon="6.87343">
        <ele>318</ele>
        <time>2014-06-01T10:35:01Z</time>
      </trkpt>
      <trkpt lat="48.66949" lon="6.87372">
        <ele>318</ele>
        <time>2014-06-01T10:35:06Z</time>
      </trkpt>
      <trkpt lat="48.66966" lon="6.87401">
        <ele>318</ele>
        <time>2014-06-01T10:35:11Z</time>
      </trkpt>
      <trkpt lat="48.66985" lon="6.87431">
        <ele>318</ele>
        <time>2014-06-01T10:35:16Z</time>
      </trkpt>
      <trkpt lat="48.67003" lon="6.87463">
        <ele>318</ele>
        <time>2014-06-01T10:35:21Z</time>
      </trkpt>
      <trkpt lat="48.67022" lon="6.87496">
        <ele>318</ele>
        <time>2014-06-01T10:35:26Z</time>
      </trkpt>
      <trkpt lat="48.67041" lon="6.8753">
        <ele>318</ele>
        <time>2014-06-01T10:35:31Z</time>
      </trkpt>
      <trkpt lat="48.67061" lon="6.87563">
        <ele>318</ele>
        <time>2014-06-01T10:35:36Z</time>
      </trkpt>
      <trkpt lat="48.67083" lon="6.87596">
        <ele>318</ele>
        <time>2014-06-01T10:35:41Z</time>
      </trkpt>
      <trkpt lat="48.67105" lon="6.8764">
        <ele>318</ele>
        <time>2014-06-01T10:35:47Z</time>
      </trkpt>
      <trkpt lat="48.67126" lon="6.87681">
        <ele>318</ele>
        <time>2014-06-01T10:35:52Z</time>
      </trkpt>
      <trkpt lat="48.67149" lon="6.87726">
        <ele>318</ele>
        <time>2014-06-01T10:35:57Z</time>
      </trkpt>
      <trkpt lat="48.67176" lon="6.87777">
        <ele>318</ele>
        <time>2014-06-01T10:36:02Z</time>
      </trkpt>
      <trkpt lat="48.67203" lon="6.87824">
        <ele>318</ele>
        <time>2014-06-01T10:36:07Z</time>
      </trkpt>
      <trkpt lat="48.6723" lon="6.87866">
        <ele>316</ele>
        <time>2014-06-01T10:36:12Z</time>
      </trkpt>
      <trkpt lat="48.67262" lon="6.8791">
        <ele>313</ele>
        <time>2014-06-01T10:36:17Z</time>
      </trkpt>
      <trkpt lat="48.67303" lon="6.87968">
        <ele>308</ele>
        <time>2014-06-01T10:36:23Z</time>
      </trkpt>
      <trkpt lat="48.67346" lon="6.88027">
        <ele>302</ele>
        <time>2014-06-01T10:36:28Z</time>
      </trkpt>
      <trkpt lat="48.67386" lon="6.88091">
        <ele>293</ele>
        <time>2014-06-01T10:36:33Z</time>
      </trkpt>
      <trkpt lat="48.67419" lon="6.88166">
        <ele>288</ele>
        <time>2014-06-01T10:36:38Z</time>
      </trkpt>
      <trkpt lat="48.67446" lon="6.88243">
        <ele>286</ele>
        <time>2014-06-01T10:36:43Z</time>
      </trkpt>
      <trkpt lat="48.6747" lon="6.88311">
        <ele>286</ele>
        <time>2014-06-01T10:36:48Z</time>
      </trkpt>
      <trkpt lat="48.67492" lon="6.88377">
        <ele>286</ele>
        <time>2014-06-01T10:36:53Z</time>
      </trkpt>
      <trkpt lat="48.67519" lon="6.88456">
        <ele>286</ele>
        <time>2014-06-01T10:36:59Z</time>
      </trkpt>
      <trkpt lat="48.67542" lon="6.88519">
        <ele>286</ele>
        <time>2014-06-01T10:37:04Z</time>
      </trkpt>
      <trkpt lat="48.67562" lon="6.88577">
        <ele>286</ele>
        <time>2014-06-01T10:37:09Z</time>
      </trkpt>
      <trkpt lat="48.67584" lon="6.88628">
        <ele>286</ele>
        <time>2014-06-01T10:37:14Z</time>
      </trkpt>
      <trkpt lat="48.6761" lon="6.88673">
        <ele>287</ele>
        <time>2014-06-01T10:37:19Z</time>
      </trkpt>
      <trkpt lat="48.6763" lon="6.88706">
        <ele>288</ele>
        <time>2014-06-01T10:37:24Z</time>
      </trkpt>
      <trkpt lat="48.67654" lon="6.88733">
        <ele>289</ele>
        <time>2014-06-01T10:37:29Z</time>
      </trkpt>
      <trkpt lat="48.67678" lon="6.88757">
        <ele>289</ele>
        <time>2014-06-01T10:37:34Z</time>
      </trkpt>
      <trkpt lat="48.67704" lon="6.8878">
        <ele>289</ele>
        <time>2014-06-01T10:37:39Z</time>
      </trkpt>
      <trkpt lat="48.67731" lon="6.88806">
        <ele>289</ele>
        <time>2014-06-01T10:37:44Z</time>
      </trkpt>
      <trkpt lat="48.67761" lon="6.88838">
        <ele>289</ele>
        <time>2014-06-01T10:37:49Z</time>
      </trkpt>
      <trkpt lat="48.67791" lon="6.88879">
        <ele>287</ele>
        <time>2014-06-01T10:37:54Z</time>
      </trkpt>
      <trkpt lat="48.67817" lon="6.8892">
        <ele>286</ele>
        <time>2014-06-01T10:37:59Z</time>
      </trkpt>
      <trkpt lat="48.67835" lon="6.88959">
        <ele>286</ele>
        <time>2014-06-01T10:38:04Z</time>
      </trkpt>
      <trkpt lat="48.67854" lon="6.88999">
        <ele>286</ele>
        <time>2014-06-01T10:38:09Z</time>
      </trkpt>
      <trkpt lat="48.67871" lon="6.89037">
        <ele>284</ele>
        <time>2014-06-01T10:38:14Z</time>
      </trkpt>
      <trkpt lat="48.67891" lon="6.89072">
        <ele>283</ele>
        <time>2014-06-01T10:38:19Z</time>
      </trkpt>
      <trkpt lat="48.67911" lon="6.89108">
        <ele>283</ele>
        <time>2014-06-01T10:38:24Z</time>
      </trkpt>
      <trkpt lat="48.67932" lon="6.89146">
        <ele>283</ele>
        <time>2014-06-01T10:38:29Z</time>
      </trkpt>
      <trkpt lat="48.67952" lon="6.89185">
        <ele>283</ele>
        <time>2014-06-01T10:38:34Z</time>
      </trkpt>
      <trkpt lat="48.67975" lon="6.89224">
        <ele>283</ele>
        <time>2014-06-01T10:38:39Z</time>
      </trkpt>
      <trkpt lat="48.67996" lon="6.89265">
        <ele>283</ele>
        <time>2014-06-01T10:38:44Z</time>
      </trkpt>
      <trkpt lat="48.68018" lon="6.89306">
        <ele>283</ele>
        <time>2014-06-01T10:38:49Z</time>
      </trkpt>
      <trkpt lat="48.6804" lon="6.89346">
        <ele>283</ele>
        <time>2014-06-01T10:38:54Z</time>
      </trkpt>
      <trkpt lat="48.68062" lon="6.89388">
        <ele>283</ele>
        <time>2014-06-01T10:38:59Z</time>
      </trkpt>
      <trkpt lat="48.68084" lon="6.89431">
        <ele>283</ele>
        <time>2014-06-01T10:39:04Z</time>
      </trkpt>
      <trkpt lat="48.68104" lon="6.89472">
        <ele>283</ele>
        <time>2014-06-01T10:39:09Z</time>
      </trkpt>
      <trkpt lat="48.68125" lon="6.89517">
        <ele>284</ele>
        <time>2014-06-01T10:39:14Z</time>
      </trkpt>
      <trkpt lat="48.68148" lon="6.89556">
        <ele>284</ele>
        <time>2014-06-01T10:39:19Z</time>
      </trkpt>
      <trkpt lat="48.68172" lon="6.89588">
        <ele>284</ele>
        <time>2014-06-01T10:39:24Z</time>
      </trkpt>
      <trkpt lat="48.68196" lon="6.89616">
        <ele>284</ele>
        <time>2014-06-01T10:39:29Z</time>
      </trkpt>
      <trkpt lat="48.6822" lon="6.89652">
        <ele>284</ele>
        <time>2014-06-01T10:39:34Z</time>
      </trkpt>
      <trkpt lat="48.68238" lon="6.89702">
        <ele>284</ele>
        <time>2014-06-01T10:39:39Z</time>
      </trkpt>
      <trkpt lat="48.68257" lon="6.89753">
        <ele>283</ele>
        <time>2014-06-01T10:39:44Z</time>
      </trkpt>
      <trkpt lat="48.68278" lon="6.89798">
        <ele>281</ele>
        <time>2014-06-01T10:39:49Z</time>
      </trkpt>
      <trkpt lat="48.68303" lon="6.89845">
        <ele>280</ele>
        <time>2014-06-01T10:39:55Z</time>
      </trkpt>
      <trkpt lat="48.68321" lon="6.89883">
        <ele>280</ele>
        <time>2014-06-01T10:40:00Z</time>
      </trkpt>
      <trkpt lat="48.68341" lon="6.89921">
        <ele>280</ele>
        <time>2014-06-01T10:40:05Z</time>
      </trkpt>
      <trkpt lat="48.68366" lon="6.89968">
        <ele>280</ele>
        <time>2014-06-01T10:40:11Z</time>
      </trkpt>
      <trkpt lat="48.68381" lon="6.90008">
        <ele>280</ele>
        <time>2014-06-01T10:40:16Z</time>
      </trkpt>
      <trkpt lat="48.68393" lon="6.90051">
        <ele>280</ele>
        <time>2014-06-01T10:40:21Z</time>
      </trkpt>
      <trkpt lat="48.68403" lon="6.90093">
        <ele>280</ele>
        <time>2014-06-01T10:40:26Z</time>
      </trkpt>
      <trkpt lat="48.68409" lon="6.90132">
        <ele>280</ele>
        <time>2014-06-01T10:40:31Z</time>
      </trkpt>
      <trkpt lat="48.68417" lon="6.90164">
        <ele>281</ele>
        <time>2014-06-01T10:40:36Z</time>
      </trkpt>
      <trkpt lat="48.68422" lon="6.90195">
        <ele>282</ele>
        <time>2014-06-01T10:40:41Z</time>
      </trkpt>
      <trkpt lat="48.68432" lon="6.90234">
        <ele>283</ele>
        <time>2014-06-01T10:40:46Z</time>
      </trkpt>
      <trkpt lat="48.68441" lon="6.90272">
        <ele>283</ele>
        <time>2014-06-01T10:40:51Z</time>
      </trkpt>
      <trkpt lat="48.68452" lon="6.9031">
        <ele>283</ele>
        <time>2014-06-01T10:40:56Z</time>
      </trkpt>
      <trkpt lat="48.68461" lon="6.90343">
        <ele>283</ele>
        <time>2014-06-01T10:41:01Z</time>
      </trkpt>
      <trkpt lat="48.68468" lon="6.90376">
        <ele>283</ele>
        <time>2014-06-01T10:41:06Z</time>
      </trkpt>
      <trkpt lat="48.68478" lon="6.90412">
        <ele>283</ele>
        <time>2014-06-01T10:41:11Z</time>
      </trkpt>
      <trkpt lat="48.68493" lon="6.90451">
        <ele>283</ele>
        <time>2014-06-01T10:41:16Z</time>
      </trkpt>
      <trkpt lat="48.68511" lon="6.90489">
        <ele>283</ele>
        <time>2014-06-01T10:41:21Z</time>
      </trkpt>
      <trkpt lat="48.6853" lon="6.90527">
        <ele>283</ele>
        <time>2014-06-01T10:41:26Z</time>
      </trkpt>
      <trkpt lat="48.68548" lon="6.90566">
        <ele>283</ele>
        <time>2014-06-01T10:41:31Z</time>
      </trkpt>
      <trkpt lat="48.68566" lon="6.90603">
        <ele>283</ele>
        <time>2014-06-01T10:41:36Z</time>
      </trkpt>
      <trkpt lat="48.68583" lon="6.9064">
        <ele>283</ele>
        <time>2014-06-01T10:41:41Z</time>
      </trkpt>
      <trkpt lat="48.68599" lon="6.90677">
        <ele>283</ele>
        <time>2014-06-01T10:41:46Z</time>
      </trkpt>
      <trkpt lat="48.68615" lon="6.90716">
        <ele>283</ele>
        <time>2014-06-01T10:41:51Z</time>
      </trkpt>
      <trkpt lat="48.68626" lon="6.90757">
        <ele>283</ele>
        <time>2014-06-01T10:41:56Z</time>
      </trkpt>
      <trkpt lat="48.68634" lon="6.90799">
        <ele>283</ele>
        <time>2014-06-01T10:42:01Z</time>
      </trkpt>
      <trkpt lat="48.68637" lon="6.90843">
        <ele>283</ele>
        <time>2014-06-01T10:42:06Z</time>
      </trkpt>
      <trkpt lat="48.68638" lon="6.90886">
        <ele>283</ele>
        <time>2014-06-01T10:42:11Z</time>
      </trkpt>
      <trkpt lat="48.68635" lon="6.90928">
        <ele>283</ele>
        <time>2014-06-01T10:42:16Z</time>
      </trkpt>
      <trkpt lat="48.68629" lon="6.90967">
        <ele>283</ele>
        <time>2014-06-01T10:42:21Z</time>
      </trkpt>
      <trkpt lat="48.68621" lon="6.91005">
        <ele>283</ele>
        <time>2014-06-01T10:42:26Z</time>
      </trkpt>
      <trkpt lat="48.6861" lon="6.9104">
        <ele>283</ele>
        <time>2014-06-01T10:42:31Z</time>
      </trkpt>
      <trkpt lat="48.68597" lon="6.91072">
        <ele>283</ele>
        <time>2014-06-01T10:42:36Z</time>
      </trkpt>
      <trkpt lat="48.68584" lon="6.91103">
        <ele>283</ele>
        <time>2014-06-01T10:42:41Z</time>
      </trkpt>
      <trkpt lat="48.6857" lon="6.91137">
        <ele>283</ele>
        <time>2014-06-01T10:42:46Z</time>
      </trkpt>
      <trkpt lat="48.68555" lon="6.91171">
        <ele>283</ele>
        <time>2014-06-01T10:42:51Z</time>
      </trkpt>
      <trkpt lat="48.68541" lon="6.91206">
        <ele>283</ele>
        <time>2014-06-01T10:42:56Z</time>
      </trkpt>
      <trkpt lat="48.6853" lon="6.91242">
        <ele>283</ele>
        <time>2014-06-01T10:43:01Z</time>
      </trkpt>
      <trkpt lat="48.68518" lon="6.91276">
        <ele>284</ele>
        <time>2014-06-01T10:43:06Z</time>
      </trkpt>
      <trkpt lat="48.68506" lon="6.91309">
        <ele>285</ele>
        <time>2014-06-01T10:43:11Z</time>
      </trkpt>
      <trkpt lat="48.68493" lon="6.9134">
        <ele>286</ele>
        <time>2014-06-01T10:43:16Z</time>
      </trkpt>
      <trkpt lat="48.68478" lon="6.91368">
        <ele>286</ele>
        <time>2014-06-01T10:43:21Z</time>
      </trkpt>
      <trkpt lat="48.68461" lon="6.91393">
        <ele>286</ele>
        <time>2014-06-01T10:43:26Z</time>
      </trkpt>
      <trkpt lat="48.68444" lon="6.91415">
        <ele>287</ele>
        <time>2014-06-01T10:43:31Z</time>
      </trkpt>
      <trkpt lat="48.68427" lon="6.9144">
        <ele>288</ele>
        <time>2014-06-01T10:43:36Z</time>
      </trkpt>
      <trkpt lat="48.68411" lon="6.91468">
        <ele>288</ele>
        <time>2014-06-01T10:43:41Z</time>
      </trkpt>
      <trkpt lat="48.68398" lon="6.91502">
        <ele>288</ele>
        <time>2014-06-01T10:43:46Z</time>
      </trkpt>
      <trkpt lat="48.68388" lon="6.91544">
        <ele>288</ele>
        <time>2014-06-01T10:43:51Z</time>
      </trkpt>
      <trkpt lat="48.6838" lon="6.9159">
        <ele>288</ele>
        <time>2014-06-01T10:43:56Z</time>
      </trkpt>
      <trkpt lat="48.6837" lon="6.91636">
        <ele>288</ele>
        <time>2014-06-01T10:44:01Z</time>
      </trkpt>
      <trkpt lat="48.68355" lon="6.91676">
        <ele>288</ele>
        <time>2014-06-01T10:44:06Z</time>
      </trkpt>
      <trkpt lat="48.68339" lon="6.91713">
        <ele>288</ele>
        <time>2014-06-01T10:44:11Z</time>
      </trkpt>
      <trkpt lat="48.68326" lon="6.91747">
        <ele>288</ele>
        <time>2014-06-01T10:44:16Z</time>
      </trkpt>
      <trkpt lat="48.68313" lon="6.91784">
        <ele>288</ele>
        <time>2014-06-01T10:44:21Z</time>
      </trkpt>
      <trkpt lat="48.68306" lon="6.9183">
        <ele>288</ele>
        <time>2014-06-01T10:44:26Z</time>
      </trkpt>
      <trkpt lat="48.68308" lon="6.91879">
        <ele>287</ele>
        <time>2014-06-01T10:44:31Z</time>
      </trkpt>
      <trkpt lat="48.68321" lon="6.91925">
        <ele>286</ele>
        <time>2014-06-01T10:44:36Z</time>
      </trkpt>
      <trkpt lat="48.68342" lon="6.91965">
        <ele>284</ele>
        <time>2014-06-01T10:44:41Z</time>
      </trkpt>
      <trkpt lat="48.68367" lon="6.92004">
        <ele>282</ele>
        <time>2014-06-01T10:44:46Z</time>
      </trkpt>
      <trkpt lat="48.684" lon="6.92055">
        <ele>280</ele>
        <time>2014-06-01T10:44:52Z</time>
      </trkpt>
      <trkpt lat="48.68428" lon="6.92118">
        <ele>278</ele>
        <time>2014-06-01T10:44:58Z</time>
      </trkpt>
      <trkpt lat="48.68427" lon="6.92188">
        <ele>276</ele>
        <time>2014-06-01T10:45:03Z</time>
      </trkpt>
      <trkpt lat="48.68401" lon="6.92275">
        <ele>272</ele>
        <time>2014-06-01T10:45:09Z</time>
      </trkpt>
      <trkpt lat="48.68382" lon="6.92352">
        <ele>269</ele>
        <time>2014-06-01T10:45:14Z</time>
      </trkpt>
      <trkpt lat="48.68385" lon="6.92426">
        <ele>269</ele>
        <time>2014-06-01T10:45:19Z</time>
      </trkpt>
      <trkpt lat="48.68403" lon="6.92477">
        <ele>267</ele>
        <time>2014-06-01T10:45:24Z</time>
      </trkpt>
      <trkpt lat="48.68428" lon="6.92512">
        <ele>265</ele>
        <time>2014-06-01T10:45:29Z</time>
      </trkpt>
      <trkpt lat="48.68453" lon="6.92542">
        <ele>264</ele>
        <time>2014-06-01T10:45:34Z</time>
      </trkpt>
      <trkpt lat="48.68478" lon="6.92572">
        <ele>264</ele>
        <time>2014-06-01T10:45:39Z</time>
      </trkpt>
      <trkpt lat="48.68501" lon="6.92597">
        <ele>264</ele>
        <time>2014-06-01T10:45:44Z</time>
      </trkpt>
      <trkpt lat="48.68524" lon="6.92626">
        <ele>264</ele>
        <time>2014-06-01T10:45:49Z</time>
      </trkpt>
      <trkpt lat="48.68545" lon="6.92652">
        <ele>264</ele>
        <time>2014-06-01T10:45:54Z</time>
      </trkpt>
      <trkpt lat="48.68565" lon="6.92676">
        <ele>264</ele>
        <time>2014-06-01T10:45:59Z</time>
      </trkpt>
      <trkpt lat="48.68587" lon="6.92698">
        <ele>267</ele>
        <time>2014-06-01T10:46:04Z</time>
      </trkpt>
      <trkpt lat="48.68609" lon="6.92714">
        <ele>267</ele>
        <time>2014-06-01T10:46:09Z</time>
      </trkpt>
      <trkpt lat="48.68635" lon="6.92727">
        <ele>268</ele>
        <time>2014-06-01T10:46:14Z</time>
      </trkpt>
      <trkpt lat="48.68671" lon="6.92742">
        <ele>270</ele>
        <time>2014-06-01T10:46:19Z</time>
      </trkpt>
      <trkpt lat="48.687" lon="6.92751">
        <ele>272</ele>
        <time>2014-06-01T10:46:24Z</time>
      </trkpt>
      <trkpt lat="48.68726" lon="6.9276">
        <ele>273</ele>
        <time>2014-06-01T10:46:29Z</time>
      </trkpt>
      <trkpt lat="48.68751" lon="6.9277">
        <ele>273</ele>
        <time>2014-06-01T10:46:34Z</time>
      </trkpt>
      <trkpt lat="48.68776" lon="6.92779">
        <ele>273</ele>
        <time>2014-06-01T10:46:39Z</time>
      </trkpt>
      <trkpt lat="48.68801" lon="6.92789">
        <ele>273</ele>
        <time>2014-06-01T10:46:44Z</time>
      </trkpt>
      <trkpt lat="48.6882" lon="6.92795">
        <ele>273</ele>
        <time>2014-06-01T10:46:49Z</time>
      </trkpt>
      <trkpt lat="48.68829" lon="6.92795">
        <ele>273</ele>
        <time>2014-06-01T10:46:54Z</time>
      </trkpt>
      <trkpt lat="48.68838" lon="6.92806">
        <ele>260</ele>
        <time>2014-06-01T10:47:01Z</time>
      </trkpt>
      <trkpt lat="48.68854" lon="6.92814">
        <ele>260</ele>
        <time>2014-06-01T10:47:07Z</time>
      </trkpt>
      <trkpt lat="48.68868" lon="6.92822">
        <ele>261</ele>
        <time>2014-06-01T10:47:13Z</time>
      </trkpt>
      <trkpt lat="48.68884" lon="6.92832">
        <ele>261</ele>
        <time>2014-06-01T10:47:18Z</time>
      </trkpt>
      <trkpt lat="48.68905" lon="6.92846">
        <ele>262</ele>
        <time>2014-06-01T10:47:23Z</time>
      </trkpt>
      <trkpt lat="48.68928" lon="6.92861">
        <ele>262</ele>
        <time>2014-06-01T10:47:28Z</time>
      </trkpt>
      <trkpt lat="48.68952" lon="6.92874">
        <ele>262</ele>
        <time>2014-06-01T10:47:33Z</time>
      </trkpt>
      <trkpt lat="48.68969" lon="6.92888">
        <ele>262</ele>
        <time>2014-06-01T10:47:38Z</time>
      </trkpt>
      <trkpt lat="48.68985" lon="6.92899">
        <ele>262</ele>
        <time>2014-06-01T10:47:44Z</time>
      </trkpt>
      <trkpt lat="48.68997" lon="6.9291">
        <ele>262</ele>
        <time>2014-06-01T10:47:49Z</time>
      </trkpt>
      <trkpt lat="48.69011" lon="6.92921">
        <ele>262</ele>
        <time>2014-06-01T10:47:54Z</time>
      </trkpt>
      <trkpt lat="48.69025" lon="6.92932">
        <ele>263</ele>
        <time>2014-06-01T10:47:59Z</time>
      </trkpt>
      <trkpt lat="48.6904" lon="6.92943">
        <ele>264</ele>
        <time>2014-06-01T10:48:04Z</time>
      </trkpt>
      <trkpt lat="48.69056" lon="6.92956">
        <ele>266</ele>
        <time>2014-06-01T10:48:09Z</time>
      </trkpt>
      <trkpt lat="48.69071" lon="6.92969">
        <ele>266</ele>
        <time>2014-06-01T10:48:14Z</time>
      </trkpt>
      <trkpt lat="48.69085" lon="6.92982">
        <ele>266</ele>
        <time>2014-06-01T10:48:19Z</time>
      </trkpt>
      <trkpt lat="48.691" lon="6.92993">
        <ele>266</ele>
        <time>2014-06-01T10:48:24Z</time>
      </trkpt>
      <trkpt lat="48.69115" lon="6.93003">
        <ele>266</ele>
        <time>2014-06-01T10:48:29Z</time>
      </trkpt>
      <trkpt lat="48.69133" lon="6.93003">
        <ele>266</ele>
        <time>2014-06-01T10:48:34Z</time>
      </trkpt>
      <trkpt lat="48.69156" lon="6.92993">
        <ele>266</ele>
        <time>2014-06-01T10:48:39Z</time>
      </trkpt>
      <trkpt lat="48.69181" lon="6.92976">
        <ele>266</ele>
        <time>2014-06-01T10:48:44Z</time>
      </trkpt>
      <trkpt lat="48.69206" lon="6.92952">
        <ele>266</ele>
        <time>2014-06-01T10:48:49Z</time>
      </trkpt>
      <trkpt lat="48.69232" lon="6.92927">
        <ele>266</ele>
        <time>2014-06-01T10:48:54Z</time>
      </trkpt>
      <trkpt lat="48.69257" lon="6.92907">
        <ele>266</ele>
        <time>2014-06-01T10:48:59Z</time>
      </trkpt>
      <trkpt lat="48.69279" lon="6.92894">
        <ele>266</ele>
        <time>2014-06-01T10:49:04Z</time>
      </trkpt>
      <trkpt lat="48.69304" lon="6.92891">
        <ele>266</ele>
        <time>2014-06-01T10:49:09Z</time>
      </trkpt>
      <trkpt lat="48.69325" lon="6.92891">
        <ele>266</ele>
        <time>2014-06-01T10:49:14Z</time>
      </trkpt>
      <trkpt lat="48.69345" lon="6.92892">
        <ele>266</ele>
        <time>2014-06-01T10:49:19Z</time>
      </trkpt>
      <trkpt lat="48.69363" lon="6.92893">
        <ele>266</ele>
        <time>2014-06-01T10:49:24Z</time>
      </trkpt>
      <trkpt lat="48.69381" lon="6.92894">
        <ele>267</ele>
        <time>2014-06-01T10:49:29Z</time>
      </trkpt>
      <trkpt lat="48.694" lon="6.92896">
        <ele>268</ele>
        <time>2014-06-01T10:49:34Z</time>
      </trkpt>
      <trkpt lat="48.69417" lon="6.92898">
        <ele>269</ele>
        <time>2014-06-01T10:49:39Z</time>
      </trkpt>
      <trkpt lat="48.69433" lon="6.92903">
        <ele>270</ele>
        <time>2014-06-01T10:49:44Z</time>
      </trkpt>
      <trkpt lat="48.69451" lon="6.92907">
        <ele>271</ele>
        <time>2014-06-01T10:49:49Z</time>
      </trkpt>
      <trkpt lat="48.69469" lon="6.92913">
        <ele>273</ele>
        <time>2014-06-01T10:49:54Z</time>
      </trkpt>
      <trkpt lat="48.69487" lon="6.92918">
        <ele>274</ele>
        <time>2014-06-01T10:49:59Z</time>
      </trkpt>
      <trkpt lat="48.69505" lon="6.92923">
        <ele>275</ele>
        <time>2014-06-01T10:50:04Z</time>
      </trkpt>
      <trkpt lat="48.69523" lon="6.9293">
        <ele>276</ele>
        <time>2014-06-01T10:50:09Z</time>
      </trkpt>
      <trkpt lat="48.6954" lon="6.92936">
        <ele>276</ele>
        <time>2014-06-01T10:50:14Z</time>
      </trkpt>
      <trkpt lat="48.69558" lon="6.92942">
        <ele>278</ele>
        <time>2014-06-01T10:50:19Z</time>
      </trkpt>
      <trkpt lat="48.69576" lon="6.92949">
        <ele>279</ele>
        <time>2014-06-01T10:50:24Z</time>
      </trkpt>
      <trkpt lat="48.69595" lon="6.92954">
        <ele>279</ele>
        <time>2014-06-01T10:50:29Z</time>
      </trkpt>
      <trkpt lat="48.69614" lon="6.92959">
        <ele>279</ele>
        <time>2014-06-01T10:50:34Z</time>
      </trkpt>
      <trkpt lat="48.69633" lon="6.92963">
        <ele>279</ele>
        <time>2014-06-01T10:50:39Z</time>
      </trkpt>
      <trkpt lat="48.69651" lon="6.92968">
        <ele>279</ele>
        <time>2014-06-01T10:50:44Z</time>
      </trkpt>
      <trkpt lat="48.6967" lon="6.92972">
        <ele>280</ele>
        <time>2014-06-01T10:50:49Z</time>
      </trkpt>
      <trkpt lat="48.6969" lon="6.92975">
        <ele>281</ele>
        <time>2014-06-01T10:50:54Z</time>
      </trkpt>
      <trkpt lat="48.69709" lon="6.92972">
        <ele>282</ele>
        <time>2014-06-01T10:50:59Z</time>
      </trkpt>
      <trkpt lat="48.69727" lon="6.92968">
        <ele>282</ele>
        <time>2014-06-01T10:51:04Z</time>
      </trkpt>
      <trkpt lat="48.69745" lon="6.92962">
        <ele>283</ele>
        <time>2014-06-01T10:51:09Z</time>
      </trkpt>
      <trkpt lat="48.69762" lon="6.92956">
        <ele>283</ele>
        <time>2014-06-01T10:51:14Z</time>
      </trkpt>
      <trkpt lat="48.69778" lon="6.92952">
        <ele>284</ele>
        <time>2014-06-01T10:51:19Z</time>
      </trkpt>
      <trkpt lat="48.69793" lon="6.92947">
        <ele>285</ele>
        <time>2014-06-01T10:51:24Z</time>
      </trkpt>
      <trkpt lat="48.69809" lon="6.92942">
        <ele>286</ele>
        <time>2014-06-01T10:51:29Z</time>
      </trkpt>
      <trkpt lat="48.69826" lon="6.92938">
        <ele>287</ele>
        <time>2014-06-01T10:51:34Z</time>
      </trkpt>
      <trkpt lat="48.69842" lon="6.92936">
        <ele>288</ele>
        <time>2014-06-01T10:51:39Z</time>
      </trkpt>
      <trkpt lat="48.6986" lon="6.92936">
        <ele>289</ele>
        <time>2014-06-01T10:51:44Z</time>
      </trkpt>
      <trkpt lat="48.69879" lon="6.92939">
        <ele>290</ele>
        <time>2014-06-01T10:51:49Z</time>
      </trkpt>
      <trkpt lat="48.69896" lon="6.92945">
        <ele>290</ele>
        <time>2014-06-01T10:51:54Z</time>
      </trkpt>
      <trkpt lat="48.69914" lon="6.92955">
        <ele>291</ele>
        <time>2014-06-01T10:51:59Z</time>
      </trkpt>
      <trkpt lat="48.69931" lon="6.92967">
        <ele>291</ele>
        <time>2014-06-01T10:52:04Z</time>
      </trkpt>
      <trkpt lat="48.6995" lon="6.92977">
        <ele>292</ele>
        <time>2014-06-01T10:52:09Z</time>
      </trkpt>
      <trkpt lat="48.69969" lon="6.92985">
        <ele>292</ele>
        <time>2014-06-01T10:52:14Z</time>
      </trkpt>
      <trkpt lat="48.69989" lon="6.92991">
        <ele>292</ele>
        <time>2014-06-01T10:52:19Z</time>
      </trkpt>
      <trkpt lat="48.7001" lon="6.92999">
        <ele>292</ele>
        <time>2014-06-01T10:52:24Z</time>
      </trkpt>
      <trkpt lat="48.70031" lon="6.93008">
        <ele>292</ele>
        <time>2014-06-01T10:52:29Z</time>
      </trkpt>
      <trkpt lat="48.70053" lon="6.93017">
        <ele>292</ele>
        <time>2014-06-01T10:52:34Z</time>
      </trkpt>
      <trkpt lat="48.70074" lon="6.93034">
        <ele>292</ele>
        <time>2014-06-01T10:52:39Z</time>
      </trkpt>
      <trkpt lat="48.70093" lon="6.93057">
        <ele>292</ele>
        <time>2014-06-01T10:52:44Z</time>
      </trkpt>
      <trkpt lat="48.7011" lon="6.93085">
        <ele>292</ele>
        <time>2014-06-01T10:52:49Z</time>
      </trkpt>
      <trkpt lat="48.70124" lon="6.93115">
        <ele>292</ele>
        <time>2014-06-01T10:52:54Z</time>
      </trkpt>
      <trkpt lat="48.70136" lon="6.93145">
        <ele>293</ele>
        <time>2014-06-01T10:52:59Z</time>
      </trkpt>
      <trkpt lat="48.70148" lon="6.93176">
        <ele>293</ele>
        <time>2014-06-01T10:53:04Z</time>
      </trkpt>
      <trkpt lat="48.70161" lon="6.93205">
        <ele>294</ele>
        <time>2014-06-01T10:53:09Z</time>
      </trkpt>
      <trkpt lat="48.70174" lon="6.93237">
        <ele>294</ele>
        <time>2014-06-01T10:53:14Z</time>
      </trkpt>
      <trkpt lat="48.70189" lon="6.93266">
        <ele>294</ele>
        <time>2014-06-01T10:53:19Z</time>
      </trkpt>
      <trkpt lat="48.70204" lon="6.93292">
        <ele>294</ele>
        <time>2014-06-01T10:53:24Z</time>
      </trkpt>
      <trkpt lat="48.70222" lon="6.93315">
        <ele>294</ele>
        <time>2014-06-01T10:53:29Z</time>
      </trkpt>
      <trkpt lat="48.70243" lon="6.93334">
        <ele>294</ele>
        <time>2014-06-01T10:53:34Z</time>
      </trkpt>
      <trkpt lat="48.70264" lon="6.93352">
        <ele>294</ele>
        <time>2014-06-01T10:53:39Z</time>
      </trkpt>
      <trkpt lat="48.70285" lon="6.93367">
        <ele>295</ele>
        <time>2014-06-01T10:53:44Z</time>
      </trkpt>
      <trkpt lat="48.70309" lon="6.93383">
        <ele>295</ele>
        <time>2014-06-01T10:53:49Z</time>
      </trkpt>
      <trkpt lat="48.70332" lon="6.93402">
        <ele>295</ele>
        <time>2014-06-01T10:53:54Z</time>
      </trkpt>
      <trkpt lat="48.70356" lon="6.93424">
        <ele>295</ele>
        <time>2014-06-01T10:53:59Z</time>
      </trkpt>
      <trkpt lat="48.70381" lon="6.93446">
        <ele>295</ele>
        <time>2014-06-01T10:54:04Z</time>
      </trkpt>
      <trkpt lat="48.70407" lon="6.93465">
        <ele>295</ele>
        <time>2014-06-01T10:54:09Z</time>
      </trkpt>
      <trkpt lat="48.70435" lon="6.93477">
        <ele>295</ele>
        <time>2014-06-01T10:54:14Z</time>
      </trkpt>
      <trkpt lat="48.70464" lon="6.93484">
        <ele>295</ele>
        <time>2014-06-01T10:54:19Z</time>
      </trkpt>
      <trkpt lat="48.70491" lon="6.93495">
        <ele>295</ele>
        <time>2014-06-01T10:54:24Z</time>
      </trkpt>
      <trkpt lat="48.70517" lon="6.93519">
        <ele>295</ele>
        <time>2014-06-01T10:54:29Z</time>
      </trkpt>
      <trkpt lat="48.70543" lon="6.93547">
        <ele>294</ele>
        <time>2014-06-01T10:54:34Z</time>
      </trkpt>
      <trkpt lat="48.70564" lon="6.93571">
        <ele>294</ele>
        <time>2014-06-01T10:54:39Z</time>
      </trkpt>
      <trkpt lat="48.70585" lon="6.936">
        <ele>292</ele>
        <time>2014-06-01T10:54:44Z</time>
      </trkpt>
      <trkpt lat="48.70605" lon="6.93628">
        <ele>289</ele>
        <time>2014-06-01T10:54:49Z</time>
      </trkpt>
      <trkpt lat="48.70625" lon="6.93657">
        <ele>286</ele>
        <time>2014-06-01T10:54:54Z</time>
      </trkpt>
      <trkpt lat="48.70644" lon="6.93692">
        <ele>285</ele>
        <time>2014-06-01T10:54:59Z</time>
      </trkpt>
      <trkpt lat="48.70665" lon="6.93732">
        <ele>285</ele>
        <time>2014-06-01T10:55:04Z</time>
      </trkpt>
      <trkpt lat="48.70678" lon="6.9377">
        <ele>287</ele>
        <time>2014-06-01T10:55:09Z</time>
      </trkpt>
      <trkpt lat="48.70689" lon="6.93811">
        <ele>290</ele>
        <time>2014-06-01T10:55:14Z</time>
      </trkpt>
      <trkpt lat="48.70703" lon="6.93855">
        <ele>295</ele>
        <time>2014-06-01T10:55:19Z</time>
      </trkpt>
      <trkpt lat="48.70719" lon="6.93897">
        <ele>300</ele>
        <time>2014-06-01T10:55:24Z</time>
      </trkpt>
      <trkpt lat="48.70737" lon="6.93943">
        <ele>305</ele>
        <time>2014-06-01T10:55:29Z</time>
      </trkpt>
      <trkpt lat="48.70758" lon="6.93986">
        <ele>305</ele>
        <time>2014-06-01T10:55:34Z</time>
      </trkpt>
      <trkpt lat="48.70781" lon="6.94021">
        <ele>304</ele>
        <time>2014-06-01T10:55:39Z</time>
      </trkpt>
      <trkpt lat="48.70797" lon="6.94053">
        <ele>303</ele>
        <time>2014-06-01T10:55:44Z</time>
      </trkpt>
      <trkpt lat="48.70816" lon="6.94087">
        <ele>301</ele>
        <time>2014-06-01T10:55:49Z</time>
      </trkpt>
      <trkpt lat="48.70833" lon="6.94118">
        <ele>296</ele>
        <time>2014-06-01T10:55:54Z</time>
      </trkpt>
      <trkpt lat="48.70849" lon="6.94148">
        <ele>291</ele>
        <time>2014-06-01T10:55:59Z</time>
      </trkpt>
      <trkpt lat="48.70863" lon="6.94178">
        <ele>287</ele>
        <time>2014-06-01T10:56:04Z</time>
      </trkpt>
      <trkpt lat="48.70873" lon="6.94202">
        <ele>285</ele>
        <time>2014-06-01T10:56:09Z</time>
      </trkpt>
      <trkpt lat="48.70883" lon="6.9422">
        <ele>284</ele>
        <time>2014-06-01T10:56:14Z</time>
      </trkpt>
      <trkpt lat="48.709" lon="6.94218">
        <ele>284</ele>
        <time>2014-06-01T10:56:19Z</time>
      </trkpt>
      <trkpt lat="48.70923" lon="6.94201">
        <ele>285</ele>
        <time>2014-06-01T10:56:24Z</time>
      </trkpt>
      <trkpt lat="48.70948" lon="6.94179">
        <ele>286</ele>
        <time>2014-06-01T10:56:29Z</time>
      </trkpt>
      <trkpt lat="48.70974" lon="6.94157">
        <ele>288</ele>
        <time>2014-06-01T10:56:34Z</time>
      </trkpt>
      <trkpt lat="48.71001" lon="6.94135">
        <ele>288</ele>
        <time>2014-06-01T10:56:39Z</time>
      </trkpt>
      <trkpt lat="48.71025" lon="6.94111">
        <ele>289</ele>
        <time>2014-06-01T10:56:44Z</time>
      </trkpt>
      <trkpt lat="48.71049" lon="6.94088">
        <ele>289</ele>
        <time>2014-06-01T10:56:49Z</time>
      </trkpt>
      <trkpt lat="48.71071" lon="6.94066">
        <ele>289</ele>
        <time>2014-06-01T10:56:54Z</time>
      </trkpt>
      <trkpt lat="48.71093" lon="6.94044">
        <ele>286</ele>
        <time>2014-06-01T10:56:59Z</time>
      </trkpt>
      <trkpt lat="48.71116" lon="6.94022">
        <ele>284</ele>
        <time>2014-06-01T10:57:04Z</time>
      </trkpt>
      <trkpt lat="48.71141" lon="6.94">
        <ele>284</ele>
        <time>2014-06-01T10:57:09Z</time>
      </trkpt>
      <trkpt lat="48.71166" lon="6.93979">
        <ele>284</ele>
        <time>2014-06-01T10:57:14Z</time>
      </trkpt>
      <trkpt lat="48.71192" lon="6.93958">
        <ele>285</ele>
        <time>2014-06-01T10:57:19Z</time>
      </trkpt>
      <trkpt lat="48.71217" lon="6.93937">
        <ele>288</ele>
        <time>2014-06-01T10:57:24Z</time>
      </trkpt>
      <trkpt lat="48.7124" lon="6.93918">
        <ele>291</ele>
        <time>2014-06-01T10:57:29Z</time>
      </trkpt>
      <trkpt lat="48.71263" lon="6.93898">
        <ele>293</ele>
        <time>2014-06-01T10:57:34Z</time>
      </trkpt>
      <trkpt lat="48.71286" lon="6.93878">
        <ele>295</ele>
        <time>2014-06-01T10:57:39Z</time>
      </trkpt>
      <trkpt lat="48.7131" lon="6.93857">
        <ele>296</ele>
        <time>2014-06-01T10:57:44Z</time>
      </trkpt>
      <trkpt lat="48.71336" lon="6.93832">
        <ele>296</ele>
        <time>2014-06-01T10:57:49Z</time>
      </trkpt>
      <trkpt lat="48.71365" lon="6.93808">
        <ele>296</ele>
        <time>2014-06-01T10:57:54Z</time>
      </trkpt>
      <trkpt lat="48.71395" lon="6.93782">
        <ele>294</ele>
        <time>2014-06-01T10:57:59Z</time>
      </trkpt>
      <trkpt lat="48.71427" lon="6.93753">
        <ele>292</ele>
        <time>2014-06-01T10:58:04Z</time>
      </trkpt>
      <trkpt lat="48.71461" lon="6.93722">
        <ele>291</ele>
        <time>2014-06-01T10:58:09Z</time>
      </trkpt>
      <trkpt lat="48.71496" lon="6.93689">
        <ele>288</ele>
        <time>2014-06-01T10:58:14Z</time>
      </trkpt>
      <trkpt lat="48.71527" lon="6.93653">
        <ele>287</ele>
        <time>2014-06-01T10:58:19Z</time>
      </trkpt>
      <trkpt lat="48.71553" lon="6.93611">
        <ele>286</ele>
        <time>2014-06-01T10:58:24Z</time>
      </trkpt>
      <trkpt lat="48.71576" lon="6.93561">
        <ele>284</ele>
        <time>2014-06-01T10:58:29Z</time>
      </trkpt>
      <trkpt lat="48.71594" lon="6.93503">
        <ele>282</ele>
        <time>2014-06-01T10:58:34Z</time>
      </trkpt>
      <trkpt lat="48.71605" lon="6.93437">
        <ele>278</ele>
        <time>2014-06-01T10:58:39Z</time>
      </trkpt>
      <trkpt lat="48.71612" lon="6.93368">
        <ele>275</ele>
        <time>2014-06-01T10:58:44Z</time>
      </trkpt>
      <trkpt lat="48.71618" lon="6.93304">
        <ele>274</ele>
        <time>2014-06-01T10:58:49Z</time>
      </trkpt>
      <trkpt lat="48.71622" lon="6.9324">
        <ele>271</ele>
        <time>2014-06-01T10:58:54Z</time>
      </trkpt>
      <trkpt lat="48.71625" lon="6.93181">
        <ele>268</ele>
        <time>2014-06-01T10:58:59Z</time>
      </trkpt>
      <trkpt lat="48.71629" lon="6.93127">
        <ele>266</ele>
        <time>2014-06-01T10:59:04Z</time>
      </trkpt>
      <trkpt lat="48.71634" lon="6.93076">
        <ele>266</ele>
        <time>2014-06-01T10:59:09Z</time>
      </trkpt>
      <trkpt lat="48.71642" lon="6.93025">
        <ele>266</ele>
        <time>2014-06-01T10:59:14Z</time>
      </trkpt>
      <trkpt lat="48.71656" lon="6.92972">
        <ele>266</ele>
        <time>2014-06-01T10:59:19Z</time>
      </trkpt>
      <trkpt lat="48.71676" lon="6.92914">
        <ele>266</ele>
        <time>2014-06-01T10:59:24Z</time>
      </trkpt>
      <trkpt lat="48.71699" lon="6.92853">
        <ele>266</ele>
        <time>2014-06-01T10:59:29Z</time>
      </trkpt>
      <trkpt lat="48.71721" lon="6.92792">
        <ele>266</ele>
        <time>2014-06-01T10:59:34Z</time>
      </trkpt>
      <trkpt lat="48.7174" lon="6.92738">
        <ele>264</ele>
        <time>2014-06-01T10:59:39Z</time>
      </trkpt>
      <trkpt lat="48.71759" lon="6.9268">
        <ele>260</ele>
        <time>2014-06-01T10:59:44Z</time>
      </trkpt>
      <trkpt lat="48.71774" lon="6.92621">
        <ele>260</ele>
        <time>2014-06-01T10:59:49Z</time>
      </trkpt>
      <trkpt lat="48.71788" lon="6.92563">
        <ele>260</ele>
        <time>2014-06-01T10:59:54Z</time>
      </trkpt>
      <trkpt lat="48.71799" lon="6.92513">
        <ele>260</ele>
        <time>2014-06-01T10:59:59Z</time>
      </trkpt>
      <trkpt lat="48.71808" lon="6.92471">
        <ele>260</ele>
        <time>2014-06-01T11:00:04Z</time>
      </trkpt>
      <trkpt lat="48.71814" lon="6.92439">
        <ele>260</ele>
        <time>2014-06-01T11:00:09Z</time>
      </trkpt>
      <trkpt lat="48.71817" lon="6.92425">
        <ele>262</ele>
        <time>2014-06-01T11:00:17Z</time>
      </trkpt>
      <trkpt lat="48.71829" lon="6.92427">
        <ele>263</ele>
        <time>2014-06-01T11:00:23Z</time>
      </trkpt>
      <trkpt lat="48.71842" lon="6.92418">
        <ele>267</ele>
        <time>2014-06-01T11:00:28Z</time>
      </trkpt>
      <trkpt lat="48.71856" lon="6.92414">
        <ele>270</ele>
        <time>2014-06-01T11:00:33Z</time>
      </trkpt>
      <trkpt lat="48.71876" lon="6.92409">
        <ele>272</ele>
        <time>2014-06-01T11:00:38Z</time>
      </trkpt>
      <trkpt lat="48.71899" lon="6.92409">
        <ele>272</ele>
        <time>2014-06-01T11:00:43Z</time>
      </trkpt>
      <trkpt lat="48.71923" lon="6.92404">
        <ele>272</ele>
        <time>2014-06-01T11:00:48Z</time>
      </trkpt>
      <trkpt lat="48.71946" lon="6.92401">
        <ele>269</ele>
        <time>2014-06-01T11:00:53Z</time>
      </trkpt>
      <trkpt lat="48.7197" lon="6.92393">
        <ele>266</ele>
        <time>2014-06-01T11:00:58Z</time>
      </trkpt>
      <trkpt lat="48.7199" lon="6.92383">
        <ele>261</ele>
        <time>2014-06-01T11:01:03Z</time>
      </trkpt>
      <trkpt lat="48.72013" lon="6.92371">
        <ele>259</ele>
        <time>2014-06-01T11:01:08Z</time>
      </trkpt>
      <trkpt lat="48.72034" lon="6.92357">
        <ele>259</ele>
        <time>2014-06-01T11:01:13Z</time>
      </trkpt>
      <trkpt lat="48.72055" lon="6.9234">
        <ele>259</ele>
        <time>2014-06-01T11:01:18Z</time>
      </trkpt>
      <trkpt lat="48.7208" lon="6.92327">
        <ele>259</ele>
        <time>2014-06-01T11:01:23Z</time>
      </trkpt>
      <trkpt lat="48.72106" lon="6.92319">
        <ele>259</ele>
        <time>2014-06-01T11:01:28Z</time>
      </trkpt>
      <trkpt lat="48.72132" lon="6.9231">
        <ele>259</ele>
        <time>2014-06-01T11:01:33Z</time>
      </trkpt>
      <trkpt lat="48.72156" lon="6.92303">
        <ele>260</ele>
        <time>2014-06-01T11:01:38Z</time>
      </trkpt>
      <trkpt lat="48.72184" lon="6.92301">
        <ele>260</ele>
        <time>2014-06-01T11:01:43Z</time>
      </trkpt>
      <trkpt lat="48.72204" lon="6.92302">
        <ele>260</ele>
        <time>2014-06-01T11:01:48Z</time>
      </trkpt>
      <trkpt lat="48.72233" lon="6.9231">
        <ele>264</ele>
        <time>2014-06-01T11:01:53Z</time>
      </trkpt>
      <trkpt lat="48.72256" lon="6.92314">
        <ele>265</ele>
        <time>2014-06-01T11:01:58Z</time>
      </trkpt>
      <trkpt lat="48.7228" lon="6.92322">
        <ele>265</ele>
        <time>2014-06-01T11:02:03Z</time>
      </trkpt>
      <trkpt lat="48.72304" lon="6.92335">
        <ele>265</ele>
        <time>2014-06-01T11:02:08Z</time>
      </trkpt>
      <trkpt lat="48.72329" lon="6.9235">
        <ele>265</ele>
        <time>2014-06-01T11:02:13Z</time>
      </trkpt>
      <trkpt lat="48.72356" lon="6.92367">
        <ele>265</ele>
        <time>2014-06-01T11:02:18Z</time>
      </trkpt>
      <trkpt lat="48.72381" lon="6.92382">
        <ele>265</ele>
        <time>2014-06-01T11:02:23Z</time>
      </trkpt>
      <trkpt lat="48.72404" lon="6.92396">
        <ele>265</ele>
        <time>2014-06-01T11:02:28Z</time>
      </trkpt>
      <trkpt lat="48.72424" lon="6.92409">
        <ele>266</ele>
        <time>2014-06-01T11:02:33Z</time>
      </trkpt>
      <trkpt lat="48.72447" lon="6.92421">
        <ele>267</ele>
        <time>2014-06-01T11:02:38Z</time>
      </trkpt>
      <trkpt lat="48.72473" lon="6.92436">
        <ele>272</ele>
        <time>2014-06-01T11:02:43Z</time>
      </trkpt>
      <trkpt lat="48.72498" lon="6.92455">
        <ele>277</ele>
        <time>2014-06-01T11:02:48Z</time>
      </trkpt>
      <trkpt lat="48.72525" lon="6.92478">
        <ele>278</ele>
        <time>2014-06-01T11:02:53Z</time>
      </trkpt>
      <trkpt lat="48.72551" lon="6.92505">
        <ele>278</ele>
        <time>2014-06-01T11:02:58Z</time>
      </trkpt>
      <trkpt lat="48.72571" lon="6.9253">
        <ele>274</ele>
        <time>2014-06-01T11:03:03Z</time>
      </trkpt>
      <trkpt lat="48.72592" lon="6.92554">
        <ele>269</ele>
        <time>2014-06-01T11:03:08Z</time>
      </trkpt>
      <trkpt lat="48.72613" lon="6.92577">
        <ele>264</ele>
        <time>2014-06-01T11:03:13Z</time>
      </trkpt>
      <trkpt lat="48.72636" lon="6.92602">
        <ele>263</ele>
        <time>2014-06-01T11:03:18Z</time>
      </trkpt>
      <trkpt lat="48.72658" lon="6.92625">
        <ele>263</ele>
        <time>2014-06-01T11:03:23Z</time>
      </trkpt>
      <trkpt lat="48.72681" lon="6.9265">
        <ele>263</ele>
        <time>2014-06-01T11:03:28Z</time>
      </trkpt>
      <trkpt lat="48.72703" lon="6.92674">
        <ele>263</ele>
        <time>2014-06-01T11:03:33Z</time>
      </trkpt>
      <trkpt lat="48.72723" lon="6.927">
        <ele>263</ele>
        <time>2014-06-01T11:03:38Z</time>
      </trkpt>
      <trkpt lat="48.72744" lon="6.92727">
        <ele>263</ele>
        <time>2014-06-01T11:03:43Z</time>
      </trkpt>
      <trkpt lat="48.72764" lon="6.92755">
        <ele>263</ele>
        <time>2014-06-01T11:03:48Z</time>
      </trkpt>
      <trkpt lat="48.72782" lon="6.92783">
        <ele>263</ele>
        <time>2014-06-01T11:03:53Z</time>
      </trkpt>
      <trkpt lat="48.72798" lon="6.92812">
        <ele>263</ele>
        <time>2014-06-01T11:03:58Z</time>
      </trkpt>
      <trkpt lat="48.72812" lon="6.92841">
        <ele>263</ele>
        <time>2014-06-01T11:04:03Z</time>
      </trkpt>
      <trkpt lat="48.72828" lon="6.92874">
        <ele>263</ele>
        <time>2014-06-01T11:04:08Z</time>
      </trkpt>
      <trkpt lat="48.72843" lon="6.92907">
        <ele>263</ele>
        <time>2014-06-01T11:04:13Z</time>
      </trkpt>
      <trkpt lat="48.72859" lon="6.92939">
        <ele>263</ele>
        <time>2014-06-01T11:04:18Z</time>
      </trkpt>
      <trkpt lat="48.72875" lon="6.92973">
        <ele>263</ele>
        <time>2014-06-01T11:04:23Z</time>
      </trkpt>
      <trkpt lat="48.72891" lon="6.93007">
        <ele>263</ele>
        <time>2014-06-01T11:04:28Z</time>
      </trkpt>
      <trkpt lat="48.72907" lon="6.93042">
        <ele>263</ele>
        <time>2014-06-01T11:04:33Z</time>
      </trkpt>
      <trkpt lat="48.72923" lon="6.93074">
        <ele>263</ele>
        <time>2014-06-01T11:04:38Z</time>
      </trkpt>
      <trkpt lat="48.72938" lon="6.93106">
        <ele>264</ele>
        <time>2014-06-01T11:04:43Z</time>
      </trkpt>
      <trkpt lat="48.72955" lon="6.9314">
        <ele>264</ele>
        <time>2014-06-01T11:04:48Z</time>
      </trkpt>
      <trkpt lat="48.72972" lon="6.93174">
        <ele>264</ele>
        <time>2014-06-01T11:04:53Z</time>
      </trkpt>
      <trkpt lat="48.72989" lon="6.93205">
        <ele>264</ele>
        <time>2014-06-01T11:04:58Z</time>
      </trkpt>
      <trkpt lat="48.73005" lon="6.9324">
        <ele>264</ele>
        <time>2014-06-01T11:05:03Z</time>
      </trkpt>
      <trkpt lat="48.73022" lon="6.93274">
        <ele>264</ele>
        <time>2014-06-01T11:05:08Z</time>
      </trkpt>
      <trkpt lat="48.73034" lon="6.93299">
        <ele>264</ele>
        <time>2014-06-01T11:05:13Z</time>
      </trkpt>
      <trkpt lat="48.73046" lon="6.93323">
        <ele>264</ele>
        <time>2014-06-01T11:05:18Z</time>
      </trkpt>
      <trkpt lat="48.73059" lon="6.93353">
        <ele>264</ele>
        <time>2014-06-01T11:05:23Z</time>
      </trkpt>
      <trkpt lat="48.73074" lon="6.93387">
        <ele>262</ele>
        <time>2014-06-01T11:05:28Z</time>
      </trkpt>
      <trkpt lat="48.73091" lon="6.9342">
        <ele>260</ele>
        <time>2014-06-01T11:05:33Z</time>
      </trkpt>
      <trkpt lat="48.73109" lon="6.93454">
        <ele>259</ele>
        <time>2014-06-01T11:05:38Z</time>
      </trkpt>
      <trkpt lat="48.73128" lon="6.93487">
        <ele>259</ele>
        <time>2014-06-01T11:05:43Z</time>
      </trkpt>
      <trkpt lat="48.73147" lon="6.93519">
        <ele>259</ele>
        <time>2014-06-01T11:05:48Z</time>
      </trkpt>
      <trkpt lat="48.73166" lon="6.93549">
        <ele>259</ele>
        <time>2014-06-01T11:05:53Z</time>
      </trkpt>
      <trkpt lat="48.73184" lon="6.93578">
        <ele>259</ele>
        <time>2014-06-01T11:05:58Z</time>
      </trkpt>
      <trkpt lat="48.73203" lon="6.93608">
        <ele>258</ele>
        <time>2014-06-01T11:06:03Z</time>
      </trkpt>
      <trkpt lat="48.73219" lon="6.93636">
        <ele>255</ele>
        <time>2014-06-01T11:06:08Z</time>
      </trkpt>
      <trkpt lat="48.73238" lon="6.93667">
        <ele>253</ele>
        <time>2014-06-01T11:06:13Z</time>
      </trkpt>
      <trkpt lat="48.73255" lon="6.93696">
        <ele>253</ele>
        <time>2014-06-01T11:06:18Z</time>
      </trkpt>
      <trkpt lat="48.73272" lon="6.93726">
        <ele>253</ele>
        <time>2014-06-01T11:06:23Z</time>
      </trkpt>
      <trkpt lat="48.73291" lon="6.93756">
        <ele>253</ele>
        <time>2014-06-01T11:06:28Z</time>
      </trkpt>
      <trkpt lat="48.73312" lon="6.93789">
        <ele>253</ele>
        <time>2014-06-01T11:06:33Z</time>
      </trkpt>
      <trkpt lat="48.73332" lon="6.9382">
        <ele>253</ele>
        <time>2014-06-01T11:06:38Z</time>
      </trkpt>
      <trkpt lat="48.73352" lon="6.93846">
        <ele>254</ele>
        <time>2014-06-01T11:06:43Z</time>
      </trkpt>
      <trkpt lat="48.73374" lon="6.93874">
        <ele>256</ele>
        <time>2014-06-01T11:06:48Z</time>
      </trkpt>
      <trkpt lat="48.73396" lon="6.93899">
        <ele>256</ele>
        <time>2014-06-01T11:06:53Z</time>
      </trkpt>
      <trkpt lat="48.73419" lon="6.93924">
        <ele>257</ele>
        <time>2014-06-01T11:06:58Z</time>
      </trkpt>
      <trkpt lat="48.73441" lon="6.93945">
        <ele>257</ele>
        <time>2014-06-01T11:07:03Z</time>
      </trkpt>
      <trkpt lat="48.73468" lon="6.93965">
        <ele>259</ele>
        <time>2014-06-01T11:07:08Z</time>
      </trkpt>
      <trkpt lat="48.73494" lon="6.93983">
        <ele>261</ele>
        <time>2014-06-01T11:07:13Z</time>
      </trkpt>
      <trkpt lat="48.73517" lon="6.93998">
        <ele>261</ele>
        <time>2014-06-01T11:07:18Z</time>
      </trkpt>
      <trkpt lat="48.7354" lon="6.94014">
        <ele>261</ele>
        <time>2014-06-01T11:07:23Z</time>
      </trkpt>
      <trkpt lat="48.73563" lon="6.94032">
        <ele>263</ele>
        <time>2014-06-01T11:07:28Z</time>
      </trkpt>
      <trkpt lat="48.7359" lon="6.94051">
        <ele>263</ele>
        <time>2014-06-01T11:07:33Z</time>
      </trkpt>
      <trkpt lat="48.73614" lon="6.94066">
        <ele>263</ele>
        <time>2014-06-01T11:07:38Z</time>
      </trkpt>
      <trkpt lat="48.73639" lon="6.9408">
        <ele>259</ele>
        <time>2014-06-01T11:07:43Z</time>
      </trkpt>
      <trkpt lat="48.73664" lon="6.94094">
        <ele>258</ele>
        <time>2014-06-01T11:07:48Z</time>
      </trkpt>
      <trkpt lat="48.7369" lon="6.94107">
        <ele>258</ele>
        <time>2014-06-01T11:07:53Z</time>
      </trkpt>
      <trkpt lat="48.73713" lon="6.94116">
        <ele>258</ele>
        <time>2014-06-01T11:07:58Z</time>
      </trkpt>
      <trkpt lat="48.73737" lon="6.94125">
        <ele>260</ele>
        <time>2014-06-01T11:08:03Z</time>
      </trkpt>
      <trkpt lat="48.73763" lon="6.94134">
        <ele>260</ele>
        <time>2014-06-01T11:08:08Z</time>
      </trkpt>
      <trkpt lat="48.73788" lon="6.94142">
        <ele>260</ele>
        <time>2014-06-01T11:08:13Z</time>
      </trkpt>
      <trkpt lat="48.73812" lon="6.94148">
        <ele>260</ele>
        <time>2014-06-01T11:08:18Z</time>
      </trkpt>
      <trkpt lat="48.73838" lon="6.94155">
        <ele>260</ele>
        <time>2014-06-01T11:08:23Z</time>
      </trkpt>
      <trkpt lat="48.73864" lon="6.94162">
        <ele>260</ele>
        <time>2014-06-01T11:08:28Z</time>
      </trkpt>
      <trkpt lat="48.73891" lon="6.94168">
        <ele>260</ele>
        <time>2014-06-01T11:08:33Z</time>
      </trkpt>
      <trkpt lat="48.73917" lon="6.94173">
        <ele>261</ele>
        <time>2014-06-01T11:08:38Z</time>
      </trkpt>
      <trkpt lat="48.73943" lon="6.9418">
        <ele>263</ele>
        <time>2014-06-01T11:08:43Z</time>
      </trkpt>
      <trkpt lat="48.73968" lon="6.94185">
        <ele>264</ele>
        <time>2014-06-01T11:08:48Z</time>
      </trkpt>
      <trkpt lat="48.73994" lon="6.94192">
        <ele>265</ele>
        <time>2014-06-01T11:08:53Z</time>
      </trkpt>
      <trkpt lat="48.7402" lon="6.94198">
        <ele>265</ele>
        <time>2014-06-01T11:08:58Z</time>
      </trkpt>
      <trkpt lat="48.74046" lon="6.94204">
        <ele>266</ele>
        <time>2014-06-01T11:09:03Z</time>
      </trkpt>
      <trkpt lat="48.74072" lon="6.9421">
        <ele>268</ele>
        <time>2014-06-01T11:09:08Z</time>
      </trkpt>
      <trkpt lat="48.74097" lon="6.94217">
        <ele>268</ele>
        <time>2014-06-01T11:09:13Z</time>
      </trkpt>
      <trkpt lat="48.74123" lon="6.94221">
        <ele>268</ele>
        <time>2014-06-01T11:09:18Z</time>
      </trkpt>
      <trkpt lat="48.74146" lon="6.94226">
        <ele>268</ele>
        <time>2014-06-01T11:09:23Z</time>
      </trkpt>
      <trkpt lat="48.74167" lon="6.94231">
        <ele>268</ele>
        <time>2014-06-01T11:09:28Z</time>
      </trkpt>
      <trkpt lat="48.74188" lon="6.94236">
        <ele>268</ele>
        <time>2014-06-01T11:09:33Z</time>
      </trkpt>
      <trkpt lat="48.74207" lon="6.9424">
        <ele>267</ele>
        <time>2014-06-01T11:09:38Z</time>
      </trkpt>
      <trkpt lat="48.74223" lon="6.94244">
        <ele>265</ele>
        <time>2014-06-01T11:09:43Z</time>
      </trkpt>
      <trkpt lat="48.7422" lon="6.94245">
        <ele>265</ele>
        <time>2014-06-01T11:09:49Z</time>
      </trkpt>
      <trkpt lat="48.74215" lon="6.94252">
        <ele>270</ele>
        <time>2014-06-01T11:10:00Z</time>
      </trkpt>
      <trkpt lat="48.74218" lon="6.94254">
        <ele>273</ele>
        <time>2014-06-01T11:10:08Z</time>
      </trkpt>
      <trkpt lat="48.74218" lon="6.94249">
        <ele>281</ele>
        <time>2014-06-01T11:10:16Z</time>
      </trkpt>
      <trkpt lat="48.74212" lon="6.94242">
        <ele>288</ele>
        <time>2014-06-01T11:10:23Z</time>
      </trkpt>
      <trkpt lat="48.74215" lon="6.94241">
        <ele>295</ele>
        <time>2014-06-01T11:10:30Z</time>
      </trkpt>
      <trkpt lat="48.74219" lon="6.94245">
        <ele>284</ele>
        <time>2014-06-01T11:10:40Z</time>
      </trkpt>
      <trkpt lat="48.74223" lon="6.94243">
        <ele>281</ele>
        <time>2014-06-01T11:10:45Z</time>
      </trkpt>
      <trkpt lat="48.74226" lon="6.94242">
        <ele>275</ele>
        <time>2014-06-01T11:10:51Z</time>
      </trkpt>
      <trkpt lat="48.74228" lon="6.94244">
        <ele>270</ele>
        <time>2014-06-01T11:10:59Z</time>
      </trkpt>
      <trkpt lat="48.74221" lon="6.94255">
        <ele>270</ele>
        <time>2014-06-01T11:11:08Z</time>
      </trkpt>
      <trkpt lat="48.74224" lon="6.94254">
        <ele>272</ele>
        <time>2014-06-01T11:11:13Z</time>
      </trkpt>
      <trkpt lat="48.74226" lon="6.94254">
        <ele>272</ele>
        <time>2014-06-01T11:11:18Z</time>
      </trkpt>
      <trkpt lat="48.74228" lon="6.94252">
        <ele>272</ele>
        <time>2014-06-01T11:11:23Z</time>
      </trkpt>
      <trkpt lat="48.74239" lon="6.94255">
        <ele>273</ele>
        <time>2014-06-01T11:11:28Z</time>
      </trkpt>
      <trkpt lat="48.74255" lon="6.94257">
        <ele>273</ele>
        <time>2014-06-01T11:11:33Z</time>
      </trkpt>
      <trkpt lat="48.74276" lon="6.94259">
        <ele>268</ele>
        <time>2014-06-01T11:11:38Z</time>
      </trkpt>
      <trkpt lat="48.74305" lon="6.9426">
        <ele>263</ele>
        <time>2014-06-01T11:11:43Z</time>
      </trkpt>
      <trkpt lat="48.74335" lon="6.94263">
        <ele>259</ele>
        <time>2014-06-01T11:11:48Z</time>
      </trkpt>
      <trkpt lat="48.74365" lon="6.94264">
        <ele>257</ele>
        <time>2014-06-01T11:11:53Z</time>
      </trkpt>
      <trkpt lat="48.74394" lon="6.94265">
        <ele>253</ele>
        <time>2014-06-01T11:11:58Z</time>
      </trkpt>
      <trkpt lat="48.74426" lon="6.94263">
        <ele>248</ele>
        <time>2014-06-01T11:12:03Z</time>
      </trkpt>
      <trkpt lat="48.74457" lon="6.94264">
        <ele>243</ele>
        <time>2014-06-01T11:12:08Z</time>
      </trkpt>
      <trkpt lat="48.74487" lon="6.9426">
        <ele>239</ele>
        <time>2014-06-01T11:12:13Z</time>
      </trkpt>
      <trkpt lat="48.74515" lon="6.9426">
        <ele>239</ele>
        <time>2014-06-01T11:12:18Z</time>
      </trkpt>
      <trkpt lat="48.74541" lon="6.94255">
        <ele>239</ele>
        <time>2014-06-01T11:12:23Z</time>
      </trkpt>
      <trkpt lat="48.74568" lon="6.94251">
        <ele>244</ele>
        <time>2014-06-01T11:12:28Z</time>
      </trkpt>
      <trkpt lat="48.74595" lon="6.94248">
        <ele>249</ele>
        <time>2014-06-01T11:12:33Z</time>
      </trkpt>
      <trkpt lat="48.74625" lon="6.94243">
        <ele>251</ele>
        <time>2014-06-01T11:12:38Z</time>
      </trkpt>
      <trkpt lat="48.74655" lon="6.9424">
        <ele>251</ele>
        <time>2014-06-01T11:12:43Z</time>
      </trkpt>
      <trkpt lat="48.74682" lon="6.94233">
        <ele>251</ele>
        <time>2014-06-01T11:12:48Z</time>
      </trkpt>
      <trkpt lat="48.74709" lon="6.94231">
        <ele>254</ele>
        <time>2014-06-01T11:12:53Z</time>
      </trkpt>
      <trkpt lat="48.74739" lon="6.94229">
        <ele>255</ele>
        <time>2014-06-01T11:12:58Z</time>
      </trkpt>
      <trkpt lat="48.74771" lon="6.94223">
        <ele>255</ele>
        <time>2014-06-01T11:13:03Z</time>
      </trkpt>
      <trkpt lat="48.748" lon="6.94218">
        <ele>252</ele>
        <time>2014-06-01T11:13:08Z</time>
      </trkpt>
      <trkpt lat="48.74827" lon="6.94213">
        <ele>252</ele>
        <time>2014-06-01T11:13:13Z</time>
      </trkpt>
      <trkpt lat="48.74856" lon="6.9421">
        <ele>250</ele>
        <time>2014-06-01T11:13:18Z</time>
      </trkpt>
      <trkpt lat="48.74884" lon="6.94207">
        <ele>247</ele>
        <time>2014-06-01T11:13:23Z</time>
      </trkpt>
      <trkpt lat="48.74911" lon="6.94202">
        <ele>244</ele>
        <time>2014-06-01T11:13:28Z</time>
      </trkpt>
      <trkpt lat="48.74938" lon="6.94199">
        <ele>243</ele>
        <time>2014-06-01T11:13:33Z</time>
      </trkpt>
      <trkpt lat="48.74964" lon="6.94196">
        <ele>243</ele>
        <time>2014-06-01T11:13:38Z</time>
      </trkpt>
      <trkpt lat="48.74993" lon="6.94192">
        <ele>243</ele>
        <time>2014-06-01T11:13:43Z</time>
      </trkpt>
      <trkpt lat="48.75021" lon="6.94187">
        <ele>243</ele>
        <time>2014-06-01T11:13:48Z</time>
      </trkpt>
      <trkpt lat="48.7505" lon="6.94183">
        <ele>243</ele>
        <time>2014-06-01T11:13:53Z</time>
      </trkpt>
      <trkpt lat="48.75079" lon="6.94178">
        <ele>243</ele>
        <time>2014-06-01T11:13:58Z</time>
      </trkpt>
      <trkpt lat="48.75107" lon="6.94173">
        <ele>243</ele>
        <time>2014-06-01T11:14:03Z</time>
      </trkpt>
      <trkpt lat="48.75135" lon="6.94169">
        <ele>242</ele>
        <time>2014-06-01T11:14:08Z</time>
      </trkpt>
      <trkpt lat="48.75163" lon="6.94165">
        <ele>239</ele>
        <time>2014-06-01T11:14:13Z</time>
      </trkpt>
      <trkpt lat="48.75191" lon="6.94161">
        <ele>239</ele>
        <time>2014-06-01T11:14:18Z</time>
      </trkpt>
      <trkpt lat="48.75217" lon="6.94159">
        <ele>239</ele>
        <time>2014-06-01T11:14:23Z</time>
      </trkpt>
      <trkpt lat="48.75243" lon="6.94153">
        <ele>239</ele>
        <time>2014-06-01T11:14:28Z</time>
      </trkpt>
      <trkpt lat="48.75268" lon="6.94149">
        <ele>239</ele>
        <time>2014-06-01T11:14:33Z</time>
      </trkpt>
      <trkpt lat="48.75297" lon="6.9415">
        <ele>239</ele>
        <time>2014-06-01T11:14:38Z</time>
      </trkpt>
      <trkpt lat="48.75325" lon="6.94147">
        <ele>239</ele>
        <time>2014-06-01T11:14:43Z</time>
      </trkpt>
      <trkpt lat="48.75352" lon="6.94141">
        <ele>239</ele>
        <time>2014-06-01T11:14:48Z</time>
      </trkpt>
      <trkpt lat="48.75379" lon="6.94135">
        <ele>239</ele>
        <time>2014-06-01T11:14:53Z</time>
      </trkpt>
      <trkpt lat="48.75404" lon="6.94128">
        <ele>239</ele>
        <time>2014-06-01T11:14:58Z</time>
      </trkpt>
      <trkpt lat="48.75432" lon="6.94119">
        <ele>239</ele>
        <time>2014-06-01T11:15:03Z</time>
      </trkpt>
      <trkpt lat="48.75458" lon="6.94108">
        <ele>239</ele>
        <time>2014-06-01T11:15:08Z</time>
      </trkpt>
      <trkpt lat="48.75485" lon="6.94097">
        <ele>239</ele>
        <time>2014-06-01T11:15:13Z</time>
      </trkpt>
      <trkpt lat="48.75513" lon="6.94083">
        <ele>241</ele>
        <time>2014-06-01T11:15:18Z</time>
      </trkpt>
      <trkpt lat="48.75539" lon="6.94069">
        <ele>241</ele>
        <time>2014-06-01T11:15:23Z</time>
      </trkpt>
      <trkpt lat="48.75566" lon="6.94051">
        <ele>243</ele>
        <time>2014-06-01T11:15:28Z</time>
      </trkpt>
      <trkpt lat="48.75593" lon="6.94033">
        <ele>243</ele>
        <time>2014-06-01T11:15:33Z</time>
      </trkpt>
      <trkpt lat="48.7562" lon="6.94014">
        <ele>242</ele>
        <time>2014-06-01T11:15:38Z</time>
      </trkpt>
      <trkpt lat="48.75646" lon="6.93996">
        <ele>239</ele>
        <time>2014-06-01T11:15:43Z</time>
      </trkpt>
      <trkpt lat="48.75672" lon="6.93982">
        <ele>237</ele>
        <time>2014-06-01T11:15:48Z</time>
      </trkpt>
      <trkpt lat="48.75699" lon="6.9397">
        <ele>235</ele>
        <time>2014-06-01T11:15:53Z</time>
      </trkpt>
      <trkpt lat="48.75726" lon="6.93952">
        <ele>235</ele>
        <time>2014-06-01T11:15:58Z</time>
      </trkpt>
      <trkpt lat="48.75752" lon="6.93936">
        <ele>235</ele>
        <time>2014-06-01T11:16:03Z</time>
      </trkpt>
      <trkpt lat="48.75778" lon="6.93919">
        <ele>235</ele>
        <time>2014-06-01T11:16:08Z</time>
      </trkpt>
      <trkpt lat="48.75805" lon="6.93901">
        <ele>236</ele>
        <time>2014-06-01T11:16:13Z</time>
      </trkpt>
      <trkpt lat="48.75834" lon="6.93883">
        <ele>236</ele>
        <time>2014-06-01T11:16:18Z</time>
      </trkpt>
      <trkpt lat="48.75861" lon="6.93866">
        <ele>236</ele>
        <time>2014-06-01T11:16:23Z</time>
      </trkpt>
      <trkpt lat="48.75888" lon="6.93851">
        <ele>236</ele>
        <time>2014-06-01T11:16:28Z</time>
      </trkpt>
      <trkpt lat="48.75912" lon="6.93838">
        <ele>237</ele>
        <time>2014-06-01T11:16:33Z</time>
      </trkpt>
      <trkpt lat="48.75935" lon="6.93822">
        <ele>242</ele>
        <time>2014-06-01T11:16:38Z</time>
      </trkpt>
      <trkpt lat="48.75959" lon="6.93806">
        <ele>247</ele>
        <time>2014-06-01T11:16:43Z</time>
      </trkpt>
      <trkpt lat="48.75984" lon="6.9379">
        <ele>252</ele>
        <time>2014-06-01T11:16:48Z</time>
      </trkpt>
      <trkpt lat="48.76012" lon="6.93775">
        <ele>254</ele>
        <time>2014-06-01T11:16:53Z</time>
      </trkpt>
      <trkpt lat="48.76035" lon="6.93764">
        <ele>259</ele>
        <time>2014-06-01T11:16:58Z</time>
      </trkpt>
      <trkpt lat="48.76061" lon="6.93746">
        <ele>261</ele>
        <time>2014-06-01T11:17:03Z</time>
      </trkpt>
      <trkpt lat="48.76086" lon="6.93725">
        <ele>261</ele>
        <time>2014-06-01T11:17:08Z</time>
      </trkpt>
      <trkpt lat="48.76109" lon="6.93711">
        <ele>261</ele>
        <time>2014-06-01T11:17:13Z</time>
      </trkpt>
      <trkpt lat="48.76138" lon="6.93697">
        <ele>261</ele>
        <time>2014-06-01T11:17:18Z</time>
      </trkpt>
      <trkpt lat="48.76165" lon="6.93681">
        <ele>256</ele>
        <time>2014-06-01T11:17:23Z</time>
      </trkpt>
      <trkpt lat="48.76192" lon="6.93666">
        <ele>251</ele>
        <time>2014-06-01T11:17:28Z</time>
      </trkpt>
      <trkpt lat="48.76218" lon="6.93652">
        <ele>247</ele>
        <time>2014-06-01T11:17:33Z</time>
      </trkpt>
      <trkpt lat="48.76244" lon="6.93635">
        <ele>246</ele>
        <time>2014-06-01T11:17:38Z</time>
      </trkpt>
      <trkpt lat="48.76271" lon="6.93619">
        <ele>246</ele>
        <time>2014-06-01T11:17:43Z</time>
      </trkpt>
      <trkpt lat="48.76296" lon="6.936">
        <ele>243</ele>
        <time>2014-06-01T11:17:48Z</time>
      </trkpt>
      <trkpt lat="48.76322" lon="6.93582">
        <ele>241</ele>
        <time>2014-06-01T11:17:53Z</time>
      </trkpt>
      <trkpt lat="48.76347" lon="6.93567">
        <ele>241</ele>
        <time>2014-06-01T11:17:58Z</time>
      </trkpt>
      <trkpt lat="48.7637" lon="6.93551">
        <ele>240</ele>
        <time>2014-06-01T11:18:03Z</time>
      </trkpt>
      <trkpt lat="48.76395" lon="6.93537">
        <ele>237</ele>
        <time>2014-06-01T11:18:08Z</time>
      </trkpt>
      <trkpt lat="48.76417" lon="6.93526">
        <ele>237</ele>
        <time>2014-06-01T11:18:13Z</time>
      </trkpt>
      <trkpt lat="48.76443" lon="6.93513">
        <ele>237</ele>
        <time>2014-06-01T11:18:18Z</time>
      </trkpt>
      <trkpt lat="48.76467" lon="6.93503">
        <ele>237</ele>
        <time>2014-06-01T11:18:23Z</time>
      </trkpt>
      <trkpt lat="48.76491" lon="6.93494">
        <ele>239</ele>
        <time>2014-06-01T11:18:28Z</time>
      </trkpt>
      <trkpt lat="48.76515" lon="6.93487">
        <ele>242</ele>
        <time>2014-06-01T11:18:33Z</time>
      </trkpt>
      <trkpt lat="48.7654" lon="6.93479">
        <ele>244</ele>
        <time>2014-06-01T11:18:38Z</time>
      </trkpt>
      <trkpt lat="48.76566" lon="6.9347">
        <ele>246</ele>
        <time>2014-06-01T11:18:43Z</time>
      </trkpt>
      <trkpt lat="48.76593" lon="6.93462">
        <ele>247</ele>
        <time>2014-06-01T11:18:48Z</time>
      </trkpt>
      <trkpt lat="48.7662" lon="6.93452">
        <ele>247</ele>
        <time>2014-06-01T11:18:53Z</time>
      </trkpt>
      <trkpt lat="48.76648" lon="6.93443">
        <ele>247</ele>
        <time>2014-06-01T11:18:58Z</time>
      </trkpt>
      <trkpt lat="48.76672" lon="6.93435">
        <ele>247</ele>
        <time>2014-06-01T11:19:03Z</time>
      </trkpt>
      <trkpt lat="48.76697" lon="6.93428">
        <ele>249</ele>
        <time>2014-06-01T11:19:08Z</time>
      </trkpt>
      <trkpt lat="48.76723" lon="6.9342">
        <ele>250</ele>
        <time>2014-06-01T11:19:13Z</time>
      </trkpt>
      <trkpt lat="48.7675" lon="6.9341">
        <ele>251</ele>
        <time>2014-06-01T11:19:18Z</time>
      </trkpt>
      <trkpt lat="48.76775" lon="6.93398">
        <ele>251</ele>
        <time>2014-06-01T11:19:23Z</time>
      </trkpt>
      <trkpt lat="48.76799" lon="6.9339">
        <ele>254</ele>
        <time>2014-06-01T11:19:28Z</time>
      </trkpt>
      <trkpt lat="48.76823" lon="6.93381">
        <ele>259</ele>
        <time>2014-06-01T11:19:33Z</time>
      </trkpt>
      <trkpt lat="48.76855" lon="6.93371">
        <ele>260</ele>
        <time>2014-06-01T11:19:38Z</time>
      </trkpt>
      <trkpt lat="48.76884" lon="6.93363">
        <ele>257</ele>
        <time>2014-06-01T11:19:43Z</time>
      </trkpt>
      <trkpt lat="48.7691" lon="6.93356">
        <ele>253</ele>
        <time>2014-06-01T11:19:48Z</time>
      </trkpt>
      <trkpt lat="48.76937" lon="6.93345">
        <ele>252</ele>
        <time>2014-06-01T11:19:53Z</time>
      </trkpt>
      <trkpt lat="48.76966" lon="6.93338">
        <ele>251</ele>
        <time>2014-06-01T11:19:58Z</time>
      </trkpt>
      <trkpt lat="48.76993" lon="6.9333">
        <ele>251</ele>
        <time>2014-06-01T11:20:03Z</time>
      </trkpt>
      <trkpt lat="48.7702" lon="6.93321">
        <ele>250</ele>
        <time>2014-06-01T11:20:08Z</time>
      </trkpt>
      <trkpt lat="48.77046" lon="6.93315">
        <ele>250</ele>
        <time>2014-06-01T11:20:13Z</time>
      </trkpt>
      <trkpt lat="48.77072" lon="6.93305">
        <ele>250</ele>
        <time>2014-06-01T11:20:18Z</time>
      </trkpt>
      <trkpt lat="48.77096" lon="6.93297">
        <ele>250</ele>
        <time>2014-06-01T11:20:23Z</time>
      </trkpt>
      <trkpt lat="48.77123" lon="6.93288">
        <ele>250</ele>
        <time>2014-06-01T11:20:28Z</time>
      </trkpt>
      <trkpt lat="48.77152" lon="6.93276">
        <ele>250</ele>
        <time>2014-06-01T11:20:33Z</time>
      </trkpt>
      <trkpt lat="48.77181" lon="6.93263">
        <ele>248</ele>
        <time>2014-06-01T11:20:38Z</time>
      </trkpt>
      <trkpt lat="48.7721" lon="6.93254">
        <ele>247</ele>
        <time>2014-06-01T11:20:43Z</time>
      </trkpt>
      <trkpt lat="48.77239" lon="6.93247">
        <ele>247</ele>
        <time>2014-06-01T11:20:48Z</time>
      </trkpt>
      <trkpt lat="48.77265" lon="6.9324">
        <ele>247</ele>
        <time>2014-06-01T11:20:53Z</time>
      </trkpt>
      <trkpt lat="48.77296" lon="6.93233">
        <ele>247</ele>
        <time>2014-06-01T11:20:58Z</time>
      </trkpt>
      <trkpt lat="48.77325" lon="6.93228">
        <ele>247</ele>
        <time>2014-06-01T11:21:03Z</time>
      </trkpt>
      <trkpt lat="48.77349" lon="6.93227">
        <ele>250</ele>
        <time>2014-06-01T11:21:08Z</time>
      </trkpt>
      <trkpt lat="48.77374" lon="6.93228">
        <ele>253</ele>
        <time>2014-06-01T11:21:13Z</time>
      </trkpt>
      <trkpt lat="48.77408" lon="6.93229">
        <ele>255</ele>
        <time>2014-06-01T11:21:19Z</time>
      </trkpt>
      <trkpt lat="48.77438" lon="6.93232">
        <ele>255</ele>
        <time>2014-06-01T11:21:24Z</time>
      </trkpt>
      <trkpt lat="48.77468" lon="6.93234">
        <ele>253</ele>
        <time>2014-06-01T11:21:29Z</time>
      </trkpt>
      <trkpt lat="48.77493" lon="6.93238">
        <ele>253</ele>
        <time>2014-06-01T11:21:34Z</time>
      </trkpt>
      <trkpt lat="48.77525" lon="6.93236">
        <ele>253</ele>
        <time>2014-06-01T11:21:39Z</time>
      </trkpt>
      <trkpt lat="48.77555" lon="6.93238">
        <ele>252</ele>
        <time>2014-06-01T11:21:44Z</time>
      </trkpt>
      <trkpt lat="48.77583" lon="6.9324">
        <ele>249</ele>
        <time>2014-06-01T11:21:49Z</time>
      </trkpt>
      <trkpt lat="48.77611" lon="6.93243">
        <ele>249</ele>
        <time>2014-06-01T11:21:54Z</time>
      </trkpt>
      <trkpt lat="48.77641" lon="6.93247">
        <ele>248</ele>
        <time>2014-06-01T11:21:59Z</time>
      </trkpt>
      <trkpt lat="48.77669" lon="6.93247">
        <ele>246</ele>
        <time>2014-06-01T11:22:04Z</time>
      </trkpt>
      <trkpt lat="48.777" lon="6.93249">
        <ele>246</ele>
        <time>2014-06-01T11:22:10Z</time>
      </trkpt>
      <trkpt lat="48.77736" lon="6.93253">
        <ele>247</ele>
        <time>2014-06-01T11:22:16Z</time>
      </trkpt>
      <trkpt lat="48.77766" lon="6.93258">
        <ele>247</ele>
        <time>2014-06-01T11:22:21Z</time>
      </trkpt>
      <trkpt lat="48.77801" lon="6.93264">
        <ele>247</ele>
        <time>2014-06-01T11:22:27Z</time>
      </trkpt>
      <trkpt lat="48.7783" lon="6.93267">
        <ele>247</ele>
        <time>2014-06-01T11:22:32Z</time>
      </trkpt>
      <trkpt lat="48.77865" lon="6.9327">
        <ele>247</ele>
        <time>2014-06-01T11:22:38Z</time>
      </trkpt>
      <trkpt lat="48.77891" lon="6.93271">
        <ele>247</ele>
        <time>2014-06-01T11:22:43Z</time>
      </trkpt>
      <trkpt lat="48.77916" lon="6.93272">
        <ele>247</ele>
        <time>2014-06-01T11:22:48Z</time>
      </trkpt>
      <trkpt lat="48.77944" lon="6.93274">
        <ele>247</ele>
        <time>2014-06-01T11:22:53Z</time>
      </trkpt>
      <trkpt lat="48.7798" lon="6.93278">
        <ele>247</ele>
        <time>2014-06-01T11:22:59Z</time>
      </trkpt>
      <trkpt lat="48.78015" lon="6.93278">
        <ele>247</ele>
        <time>2014-06-01T11:23:05Z</time>
      </trkpt>
      <trkpt lat="48.78048" lon="6.93278">
        <ele>243</ele>
        <time>2014-06-01T11:23:11Z</time>
      </trkpt>
      <trkpt lat="48.78076" lon="6.93281">
        <ele>242</ele>
        <time>2014-06-01T11:23:16Z</time>
      </trkpt>
      <trkpt lat="48.78106" lon="6.93281">
        <ele>242</ele>
        <time>2014-06-01T11:23:21Z</time>
      </trkpt>
      <trkpt lat="48.78137" lon="6.93285">
        <ele>242</ele>
        <time>2014-06-01T11:23:26Z</time>
      </trkpt>
      <trkpt lat="48.7817" lon="6.93288">
        <ele>240</ele>
        <time>2014-06-01T11:23:32Z</time>
      </trkpt>
      <trkpt lat="48.78198" lon="6.9329">
        <ele>237</ele>
        <time>2014-06-01T11:23:37Z</time>
      </trkpt>
      <trkpt lat="48.78228" lon="6.93291">
        <ele>237</ele>
        <time>2014-06-01T11:23:42Z</time>
      </trkpt>
      <trkpt lat="48.78261" lon="6.93295">
        <ele>236</ele>
        <time>2014-06-01T11:23:48Z</time>
      </trkpt>
      <trkpt lat="48.78289" lon="6.93298">
        <ele>236</ele>
        <time>2014-06-01T11:23:53Z</time>
      </trkpt>
      <trkpt lat="48.78321" lon="6.93301">
        <ele>236</ele>
        <time>2014-06-01T11:23:59Z</time>
      </trkpt>
      <trkpt lat="48.7835" lon="6.93303">
        <ele>236</ele>
        <time>2014-06-01T11:24:05Z</time>
      </trkpt>
      <trkpt lat="48.78373" lon="6.93306">
        <ele>236</ele>
        <time>2014-06-01T11:24:11Z</time>
      </trkpt>
      <trkpt lat="48.78393" lon="6.93308">
        <ele>236</ele>
        <time>2014-06-01T11:24:16Z</time>
      </trkpt>
      <trkpt lat="48.78418" lon="6.93312">
        <ele>236</ele>
        <time>2014-06-01T11:24:21Z</time>
      </trkpt>
      <trkpt lat="48.78446" lon="6.93313">
        <ele>236</ele>
        <time>2014-06-01T11:24:26Z</time>
      </trkpt>
      <trkpt lat="48.78482" lon="6.93314">
        <ele>236</ele>
        <time>2014-06-01T11:24:32Z</time>
      </trkpt>
      <trkpt lat="48.78518" lon="6.9332">
        <ele>237</ele>
        <time>2014-06-01T11:24:38Z</time>
      </trkpt>
      <trkpt lat="48.78545" lon="6.93325">
        <ele>243</ele>
        <time>2014-06-01T11:24:44Z</time>
      </trkpt>
      <trkpt lat="48.78565" lon="6.93324">
        <ele>248</ele>
        <time>2014-06-01T11:24:49Z</time>
      </trkpt>
      <trkpt lat="48.78589" lon="6.93321">
        <ele>256</ele>
        <time>2014-06-01T11:24:54Z</time>
      </trkpt>
      <trkpt lat="48.78611" lon="6.93321">
        <ele>264</ele>
        <time>2014-06-01T11:24:59Z</time>
      </trkpt>
      <trkpt lat="48.78633" lon="6.93322">
        <ele>273</ele>
        <time>2014-06-01T11:25:04Z</time>
      </trkpt>
      <trkpt lat="48.78661" lon="6.93321">
        <ele>278</ele>
        <time>2014-06-01T11:25:09Z</time>
      </trkpt>
      <trkpt lat="48.78687" lon="6.93319">
        <ele>281</ele>
        <time>2014-06-01T11:25:14Z</time>
      </trkpt>
      <trkpt lat="48.78714" lon="6.93317">
        <ele>281</ele>
        <time>2014-06-01T11:25:19Z</time>
      </trkpt>
      <trkpt lat="48.78747" lon="6.93309">
        <ele>281</ele>
        <time>2014-06-01T11:25:25Z</time>
      </trkpt>
      <trkpt lat="48.7878" lon="6.933">
        <ele>277</ele>
        <time>2014-06-01T11:25:30Z</time>
      </trkpt>
      <trkpt lat="48.78817" lon="6.93284">
        <ele>269</ele>
        <time>2014-06-01T11:25:36Z</time>
      </trkpt>
      <trkpt lat="48.7885" lon="6.93261">
        <ele>262</ele>
        <time>2014-06-01T11:25:42Z</time>
      </trkpt>
      <trkpt lat="48.78883" lon="6.93236">
        <ele>255</ele>
        <time>2014-06-01T11:25:48Z</time>
      </trkpt>
      <trkpt lat="48.7891" lon="6.93217">
        <ele>250</ele>
        <time>2014-06-01T11:25:53Z</time>
      </trkpt>
      <trkpt lat="48.78928" lon="6.93196">
        <ele>249</ele>
        <time>2014-06-01T11:25:58Z</time>
      </trkpt>
      <trkpt lat="48.78952" lon="6.93175">
        <ele>252</ele>
        <time>2014-06-01T11:26:03Z</time>
      </trkpt>
      <trkpt lat="48.78984" lon="6.93152">
        <ele>252</ele>
        <time>2014-06-01T11:26:09Z</time>
      </trkpt>
      <trkpt lat="48.79013" lon="6.9313">
        <ele>252</ele>
        <time>2014-06-01T11:26:14Z</time>
      </trkpt>
      <trkpt lat="48.79046" lon="6.93106">
        <ele>252</ele>
        <time>2014-06-01T11:26:19Z</time>
      </trkpt>
      <trkpt lat="48.79073" lon="6.93084">
        <ele>252</ele>
        <time>2014-06-01T11:26:24Z</time>
      </trkpt>
      <trkpt lat="48.79098" lon="6.93058">
        <ele>252</ele>
        <time>2014-06-01T11:26:29Z</time>
      </trkpt>
      <trkpt lat="48.79127" lon="6.93026">
        <ele>247</ele>
        <time>2014-06-01T11:26:35Z</time>
      </trkpt>
      <trkpt lat="48.79145" lon="6.92998">
        <ele>242</ele>
        <time>2014-06-01T11:26:40Z</time>
      </trkpt>
      <trkpt lat="48.79164" lon="6.92959">
        <ele>236</ele>
        <time>2014-06-01T11:26:46Z</time>
      </trkpt>
      <trkpt lat="48.7919" lon="6.92922">
        <ele>230</ele>
        <time>2014-06-01T11:26:52Z</time>
      </trkpt>
      <trkpt lat="48.79213" lon="6.92893">
        <ele>225</ele>
        <time>2014-06-01T11:26:57Z</time>
      </trkpt>
      <trkpt lat="48.79241" lon="6.92859">
        <ele>222</ele>
        <time>2014-06-01T11:27:03Z</time>
      </trkpt>
      <trkpt lat="48.79265" lon="6.92832">
        <ele>222</ele>
        <time>2014-06-01T11:27:08Z</time>
      </trkpt>
      <trkpt lat="48.79291" lon="6.92798">
        <ele>228</ele>
        <time>2014-06-01T11:27:14Z</time>
      </trkpt>
      <trkpt lat="48.79318" lon="6.92765">
        <ele>234</ele>
        <time>2014-06-01T11:27:20Z</time>
      </trkpt>
      <trkpt lat="48.7934" lon="6.92734">
        <ele>238</ele>
        <time>2014-06-01T11:27:25Z</time>
      </trkpt>
      <trkpt lat="48.79359" lon="6.92704">
        <ele>239</ele>
        <time>2014-06-01T11:27:30Z</time>
      </trkpt>
      <trkpt lat="48.79381" lon="6.92676">
        <ele>241</ele>
        <time>2014-06-01T11:27:35Z</time>
      </trkpt>
      <trkpt lat="48.79404" lon="6.92642">
        <ele>241</ele>
        <time>2014-06-01T11:27:40Z</time>
      </trkpt>
      <trkpt lat="48.79427" lon="6.92608">
        <ele>238</ele>
        <time>2014-06-01T11:27:45Z</time>
      </trkpt>
      <trkpt lat="48.79449" lon="6.92578">
        <ele>236</ele>
        <time>2014-06-01T11:27:50Z</time>
      </trkpt>
      <trkpt lat="48.79472" lon="6.92551">
        <ele>235</ele>
        <time>2014-06-01T11:27:55Z</time>
      </trkpt>
      <trkpt lat="48.79493" lon="6.92523">
        <ele>235</ele>
        <time>2014-06-01T11:28:00Z</time>
      </trkpt>
      <trkpt lat="48.79518" lon="6.92488">
        <ele>235</ele>
        <time>2014-06-01T11:28:06Z</time>
      </trkpt>
      <trkpt lat="48.79538" lon="6.9246">
        <ele>235</ele>
        <time>2014-06-01T11:28:11Z</time>
      </trkpt>
      <trkpt lat="48.79561" lon="6.92432">
        <ele>238</ele>
        <time>2014-06-01T11:28:16Z</time>
      </trkpt>
      <trkpt lat="48.79579" lon="6.924">
        <ele>241</ele>
        <time>2014-06-01T11:28:21Z</time>
      </trkpt>
      <trkpt lat="48.79601" lon="6.92371">
        <ele>241</ele>
        <time>2014-06-01T11:28:26Z</time>
      </trkpt>
      <trkpt lat="48.79621" lon="6.9234">
        <ele>240</ele>
        <time>2014-06-01T11:28:31Z</time>
      </trkpt>
      <trkpt lat="48.7964" lon="6.92311">
        <ele>238</ele>
        <time>2014-06-01T11:28:36Z</time>
      </trkpt>
      <trkpt lat="48.79662" lon="6.92284">
        <ele>238</ele>
        <time>2014-06-01T11:28:41Z</time>
      </trkpt>
      <trkpt lat="48.79686" lon="6.92255">
        <ele>234</ele>
        <time>2014-06-01T11:28:46Z</time>
      </trkpt>
      <trkpt lat="48.7971" lon="6.92222">
        <ele>230</ele>
        <time>2014-06-01T11:28:51Z</time>
      </trkpt>
      <trkpt lat="48.79734" lon="6.92199">
        <ele>230</ele>
        <time>2014-06-01T11:28:56Z</time>
      </trkpt>
      <trkpt lat="48.79757" lon="6.92179">
        <ele>233</ele>
        <time>2014-06-01T11:29:01Z</time>
      </trkpt>
      <trkpt lat="48.79781" lon="6.92165">
        <ele>238</ele>
        <time>2014-06-01T11:29:06Z</time>
      </trkpt>
      <trkpt lat="48.79807" lon="6.92154">
        <ele>242</ele>
        <time>2014-06-01T11:29:11Z</time>
      </trkpt>
      <trkpt lat="48.79835" lon="6.92148">
        <ele>242</ele>
        <time>2014-06-01T11:29:16Z</time>
      </trkpt>
      <trkpt lat="48.79864" lon="6.92149">
        <ele>242</ele>
        <time>2014-06-01T11:29:21Z</time>
      </trkpt>
      <trkpt lat="48.7989" lon="6.92154">
        <ele>242</ele>
        <time>2014-06-01T11:29:26Z</time>
      </trkpt>
      <trkpt lat="48.79914" lon="6.92164">
        <ele>240</ele>
        <time>2014-06-01T11:29:31Z</time>
      </trkpt>
      <trkpt lat="48.79938" lon="6.92178">
        <ele>240</ele>
        <time>2014-06-01T11:29:36Z</time>
      </trkpt>
      <trkpt lat="48.79961" lon="6.92199">
        <ele>239</ele>
        <time>2014-06-01T11:29:41Z</time>
      </trkpt>
      <trkpt lat="48.79982" lon="6.92219">
        <ele>238</ele>
        <time>2014-06-01T11:29:46Z</time>
      </trkpt>
      <trkpt lat="48.80005" lon="6.92242">
        <ele>238</ele>
        <time>2014-06-01T11:29:51Z</time>
      </trkpt>
      <trkpt lat="48.80029" lon="6.92268">
        <ele>235</ele>
        <time>2014-06-01T11:29:56Z</time>
      </trkpt>
      <trkpt lat="48.80057" lon="6.92297">
        <ele>230</ele>
        <time>2014-06-01T11:30:01Z</time>
      </trkpt>
      <trkpt lat="48.80083" lon="6.92323">
        <ele>226</ele>
        <time>2014-06-01T11:30:06Z</time>
      </trkpt>
      <trkpt lat="48.80106" lon="6.92347">
        <ele>226</ele>
        <time>2014-06-01T11:30:11Z</time>
      </trkpt>
      <trkpt lat="48.80126" lon="6.9237">
        <ele>228</ele>
        <time>2014-06-01T11:30:16Z</time>
      </trkpt>
      <trkpt lat="48.80145" lon="6.92389">
        <ele>233</ele>
        <time>2014-06-01T11:30:21Z</time>
      </trkpt>
      <trkpt lat="48.80164" lon="6.92417">
        <ele>238</ele>
        <time>2014-06-01T11:30:26Z</time>
      </trkpt>
      <trkpt lat="48.80185" lon="6.92441">
        <ele>244</ele>
        <time>2014-06-01T11:30:31Z</time>
      </trkpt>
      <trkpt lat="48.80208" lon="6.92464">
        <ele>248</ele>
        <time>2014-06-01T11:30:36Z</time>
      </trkpt>
      <trkpt lat="48.80233" lon="6.92488">
        <ele>247</ele>
        <time>2014-06-01T11:30:41Z</time>
      </trkpt>
      <trkpt lat="48.80256" lon="6.92511">
        <ele>242</ele>
        <time>2014-06-01T11:30:46Z</time>
      </trkpt>
      <trkpt lat="48.80278" lon="6.92533">
        <ele>238</ele>
        <time>2014-06-01T11:30:51Z</time>
      </trkpt>
      <trkpt lat="48.80301" lon="6.92556">
        <ele>236</ele>
        <time>2014-06-01T11:30:56Z</time>
      </trkpt>
      <trkpt lat="48.80325" lon="6.92582">
        <ele>235</ele>
        <time>2014-06-01T11:31:01Z</time>
      </trkpt>
      <trkpt lat="48.80351" lon="6.92608">
        <ele>233</ele>
        <time>2014-06-01T11:31:06Z</time>
      </trkpt>
      <trkpt lat="48.80376" lon="6.92632">
        <ele>229</ele>
        <time>2014-06-01T11:31:11Z</time>
      </trkpt>
      <trkpt lat="48.80399" lon="6.92656">
        <ele>228</ele>
        <time>2014-06-01T11:31:16Z</time>
      </trkpt>
      <trkpt lat="48.80423" lon="6.9268">
        <ele>228</ele>
        <time>2014-06-01T11:31:21Z</time>
      </trkpt>
      <trkpt lat="48.80447" lon="6.92699">
        <ele>228</ele>
        <time>2014-06-01T11:31:26Z</time>
      </trkpt>
      <trkpt lat="48.80473" lon="6.92716">
        <ele>228</ele>
        <time>2014-06-01T11:31:31Z</time>
      </trkpt>
      <trkpt lat="48.80499" lon="6.92729">
        <ele>231</ele>
        <time>2014-06-01T11:31:36Z</time>
      </trkpt>
      <trkpt lat="48.80525" lon="6.92738">
        <ele>233</ele>
        <time>2014-06-01T11:31:41Z</time>
      </trkpt>
      <trkpt lat="48.80553" lon="6.92746">
        <ele>236</ele>
        <time>2014-06-01T11:31:46Z</time>
      </trkpt>
      <trkpt lat="48.80582" lon="6.92751">
        <ele>236</ele>
        <time>2014-06-01T11:31:51Z</time>
      </trkpt>
      <trkpt lat="48.80608" lon="6.92755">
        <ele>236</ele>
        <time>2014-06-01T11:31:56Z</time>
      </trkpt>
      <trkpt lat="48.80637" lon="6.9276">
        <ele>236</ele>
        <time>2014-06-01T11:32:01Z</time>
      </trkpt>
      <trkpt lat="48.80668" lon="6.92766">
        <ele>235</ele>
        <time>2014-06-01T11:32:06Z</time>
      </trkpt>
      <trkpt lat="48.807" lon="6.92772">
        <ele>233</ele>
        <time>2014-06-01T11:32:11Z</time>
      </trkpt>
      <trkpt lat="48.80735" lon="6.92779">
        <ele>233</ele>
        <time>2014-06-01T11:32:16Z</time>
      </trkpt>
      <trkpt lat="48.80765" lon="6.92785">
        <ele>232</ele>
        <time>2014-06-01T11:32:21Z</time>
      </trkpt>
      <trkpt lat="48.80793" lon="6.9279">
        <ele>233</ele>
        <time>2014-06-01T11:32:26Z</time>
      </trkpt>
      <trkpt lat="48.80822" lon="6.92796">
        <ele>235</ele>
        <time>2014-06-01T11:32:31Z</time>
      </trkpt>
      <trkpt lat="48.80848" lon="6.928">
        <ele>237</ele>
        <time>2014-06-01T11:32:36Z</time>
      </trkpt>
      <trkpt lat="48.80876" lon="6.92805">
        <ele>240</ele>
        <time>2014-06-01T11:32:41Z</time>
      </trkpt>
      <trkpt lat="48.80904" lon="6.92812">
        <ele>240</ele>
        <time>2014-06-01T11:32:46Z</time>
      </trkpt>
      <trkpt lat="48.8093" lon="6.92818">
        <ele>236</ele>
        <time>2014-06-01T11:32:51Z</time>
      </trkpt>
      <trkpt lat="48.80954" lon="6.92824">
        <ele>233</ele>
        <time>2014-06-01T11:32:56Z</time>
      </trkpt>
      <trkpt lat="48.80974" lon="6.92828">
        <ele>232</ele>
        <time>2014-06-01T11:33:01Z</time>
      </trkpt>
      <trkpt lat="48.8099" lon="6.92829">
        <ele>231</ele>
        <time>2014-06-01T11:33:06Z</time>
      </trkpt>
      <trkpt lat="48.80998" lon="6.92827">
        <ele>226</ele>
        <time>2014-06-01T11:33:15Z</time>
      </trkpt>
      <trkpt lat="48.80996" lon="6.92834">
        <ele>224</ele>
        <time>2014-06-01T11:33:20Z</time>
      </trkpt>
      <trkpt lat="48.80994" lon="6.9284">
        <ele>229</ele>
        <time>2014-06-01T11:33:25Z</time>
      </trkpt>
      <trkpt lat="48.80991" lon="6.92847">
        <ele>247</ele>
        <time>2014-06-01T11:33:36Z</time>
      </trkpt>
      <trkpt lat="48.81004" lon="6.92845">
        <ele>243</ele>
        <time>2014-06-01T11:33:41Z</time>
      </trkpt>
      <trkpt lat="48.81026" lon="6.92846">
        <ele>238</ele>
        <time>2014-06-01T11:33:46Z</time>
      </trkpt>
      <trkpt lat="48.81048" lon="6.92845">
        <ele>236</ele>
        <time>2014-06-01T11:33:51Z</time>
      </trkpt>
      <trkpt lat="48.81066" lon="6.92844">
        <ele>236</ele>
        <time>2014-06-01T11:33:56Z</time>
      </trkpt>
      <trkpt lat="48.81088" lon="6.9285">
        <ele>241</ele>
        <time>2014-06-01T11:34:01Z</time>
      </trkpt>
      <trkpt lat="48.81118" lon="6.92855">
        <ele>244</ele>
        <time>2014-06-01T11:34:06Z</time>
      </trkpt>
      <trkpt lat="48.81148" lon="6.92861">
        <ele>246</ele>
        <time>2014-06-01T11:34:11Z</time>
      </trkpt>
      <trkpt lat="48.81176" lon="6.92866">
        <ele>246</ele>
        <time>2014-06-01T11:34:16Z</time>
      </trkpt>
      <trkpt lat="48.81205" lon="6.92873">
        <ele>246</ele>
        <time>2014-06-01T11:34:21Z</time>
      </trkpt>
      <trkpt lat="48.81232" lon="6.92879">
        <ele>250</ele>
        <time>2014-06-01T11:34:26Z</time>
      </trkpt>
      <trkpt lat="48.8126" lon="6.92885">
        <ele>252</ele>
        <time>2014-06-01T11:34:31Z</time>
      </trkpt>
      <trkpt lat="48.8129" lon="6.92891">
        <ele>252</ele>
        <time>2014-06-01T11:34:36Z</time>
      </trkpt>
      <trkpt lat="48.81321" lon="6.92898">
        <ele>250</ele>
        <time>2014-06-01T11:34:41Z</time>
      </trkpt>
      <trkpt lat="48.81349" lon="6.92904">
        <ele>246</ele>
        <time>2014-06-01T11:34:46Z</time>
      </trkpt>
      <trkpt lat="48.81375" lon="6.92907">
        <ele>245</ele>
        <time>2014-06-01T11:34:51Z</time>
      </trkpt>
      <trkpt lat="48.81403" lon="6.92913">
        <ele>245</ele>
        <time>2014-06-01T11:34:56Z</time>
      </trkpt>
      <trkpt lat="48.81429" lon="6.92916">
        <ele>248</ele>
        <time>2014-06-01T11:35:01Z</time>
      </trkpt>
      <trkpt lat="48.81457" lon="6.92922">
        <ele>251</ele>
        <time>2014-06-01T11:35:06Z</time>
      </trkpt>
      <trkpt lat="48.81488" lon="6.9293">
        <ele>251</ele>
        <time>2014-06-01T11:35:11Z</time>
      </trkpt>
      <trkpt lat="48.81518" lon="6.92937">
        <ele>251</ele>
        <time>2014-06-01T11:35:16Z</time>
      </trkpt>
      <trkpt lat="48.81547" lon="6.92943">
        <ele>251</ele>
        <time>2014-06-01T11:35:21Z</time>
      </trkpt>
      <trkpt lat="48.81579" lon="6.92948">
        <ele>249</ele>
        <time>2014-06-01T11:35:26Z</time>
      </trkpt>
      <trkpt lat="48.81608" lon="6.92953">
        <ele>244</ele>
        <time>2014-06-01T11:35:31Z</time>
      </trkpt>
      <trkpt lat="48.81644" lon="6.92959">
        <ele>238</ele>
        <time>2014-06-01T11:35:36Z</time>
      </trkpt>
      <trkpt lat="48.8168" lon="6.92968">
        <ele>232</ele>
        <time>2014-06-01T11:35:41Z</time>
      </trkpt>
      <trkpt lat="48.81711" lon="6.92976">
        <ele>227</ele>
        <time>2014-06-01T11:35:46Z</time>
      </trkpt>
      <trkpt lat="48.81741" lon="6.92983">
        <ele>227</ele>
        <time>2014-06-01T11:35:51Z</time>
      </trkpt>
      <trkpt lat="48.8177" lon="6.92987">
        <ele>227</ele>
        <time>2014-06-01T11:35:56Z</time>
      </trkpt>
      <trkpt lat="48.81798" lon="6.92989">
        <ele>227</ele>
        <time>2014-06-01T11:36:01Z</time>
      </trkpt>
      <trkpt lat="48.81827" lon="6.9299">
        <ele>227</ele>
        <time>2014-06-01T11:36:06Z</time>
      </trkpt>
      <trkpt lat="48.81856" lon="6.92988">
        <ele>227</ele>
        <time>2014-06-01T11:36:11Z</time>
      </trkpt>
      <trkpt lat="48.81884" lon="6.92986">
        <ele>227</ele>
        <time>2014-06-01T11:36:16Z</time>
      </trkpt>
      <trkpt lat="48.81911" lon="6.92982">
        <ele>227</ele>
        <time>2014-06-01T11:36:21Z</time>
      </trkpt>
      <trkpt lat="48.81939" lon="6.92976">
        <ele>227</ele>
        <time>2014-06-01T11:36:26Z</time>
      </trkpt>
      <trkpt lat="48.81966" lon="6.92968">
        <ele>223</ele>
        <time>2014-06-01T11:36:31Z</time>
      </trkpt>
      <trkpt lat="48.81992" lon="6.92958">
        <ele>223</ele>
        <time>2014-06-01T11:36:36Z</time>
      </trkpt>
      <trkpt lat="48.82017" lon="6.92947">
        <ele>223</ele>
        <time>2014-06-01T11:36:41Z</time>
      </trkpt>
      <trkpt lat="48.82042" lon="6.92933">
        <ele>227</ele>
        <time>2014-06-01T11:36:46Z</time>
      </trkpt>
      <trkpt lat="48.82066" lon="6.92917">
        <ele>231</ele>
        <time>2014-06-01T11:36:51Z</time>
      </trkpt>
      <trkpt lat="48.82093" lon="6.92901">
        <ele>233</ele>
        <time>2014-06-01T11:36:56Z</time>
      </trkpt>
      <trkpt lat="48.82119" lon="6.92885">
        <ele>233</ele>
        <time>2014-06-01T11:37:01Z</time>
      </trkpt>
      <trkpt lat="48.82144" lon="6.92866">
        <ele>234</ele>
        <time>2014-06-01T11:37:06Z</time>
      </trkpt>
      <trkpt lat="48.82171" lon="6.92849">
        <ele>234</ele>
        <time>2014-06-01T11:37:11Z</time>
      </trkpt>
      <trkpt lat="48.82195" lon="6.92831">
        <ele>234</ele>
        <time>2014-06-01T11:37:16Z</time>
      </trkpt>
      <trkpt lat="48.82222" lon="6.92811">
        <ele>234</ele>
        <time>2014-06-01T11:37:21Z</time>
      </trkpt>
      <trkpt lat="48.82249" lon="6.92793">
        <ele>232</ele>
        <time>2014-06-01T11:37:26Z</time>
      </trkpt>
      <trkpt lat="48.82274" lon="6.92775">
        <ele>232</ele>
        <time>2014-06-01T11:37:31Z</time>
      </trkpt>
      <trkpt lat="48.82297" lon="6.92758">
        <ele>234</ele>
        <time>2014-06-01T11:37:36Z</time>
      </trkpt>
      <trkpt lat="48.82324" lon="6.92739">
        <ele>235</ele>
        <time>2014-06-01T11:37:41Z</time>
      </trkpt>
      <trkpt lat="48.8235" lon="6.92719">
        <ele>236</ele>
        <time>2014-06-01T11:37:46Z</time>
      </trkpt>
      <trkpt lat="48.82375" lon="6.92699">
        <ele>236</ele>
        <time>2014-06-01T11:37:51Z</time>
      </trkpt>
      <trkpt lat="48.82404" lon="6.92676">
        <ele>235</ele>
        <time>2014-06-01T11:37:56Z</time>
      </trkpt>
      <trkpt lat="48.82436" lon="6.92654">
        <ele>232</ele>
        <time>2014-06-01T11:38:01Z</time>
      </trkpt>
      <trkpt lat="48.82466" lon="6.92636">
        <ele>230</ele>
        <time>2014-06-01T11:38:06Z</time>
      </trkpt>
      <trkpt lat="48.82492" lon="6.9262">
        <ele>227</ele>
        <time>2014-06-01T11:38:11Z</time>
      </trkpt>
      <trkpt lat="48.82517" lon="6.92608">
        <ele>227</ele>
        <time>2014-06-01T11:38:16Z</time>
      </trkpt>
      <trkpt lat="48.82542" lon="6.92598">
        <ele>227</ele>
        <time>2014-06-01T11:38:21Z</time>
      </trkpt>
      <trkpt lat="48.8257" lon="6.92593">
        <ele>227</ele>
        <time>2014-06-01T11:38:26Z</time>
      </trkpt>
      <trkpt lat="48.82599" lon="6.92588">
        <ele>226</ele>
        <time>2014-06-01T11:38:31Z</time>
      </trkpt>
      <trkpt lat="48.82618" lon="6.92582">
        <ele>227</ele>
        <time>2014-06-01T11:38:36Z</time>
      </trkpt>
      <trkpt lat="48.82644" lon="6.9258">
        <ele>232</ele>
        <time>2014-06-01T11:38:41Z</time>
      </trkpt>
      <trkpt lat="48.8267" lon="6.9258">
        <ele>238</ele>
        <time>2014-06-01T11:38:46Z</time>
      </trkpt>
      <trkpt lat="48.82701" lon="6.92586">
        <ele>245</ele>
        <time>2014-06-01T11:38:51Z</time>
      </trkpt>
      <trkpt lat="48.82732" lon="6.92596">
        <ele>247</ele>
        <time>2014-06-01T11:38:56Z</time>
      </trkpt>
      <trkpt lat="48.82762" lon="6.9261">
        <ele>247</ele>
        <time>2014-06-01T11:39:01Z</time>
      </trkpt>
      <trkpt lat="48.8279" lon="6.92625">
        <ele>245</ele>
        <time>2014-06-01T11:39:06Z</time>
      </trkpt>
      <trkpt lat="48.82815" lon="6.92643">
        <ele>243</ele>
        <time>2014-06-01T11:39:11Z</time>
      </trkpt>
      <trkpt lat="48.82838" lon="6.92665">
        <ele>243</ele>
        <time>2014-06-01T11:39:16Z</time>
      </trkpt>
      <trkpt lat="48.82862" lon="6.92688">
        <ele>242</ele>
        <time>2014-06-01T11:39:21Z</time>
      </trkpt>
      <trkpt lat="48.82884" lon="6.92712">
        <ele>241</ele>
        <time>2014-06-01T11:39:26Z</time>
      </trkpt>
      <trkpt lat="48.82909" lon="6.92738">
        <ele>241</ele>
        <time>2014-06-01T11:39:31Z</time>
      </trkpt>
      <trkpt lat="48.82934" lon="6.92763">
        <ele>240</ele>
        <time>2014-06-01T11:39:36Z</time>
      </trkpt>
      <trkpt lat="48.8296" lon="6.92787">
        <ele>240</ele>
        <time>2014-06-01T11:39:41Z</time>
      </trkpt>
      <trkpt lat="48.82981" lon="6.92812">
        <ele>239</ele>
        <time>2014-06-01T11:39:46Z</time>
      </trkpt>
      <trkpt lat="48.83001" lon="6.92837">
        <ele>239</ele>
        <time>2014-06-01T11:39:51Z</time>
      </trkpt>
      <trkpt lat="48.83027" lon="6.9286">
        <ele>239</ele>
        <time>2014-06-01T11:39:56Z</time>
      </trkpt>
      <trkpt lat="48.8305" lon="6.92886">
        <ele>239</ele>
        <time>2014-06-01T11:40:01Z</time>
      </trkpt>
      <trkpt lat="48.83074" lon="6.92912">
        <ele>239</ele>
        <time>2014-06-01T11:40:06Z</time>
      </trkpt>
      <trkpt lat="48.83099" lon="6.92937">
        <ele>239</ele>
        <time>2014-06-01T11:40:11Z</time>
      </trkpt>
      <trkpt lat="48.83124" lon="6.92965">
        <ele>239</ele>
        <time>2014-06-01T11:40:16Z</time>
      </trkpt>
      <trkpt lat="48.83152" lon="6.9299">
        <ele>240</ele>
        <time>2014-06-01T11:40:21Z</time>
      </trkpt>
      <trkpt lat="48.83185" lon="6.93008">
        <ele>240</ele>
        <time>2014-06-01T11:40:26Z</time>
      </trkpt>
      <trkpt lat="48.83215" lon="6.93021">
        <ele>240</ele>
        <time>2014-06-01T11:40:31Z</time>
      </trkpt>
      <trkpt lat="48.83242" lon="6.9303">
        <ele>240</ele>
        <time>2014-06-01T11:40:36Z</time>
      </trkpt>
      <trkpt lat="48.83269" lon="6.93034">
        <ele>243</ele>
        <time>2014-06-01T11:40:41Z</time>
      </trkpt>
      <trkpt lat="48.83295" lon="6.93034">
        <ele>248</ele>
        <time>2014-06-01T11:40:46Z</time>
      </trkpt>
      <trkpt lat="48.83324" lon="6.93032">
        <ele>253</ele>
        <time>2014-06-01T11:40:51Z</time>
      </trkpt>
      <trkpt lat="48.8336" lon="6.93028">
        <ele>253</ele>
        <time>2014-06-01T11:40:56Z</time>
      </trkpt>
      <trkpt lat="48.8339" lon="6.93021">
        <ele>245</ele>
        <time>2014-06-01T11:41:01Z</time>
      </trkpt>
      <trkpt lat="48.83417" lon="6.93012">
        <ele>239</ele>
        <time>2014-06-01T11:41:06Z</time>
      </trkpt>
      <trkpt lat="48.83439" lon="6.92999">
        <ele>237</ele>
        <time>2014-06-01T11:41:11Z</time>
      </trkpt>
      <trkpt lat="48.83462" lon="6.92986">
        <ele>242</ele>
        <time>2014-06-01T11:41:16Z</time>
      </trkpt>
      <trkpt lat="48.83485" lon="6.92974">
        <ele>251</ele>
        <time>2014-06-01T11:41:21Z</time>
      </trkpt>
      <trkpt lat="48.8351" lon="6.92963">
        <ele>258</ele>
        <time>2014-06-01T11:41:26Z</time>
      </trkpt>
      <trkpt lat="48.83537" lon="6.92951">
        <ele>263</ele>
        <time>2014-06-01T11:41:31Z</time>
      </trkpt>
      <trkpt lat="48.83564" lon="6.92939">
        <ele>268</ele>
        <time>2014-06-01T11:41:36Z</time>
      </trkpt>
      <trkpt lat="48.83588" lon="6.92931">
        <ele>270</ele>
        <time>2014-06-01T11:41:41Z</time>
      </trkpt>
      <trkpt lat="48.83612" lon="6.92919">
        <ele>272</ele>
        <time>2014-06-01T11:41:46Z</time>
      </trkpt>
      <trkpt lat="48.83638" lon="6.92909">
        <ele>271</ele>
        <time>2014-06-01T11:41:51Z</time>
      </trkpt>
      <trkpt lat="48.83667" lon="6.929">
        <ele>262</ele>
        <time>2014-06-01T11:41:56Z</time>
      </trkpt>
      <trkpt lat="48.83697" lon="6.92888">
        <ele>252</ele>
        <time>2014-06-01T11:42:01Z</time>
      </trkpt>
      <trkpt lat="48.83726" lon="6.92875">
        <ele>243</ele>
        <time>2014-06-01T11:42:06Z</time>
      </trkpt>
      <trkpt lat="48.83752" lon="6.92863">
        <ele>238</ele>
        <time>2014-06-01T11:42:11Z</time>
      </trkpt>
      <trkpt lat="48.83779" lon="6.92852">
        <ele>233</ele>
        <time>2014-06-01T11:42:16Z</time>
      </trkpt>
      <trkpt lat="48.83807" lon="6.92838">
        <ele>230</ele>
        <time>2014-06-01T11:42:21Z</time>
      </trkpt>
      <trkpt lat="48.83835" lon="6.92826">
        <ele>229</ele>
        <time>2014-06-01T11:42:26Z</time>
      </trkpt>
      <trkpt lat="48.83864" lon="6.92813">
        <ele>228</ele>
        <time>2014-06-01T11:42:31Z</time>
      </trkpt>
      <trkpt lat="48.83893" lon="6.928">
        <ele>226</ele>
        <time>2014-06-01T11:42:36Z</time>
      </trkpt>
      <trkpt lat="48.8392" lon="6.92787">
        <ele>225</ele>
        <time>2014-06-01T11:42:41Z</time>
      </trkpt>
      <trkpt lat="48.83941" lon="6.92776">
        <ele>225</ele>
        <time>2014-06-01T11:42:46Z</time>
      </trkpt>
      <trkpt lat="48.83966" lon="6.92766">
        <ele>225</ele>
        <time>2014-06-01T11:42:51Z</time>
      </trkpt>
      <trkpt lat="48.83992" lon="6.92753">
        <ele>225</ele>
        <time>2014-06-01T11:42:56Z</time>
      </trkpt>
      <trkpt lat="48.84022" lon="6.92739">
        <ele>226</ele>
        <time>2014-06-01T11:43:01Z</time>
      </trkpt>
      <trkpt lat="48.84051" lon="6.92727">
        <ele>226</ele>
        <time>2014-06-01T11:43:06Z</time>
      </trkpt>
      <trkpt lat="48.84079" lon="6.92715">
        <ele>226</ele>
        <time>2014-06-01T11:43:11Z</time>
      </trkpt>
      <trkpt lat="48.84106" lon="6.92702">
        <ele>226</ele>
        <time>2014-06-01T11:43:16Z</time>
      </trkpt>
      <trkpt lat="48.84132" lon="6.92689">
        <ele>230</ele>
        <time>2014-06-01T11:43:21Z</time>
      </trkpt>
      <trkpt lat="48.84158" lon="6.92674">
        <ele>235</ele>
        <time>2014-06-01T11:43:26Z</time>
      </trkpt>
      <trkpt lat="48.84181" lon="6.9266">
        <ele>240</ele>
        <time>2014-06-01T11:43:31Z</time>
      </trkpt>
      <trkpt lat="48.84204" lon="6.92648">
        <ele>245</ele>
        <time>2014-06-01T11:43:36Z</time>
      </trkpt>
      <trkpt lat="48.84224" lon="6.92636">
        <ele>252</ele>
        <time>2014-06-01T11:43:41Z</time>
      </trkpt>
      <trkpt lat="48.84248" lon="6.92627">
        <ele>258</ele>
        <time>2014-06-01T11:43:46Z</time>
      </trkpt>
      <trkpt lat="48.84279" lon="6.92616">
        <ele>256</ele>
        <time>2014-06-01T11:43:51Z</time>
      </trkpt>
      <trkpt lat="48.84311" lon="6.92604">
        <ele>247</ele>
        <time>2014-06-01T11:43:56Z</time>
      </trkpt>
      <trkpt lat="48.84341" lon="6.92596">
        <ele>238</ele>
        <time>2014-06-01T11:44:01Z</time>
      </trkpt>
      <trkpt lat="48.84372" lon="6.92593">
        <ele>233</ele>
        <time>2014-06-01T11:44:06Z</time>
      </trkpt>
      <trkpt lat="48.84402" lon="6.92591">
        <ele>228</ele>
        <time>2014-06-01T11:44:11Z</time>
      </trkpt>
      <trkpt lat="48.84433" lon="6.92594">
        <ele>228</ele>
        <time>2014-06-01T11:44:16Z</time>
      </trkpt>
      <trkpt lat="48.84461" lon="6.92602">
        <ele>227</ele>
        <time>2014-06-01T11:44:21Z</time>
      </trkpt>
      <trkpt lat="48.84491" lon="6.92613">
        <ele>227</ele>
        <time>2014-06-01T11:44:26Z</time>
      </trkpt>
      <trkpt lat="48.84516" lon="6.92628">
        <ele>227</ele>
        <time>2014-06-01T11:44:31Z</time>
      </trkpt>
      <trkpt lat="48.8454" lon="6.92646">
        <ele>227</ele>
        <time>2014-06-01T11:44:36Z</time>
      </trkpt>
      <trkpt lat="48.84565" lon="6.92669">
        <ele>228</ele>
        <time>2014-06-01T11:44:41Z</time>
      </trkpt>
      <trkpt lat="48.84586" lon="6.92693">
        <ele>229</ele>
        <time>2014-06-01T11:44:46Z</time>
      </trkpt>
      <trkpt lat="48.84605" lon="6.92718">
        <ele>230</ele>
        <time>2014-06-01T11:44:51Z</time>
      </trkpt>
      <trkpt lat="48.84626" lon="6.92749">
        <ele>230</ele>
        <time>2014-06-01T11:44:56Z</time>
      </trkpt>
      <trkpt lat="48.84648" lon="6.9278">
        <ele>230</ele>
        <time>2014-06-01T11:45:01Z</time>
      </trkpt>
      <trkpt lat="48.8467" lon="6.92811">
        <ele>230</ele>
        <time>2014-06-01T11:45:06Z</time>
      </trkpt>
      <trkpt lat="48.84693" lon="6.9284">
        <ele>230</ele>
        <time>2014-06-01T11:45:11Z</time>
      </trkpt>
      <trkpt lat="48.84713" lon="6.92869">
        <ele>230</ele>
        <time>2014-06-01T11:45:16Z</time>
      </trkpt>
      <trkpt lat="48.84733" lon="6.92894">
        <ele>231</ele>
        <time>2014-06-01T11:45:21Z</time>
      </trkpt>
      <trkpt lat="48.84751" lon="6.92912">
        <ele>235</ele>
        <time>2014-06-01T11:45:26Z</time>
      </trkpt>
      <trkpt lat="48.84773" lon="6.92924">
        <ele>235</ele>
        <time>2014-06-01T11:45:31Z</time>
      </trkpt>
      <trkpt lat="48.84795" lon="6.92939">
        <ele>237</ele>
        <time>2014-06-01T11:45:36Z</time>
      </trkpt>
      <trkpt lat="48.8482" lon="6.92954">
        <ele>239</ele>
        <time>2014-06-01T11:45:41Z</time>
      </trkpt>
      <trkpt lat="48.84849" lon="6.92966">
        <ele>241</ele>
        <time>2014-06-01T11:45:46Z</time>
      </trkpt>
      <trkpt lat="48.84876" lon="6.92974">
        <ele>241</ele>
        <time>2014-06-01T11:45:51Z</time>
      </trkpt>
      <trkpt lat="48.84909" lon="6.92978">
        <ele>241</ele>
        <time>2014-06-01T11:45:56Z</time>
      </trkpt>
      <trkpt lat="48.8494" lon="6.92982">
        <ele>237</ele>
        <time>2014-06-01T11:46:01Z</time>
      </trkpt>
      <trkpt lat="48.84972" lon="6.92983">
        <ele>232</ele>
        <time>2014-06-01T11:46:06Z</time>
      </trkpt>
      <trkpt lat="48.85003" lon="6.92985">
        <ele>228</ele>
        <time>2014-06-01T11:46:11Z</time>
      </trkpt>
      <trkpt lat="48.85032" lon="6.92987">
        <ele>227</ele>
        <time>2014-06-01T11:46:16Z</time>
      </trkpt>
      <trkpt lat="48.85059" lon="6.9299">
        <ele>227</ele>
        <time>2014-06-01T11:46:21Z</time>
      </trkpt>
      <trkpt lat="48.85085" lon="6.92991">
        <ele>227</ele>
        <time>2014-06-01T11:46:26Z</time>
      </trkpt>
      <trkpt lat="48.8511" lon="6.92991">
        <ele>231</ele>
        <time>2014-06-01T11:46:31Z</time>
      </trkpt>
      <trkpt lat="48.85133" lon="6.92988">
        <ele>236</ele>
        <time>2014-06-01T11:46:36Z</time>
      </trkpt>
      <trkpt lat="48.85157" lon="6.92988">
        <ele>242</ele>
        <time>2014-06-01T11:46:41Z</time>
      </trkpt>
      <trkpt lat="48.85178" lon="6.9299">
        <ele>244</ele>
        <time>2014-06-01T11:46:46Z</time>
      </trkpt>
      <trkpt lat="48.85205" lon="6.92994">
        <ele>242</ele>
        <time>2014-06-01T11:46:51Z</time>
      </trkpt>
      <trkpt lat="48.85235" lon="6.92997">
        <ele>237</ele>
        <time>2014-06-01T11:46:56Z</time>
      </trkpt>
      <trkpt lat="48.85262" lon="6.92999">
        <ele>233</ele>
        <time>2014-06-01T11:47:01Z</time>
      </trkpt>
      <trkpt lat="48.85291" lon="6.93003">
        <ele>232</ele>
        <time>2014-06-01T11:47:06Z</time>
      </trkpt>
      <trkpt lat="48.85321" lon="6.93005">
        <ele>229</ele>
        <time>2014-06-01T11:47:11Z</time>
      </trkpt>
      <trkpt lat="48.85349" lon="6.93007">
        <ele>227</ele>
        <time>2014-06-01T11:47:16Z</time>
      </trkpt>
      <trkpt lat="48.85375" lon="6.93013">
        <ele>227</ele>
        <time>2014-06-01T11:47:21Z</time>
      </trkpt>
      <trkpt lat="48.85399" lon="6.93022">
        <ele>227</ele>
        <time>2014-06-01T11:47:26Z</time>
      </trkpt>
      <trkpt lat="48.85424" lon="6.93033">
        <ele>229</ele>
        <time>2014-06-01T11:47:31Z</time>
      </trkpt>
      <trkpt lat="48.85451" lon="6.93046">
        <ele>232</ele>
        <time>2014-06-01T11:47:36Z</time>
      </trkpt>
      <trkpt lat="48.85474" lon="6.93064">
        <ele>234</ele>
        <time>2014-06-01T11:47:41Z</time>
      </trkpt>
      <trkpt lat="48.85493" lon="6.93079">
        <ele>234</ele>
        <time>2014-06-01T11:47:46Z</time>
      </trkpt>
      <trkpt lat="48.85507" lon="6.93091">
        <ele>234</ele>
        <time>2014-06-01T11:47:51Z</time>
      </trkpt>
      <trkpt lat="48.8552" lon="6.93102">
        <ele>234</ele>
        <time>2014-06-01T11:47:56Z</time>
      </trkpt>
      <trkpt lat="48.85538" lon="6.93122">
        <ele>234</ele>
        <time>2014-06-01T11:48:01Z</time>
      </trkpt>
      <trkpt lat="48.8556" lon="6.93148">
        <ele>234</ele>
        <time>2014-06-01T11:48:06Z</time>
      </trkpt>
      <trkpt lat="48.85582" lon="6.93175">
        <ele>234</ele>
        <time>2014-06-01T11:48:11Z</time>
      </trkpt>
      <trkpt lat="48.85604" lon="6.93202">
        <ele>234</ele>
        <time>2014-06-01T11:48:16Z</time>
      </trkpt>
      <trkpt lat="48.85623" lon="6.93225">
        <ele>234</ele>
        <time>2014-06-01T11:48:21Z</time>
      </trkpt>
      <trkpt lat="48.85637" lon="6.93246">
        <ele>234</ele>
        <time>2014-06-01T11:48:26Z</time>
      </trkpt>
      <trkpt lat="48.85656" lon="6.93269">
        <ele>234</ele>
        <time>2014-06-01T11:48:31Z</time>
      </trkpt>
      <trkpt lat="48.85676" lon="6.93291">
        <ele>234</ele>
        <time>2014-06-01T11:48:36Z</time>
      </trkpt>
      <trkpt lat="48.85698" lon="6.93311">
        <ele>234</ele>
        <time>2014-06-01T11:48:41Z</time>
      </trkpt>
      <trkpt lat="48.85722" lon="6.93329">
        <ele>234</ele>
        <time>2014-06-01T11:48:46Z</time>
      </trkpt>
      <trkpt lat="48.85748" lon="6.93344">
        <ele>233</ele>
        <time>2014-06-01T11:48:51Z</time>
      </trkpt>
      <trkpt lat="48.85774" lon="6.93359">
        <ele>231</ele>
        <time>2014-06-01T11:48:56Z</time>
      </trkpt>
      <trkpt lat="48.85799" lon="6.93368">
        <ele>231</ele>
        <time>2014-06-01T11:49:01Z</time>
      </trkpt>
      <trkpt lat="48.85821" lon="6.93374">
        <ele>231</ele>
        <time>2014-06-01T11:49:06Z</time>
      </trkpt>
      <trkpt lat="48.85847" lon="6.93378">
        <ele>231</ele>
        <time>2014-06-01T11:49:11Z</time>
      </trkpt>
      <trkpt lat="48.8587" lon="6.9338">
        <ele>231</ele>
        <time>2014-06-01T11:49:16Z</time>
      </trkpt>
      <trkpt lat="48.85896" lon="6.93378">
        <ele>231</ele>
        <time>2014-06-01T11:49:21Z</time>
      </trkpt>
      <trkpt lat="48.85918" lon="6.93374">
        <ele>231</ele>
        <time>2014-06-01T11:49:26Z</time>
      </trkpt>
      <trkpt lat="48.85936" lon="6.9337">
        <ele>231</ele>
        <time>2014-06-01T11:49:31Z</time>
      </trkpt>
      <trkpt lat="48.85958" lon="6.93366">
        <ele>231</ele>
        <time>2014-06-01T11:49:36Z</time>
      </trkpt>
      <trkpt lat="48.85981" lon="6.93364">
        <ele>231</ele>
        <time>2014-06-01T11:49:41Z</time>
      </trkpt>
      <trkpt lat="48.85999" lon="6.9336">
        <ele>230</ele>
        <time>2014-06-01T11:49:46Z</time>
      </trkpt>
      <trkpt lat="48.86015" lon="6.9335">
        <ele>229</ele>
        <time>2014-06-01T11:49:51Z</time>
      </trkpt>
      <trkpt lat="48.86041" lon="6.93347">
        <ele>227</ele>
        <time>2014-06-01T11:49:56Z</time>
      </trkpt>
      <trkpt lat="48.86063" lon="6.93349">
        <ele>227</ele>
        <time>2014-06-01T11:50:01Z</time>
      </trkpt>
      <trkpt lat="48.86084" lon="6.93347">
        <ele>227</ele>
        <time>2014-06-01T11:50:06Z</time>
      </trkpt>
      <trkpt lat="48.86111" lon="6.9334">
        <ele>225</ele>
        <time>2014-06-01T11:50:11Z</time>
      </trkpt>
      <trkpt lat="48.8614" lon="6.93333">
        <ele>224</ele>
        <time>2014-06-01T11:50:16Z</time>
      </trkpt>
      <trkpt lat="48.8617" lon="6.93327">
        <ele>224</ele>
        <time>2014-06-01T11:50:21Z</time>
      </trkpt>
      <trkpt lat="48.86199" lon="6.9332">
        <ele>224</ele>
        <time>2014-06-01T11:50:26Z</time>
      </trkpt>
      <trkpt lat="48.86228" lon="6.93314">
        <ele>223</ele>
        <time>2014-06-01T11:50:31Z</time>
      </trkpt>
      <trkpt lat="48.86257" lon="6.93308">
        <ele>223</ele>
        <time>2014-06-01T11:50:36Z</time>
      </trkpt>
      <trkpt lat="48.86285" lon="6.93308">
        <ele>222</ele>
        <time>2014-06-01T11:50:41Z</time>
      </trkpt>
      <trkpt lat="48.86308" lon="6.93315">
        <ele>222</ele>
        <time>2014-06-01T11:50:46Z</time>
      </trkpt>
      <trkpt lat="48.86332" lon="6.93332">
        <ele>222</ele>
        <time>2014-06-01T11:50:51Z</time>
      </trkpt>
      <trkpt lat="48.86355" lon="6.93354">
        <ele>223</ele>
        <time>2014-06-01T11:50:56Z</time>
      </trkpt>
      <trkpt lat="48.86375" lon="6.93379">
        <ele>223</ele>
        <time>2014-06-01T11:51:01Z</time>
      </trkpt>
      <trkpt lat="48.86393" lon="6.93406">
        <ele>223</ele>
        <time>2014-06-01T11:51:06Z</time>
      </trkpt>
      <trkpt lat="48.86409" lon="6.93431">
        <ele>223</ele>
        <time>2014-06-01T11:51:11Z</time>
      </trkpt>
      <trkpt lat="48.86422" lon="6.93451">
        <ele>223</ele>
        <time>2014-06-01T11:51:16Z</time>
      </trkpt>
      <trkpt lat="48.86441" lon="6.93457">
        <ele>223</ele>
        <time>2014-06-01T11:51:21Z</time>
      </trkpt>
      <trkpt lat="48.86459" lon="6.93479">
        <ele>223</ele>
        <time>2014-06-01T11:51:26Z</time>
      </trkpt>
      <trkpt lat="48.86475" lon="6.93503">
        <ele>223</ele>
        <time>2014-06-01T11:51:31Z</time>
      </trkpt>
      <trkpt lat="48.8649" lon="6.93524">
        <ele>223</ele>
        <time>2014-06-01T11:51:36Z</time>
      </trkpt>
      <trkpt lat="48.86507" lon="6.93546">
        <ele>223</ele>
        <time>2014-06-01T11:51:41Z</time>
      </trkpt>
      <trkpt lat="48.86522" lon="6.93573">
        <ele>223</ele>
        <time>2014-06-01T11:51:46Z</time>
      </trkpt>
      <trkpt lat="48.86533" lon="6.93605">
        <ele>223</ele>
        <time>2014-06-01T11:51:51Z</time>
      </trkpt>
      <trkpt lat="48.8654" lon="6.9364">
        <ele>222</ele>
        <time>2014-06-01T11:51:56Z</time>
      </trkpt>
      <trkpt lat="48.86548" lon="6.93671">
        <ele>221</ele>
        <time>2014-06-01T11:52:01Z</time>
      </trkpt>
      <trkpt lat="48.86552" lon="6.93702">
        <ele>219</ele>
        <time>2014-06-01T11:52:06Z</time>
      </trkpt>
      <trkpt lat="48.86558" lon="6.93731">
        <ele>219</ele>
        <time>2014-06-01T11:52:11Z</time>
      </trkpt>
      <trkpt lat="48.86567" lon="6.9377">
        <ele>217</ele>
        <time>2014-06-01T11:52:16Z</time>
      </trkpt>
      <trkpt lat="48.86576" lon="6.93816">
        <ele>216</ele>
        <time>2014-06-01T11:52:21Z</time>
      </trkpt>
      <trkpt lat="48.86586" lon="6.93861">
        <ele>216</ele>
        <time>2014-06-01T11:52:26Z</time>
      </trkpt>
      <trkpt lat="48.86595" lon="6.93902">
        <ele>216</ele>
        <time>2014-06-01T11:52:31Z</time>
      </trkpt>
      <trkpt lat="48.86605" lon="6.93934">
        <ele>216</ele>
        <time>2014-06-01T11:52:36Z</time>
      </trkpt>
      <trkpt lat="48.86616" lon="6.93968">
        <ele>216</ele>
        <time>2014-06-01T11:52:41Z</time>
      </trkpt>
      <trkpt lat="48.8663" lon="6.94002">
        <ele>215</ele>
        <time>2014-06-01T11:52:46Z</time>
      </trkpt>
      <trkpt lat="48.86644" lon="6.94031">
        <ele>215</ele>
        <time>2014-06-01T11:52:51Z</time>
      </trkpt>
      <trkpt lat="48.86656" lon="6.94054">
        <ele>214</ele>
        <time>2014-06-01T11:52:56Z</time>
      </trkpt>
      <trkpt lat="48.86666" lon="6.94068">
        <ele>214</ele>
        <time>2014-06-01T11:53:01Z</time>
      </trkpt>
      <trkpt lat="48.8667" lon="6.94076">
        <ele>214</ele>
        <time>2014-06-01T11:53:08Z</time>
      </trkpt>
      <trkpt lat="48.86665" lon="6.94073">
        <ele>214</ele>
        <time>2014-06-01T11:53:14Z</time>
      </trkpt>
      <trkpt lat="48.86668" lon="6.9408">
        <ele>247</ele>
        <time>2014-06-01T11:53:25Z</time>
      </trkpt>
      <trkpt lat="48.86677" lon="6.94086">
        <ele>217</ele>
        <time>2014-06-01T11:53:30Z</time>
      </trkpt>
      <trkpt lat="48.86689" lon="6.94104">
        <ele>217</ele>
        <time>2014-06-01T11:53:35Z</time>
      </trkpt>
      <trkpt lat="48.86706" lon="6.94124">
        <ele>217</ele>
        <time>2014-06-01T11:53:40Z</time>
      </trkpt>
      <trkpt lat="48.86723" lon="6.94141">
        <ele>217</ele>
        <time>2014-06-01T11:53:45Z</time>
      </trkpt>
      <trkpt lat="48.86739" lon="6.94155">
        <ele>217</ele>
        <time>2014-06-01T11:53:50Z</time>
      </trkpt>
      <trkpt lat="48.86761" lon="6.94173">
        <ele>217</ele>
        <time>2014-06-01T11:53:55Z</time>
      </trkpt>
      <trkpt lat="48.86781" lon="6.94187">
        <ele>217</ele>
        <time>2014-06-01T11:54:00Z</time>
      </trkpt>
      <trkpt lat="48.86804" lon="6.94201">
        <ele>217</ele>
        <time>2014-06-01T11:54:05Z</time>
      </trkpt>
      <trkpt lat="48.86829" lon="6.94213">
        <ele>217</ele>
        <time>2014-06-01T11:54:10Z</time>
      </trkpt>
      <trkpt lat="48.86853" lon="6.94222">
        <ele>219</ele>
        <time>2014-06-01T11:54:15Z</time>
      </trkpt>
      <trkpt lat="48.86877" lon="6.9423">
        <ele>221</ele>
        <time>2014-06-01T11:54:20Z</time>
      </trkpt>
      <trkpt lat="48.86903" lon="6.94237">
        <ele>223</ele>
        <time>2014-06-01T11:54:25Z</time>
      </trkpt>
      <trkpt lat="48.8693" lon="6.94245">
        <ele>224</ele>
        <time>2014-06-01T11:54:30Z</time>
      </trkpt>
      <trkpt lat="48.86957" lon="6.94252">
        <ele>225</ele>
        <time>2014-06-01T11:54:35Z</time>
      </trkpt>
      <trkpt lat="48.86985" lon="6.9426">
        <ele>225</ele>
        <time>2014-06-01T11:54:40Z</time>
      </trkpt>
      <trkpt lat="48.87011" lon="6.94267">
        <ele>225</ele>
        <time>2014-06-01T11:54:45Z</time>
      </trkpt>
      <trkpt lat="48.87037" lon="6.94275">
        <ele>226</ele>
        <time>2014-06-01T11:54:50Z</time>
      </trkpt>
      <trkpt lat="48.87063" lon="6.94283">
        <ele>227</ele>
        <time>2014-06-01T11:54:55Z</time>
      </trkpt>
      <trkpt lat="48.87089" lon="6.94293">
        <ele>227</ele>
        <time>2014-06-01T11:55:00Z</time>
      </trkpt>
      <trkpt lat="48.87115" lon="6.94305">
        <ele>227</ele>
        <time>2014-06-01T11:55:05Z</time>
      </trkpt>
      <trkpt lat="48.87143" lon="6.9432">
        <ele>227</ele>
        <time>2014-06-01T11:55:11Z</time>
      </trkpt>
      <trkpt lat="48.87173" lon="6.9434">
        <ele>227</ele>
        <time>2014-06-01T11:55:16Z</time>
      </trkpt>
      <trkpt lat="48.87197" lon="6.94359">
        <ele>227</ele>
        <time>2014-06-01T11:55:21Z</time>
      </trkpt>
      <trkpt lat="48.87221" lon="6.9438">
        <ele>226</ele>
        <time>2014-06-01T11:55:26Z</time>
      </trkpt>
      <trkpt lat="48.87244" lon="6.94404">
        <ele>224</ele>
        <time>2014-06-01T11:55:31Z</time>
      </trkpt>
      <trkpt lat="48.87267" lon="6.94429">
        <ele>224</ele>
        <time>2014-06-01T11:55:36Z</time>
      </trkpt>
      <trkpt lat="48.87287" lon="6.94457">
        <ele>224</ele>
        <time>2014-06-01T11:55:41Z</time>
      </trkpt>
      <trkpt lat="48.87307" lon="6.94486">
        <ele>224</ele>
        <time>2014-06-01T11:55:46Z</time>
      </trkpt>
      <trkpt lat="48.87328" lon="6.94515">
        <ele>223</ele>
        <time>2014-06-01T11:55:51Z</time>
      </trkpt>
      <trkpt lat="48.87348" lon="6.94546">
        <ele>219</ele>
        <time>2014-06-01T11:55:56Z</time>
      </trkpt>
      <trkpt lat="48.87364" lon="6.94579">
        <ele>218</ele>
        <time>2014-06-01T11:56:01Z</time>
      </trkpt>
      <trkpt lat="48.87378" lon="6.94614">
        <ele>218</ele>
        <time>2014-06-01T11:56:06Z</time>
      </trkpt>
      <trkpt lat="48.8739" lon="6.94651">
        <ele>218</ele>
        <time>2014-06-01T11:56:11Z</time>
      </trkpt>
      <trkpt lat="48.87403" lon="6.94687">
        <ele>218</ele>
        <time>2014-06-01T11:56:16Z</time>
      </trkpt>
      <trkpt lat="48.87414" lon="6.94726">
        <ele>218</ele>
        <time>2014-06-01T11:56:21Z</time>
      </trkpt>
      <trkpt lat="48.87425" lon="6.94764">
        <ele>218</ele>
        <time>2014-06-01T11:56:26Z</time>
      </trkpt>
      <trkpt lat="48.87432" lon="6.94805">
        <ele>218</ele>
        <time>2014-06-01T11:56:31Z</time>
      </trkpt>
      <trkpt lat="48.87437" lon="6.94847">
        <ele>216</ele>
        <time>2014-06-01T11:56:36Z</time>
      </trkpt>
      <trkpt lat="48.87442" lon="6.94888">
        <ele>215</ele>
        <time>2014-06-01T11:56:41Z</time>
      </trkpt>
      <trkpt lat="48.87445" lon="6.9493">
        <ele>215</ele>
        <time>2014-06-01T11:56:46Z</time>
      </trkpt>
      <trkpt lat="48.87447" lon="6.94971">
        <ele>215</ele>
        <time>2014-06-01T11:56:51Z</time>
      </trkpt>
      <trkpt lat="48.87447" lon="6.95011">
        <ele>215</ele>
        <time>2014-06-01T11:56:56Z</time>
      </trkpt>
      <trkpt lat="48.87449" lon="6.95051">
        <ele>215</ele>
        <time>2014-06-01T11:57:01Z</time>
      </trkpt>
      <trkpt lat="48.8745" lon="6.95092">
        <ele>217</ele>
        <time>2014-06-01T11:57:06Z</time>
      </trkpt>
      <trkpt lat="48.8745" lon="6.95133">
        <ele>218</ele>
        <time>2014-06-01T11:57:11Z</time>
      </trkpt>
      <trkpt lat="48.87451" lon="6.95171">
        <ele>218</ele>
        <time>2014-06-01T11:57:16Z</time>
      </trkpt>
      <trkpt lat="48.87451" lon="6.95212">
        <ele>218</ele>
        <time>2014-06-01T11:57:21Z</time>
      </trkpt>
      <trkpt lat="48.87453" lon="6.95252">
        <ele>218</ele>
        <time>2014-06-01T11:57:26Z</time>
      </trkpt>
      <trkpt lat="48.87455" lon="6.95293">
        <ele>218</ele>
        <time>2014-06-01T11:57:31Z</time>
      </trkpt>
      <trkpt lat="48.87461" lon="6.95334">
        <ele>218</ele>
        <time>2014-06-01T11:57:36Z</time>
      </trkpt>
      <trkpt lat="48.87466" lon="6.95376">
        <ele>218</ele>
        <time>2014-06-01T11:57:41Z</time>
      </trkpt>
      <trkpt lat="48.87474" lon="6.95413">
        <ele>218</ele>
        <time>2014-06-01T11:57:46Z</time>
      </trkpt>
      <trkpt lat="48.87485" lon="6.95449">
        <ele>218</ele>
        <time>2014-06-01T11:57:51Z</time>
      </trkpt>
      <trkpt lat="48.87497" lon="6.95484">
        <ele>217</ele>
        <time>2014-06-01T11:57:56Z</time>
      </trkpt>
      <trkpt lat="48.87509" lon="6.95522">
        <ele>216</ele>
        <time>2014-06-01T11:58:01Z</time>
      </trkpt>
      <trkpt lat="48.87522" lon="6.95559">
        <ele>216</ele>
        <time>2014-06-01T11:58:06Z</time>
      </trkpt>
      <trkpt lat="48.87537" lon="6.95599">
        <ele>216</ele>
        <time>2014-06-01T11:58:11Z</time>
      </trkpt>
      <trkpt lat="48.87556" lon="6.95631">
        <ele>216</ele>
        <time>2014-06-01T11:58:16Z</time>
      </trkpt>
      <trkpt lat="48.87575" lon="6.95662">
        <ele>214</ele>
        <time>2014-06-01T11:58:21Z</time>
      </trkpt>
      <trkpt lat="48.87593" lon="6.95694">
        <ele>214</ele>
        <time>2014-06-01T11:58:26Z</time>
      </trkpt>
      <trkpt lat="48.87615" lon="6.95722">
        <ele>214</ele>
        <time>2014-06-01T11:58:31Z</time>
      </trkpt>
      <trkpt lat="48.87635" lon="6.95751">
        <ele>214</ele>
        <time>2014-06-01T11:58:36Z</time>
      </trkpt>
      <trkpt lat="48.87653" lon="6.95779">
        <ele>214</ele>
        <time>2014-06-01T11:58:41Z</time>
      </trkpt>
      <trkpt lat="48.87673" lon="6.95808">
        <ele>214</ele>
        <time>2014-06-01T11:58:46Z</time>
      </trkpt>
      <trkpt lat="48.87692" lon="6.95837">
        <ele>214</ele>
        <time>2014-06-01T11:58:51Z</time>
      </trkpt>
      <trkpt lat="48.87711" lon="6.95867">
        <ele>215</ele>
        <time>2014-06-01T11:58:56Z</time>
      </trkpt>
      <trkpt lat="48.87725" lon="6.95891">
        <ele>215</ele>
        <time>2014-06-01T11:59:01Z</time>
      </trkpt>
      <trkpt lat="48.87743" lon="6.95915">
        <ele>215</ele>
        <time>2014-06-01T11:59:06Z</time>
      </trkpt>
      <trkpt lat="48.87758" lon="6.9594">
        <ele>215</ele>
        <time>2014-06-01T11:59:11Z</time>
      </trkpt>
      <trkpt lat="48.87762" lon="6.95954">
        <ele>215</ele>
        <time>2014-06-01T11:59:16Z</time>
      </trkpt>
      <trkpt lat="48.87774" lon="6.95967">
        <ele>215</ele>
        <time>2014-06-01T11:59:21Z</time>
      </trkpt>
      <trkpt lat="48.87798" lon="6.95998">
        <ele>214</ele>
        <time>2014-06-01T11:59:27Z</time>
      </trkpt>
      <trkpt lat="48.8782" lon="6.96029">
        <ele>211</ele>
        <time>2014-06-01T11:59:32Z</time>
      </trkpt>
      <trkpt lat="48.87843" lon="6.96063">
        <ele>211</ele>
        <time>2014-06-01T11:59:37Z</time>
      </trkpt>
      <trkpt lat="48.87864" lon="6.96093">
        <ele>210</ele>
        <time>2014-06-01T11:59:42Z</time>
      </trkpt>
      <trkpt lat="48.87885" lon="6.96123">
        <ele>209</ele>
        <time>2014-06-01T11:59:47Z</time>
      </trkpt>
      <trkpt lat="48.87904" lon="6.96153">
        <ele>209</ele>
        <time>2014-06-01T11:59:52Z</time>
      </trkpt>
      <trkpt lat="48.87923" lon="6.96182">
        <ele>209</ele>
        <time>2014-06-01T11:59:57Z</time>
      </trkpt>
      <trkpt lat="48.87943" lon="6.9621">
        <ele>209</ele>
        <time>2014-06-01T12:00:02Z</time>
      </trkpt>
      <trkpt lat="48.87966" lon="6.96239">
        <ele>207</ele>
        <time>2014-06-01T12:00:07Z</time>
      </trkpt>
      <trkpt lat="48.87987" lon="6.96266">
        <ele>202</ele>
        <time>2014-06-01T12:00:12Z</time>
      </trkpt>
      <trkpt lat="48.88008" lon="6.96295">
        <ele>200</ele>
        <time>2014-06-01T12:00:17Z</time>
      </trkpt>
      <trkpt lat="48.88028" lon="6.96323">
        <ele>200</ele>
        <time>2014-06-01T12:00:22Z</time>
      </trkpt>
      <trkpt lat="48.88049" lon="6.96351">
        <ele>200</ele>
        <time>2014-06-01T12:00:27Z</time>
      </trkpt>
      <trkpt lat="48.88071" lon="6.96379">
        <ele>197</ele>
        <time>2014-06-01T12:00:32Z</time>
      </trkpt>
      <trkpt lat="48.8809" lon="6.9641">
        <ele>197</ele>
        <time>2014-06-01T12:00:37Z</time>
      </trkpt>
      <trkpt lat="48.88108" lon="6.96443">
        <ele>198</ele>
        <time>2014-06-01T12:00:42Z</time>
      </trkpt>
      <trkpt lat="48.88128" lon="6.96476">
        <ele>203</ele>
        <time>2014-06-01T12:00:47Z</time>
      </trkpt>
      <trkpt lat="48.88147" lon="6.96505">
        <ele>208</ele>
        <time>2014-06-01T12:00:52Z</time>
      </trkpt>
      <trkpt lat="48.88164" lon="6.9653">
        <ele>211</ele>
        <time>2014-06-01T12:00:57Z</time>
      </trkpt>
      <trkpt lat="48.88184" lon="6.9656">
        <ele>215</ele>
        <time>2014-06-01T12:01:02Z</time>
      </trkpt>
      <trkpt lat="48.88207" lon="6.96586">
        <ele>215</ele>
        <time>2014-06-01T12:01:07Z</time>
      </trkpt>
      <trkpt lat="48.88229" lon="6.96611">
        <ele>215</ele>
        <time>2014-06-01T12:01:12Z</time>
      </trkpt>
      <trkpt lat="48.88253" lon="6.96638">
        <ele>215</ele>
        <time>2014-06-01T12:01:17Z</time>
      </trkpt>
      <trkpt lat="48.88276" lon="6.96664">
        <ele>215</ele>
        <time>2014-06-01T12:01:22Z</time>
      </trkpt>
      <trkpt lat="48.88299" lon="6.96691">
        <ele>215</ele>
        <time>2014-06-01T12:01:27Z</time>
      </trkpt>
      <trkpt lat="48.8832" lon="6.96716">
        <ele>215</ele>
        <time>2014-06-01T12:01:32Z</time>
      </trkpt>
      <trkpt lat="48.88342" lon="6.96743">
        <ele>215</ele>
        <time>2014-06-01T12:01:37Z</time>
      </trkpt>
      <trkpt lat="48.88364" lon="6.9677">
        <ele>215</ele>
        <time>2014-06-01T12:01:42Z</time>
      </trkpt>
      <trkpt lat="48.88386" lon="6.96797">
        <ele>214</ele>
        <time>2014-06-01T12:01:47Z</time>
      </trkpt>
      <trkpt lat="48.88407" lon="6.96824">
        <ele>214</ele>
        <time>2014-06-01T12:01:52Z</time>
      </trkpt>
      <trkpt lat="48.88427" lon="6.96852">
        <ele>214</ele>
        <time>2014-06-01T12:01:57Z</time>
      </trkpt>
      <trkpt lat="48.8845" lon="6.96879">
        <ele>214</ele>
        <time>2014-06-01T12:02:02Z</time>
      </trkpt>
      <trkpt lat="48.88474" lon="6.96906">
        <ele>214</ele>
        <time>2014-06-01T12:02:07Z</time>
      </trkpt>
      <trkpt lat="48.88494" lon="6.96934">
        <ele>214</ele>
        <time>2014-06-01T12:02:12Z</time>
      </trkpt>
      <trkpt lat="48.88517" lon="6.96959">
        <ele>214</ele>
        <time>2014-06-01T12:02:17Z</time>
      </trkpt>
      <trkpt lat="48.88537" lon="6.96987">
        <ele>214</ele>
        <time>2014-06-01T12:02:22Z</time>
      </trkpt>
      <trkpt lat="48.88555" lon="6.97014">
        <ele>216</ele>
        <time>2014-06-01T12:02:27Z</time>
      </trkpt>
      <trkpt lat="48.88579" lon="6.97039">
        <ele>218</ele>
        <time>2014-06-01T12:02:32Z</time>
      </trkpt>
      <trkpt lat="48.88602" lon="6.97066">
        <ele>218</ele>
        <time>2014-06-01T12:02:37Z</time>
      </trkpt>
      <trkpt lat="48.88624" lon="6.97092">
        <ele>218</ele>
        <time>2014-06-01T12:02:42Z</time>
      </trkpt>
      <trkpt lat="48.88642" lon="6.97121">
        <ele>214</ele>
        <time>2014-06-01T12:02:47Z</time>
      </trkpt>
      <trkpt lat="48.88657" lon="6.97149">
        <ele>212</ele>
        <time>2014-06-01T12:02:52Z</time>
      </trkpt>
      <trkpt lat="48.88672" lon="6.97182">
        <ele>211</ele>
        <time>2014-06-01T12:02:57Z</time>
      </trkpt>
      <trkpt lat="48.88687" lon="6.97219">
        <ele>211</ele>
        <time>2014-06-01T12:03:02Z</time>
      </trkpt>
      <trkpt lat="48.887" lon="6.97258">
        <ele>211</ele>
        <time>2014-06-01T12:03:07Z</time>
      </trkpt>
      <trkpt lat="48.88712" lon="6.97297">
        <ele>211</ele>
        <time>2014-06-01T12:03:12Z</time>
      </trkpt>
      <trkpt lat="48.88723" lon="6.97337">
        <ele>211</ele>
        <time>2014-06-01T12:03:17Z</time>
      </trkpt>
      <trkpt lat="48.88733" lon="6.97378">
        <ele>211</ele>
        <time>2014-06-01T12:03:22Z</time>
      </trkpt>
      <trkpt lat="48.88742" lon="6.9742">
        <ele>211</ele>
        <time>2014-06-01T12:03:27Z</time>
      </trkpt>
      <trkpt lat="48.88747" lon="6.97463">
        <ele>211</ele>
        <time>2014-06-01T12:03:32Z</time>
      </trkpt>
      <trkpt lat="48.88752" lon="6.97504">
        <ele>211</ele>
        <time>2014-06-01T12:03:37Z</time>
      </trkpt>
      <trkpt lat="48.88757" lon="6.97546">
        <ele>213</ele>
        <time>2014-06-01T12:03:42Z</time>
      </trkpt>
      <trkpt lat="48.8876" lon="6.97587">
        <ele>214</ele>
        <time>2014-06-01T12:03:47Z</time>
      </trkpt>
      <trkpt lat="48.88765" lon="6.9763">
        <ele>215</ele>
        <time>2014-06-01T12:03:52Z</time>
      </trkpt>
      <trkpt lat="48.8877" lon="6.97671">
        <ele>216</ele>
        <time>2014-06-01T12:03:57Z</time>
      </trkpt>
      <trkpt lat="48.88773" lon="6.97708">
        <ele>217</ele>
        <time>2014-06-01T12:04:02Z</time>
      </trkpt>
      <trkpt lat="48.8878" lon="6.97752">
        <ele>217</ele>
        <time>2014-06-01T12:04:07Z</time>
      </trkpt>
      <trkpt lat="48.88788" lon="6.97794">
        <ele>217</ele>
        <time>2014-06-01T12:04:12Z</time>
      </trkpt>
      <trkpt lat="48.888" lon="6.97835">
        <ele>217</ele>
        <time>2014-06-01T12:04:17Z</time>
      </trkpt>
      <trkpt lat="48.88812" lon="6.97874">
        <ele>217</ele>
        <time>2014-06-01T12:04:22Z</time>
      </trkpt>
      <trkpt lat="48.88825" lon="6.97911">
        <ele>217</ele>
        <time>2014-06-01T12:04:27Z</time>
      </trkpt>
      <trkpt lat="48.88837" lon="6.97948">
        <ele>217</ele>
        <time>2014-06-01T12:04:32Z</time>
      </trkpt>
      <trkpt lat="48.88853" lon="6.97982">
        <ele>214</ele>
        <time>2014-06-01T12:04:37Z</time>
      </trkpt>
      <trkpt lat="48.88867" lon="6.98011">
        <ele>212</ele>
        <time>2014-06-01T12:04:42Z</time>
      </trkpt>
      <trkpt lat="48.88884" lon="6.98045">
        <ele>212</ele>
        <time>2014-06-01T12:04:47Z</time>
      </trkpt>
      <trkpt lat="48.88903" lon="6.98073">
        <ele>212</ele>
        <time>2014-06-01T12:04:52Z</time>
      </trkpt>
      <trkpt lat="48.88921" lon="6.98103">
        <ele>216</ele>
        <time>2014-06-01T12:04:57Z</time>
      </trkpt>
      <trkpt lat="48.88943" lon="6.98131">
        <ele>219</ele>
        <time>2014-06-01T12:05:02Z</time>
      </trkpt>
      <trkpt lat="48.88964" lon="6.98161">
        <ele>219</ele>
        <time>2014-06-01T12:05:07Z</time>
      </trkpt>
      <trkpt lat="48.88986" lon="6.98188">
        <ele>220</ele>
        <time>2014-06-01T12:05:12Z</time>
      </trkpt>
      <trkpt lat="48.89008" lon="6.98216">
        <ele>220</ele>
        <time>2014-06-01T12:05:17Z</time>
      </trkpt>
      <trkpt lat="48.89029" lon="6.98243">
        <ele>220</ele>
        <time>2014-06-01T12:05:22Z</time>
      </trkpt>
      <trkpt lat="48.89056" lon="6.98268">
        <ele>220</ele>
        <time>2014-06-01T12:05:27Z</time>
      </trkpt>
      <trkpt lat="48.89076" lon="6.98295">
        <ele>220</ele>
        <time>2014-06-01T12:05:32Z</time>
      </trkpt>
      <trkpt lat="48.89098" lon="6.98322">
        <ele>220</ele>
        <time>2014-06-01T12:05:37Z</time>
      </trkpt>
      <trkpt lat="48.89116" lon="6.98351">
        <ele>220</ele>
        <time>2014-06-01T12:05:42Z</time>
      </trkpt>
      <trkpt lat="48.89134" lon="6.9838">
        <ele>220</ele>
        <time>2014-06-01T12:05:47Z</time>
      </trkpt>
      <trkpt lat="48.89151" lon="6.98411">
        <ele>219</ele>
        <time>2014-06-01T12:05:52Z</time>
      </trkpt>
      <trkpt lat="48.8917" lon="6.98439">
        <ele>218</ele>
        <time>2014-06-01T12:05:57Z</time>
      </trkpt>
      <trkpt lat="48.89193" lon="6.98464">
        <ele>218</ele>
        <time>2014-06-01T12:06:02Z</time>
      </trkpt>
      <trkpt lat="48.89214" lon="6.98489">
        <ele>218</ele>
        <time>2014-06-01T12:06:07Z</time>
      </trkpt>
      <trkpt lat="48.89234" lon="6.98515">
        <ele>218</ele>
        <time>2014-06-01T12:06:12Z</time>
      </trkpt>
      <trkpt lat="48.89255" lon="6.98542">
        <ele>218</ele>
        <time>2014-06-01T12:06:17Z</time>
      </trkpt>
      <trkpt lat="48.89276" lon="6.9857">
        <ele>218</ele>
        <time>2014-06-01T12:06:22Z</time>
      </trkpt>
      <trkpt lat="48.89297" lon="6.98598">
        <ele>217</ele>
        <time>2014-06-01T12:06:27Z</time>
      </trkpt>
      <trkpt lat="48.89319" lon="6.98627">
        <ele>213</ele>
        <time>2014-06-01T12:06:32Z</time>
      </trkpt>
      <trkpt lat="48.89341" lon="6.98657">
        <ele>210</ele>
        <time>2014-06-01T12:06:37Z</time>
      </trkpt>
      <trkpt lat="48.89363" lon="6.98685">
        <ele>210</ele>
        <time>2014-06-01T12:06:42Z</time>
      </trkpt>
      <trkpt lat="48.89385" lon="6.98711">
        <ele>210</ele>
        <time>2014-06-01T12:06:47Z</time>
      </trkpt>
      <trkpt lat="48.89406" lon="6.98732">
        <ele>210</ele>
        <time>2014-06-01T12:06:52Z</time>
      </trkpt>
      <trkpt lat="48.89422" lon="6.98753">
        <ele>210</ele>
        <time>2014-06-01T12:06:57Z</time>
      </trkpt>
      <trkpt lat="48.8943" lon="6.98779">
        <ele>210</ele>
        <time>2014-06-01T12:07:02Z</time>
      </trkpt>
      <trkpt lat="48.89451" lon="6.98807">
        <ele>210</ele>
        <time>2014-06-01T12:07:07Z</time>
      </trkpt>
      <trkpt lat="48.89473" lon="6.98835">
        <ele>210</ele>
        <time>2014-06-01T12:07:12Z</time>
      </trkpt>
      <trkpt lat="48.89492" lon="6.98863">
        <ele>210</ele>
        <time>2014-06-01T12:07:17Z</time>
      </trkpt>
      <trkpt lat="48.89516" lon="6.98893">
        <ele>210</ele>
        <time>2014-06-01T12:07:22Z</time>
      </trkpt>
      <trkpt lat="48.89534" lon="6.98924">
        <ele>210</ele>
        <time>2014-06-01T12:07:27Z</time>
      </trkpt>
      <trkpt lat="48.89553" lon="6.98959">
        <ele>210</ele>
        <time>2014-06-01T12:07:32Z</time>
      </trkpt>
      <trkpt lat="48.89571" lon="6.98992">
        <ele>210</ele>
        <time>2014-06-01T12:07:37Z</time>
      </trkpt>
      <trkpt lat="48.89588" lon="6.99027">
        <ele>210</ele>
        <time>2014-06-01T12:07:42Z</time>
      </trkpt>
      <trkpt lat="48.89602" lon="6.99064">
        <ele>212</ele>
        <time>2014-06-01T12:07:47Z</time>
      </trkpt>
      <trkpt lat="48.89618" lon="6.99101">
        <ele>214</ele>
        <time>2014-06-01T12:07:52Z</time>
      </trkpt>
      <trkpt lat="48.89627" lon="6.99144">
        <ele>219</ele>
        <time>2014-06-01T12:07:57Z</time>
      </trkpt>
      <trkpt lat="48.89639" lon="6.99181">
        <ele>220</ele>
        <time>2014-06-01T12:08:02Z</time>
      </trkpt>
      <trkpt lat="48.89648" lon="6.99219">
        <ele>222</ele>
        <time>2014-06-01T12:08:07Z</time>
      </trkpt>
      <trkpt lat="48.89655" lon="6.99261">
        <ele>223</ele>
        <time>2014-06-01T12:08:12Z</time>
      </trkpt>
      <trkpt lat="48.89663" lon="6.99297">
        <ele>224</ele>
        <time>2014-06-01T12:08:17Z</time>
      </trkpt>
      <trkpt lat="48.8967" lon="6.99336">
        <ele>225</ele>
        <time>2014-06-01T12:08:22Z</time>
      </trkpt>
      <trkpt lat="48.89679" lon="6.9938">
        <ele>225</ele>
        <time>2014-06-01T12:08:27Z</time>
      </trkpt>
      <trkpt lat="48.89688" lon="6.9942">
        <ele>225</ele>
        <time>2014-06-01T12:08:32Z</time>
      </trkpt>
      <trkpt lat="48.89703" lon="6.99459">
        <ele>224</ele>
        <time>2014-06-01T12:08:37Z</time>
      </trkpt>
      <trkpt lat="48.89719" lon="6.99495">
        <ele>222</ele>
        <time>2014-06-01T12:08:42Z</time>
      </trkpt>
      <trkpt lat="48.89735" lon="6.99531">
        <ele>221</ele>
        <time>2014-06-01T12:08:47Z</time>
      </trkpt>
      <trkpt lat="48.89754" lon="6.9956">
        <ele>216</ele>
        <time>2014-06-01T12:08:52Z</time>
      </trkpt>
      <trkpt lat="48.89771" lon="6.9959">
        <ele>212</ele>
        <time>2014-06-01T12:08:57Z</time>
      </trkpt>
      <trkpt lat="48.89791" lon="6.99611">
        <ele>210</ele>
        <time>2014-06-01T12:09:02Z</time>
      </trkpt>
      <trkpt lat="48.89813" lon="6.99624">
        <ele>210</ele>
        <time>2014-06-01T12:09:07Z</time>
      </trkpt>
      <trkpt lat="48.8984" lon="6.9964">
        <ele>210</ele>
        <time>2014-06-01T12:09:12Z</time>
      </trkpt>
      <trkpt lat="48.89867" lon="6.99653">
        <ele>209</ele>
        <time>2014-06-01T12:09:17Z</time>
      </trkpt>
      <trkpt lat="48.89897" lon="6.99659">
        <ele>209</ele>
        <time>2014-06-01T12:09:22Z</time>
      </trkpt>
      <trkpt lat="48.89926" lon="6.99667">
        <ele>209</ele>
        <time>2014-06-01T12:09:27Z</time>
      </trkpt>
      <trkpt lat="48.89951" lon="6.99675">
        <ele>210</ele>
        <time>2014-06-01T12:09:32Z</time>
      </trkpt>
      <trkpt lat="48.89975" lon="6.99682">
        <ele>211</ele>
        <time>2014-06-01T12:09:37Z</time>
      </trkpt>
      <trkpt lat="48.89997" lon="6.99694">
        <ele>212</ele>
        <time>2014-06-01T12:09:42Z</time>
      </trkpt>
      <trkpt lat="48.90024" lon="6.99713">
        <ele>214</ele>
        <time>2014-06-01T12:09:47Z</time>
      </trkpt>
      <trkpt lat="48.90053" lon="6.99734">
        <ele>215</ele>
        <time>2014-06-01T12:09:52Z</time>
      </trkpt>
      <trkpt lat="48.90076" lon="6.99763">
        <ele>215</ele>
        <time>2014-06-01T12:09:57Z</time>
      </trkpt>
      <trkpt lat="48.90099" lon="6.99796">
        <ele>215</ele>
        <time>2014-06-01T12:10:02Z</time>
      </trkpt>
      <trkpt lat="48.90119" lon="6.99829">
        <ele>212</ele>
        <time>2014-06-01T12:10:07Z</time>
      </trkpt>
      <trkpt lat="48.9014" lon="6.99859">
        <ele>212</ele>
        <time>2014-06-01T12:10:12Z</time>
      </trkpt>
      <trkpt lat="48.90161" lon="6.99885">
        <ele>213</ele>
        <time>2014-06-01T12:10:17Z</time>
      </trkpt>
      <trkpt lat="48.90181" lon="6.99919">
        <ele>213</ele>
        <time>2014-06-01T12:10:22Z</time>
      </trkpt>
      <trkpt lat="48.902" lon="6.99954">
        <ele>213</ele>
        <time>2014-06-01T12:10:27Z</time>
      </trkpt>
      <trkpt lat="48.90218" lon="6.99987">
        <ele>212</ele>
        <time>2014-06-01T12:10:32Z</time>
      </trkpt>
      <trkpt lat="48.90231" lon="7.00023">
        <ele>212</ele>
        <time>2014-06-01T12:10:37Z</time>
      </trkpt>
      <trkpt lat="48.90244" lon="7.0006">
        <ele>212</ele>
        <time>2014-06-01T12:10:42Z</time>
      </trkpt>
      <trkpt lat="48.90256" lon="7.00097">
        <ele>212</ele>
        <time>2014-06-01T12:10:47Z</time>
      </trkpt>
      <trkpt lat="48.90267" lon="7.00138">
        <ele>212</ele>
        <time>2014-06-01T12:10:52Z</time>
      </trkpt>
      <trkpt lat="48.90272" lon="7.00173">
        <ele>212</ele>
        <time>2014-06-01T12:10:57Z</time>
      </trkpt>
      <trkpt lat="48.90276" lon="7.0021">
        <ele>212</ele>
        <time>2014-06-01T12:11:02Z</time>
      </trkpt>
      <trkpt lat="48.90281" lon="7.00248">
        <ele>213</ele>
        <time>2014-06-01T12:11:07Z</time>
      </trkpt>
      <trkpt lat="48.90287" lon="7.00289">
        <ele>214</ele>
        <time>2014-06-01T12:11:12Z</time>
      </trkpt>
      <trkpt lat="48.90292" lon="7.00328">
        <ele>214</ele>
        <time>2014-06-01T12:11:17Z</time>
      </trkpt>
      <trkpt lat="48.90292" lon="7.00362">
        <ele>214</ele>
        <time>2014-06-01T12:11:22Z</time>
      </trkpt>
      <trkpt lat="48.90297" lon="7.00401">
        <ele>214</ele>
        <time>2014-06-01T12:11:27Z</time>
      </trkpt>
      <trkpt lat="48.90304" lon="7.00449">
        <ele>214</ele>
        <time>2014-06-01T12:11:32Z</time>
      </trkpt>
      <trkpt lat="48.90311" lon="7.00495">
        <ele>214</ele>
        <time>2014-06-01T12:11:37Z</time>
      </trkpt>
      <trkpt lat="48.90317" lon="7.00537">
        <ele>214</ele>
        <time>2014-06-01T12:11:42Z</time>
      </trkpt>
      <trkpt lat="48.90328" lon="7.00578">
        <ele>214</ele>
        <time>2014-06-01T12:11:47Z</time>
      </trkpt>
      <trkpt lat="48.90342" lon="7.00617">
        <ele>214</ele>
        <time>2014-06-01T12:11:52Z</time>
      </trkpt>
      <trkpt lat="48.90359" lon="7.00652">
        <ele>214</ele>
        <time>2014-06-01T12:11:57Z</time>
      </trkpt>
      <trkpt lat="48.90379" lon="7.00683">
        <ele>214</ele>
        <time>2014-06-01T12:12:02Z</time>
      </trkpt>
      <trkpt lat="48.90399" lon="7.00708">
        <ele>212</ele>
        <time>2014-06-01T12:12:07Z</time>
      </trkpt>
      <trkpt lat="48.90423" lon="7.00732">
        <ele>212</ele>
        <time>2014-06-01T12:12:12Z</time>
      </trkpt>
      <trkpt lat="48.90446" lon="7.00752">
        <ele>212</ele>
        <time>2014-06-01T12:12:17Z</time>
      </trkpt>
      <trkpt lat="48.90473" lon="7.00767">
        <ele>212</ele>
        <time>2014-06-01T12:12:22Z</time>
      </trkpt>
      <trkpt lat="48.905" lon="7.00779">
        <ele>212</ele>
        <time>2014-06-01T12:12:27Z</time>
      </trkpt>
      <trkpt lat="48.90527" lon="7.00784">
        <ele>210</ele>
        <time>2014-06-01T12:12:32Z</time>
      </trkpt>
      <trkpt lat="48.90555" lon="7.00788">
        <ele>209</ele>
        <time>2014-06-01T12:12:37Z</time>
      </trkpt>
      <trkpt lat="48.90581" lon="7.0079">
        <ele>209</ele>
        <time>2014-06-01T12:12:42Z</time>
      </trkpt>
      <trkpt lat="48.90607" lon="7.00793">
        <ele>209</ele>
        <time>2014-06-01T12:12:47Z</time>
      </trkpt>
      <trkpt lat="48.90634" lon="7.00795">
        <ele>209</ele>
        <time>2014-06-01T12:12:52Z</time>
      </trkpt>
      <trkpt lat="48.90661" lon="7.00799">
        <ele>209</ele>
        <time>2014-06-01T12:12:57Z</time>
      </trkpt>
      <trkpt lat="48.90691" lon="7.00801">
        <ele>209</ele>
        <time>2014-06-01T12:13:02Z</time>
      </trkpt>
      <trkpt lat="48.9072" lon="7.00803">
        <ele>209</ele>
        <time>2014-06-01T12:13:07Z</time>
      </trkpt>
      <trkpt lat="48.90749" lon="7.00808">
        <ele>209</ele>
        <time>2014-06-01T12:13:12Z</time>
      </trkpt>
      <trkpt lat="48.90778" lon="7.00814">
        <ele>209</ele>
        <time>2014-06-01T12:13:17Z</time>
      </trkpt>
      <trkpt lat="48.90805" lon="7.00827">
        <ele>209</ele>
        <time>2014-06-01T12:13:22Z</time>
      </trkpt>
      <trkpt lat="48.90833" lon="7.00842">
        <ele>209</ele>
        <time>2014-06-01T12:13:27Z</time>
      </trkpt>
      <trkpt lat="48.90859" lon="7.00859">
        <ele>209</ele>
        <time>2014-06-01T12:13:32Z</time>
      </trkpt>
      <trkpt lat="48.90884" lon="7.00878">
        <ele>209</ele>
        <time>2014-06-01T12:13:37Z</time>
      </trkpt>
      <trkpt lat="48.9091" lon="7.00899">
        <ele>209</ele>
        <time>2014-06-01T12:13:42Z</time>
      </trkpt>
      <trkpt lat="48.90935" lon="7.00921">
        <ele>209</ele>
        <time>2014-06-01T12:13:47Z</time>
      </trkpt>
      <trkpt lat="48.90958" lon="7.00947">
        <ele>207</ele>
        <time>2014-06-01T12:13:52Z</time>
      </trkpt>
      <trkpt lat="48.90981" lon="7.00973">
        <ele>204</ele>
        <time>2014-06-01T12:13:57Z</time>
      </trkpt>
      <trkpt lat="48.91005" lon="7.00998">
        <ele>204</ele>
        <time>2014-06-01T12:14:02Z</time>
      </trkpt>
      <trkpt lat="48.9103" lon="7.01022">
        <ele>204</ele>
        <time>2014-06-01T12:14:07Z</time>
      </trkpt>
      <trkpt lat="48.91055" lon="7.01046">
        <ele>204</ele>
        <time>2014-06-01T12:14:12Z</time>
      </trkpt>
      <trkpt lat="48.91078" lon="7.01071">
        <ele>204</ele>
        <time>2014-06-01T12:14:17Z</time>
      </trkpt>
      <trkpt lat="48.91102" lon="7.01098">
        <ele>204</ele>
        <time>2014-06-01T12:14:22Z</time>
      </trkpt>
      <trkpt lat="48.91125" lon="7.01121">
        <ele>204</ele>
        <time>2014-06-01T12:14:27Z</time>
      </trkpt>
      <trkpt lat="48.91145" lon="7.0114">
        <ele>204</ele>
        <time>2014-06-01T12:14:32Z</time>
      </trkpt>
      <trkpt lat="48.91166" lon="7.01165">
        <ele>204</ele>
        <time>2014-06-01T12:14:37Z</time>
      </trkpt>
      <trkpt lat="48.9119" lon="7.01193">
        <ele>203</ele>
        <time>2014-06-01T12:14:42Z</time>
      </trkpt>
      <trkpt lat="48.91216" lon="7.01219">
        <ele>203</ele>
        <time>2014-06-01T12:14:47Z</time>
      </trkpt>
      <trkpt lat="48.91242" lon="7.01245">
        <ele>203</ele>
        <time>2014-06-01T12:14:52Z</time>
      </trkpt>
      <trkpt lat="48.91268" lon="7.01272">
        <ele>203</ele>
        <time>2014-06-01T12:14:57Z</time>
      </trkpt>
      <trkpt lat="48.91293" lon="7.01299">
        <ele>203</ele>
        <time>2014-06-01T12:15:02Z</time>
      </trkpt>
      <trkpt lat="48.91316" lon="7.01329">
        <ele>203</ele>
        <time>2014-06-01T12:15:07Z</time>
      </trkpt>
      <trkpt lat="48.91339" lon="7.01362">
        <ele>203</ele>
        <time>2014-06-01T12:15:12Z</time>
      </trkpt>
      <trkpt lat="48.91356" lon="7.01397">
        <ele>203</ele>
        <time>2014-06-01T12:15:17Z</time>
      </trkpt>
      <trkpt lat="48.91368" lon="7.0143">
        <ele>203</ele>
        <time>2014-06-01T12:15:22Z</time>
      </trkpt>
      <trkpt lat="48.91377" lon="7.01462">
        <ele>204</ele>
        <time>2014-06-01T12:15:27Z</time>
      </trkpt>
      <trkpt lat="48.91382" lon="7.01502">
        <ele>209</ele>
        <time>2014-06-01T12:15:32Z</time>
      </trkpt>
      <trkpt lat="48.91383" lon="7.01545">
        <ele>214</ele>
        <time>2014-06-01T12:15:37Z</time>
      </trkpt>
      <trkpt lat="48.91384" lon="7.01587">
        <ele>218</ele>
        <time>2014-06-01T12:15:42Z</time>
      </trkpt>
      <trkpt lat="48.91387" lon="7.01631">
        <ele>223</ele>
        <time>2014-06-01T12:15:47Z</time>
      </trkpt>
      <trkpt lat="48.91389" lon="7.01676">
        <ele>225</ele>
        <time>2014-06-01T12:15:52Z</time>
      </trkpt>
      <trkpt lat="48.91392" lon="7.01721">
        <ele>228</ele>
        <time>2014-06-01T12:15:57Z</time>
      </trkpt>
      <trkpt lat="48.91395" lon="7.01766">
        <ele>232</ele>
        <time>2014-06-01T12:16:02Z</time>
      </trkpt>
      <trkpt lat="48.91397" lon="7.01807">
        <ele>232</ele>
        <time>2014-06-01T12:16:07Z</time>
      </trkpt>
      <trkpt lat="48.91399" lon="7.01849">
        <ele>235</ele>
        <time>2014-06-01T12:16:12Z</time>
      </trkpt>
      <trkpt lat="48.91402" lon="7.01893">
        <ele>237</ele>
        <time>2014-06-01T12:16:17Z</time>
      </trkpt>
      <trkpt lat="48.91408" lon="7.01937">
        <ele>240</ele>
        <time>2014-06-01T12:16:22Z</time>
      </trkpt>
      <trkpt lat="48.91417" lon="7.01983">
        <ele>240</ele>
        <time>2014-06-01T12:16:27Z</time>
      </trkpt>
      <trkpt lat="48.91428" lon="7.02027">
        <ele>238</ele>
        <time>2014-06-01T12:16:32Z</time>
      </trkpt>
      <trkpt lat="48.91444" lon="7.02065">
        <ele>233</ele>
        <time>2014-06-01T12:16:37Z</time>
      </trkpt>
      <trkpt lat="48.91463" lon="7.02098">
        <ele>226</ele>
        <time>2014-06-01T12:16:42Z</time>
      </trkpt>
      <trkpt lat="48.91485" lon="7.02131">
        <ele>216</ele>
        <time>2014-06-01T12:16:47Z</time>
      </trkpt>
      <trkpt lat="48.91508" lon="7.02154">
        <ele>209</ele>
        <time>2014-06-01T12:16:52Z</time>
      </trkpt>
      <trkpt lat="48.91529" lon="7.02169">
        <ele>204</ele>
        <time>2014-06-01T12:16:57Z</time>
      </trkpt>
      <trkpt lat="48.91554" lon="7.0218">
        <ele>204</ele>
        <time>2014-06-01T12:17:02Z</time>
      </trkpt>
      <trkpt lat="48.91581" lon="7.02186">
        <ele>203</ele>
        <time>2014-06-01T12:17:07Z</time>
      </trkpt>
      <trkpt lat="48.91611" lon="7.02192">
        <ele>200</ele>
        <time>2014-06-01T12:17:12Z</time>
      </trkpt>
      <trkpt lat="48.91635" lon="7.0219">
        <ele>200</ele>
        <time>2014-06-01T12:17:17Z</time>
      </trkpt>
      <trkpt lat="48.91658" lon="7.02184">
        <ele>200</ele>
        <time>2014-06-01T12:17:22Z</time>
      </trkpt>
      <trkpt lat="48.91684" lon="7.02172">
        <ele>200</ele>
        <time>2014-06-01T12:17:27Z</time>
      </trkpt>
      <trkpt lat="48.91712" lon="7.0216">
        <ele>200</ele>
        <time>2014-06-01T12:17:32Z</time>
      </trkpt>
      <trkpt lat="48.9174" lon="7.02144">
        <ele>197</ele>
        <time>2014-06-01T12:17:37Z</time>
      </trkpt>
      <trkpt lat="48.91769" lon="7.02136">
        <ele>196</ele>
        <time>2014-06-01T12:17:42Z</time>
      </trkpt>
      <trkpt lat="48.91796" lon="7.02125">
        <ele>197</ele>
        <time>2014-06-01T12:17:47Z</time>
      </trkpt>
      <trkpt lat="48.91823" lon="7.02115">
        <ele>200</ele>
        <time>2014-06-01T12:17:52Z</time>
      </trkpt>
      <trkpt lat="48.91851" lon="7.02106">
        <ele>200</ele>
        <time>2014-06-01T12:17:57Z</time>
      </trkpt>
      <trkpt lat="48.91879" lon="7.02096">
        <ele>200</ele>
        <time>2014-06-01T12:18:02Z</time>
      </trkpt>
      <trkpt lat="48.91906" lon="7.02083">
        <ele>197</ele>
        <time>2014-06-01T12:18:07Z</time>
      </trkpt>
      <trkpt lat="48.91937" lon="7.02072">
        <ele>192</ele>
        <time>2014-06-01T12:18:12Z</time>
      </trkpt>
      <trkpt lat="48.91966" lon="7.0206">
        <ele>191</ele>
        <time>2014-06-01T12:18:17Z</time>
      </trkpt>
      <trkpt lat="48.91994" lon="7.02046">
        <ele>191</ele>
        <time>2014-06-01T12:18:22Z</time>
      </trkpt>
      <trkpt lat="48.92023" lon="7.02021">
        <ele>191</ele>
        <time>2014-06-01T12:18:27Z</time>
      </trkpt>
      <trkpt lat="48.92048" lon="7.01997">
        <ele>196</ele>
        <time>2014-06-01T12:18:32Z</time>
      </trkpt>
      <trkpt lat="48.92072" lon="7.01963">
        <ele>201</ele>
        <time>2014-06-01T12:18:37Z</time>
      </trkpt>
      <trkpt lat="48.92095" lon="7.01935">
        <ele>206</ele>
        <time>2014-06-01T12:18:42Z</time>
      </trkpt>
      <trkpt lat="48.92112" lon="7.01905">
        <ele>208</ele>
        <time>2014-06-01T12:18:47Z</time>
      </trkpt>
      <trkpt lat="48.92132" lon="7.01872">
        <ele>209</ele>
        <time>2014-06-01T12:18:52Z</time>
      </trkpt>
      <trkpt lat="48.92153" lon="7.01844">
        <ele>209</ele>
        <time>2014-06-01T12:18:57Z</time>
      </trkpt>
      <trkpt lat="48.9218" lon="7.01811">
        <ele>209</ele>
        <time>2014-06-01T12:19:02Z</time>
      </trkpt>
      <trkpt lat="48.92201" lon="7.01782">
        <ele>206</ele>
        <time>2014-06-01T12:19:07Z</time>
      </trkpt>
      <trkpt lat="48.92223" lon="7.01757">
        <ele>206</ele>
        <time>2014-06-01T12:19:12Z</time>
      </trkpt>
      <trkpt lat="48.92249" lon="7.01735">
        <ele>204</ele>
        <time>2014-06-01T12:19:17Z</time>
      </trkpt>
      <trkpt lat="48.92273" lon="7.01715">
        <ele>202</ele>
        <time>2014-06-01T12:19:22Z</time>
      </trkpt>
      <trkpt lat="48.92302" lon="7.01696">
        <ele>202</ele>
        <time>2014-06-01T12:19:27Z</time>
      </trkpt>
      <trkpt lat="48.92326" lon="7.01685">
        <ele>206</ele>
        <time>2014-06-01T12:19:32Z</time>
      </trkpt>
      <trkpt lat="48.92353" lon="7.01672">
        <ele>205</ele>
        <time>2014-06-01T12:19:37Z</time>
      </trkpt>
      <trkpt lat="48.92382" lon="7.01664">
        <ele>200</ele>
        <time>2014-06-01T12:19:42Z</time>
      </trkpt>
      <trkpt lat="48.92409" lon="7.01656">
        <ele>195</ele>
        <time>2014-06-01T12:19:47Z</time>
      </trkpt>
      <trkpt lat="48.92439" lon="7.01653">
        <ele>195</ele>
        <time>2014-06-01T12:19:52Z</time>
      </trkpt>
      <trkpt lat="48.92465" lon="7.01655">
        <ele>195</ele>
        <time>2014-06-01T12:19:57Z</time>
      </trkpt>
      <trkpt lat="48.92493" lon="7.01655">
        <ele>195</ele>
        <time>2014-06-01T12:20:02Z</time>
      </trkpt>
      <trkpt lat="48.92515" lon="7.01662">
        <ele>197</ele>
        <time>2014-06-01T12:20:07Z</time>
      </trkpt>
      <trkpt lat="48.9254" lon="7.01668">
        <ele>198</ele>
        <time>2014-06-01T12:20:12Z</time>
      </trkpt>
      <trkpt lat="48.92566" lon="7.01673">
        <ele>200</ele>
        <time>2014-06-01T12:20:17Z</time>
      </trkpt>
      <trkpt lat="48.92593" lon="7.0169">
        <ele>201</ele>
        <time>2014-06-01T12:20:22Z</time>
      </trkpt>
      <trkpt lat="48.92616" lon="7.01705">
        <ele>203</ele>
        <time>2014-06-01T12:20:27Z</time>
      </trkpt>
      <trkpt lat="48.92636" lon="7.01718">
        <ele>205</ele>
        <time>2014-06-01T12:20:32Z</time>
      </trkpt>
      <trkpt lat="48.92658" lon="7.01736">
        <ele>205</ele>
        <time>2014-06-01T12:20:37Z</time>
      </trkpt>
      <trkpt lat="48.92683" lon="7.01757">
        <ele>205</ele>
        <time>2014-06-01T12:20:42Z</time>
      </trkpt>
      <trkpt lat="48.92707" lon="7.0178">
        <ele>205</ele>
        <time>2014-06-01T12:20:47Z</time>
      </trkpt>
      <trkpt lat="48.92728" lon="7.01804">
        <ele>205</ele>
        <time>2014-06-01T12:20:52Z</time>
      </trkpt>
      <trkpt lat="48.9275" lon="7.01833">
        <ele>205</ele>
        <time>2014-06-01T12:20:57Z</time>
      </trkpt>
      <trkpt lat="48.92769" lon="7.01864">
        <ele>205</ele>
        <time>2014-06-01T12:21:02Z</time>
      </trkpt>
      <trkpt lat="48.92785" lon="7.01891">
        <ele>206</ele>
        <time>2014-06-01T12:21:07Z</time>
      </trkpt>
      <trkpt lat="48.92799" lon="7.01921">
        <ele>207</ele>
        <time>2014-06-01T12:21:12Z</time>
      </trkpt>
      <trkpt lat="48.92815" lon="7.01955">
        <ele>208</ele>
        <time>2014-06-01T12:21:17Z</time>
      </trkpt>
      <trkpt lat="48.92829" lon="7.01992">
        <ele>208</ele>
        <time>2014-06-01T12:21:22Z</time>
      </trkpt>
      <trkpt lat="48.92841" lon="7.0203">
        <ele>208</ele>
        <time>2014-06-01T12:21:27Z</time>
      </trkpt>
      <trkpt lat="48.92852" lon="7.02071">
        <ele>209</ele>
        <time>2014-06-01T12:21:32Z</time>
      </trkpt>
      <trkpt lat="48.9286" lon="7.02113">
        <ele>210</ele>
        <time>2014-06-01T12:21:37Z</time>
      </trkpt>
      <trkpt lat="48.92868" lon="7.02155">
        <ele>210</ele>
        <time>2014-06-01T12:21:42Z</time>
      </trkpt>
      <trkpt lat="48.92872" lon="7.02199">
        <ele>210</ele>
        <time>2014-06-01T12:21:47Z</time>
      </trkpt>
      <trkpt lat="48.92875" lon="7.02242">
        <ele>210</ele>
        <time>2014-06-01T12:21:52Z</time>
      </trkpt>
      <trkpt lat="48.92876" lon="7.02282">
        <ele>210</ele>
        <time>2014-06-01T12:21:57Z</time>
      </trkpt>
      <trkpt lat="48.92876" lon="7.02317">
        <ele>210</ele>
        <time>2014-06-01T12:22:02Z</time>
      </trkpt>
      <trkpt lat="48.92874" lon="7.02356">
        <ele>211</ele>
        <time>2014-06-01T12:22:07Z</time>
      </trkpt>
      <trkpt lat="48.92871" lon="7.02397">
        <ele>212</ele>
        <time>2014-06-01T12:22:12Z</time>
      </trkpt>
      <trkpt lat="48.92865" lon="7.02441">
        <ele>213</ele>
        <time>2014-06-01T12:22:17Z</time>
      </trkpt>
      <trkpt lat="48.92857" lon="7.02484">
        <ele>213</ele>
        <time>2014-06-01T12:22:22Z</time>
      </trkpt>
      <trkpt lat="48.92849" lon="7.02526">
        <ele>214</ele>
        <time>2014-06-01T12:22:27Z</time>
      </trkpt>
      <trkpt lat="48.92841" lon="7.02568">
        <ele>214</ele>
        <time>2014-06-01T12:22:32Z</time>
      </trkpt>
      <trkpt lat="48.92833" lon="7.02611">
        <ele>214</ele>
        <time>2014-06-01T12:22:37Z</time>
      </trkpt>
      <trkpt lat="48.92828" lon="7.02653">
        <ele>214</ele>
        <time>2014-06-01T12:22:42Z</time>
      </trkpt>
      <trkpt lat="48.92824" lon="7.02695">
        <ele>214</ele>
        <time>2014-06-01T12:22:47Z</time>
      </trkpt>
      <trkpt lat="48.92823" lon="7.02739">
        <ele>214</ele>
        <time>2014-06-01T12:22:52Z</time>
      </trkpt>
      <trkpt lat="48.92824" lon="7.02782">
        <ele>214</ele>
        <time>2014-06-01T12:22:57Z</time>
      </trkpt>
      <trkpt lat="48.92827" lon="7.02824">
        <ele>214</ele>
        <time>2014-06-01T12:23:02Z</time>
      </trkpt>
      <trkpt lat="48.92831" lon="7.0286">
        <ele>214</ele>
        <time>2014-06-01T12:23:07Z</time>
      </trkpt>
      <trkpt lat="48.92837" lon="7.02897">
        <ele>214</ele>
        <time>2014-06-01T12:23:12Z</time>
      </trkpt>
      <trkpt lat="48.92845" lon="7.02939">
        <ele>214</ele>
        <time>2014-06-01T12:23:17Z</time>
      </trkpt>
      <trkpt lat="48.92856" lon="7.0298">
        <ele>214</ele>
        <time>2014-06-01T12:23:22Z</time>
      </trkpt>
      <trkpt lat="48.92868" lon="7.03016">
        <ele>214</ele>
        <time>2014-06-01T12:23:27Z</time>
      </trkpt>
      <trkpt lat="48.92879" lon="7.03048">
        <ele>214</ele>
        <time>2014-06-01T12:23:32Z</time>
      </trkpt>
      <trkpt lat="48.92889" lon="7.03073">
        <ele>214</ele>
        <time>2014-06-01T12:23:37Z</time>
      </trkpt>
      <trkpt lat="48.92902" lon="7.03099">
        <ele>214</ele>
        <time>2014-06-01T12:23:42Z</time>
      </trkpt>
      <trkpt lat="48.92919" lon="7.03131">
        <ele>214</ele>
        <time>2014-06-01T12:23:47Z</time>
      </trkpt>
      <trkpt lat="48.92938" lon="7.03162">
        <ele>214</ele>
        <time>2014-06-01T12:23:52Z</time>
      </trkpt>
      <trkpt lat="48.92959" lon="7.03191">
        <ele>214</ele>
        <time>2014-06-01T12:23:57Z</time>
      </trkpt>
      <trkpt lat="48.92981" lon="7.03217">
        <ele>214</ele>
        <time>2014-06-01T12:24:02Z</time>
      </trkpt>
      <trkpt lat="48.93001" lon="7.0324">
        <ele>214</ele>
        <time>2014-06-01T12:24:07Z</time>
      </trkpt>
      <trkpt lat="48.93023" lon="7.03264">
        <ele>214</ele>
        <time>2014-06-01T12:24:12Z</time>
      </trkpt>
      <trkpt lat="48.93043" lon="7.03287">
        <ele>214</ele>
        <time>2014-06-01T12:24:17Z</time>
      </trkpt>
      <trkpt lat="48.93063" lon="7.03309">
        <ele>214</ele>
        <time>2014-06-01T12:24:22Z</time>
      </trkpt>
      <trkpt lat="48.93084" lon="7.03333">
        <ele>214</ele>
        <time>2014-06-01T12:24:27Z</time>
      </trkpt>
      <trkpt lat="48.93103" lon="7.03351">
        <ele>214</ele>
        <time>2014-06-01T12:24:32Z</time>
      </trkpt>
      <trkpt lat="48.93125" lon="7.03365">
        <ele>214</ele>
        <time>2014-06-01T12:24:37Z</time>
      </trkpt>
      <trkpt lat="48.93144" lon="7.03376">
        <ele>214</ele>
        <time>2014-06-01T12:24:42Z</time>
      </trkpt>
      <trkpt lat="48.93164" lon="7.0338">
        <ele>214</ele>
        <time>2014-06-01T12:24:47Z</time>
      </trkpt>
      <trkpt lat="48.93185" lon="7.03389">
        <ele>214</ele>
        <time>2014-06-01T12:24:52Z</time>
      </trkpt>
      <trkpt lat="48.93195" lon="7.0342">
        <ele>214</ele>
        <time>2014-06-01T12:24:57Z</time>
      </trkpt>
      <trkpt lat="48.93203" lon="7.03446">
        <ele>215</ele>
        <time>2014-06-01T12:25:02Z</time>
      </trkpt>
      <trkpt lat="48.93228" lon="7.03469">
        <ele>215</ele>
        <time>2014-06-01T12:25:07Z</time>
      </trkpt>
      <trkpt lat="48.93256" lon="7.03496">
        <ele>215</ele>
        <time>2014-06-01T12:25:12Z</time>
      </trkpt>
      <trkpt lat="48.93284" lon="7.03521">
        <ele>215</ele>
        <time>2014-06-01T12:25:17Z</time>
      </trkpt>
      <trkpt lat="48.93311" lon="7.03557">
        <ele>215</ele>
        <time>2014-06-01T12:25:22Z</time>
      </trkpt>
      <trkpt lat="48.93333" lon="7.03598">
        <ele>215</ele>
        <time>2014-06-01T12:25:27Z</time>
      </trkpt>
      <trkpt lat="48.93346" lon="7.03628">
        <ele>214</ele>
        <time>2014-06-01T12:25:32Z</time>
      </trkpt>
      <trkpt lat="48.93356" lon="7.03657">
        <ele>212</ele>
        <time>2014-06-01T12:25:37Z</time>
      </trkpt>
      <trkpt lat="48.93367" lon="7.03685">
        <ele>211</ele>
        <time>2014-06-01T12:25:42Z</time>
      </trkpt>
      <trkpt lat="48.93377" lon="7.03711">
        <ele>211</ele>
        <time>2014-06-01T12:25:47Z</time>
      </trkpt>
      <trkpt lat="48.93384" lon="7.03729">
        <ele>210</ele>
        <time>2014-06-01T12:25:54Z</time>
      </trkpt>
      <trkpt lat="48.93389" lon="7.03749">
        <ele>210</ele>
        <time>2014-06-01T12:25:59Z</time>
      </trkpt>
      <trkpt lat="48.93399" lon="7.03779">
        <ele>209</ele>
        <time>2014-06-01T12:26:04Z</time>
      </trkpt>
      <trkpt lat="48.93412" lon="7.03812">
        <ele>204</ele>
        <time>2014-06-01T12:26:09Z</time>
      </trkpt>
      <trkpt lat="48.93419" lon="7.03837">
        <ele>200</ele>
        <time>2014-06-01T12:26:14Z</time>
      </trkpt>
      <trkpt lat="48.93415" lon="7.0386">
        <ele>200</ele>
        <time>2014-06-01T12:26:19Z</time>
      </trkpt>
      <trkpt lat="48.93411" lon="7.03888">
        <ele>202</ele>
        <time>2014-06-01T12:26:24Z</time>
      </trkpt>
      <trkpt lat="48.93408" lon="7.03923">
        <ele>202</ele>
        <time>2014-06-01T12:26:29Z</time>
      </trkpt>
      <trkpt lat="48.93407" lon="7.03955">
        <ele>202</ele>
        <time>2014-06-01T12:26:34Z</time>
      </trkpt>
      <trkpt lat="48.93407" lon="7.0398">
        <ele>202</ele>
        <time>2014-06-01T12:26:39Z</time>
      </trkpt>
      <trkpt lat="48.93405" lon="7.04013">
        <ele>206</ele>
        <time>2014-06-01T12:26:44Z</time>
      </trkpt>
      <trkpt lat="48.9341" lon="7.04048">
        <ele>208</ele>
        <time>2014-06-01T12:26:49Z</time>
      </trkpt>
      <trkpt lat="48.93414" lon="7.04086">
        <ele>211</ele>
        <time>2014-06-01T12:26:54Z</time>
      </trkpt>
      <trkpt lat="48.93417" lon="7.04124">
        <ele>212</ele>
        <time>2014-06-01T12:26:59Z</time>
      </trkpt>
      <trkpt lat="48.93424" lon="7.04155">
        <ele>212</ele>
        <time>2014-06-01T12:27:04Z</time>
      </trkpt>
      <trkpt lat="48.9343" lon="7.04184">
        <ele>212</ele>
        <time>2014-06-01T12:27:09Z</time>
      </trkpt>
      <trkpt lat="48.93434" lon="7.042">
        <ele>211</ele>
        <time>2014-06-01T12:27:14Z</time>
      </trkpt>
      <trkpt lat="48.93444" lon="7.04208">
        <ele>226</ele>
        <time>2014-06-01T12:27:31Z</time>
      </trkpt>
      <trkpt lat="48.93449" lon="7.04226">
        <ele>227</ele>
        <time>2014-06-01T12:27:36Z</time>
      </trkpt>
      <trkpt lat="48.93456" lon="7.04246">
        <ele>227</ele>
        <time>2014-06-01T12:27:41Z</time>
      </trkpt>
      <trkpt lat="48.93462" lon="7.04269">
        <ele>227</ele>
        <time>2014-06-01T12:27:46Z</time>
      </trkpt>
      <trkpt lat="48.93468" lon="7.0429">
        <ele>227</ele>
        <time>2014-06-01T12:27:51Z</time>
      </trkpt>
      <trkpt lat="48.93471" lon="7.04314">
        <ele>227</ele>
        <time>2014-06-01T12:27:56Z</time>
      </trkpt>
      <trkpt lat="48.93478" lon="7.0434">
        <ele>227</ele>
        <time>2014-06-01T12:28:01Z</time>
      </trkpt>
      <trkpt lat="48.93483" lon="7.04365">
        <ele>225</ele>
        <time>2014-06-01T12:28:06Z</time>
      </trkpt>
      <trkpt lat="48.93486" lon="7.04389">
        <ele>225</ele>
        <time>2014-06-01T12:28:11Z</time>
      </trkpt>
      <trkpt lat="48.93486" lon="7.04414">
        <ele>225</ele>
        <time>2014-06-01T12:28:16Z</time>
      </trkpt>
      <trkpt lat="48.93488" lon="7.04441">
        <ele>225</ele>
        <time>2014-06-01T12:28:21Z</time>
      </trkpt>
      <trkpt lat="48.93491" lon="7.04474">
        <ele>226</ele>
        <time>2014-06-01T12:28:26Z</time>
      </trkpt>
      <trkpt lat="48.93493" lon="7.04511">
        <ele>230</ele>
        <time>2014-06-01T12:28:31Z</time>
      </trkpt>
      <trkpt lat="48.93494" lon="7.0455">
        <ele>233</ele>
        <time>2014-06-01T12:28:36Z</time>
      </trkpt>
      <trkpt lat="48.93497" lon="7.04588">
        <ele>236</ele>
        <time>2014-06-01T12:28:41Z</time>
      </trkpt>
      <trkpt lat="48.93498" lon="7.04628">
        <ele>236</ele>
        <time>2014-06-01T12:28:46Z</time>
      </trkpt>
      <trkpt lat="48.93498" lon="7.04668">
        <ele>236</ele>
        <time>2014-06-01T12:28:51Z</time>
      </trkpt>
      <trkpt lat="48.935" lon="7.04708">
        <ele>236</ele>
        <time>2014-06-01T12:28:56Z</time>
      </trkpt>
      <trkpt lat="48.93502" lon="7.04751">
        <ele>236</ele>
        <time>2014-06-01T12:29:01Z</time>
      </trkpt>
      <trkpt lat="48.93504" lon="7.04795">
        <ele>236</ele>
        <time>2014-06-01T12:29:06Z</time>
      </trkpt>
      <trkpt lat="48.93503" lon="7.04835">
        <ele>237</ele>
        <time>2014-06-01T12:29:11Z</time>
      </trkpt>
      <trkpt lat="48.93502" lon="7.04877">
        <ele>238</ele>
        <time>2014-06-01T12:29:16Z</time>
      </trkpt>
      <trkpt lat="48.935" lon="7.0492">
        <ele>238</ele>
        <time>2014-06-01T12:29:21Z</time>
      </trkpt>
      <trkpt lat="48.93497" lon="7.04961">
        <ele>238</ele>
        <time>2014-06-01T12:29:26Z</time>
      </trkpt>
      <trkpt lat="48.93496" lon="7.04995">
        <ele>237</ele>
        <time>2014-06-01T12:29:31Z</time>
      </trkpt>
      <trkpt lat="48.93507" lon="7.05015">
        <ele>234</ele>
        <time>2014-06-01T12:29:36Z</time>
      </trkpt>
      <trkpt lat="48.93506" lon="7.05048">
        <ele>232</ele>
        <time>2014-06-01T12:29:41Z</time>
      </trkpt>
      <trkpt lat="48.93505" lon="7.05086">
        <ele>230</ele>
        <time>2014-06-01T12:29:46Z</time>
      </trkpt>
      <trkpt lat="48.93504" lon="7.05123">
        <ele>230</ele>
        <time>2014-06-01T12:29:51Z</time>
      </trkpt>
      <trkpt lat="48.93502" lon="7.05162">
        <ele>230</ele>
        <time>2014-06-01T12:29:56Z</time>
      </trkpt>
      <trkpt lat="48.935" lon="7.05199">
        <ele>230</ele>
        <time>2014-06-01T12:30:01Z</time>
      </trkpt>
      <trkpt lat="48.93499" lon="7.05221">
        <ele>230</ele>
        <time>2014-06-01T12:30:06Z</time>
      </trkpt>
      <trkpt lat="48.93497" lon="7.05227">
        <ele>229</ele>
        <time>2014-06-01T12:30:12Z</time>
      </trkpt>
      <trkpt lat="48.93499" lon="7.0523">
        <ele>229</ele>
        <time>2014-06-01T12:30:17Z</time>
      </trkpt>
      <trkpt lat="48.93498" lon="7.05197">
        <ele>224</ele>
        <time>2014-06-01T12:30:22Z</time>
      </trkpt>
      <trkpt lat="48.93499" lon="7.05168">
        <ele>222</ele>
        <time>2014-06-01T12:30:27Z</time>
      </trkpt>
      <trkpt lat="48.93499" lon="7.05144">
        <ele>222</ele>
        <time>2014-06-01T12:30:32Z</time>
      </trkpt>
      <trkpt lat="48.93498" lon="7.05122">
        <ele>222</ele>
        <time>2014-06-01T12:30:37Z</time>
      </trkpt>
      <trkpt lat="48.935" lon="7.05094">
        <ele>222</ele>
        <time>2014-06-01T12:30:42Z</time>
      </trkpt>
      <trkpt lat="48.93501" lon="7.05067">
        <ele>222</ele>
        <time>2014-06-01T12:30:47Z</time>
      </trkpt>
      <trkpt lat="48.93502" lon="7.05047">
        <ele>222</ele>
        <time>2014-06-01T12:30:52Z</time>
      </trkpt>
      <trkpt lat="48.93507" lon="7.05017">
        <ele>226</ele>
        <time>2014-06-01T12:31:00Z</time>
      </trkpt>
      <trkpt lat="48.93504" lon="7.05015">
        <ele>226</ele>
        <time>2014-06-01T12:31:05Z</time>
      </trkpt>
      <trkpt lat="48.93504" lon="7.05034">
        <ele>226</ele>
        <time>2014-06-01T12:31:10Z</time>
      </trkpt>
      <trkpt lat="48.93504" lon="7.05065">
        <ele>224</ele>
        <time>2014-06-01T12:31:15Z</time>
      </trkpt>
      <trkpt lat="48.93505" lon="7.05102">
        <ele>224</ele>
        <time>2014-06-01T12:31:20Z</time>
      </trkpt>
      <trkpt lat="48.93502" lon="7.05142">
        <ele>224</ele>
        <time>2014-06-01T12:31:25Z</time>
      </trkpt>
      <trkpt lat="48.93498" lon="7.05183">
        <ele>224</ele>
        <time>2014-06-01T12:31:30Z</time>
      </trkpt>
      <trkpt lat="48.93494" lon="7.0522">
        <ele>224</ele>
        <time>2014-06-01T12:31:35Z</time>
      </trkpt>
      <trkpt lat="48.93492" lon="7.05256">
        <ele>224</ele>
        <time>2014-06-01T12:31:40Z</time>
      </trkpt>
      <trkpt lat="48.9349" lon="7.05289">
        <ele>224</ele>
        <time>2014-06-01T12:31:45Z</time>
      </trkpt>
      <trkpt lat="48.93488" lon="7.05321">
        <ele>224</ele>
        <time>2014-06-01T12:31:50Z</time>
      </trkpt>
      <trkpt lat="48.93485" lon="7.05353">
        <ele>224</ele>
        <time>2014-06-01T12:31:55Z</time>
      </trkpt>
      <trkpt lat="48.93483" lon="7.05385">
        <ele>224</ele>
        <time>2014-06-01T12:32:00Z</time>
      </trkpt>
      <trkpt lat="48.93481" lon="7.05416">
        <ele>224</ele>
        <time>2014-06-01T12:32:05Z</time>
      </trkpt>
      <trkpt lat="48.9348" lon="7.0545">
        <ele>223</ele>
        <time>2014-06-01T12:32:10Z</time>
      </trkpt>
      <trkpt lat="48.93478" lon="7.0549">
        <ele>221</ele>
        <time>2014-06-01T12:32:15Z</time>
      </trkpt>
      <trkpt lat="48.93476" lon="7.05531">
        <ele>218</ele>
        <time>2014-06-01T12:32:20Z</time>
      </trkpt>
      <trkpt lat="48.93475" lon="7.05576">
        <ele>217</ele>
        <time>2014-06-01T12:32:25Z</time>
      </trkpt>
      <trkpt lat="48.93473" lon="7.05628">
        <ele>217</ele>
        <time>2014-06-01T12:32:30Z</time>
      </trkpt>
      <trkpt lat="48.9347" lon="7.05681">
        <ele>216</ele>
        <time>2014-06-01T12:32:35Z</time>
      </trkpt>
      <trkpt lat="48.93467" lon="7.05731">
        <ele>215</ele>
        <time>2014-06-01T12:32:40Z</time>
      </trkpt>
      <trkpt lat="48.93464" lon="7.05777">
        <ele>214</ele>
        <time>2014-06-01T12:32:45Z</time>
      </trkpt>
      <trkpt lat="48.93462" lon="7.0582">
        <ele>214</ele>
        <time>2014-06-01T12:32:50Z</time>
      </trkpt>
      <trkpt lat="48.93459" lon="7.05867">
        <ele>214</ele>
        <time>2014-06-01T12:32:55Z</time>
      </trkpt>
      <trkpt lat="48.93457" lon="7.05913">
        <ele>214</ele>
        <time>2014-06-01T12:33:00Z</time>
      </trkpt>
      <trkpt lat="48.93455" lon="7.05955">
        <ele>214</ele>
        <time>2014-06-01T12:33:05Z</time>
      </trkpt>
      <trkpt lat="48.93453" lon="7.05998">
        <ele>214</ele>
        <time>2014-06-01T12:33:10Z</time>
      </trkpt>
      <trkpt lat="48.93455" lon="7.06041">
        <ele>214</ele>
        <time>2014-06-01T12:33:15Z</time>
      </trkpt>
      <trkpt lat="48.93462" lon="7.06081">
        <ele>214</ele>
        <time>2014-06-01T12:33:20Z</time>
      </trkpt>
      <trkpt lat="48.93469" lon="7.06122">
        <ele>214</ele>
        <time>2014-06-01T12:33:25Z</time>
      </trkpt>
      <trkpt lat="48.93478" lon="7.06168">
        <ele>215</ele>
        <time>2014-06-01T12:33:30Z</time>
      </trkpt>
      <trkpt lat="48.93487" lon="7.06221">
        <ele>215</ele>
        <time>2014-06-01T12:33:35Z</time>
      </trkpt>
      <trkpt lat="48.93496" lon="7.06276">
        <ele>216</ele>
        <time>2014-06-01T12:33:40Z</time>
      </trkpt>
      <trkpt lat="48.93503" lon="7.06328">
        <ele>215</ele>
        <time>2014-06-01T12:33:45Z</time>
      </trkpt>
      <trkpt lat="48.93509" lon="7.06376">
        <ele>210</ele>
        <time>2014-06-01T12:33:50Z</time>
      </trkpt>
      <trkpt lat="48.93516" lon="7.06419">
        <ele>207</ele>
        <time>2014-06-01T12:33:55Z</time>
      </trkpt>
      <trkpt lat="48.93522" lon="7.06461">
        <ele>207</ele>
        <time>2014-06-01T12:34:00Z</time>
      </trkpt>
      <trkpt lat="48.93527" lon="7.06504">
        <ele>204</ele>
        <time>2014-06-01T12:34:05Z</time>
      </trkpt>
      <trkpt lat="48.93532" lon="7.06545">
        <ele>202</ele>
        <time>2014-06-01T12:34:10Z</time>
      </trkpt>
      <trkpt lat="48.93539" lon="7.06586">
        <ele>201</ele>
        <time>2014-06-01T12:34:15Z</time>
      </trkpt>
      <trkpt lat="48.93546" lon="7.06625">
        <ele>201</ele>
        <time>2014-06-01T12:34:20Z</time>
      </trkpt>
      <trkpt lat="48.93555" lon="7.06662">
        <ele>201</ele>
        <time>2014-06-01T12:34:25Z</time>
      </trkpt>
      <trkpt lat="48.93564" lon="7.06698">
        <ele>201</ele>
        <time>2014-06-01T12:34:30Z</time>
      </trkpt>
      <trkpt lat="48.93576" lon="7.06741">
        <ele>201</ele>
        <time>2014-06-01T12:34:36Z</time>
      </trkpt>
      <trkpt lat="48.93586" lon="7.06774">
        <ele>202</ele>
        <time>2014-06-01T12:34:41Z</time>
      </trkpt>
      <trkpt lat="48.93595" lon="7.06808">
        <ele>203</ele>
        <time>2014-06-01T12:34:46Z</time>
      </trkpt>
      <trkpt lat="48.93606" lon="7.06841">
        <ele>204</ele>
        <time>2014-06-01T12:34:51Z</time>
      </trkpt>
      <trkpt lat="48.93617" lon="7.06881">
        <ele>206</ele>
        <time>2014-06-01T12:34:57Z</time>
      </trkpt>
      <trkpt lat="48.93626" lon="7.06915">
        <ele>207</ele>
        <time>2014-06-01T12:35:02Z</time>
      </trkpt>
      <trkpt lat="48.93637" lon="7.06958">
        <ele>209</ele>
        <time>2014-06-01T12:35:08Z</time>
      </trkpt>
      <trkpt lat="48.93645" lon="7.06992">
        <ele>209</ele>
        <time>2014-06-01T12:35:13Z</time>
      </trkpt>
      <trkpt lat="48.93652" lon="7.07026">
        <ele>209</ele>
        <time>2014-06-01T12:35:18Z</time>
      </trkpt>
      <trkpt lat="48.9366" lon="7.07065">
        <ele>209</ele>
        <time>2014-06-01T12:35:24Z</time>
      </trkpt>
      <trkpt lat="48.93666" lon="7.07097">
        <ele>209</ele>
        <time>2014-06-01T12:35:29Z</time>
      </trkpt>
      <trkpt lat="48.93673" lon="7.07138">
        <ele>209</ele>
        <time>2014-06-01T12:35:35Z</time>
      </trkpt>
      <trkpt lat="48.9368" lon="7.07179">
        <ele>211</ele>
        <time>2014-06-01T12:35:41Z</time>
      </trkpt>
      <trkpt lat="48.93684" lon="7.0721">
        <ele>216</ele>
        <time>2014-06-01T12:35:46Z</time>
      </trkpt>
      <trkpt lat="48.93679" lon="7.07228">
        <ele>222</ele>
        <time>2014-06-01T12:35:52Z</time>
      </trkpt>
      <trkpt lat="48.93678" lon="7.07252">
        <ele>224</ele>
        <time>2014-06-01T12:35:57Z</time>
      </trkpt>
      <trkpt lat="48.93681" lon="7.07282">
        <ele>224</ele>
        <time>2014-06-01T12:36:02Z</time>
      </trkpt>
      <trkpt lat="48.93683" lon="7.07326">
        <ele>226</ele>
        <time>2014-06-01T12:36:08Z</time>
      </trkpt>
      <trkpt lat="48.93686" lon="7.07366">
        <ele>228</ele>
        <time>2014-06-01T12:36:13Z</time>
      </trkpt>
      <trkpt lat="48.93689" lon="7.07415">
        <ele>230</ele>
        <time>2014-06-01T12:36:19Z</time>
      </trkpt>
      <trkpt lat="48.9369" lon="7.07459">
        <ele>230</ele>
        <time>2014-06-01T12:36:24Z</time>
      </trkpt>
      <trkpt lat="48.93692" lon="7.07508">
        <ele>226</ele>
        <time>2014-06-01T12:36:29Z</time>
      </trkpt>
      <trkpt lat="48.93693" lon="7.07566">
        <ele>226</ele>
        <time>2014-06-01T12:36:35Z</time>
      </trkpt>
      <trkpt lat="48.937" lon="7.07608">
        <ele>226</ele>
        <time>2014-06-01T12:36:40Z</time>
      </trkpt>
      <trkpt lat="48.93708" lon="7.0765">
        <ele>226</ele>
        <time>2014-06-01T12:36:45Z</time>
      </trkpt>
      <trkpt lat="48.93713" lon="7.07688">
        <ele>223</ele>
        <time>2014-06-01T12:36:50Z</time>
      </trkpt>
      <trkpt lat="48.9372" lon="7.07729">
        <ele>217</ele>
        <time>2014-06-01T12:36:56Z</time>
      </trkpt>
      <trkpt lat="48.93726" lon="7.07762">
        <ele>212</ele>
        <time>2014-06-01T12:37:01Z</time>
      </trkpt>
      <trkpt lat="48.93734" lon="7.07792">
        <ele>211</ele>
        <time>2014-06-01T12:37:06Z</time>
      </trkpt>
      <trkpt lat="48.93732" lon="7.07791">
        <ele>211</ele>
        <time>2014-06-01T12:37:11Z</time>
      </trkpt>
      <trkpt lat="48.93732" lon="7.07787">
        <ele>211</ele>
        <time>2014-06-01T12:37:17Z</time>
      </trkpt>
      <trkpt lat="48.93733" lon="7.0779">
        <ele>215</ele>
        <time>2014-06-01T12:37:22Z</time>
      </trkpt>
      <trkpt lat="48.93733" lon="7.07794">
        <ele>219</ele>
        <time>2014-06-01T12:37:27Z</time>
      </trkpt>
      <trkpt lat="48.93733" lon="7.07797">
        <ele>222</ele>
        <time>2014-06-01T12:37:33Z</time>
      </trkpt>
      <trkpt lat="48.93728" lon="7.07794">
        <ele>221</ele>
        <time>2014-06-01T12:37:40Z</time>
      </trkpt>
      <trkpt lat="48.93733" lon="7.07802">
        <ele>211</ele>
        <time>2014-06-01T12:37:45Z</time>
      </trkpt>
      <trkpt lat="48.93738" lon="7.07815">
        <ele>211</ele>
        <time>2014-06-01T12:37:50Z</time>
      </trkpt>
      <trkpt lat="48.93745" lon="7.07835">
        <ele>215</ele>
        <time>2014-06-01T12:37:56Z</time>
      </trkpt>
      <trkpt lat="48.9375" lon="7.07858">
        <ele>219</ele>
        <time>2014-06-01T12:38:01Z</time>
      </trkpt>
      <trkpt lat="48.93756" lon="7.07886">
        <ele>220</ele>
        <time>2014-06-01T12:38:06Z</time>
      </trkpt>
      <trkpt lat="48.9376" lon="7.0792">
        <ele>219</ele>
        <time>2014-06-01T12:38:11Z</time>
      </trkpt>
      <trkpt lat="48.93767" lon="7.07959">
        <ele>214</ele>
        <time>2014-06-01T12:38:16Z</time>
      </trkpt>
      <trkpt lat="48.93773" lon="7.08005">
        <ele>206</ele>
        <time>2014-06-01T12:38:21Z</time>
      </trkpt>
      <trkpt lat="48.9378" lon="7.08055">
        <ele>194</ele>
        <time>2014-06-01T12:38:26Z</time>
      </trkpt>
      <trkpt lat="48.93793" lon="7.08103">
        <ele>182</ele>
        <time>2014-06-01T12:38:31Z</time>
      </trkpt>
      <trkpt lat="48.93803" lon="7.08146">
        <ele>176</ele>
        <time>2014-06-01T12:38:36Z</time>
      </trkpt>
      <trkpt lat="48.9381" lon="7.08186">
        <ele>176</ele>
        <time>2014-06-01T12:38:41Z</time>
      </trkpt>
      <trkpt lat="48.93818" lon="7.08226">
        <ele>176</ele>
        <time>2014-06-01T12:38:46Z</time>
      </trkpt>
      <trkpt lat="48.93826" lon="7.08264">
        <ele>176</ele>
        <time>2014-06-01T12:38:51Z</time>
      </trkpt>
      <trkpt lat="48.93834" lon="7.08302">
        <ele>176</ele>
        <time>2014-06-01T12:38:56Z</time>
      </trkpt>
      <trkpt lat="48.93841" lon="7.08339">
        <ele>177</ele>
        <time>2014-06-01T12:39:01Z</time>
      </trkpt>
      <trkpt lat="48.93848" lon="7.0838">
        <ele>177</ele>
        <time>2014-06-01T12:39:06Z</time>
      </trkpt>
      <trkpt lat="48.93857" lon="7.08421">
        <ele>177</ele>
        <time>2014-06-01T12:39:11Z</time>
      </trkpt>
      <trkpt lat="48.93864" lon="7.08458">
        <ele>177</ele>
        <time>2014-06-01T12:39:16Z</time>
      </trkpt>
      <trkpt lat="48.93871" lon="7.0849">
        <ele>181</ele>
        <time>2014-06-01T12:39:21Z</time>
      </trkpt>
      <trkpt lat="48.93877" lon="7.08517">
        <ele>183</ele>
        <time>2014-06-01T12:39:26Z</time>
      </trkpt>
      <trkpt lat="48.93887" lon="7.08548">
        <ele>183</ele>
        <time>2014-06-01T12:39:31Z</time>
      </trkpt>
      <trkpt lat="48.93895" lon="7.08575">
        <ele>183</ele>
        <time>2014-06-01T12:39:36Z</time>
      </trkpt>
      <trkpt lat="48.93901" lon="7.08597">
        <ele>186</ele>
        <time>2014-06-01T12:39:41Z</time>
      </trkpt>
      <trkpt lat="48.93907" lon="7.08619">
        <ele>191</ele>
        <time>2014-06-01T12:39:46Z</time>
      </trkpt>
      <trkpt lat="48.93912" lon="7.08638">
        <ele>194</ele>
        <time>2014-06-01T12:39:51Z</time>
      </trkpt>
      <trkpt lat="48.93916" lon="7.08643">
        <ele>204</ele>
        <time>2014-06-01T12:39:59Z</time>
      </trkpt>
      <trkpt lat="48.93922" lon="7.08645">
        <ele>209</ele>
        <time>2014-06-01T12:40:04Z</time>
      </trkpt>
      <trkpt lat="48.93926" lon="7.0865">
        <ele>214</ele>
        <time>2014-06-01T12:40:09Z</time>
      </trkpt>
      <trkpt lat="48.9393" lon="7.08664">
        <ele>219</ele>
        <time>2014-06-01T12:40:14Z</time>
      </trkpt>
      <trkpt lat="48.93929" lon="7.08677">
        <ele>220</ele>
        <time>2014-06-01T12:40:19Z</time>
      </trkpt>
      <trkpt lat="48.9392" lon="7.08681">
        <ele>220</ele>
        <time>2014-06-01T12:40:24Z</time>
      </trkpt>
      <trkpt lat="48.93909" lon="7.08668">
        <ele>224</ele>
        <time>2014-06-01T12:40:29Z</time>
      </trkpt>
      <trkpt lat="48.93903" lon="7.08661">
        <ele>225</ele>
        <time>2014-06-01T12:40:34Z</time>
      </trkpt>
      <trkpt lat="48.93896" lon="7.08663">
        <ele>225</ele>
        <time>2014-06-01T12:40:39Z</time>
      </trkpt>
      <trkpt lat="48.93891" lon="7.08667">
        <ele>224</ele>
        <time>2014-06-01T12:40:46Z</time>
      </trkpt>
      <trkpt lat="48.93887" lon="7.08669">
        <ele>224</ele>
        <time>2014-06-01T12:40:51Z</time>
      </trkpt>
      <trkpt lat="48.93895" lon="7.08684">
        <ele>220</ele>
        <time>2014-06-01T12:40:56Z</time>
      </trkpt>
      <trkpt lat="48.93903" lon="7.08684">
        <ele>221</ele>
        <time>2014-06-01T12:41:01Z</time>
      </trkpt>
      <trkpt lat="48.93908" lon="7.08687">
        <ele>223</ele>
        <time>2014-06-01T12:41:07Z</time>
      </trkpt>
      <trkpt lat="48.93908" lon="7.08684">
        <ele>223</ele>
        <time>2014-06-01T12:41:13Z</time>
      </trkpt>
      <trkpt lat="48.93907" lon="7.08685">
        <ele>223</ele>
        <time>2014-06-01T12:41:18Z</time>
      </trkpt>
      <trkpt lat="48.93906" lon="7.08681">
        <ele>222</ele>
        <time>2014-06-01T12:41:23Z</time>
      </trkpt>
      <trkpt lat="48.93906" lon="7.0868">
        <ele>222</ele>
        <time>2014-06-01T12:41:29Z</time>
      </trkpt>
      <trkpt lat="48.93916" lon="7.08688">
        <ele>222</ele>
        <time>2014-06-01T12:41:34Z</time>
      </trkpt>
      <trkpt lat="48.93932" lon="7.0868">
        <ele>222</ele>
        <time>2014-06-01T12:41:39Z</time>
      </trkpt>
      <trkpt lat="48.93952" lon="7.08663">
        <ele>222</ele>
        <time>2014-06-01T12:41:44Z</time>
      </trkpt>
      <trkpt lat="48.93972" lon="7.0864">
        <ele>222</ele>
        <time>2014-06-01T12:41:49Z</time>
      </trkpt>
      <trkpt lat="48.93993" lon="7.08621">
        <ele>222</ele>
        <time>2014-06-01T12:41:54Z</time>
      </trkpt>
      <trkpt lat="48.94011" lon="7.08609">
        <ele>224</ele>
        <time>2014-06-01T12:41:59Z</time>
      </trkpt>
      <trkpt lat="48.94029" lon="7.08594">
        <ele>225</ele>
        <time>2014-06-01T12:42:04Z</time>
      </trkpt>
      <trkpt lat="48.94049" lon="7.08578">
        <ele>229</ele>
        <time>2014-06-01T12:42:09Z</time>
      </trkpt>
      <trkpt lat="48.94066" lon="7.08556">
        <ele>229</ele>
        <time>2014-06-01T12:42:14Z</time>
      </trkpt>
      <trkpt lat="48.94085" lon="7.08535">
        <ele>230</ele>
        <time>2014-06-01T12:42:19Z</time>
      </trkpt>
      <trkpt lat="48.94104" lon="7.08522">
        <ele>232</ele>
        <time>2014-06-01T12:42:24Z</time>
      </trkpt>
      <trkpt lat="48.94124" lon="7.08506">
        <ele>234</ele>
        <time>2014-06-01T12:42:29Z</time>
      </trkpt>
      <trkpt lat="48.94142" lon="7.08489">
        <ele>234</ele>
        <time>2014-06-01T12:42:34Z</time>
      </trkpt>
      <trkpt lat="48.9416" lon="7.0847">
        <ele>234</ele>
        <time>2014-06-01T12:42:39Z</time>
      </trkpt>
      <trkpt lat="48.9418" lon="7.08451">
        <ele>234</ele>
        <time>2014-06-01T12:42:44Z</time>
      </trkpt>
      <trkpt lat="48.942" lon="7.0843">
        <ele>231</ele>
        <time>2014-06-01T12:42:49Z</time>
      </trkpt>
      <trkpt lat="48.94219" lon="7.08407">
        <ele>229</ele>
        <time>2014-06-01T12:42:54Z</time>
      </trkpt>
      <trkpt lat="48.94239" lon="7.08382">
        <ele>226</ele>
        <time>2014-06-01T12:42:59Z</time>
      </trkpt>
      <trkpt lat="48.94264" lon="7.08351">
        <ele>224</ele>
        <time>2014-06-01T12:43:04Z</time>
      </trkpt>
      <trkpt lat="48.94288" lon="7.08317">
        <ele>221</ele>
        <time>2014-06-01T12:43:09Z</time>
      </trkpt>
      <trkpt lat="48.94308" lon="7.08285">
        <ele>217</ele>
        <time>2014-06-01T12:43:14Z</time>
      </trkpt>
      <trkpt lat="48.94323" lon="7.08265">
        <ele>216</ele>
        <time>2014-06-01T12:43:20Z</time>
      </trkpt>
      <trkpt lat="48.94324" lon="7.08246">
        <ele>213</ele>
        <time>2014-06-01T12:43:25Z</time>
      </trkpt>
      <trkpt lat="48.94309" lon="7.08237">
        <ele>211</ele>
        <time>2014-06-01T12:43:30Z</time>
      </trkpt>
      <trkpt lat="48.94294" lon="7.08229">
        <ele>209</ele>
        <time>2014-06-01T12:43:35Z</time>
      </trkpt>
      <trkpt lat="48.94288" lon="7.08228">
        <ele>209</ele>
        <time>2014-06-01T12:43:45Z</time>
      </trkpt>
      <trkpt lat="48.94284" lon="7.08224">
        <ele>220</ele>
        <time>2014-06-01T12:43:54Z</time>
      </trkpt>
      <trkpt lat="48.9428" lon="7.08221">
        <ele>220</ele>
        <time>2014-06-01T12:44:00Z</time>
      </trkpt>
      <trkpt lat="48.9428" lon="7.08227">
        <ele>219</ele>
        <time>2014-06-01T12:44:08Z</time>
      </trkpt>
    </trkseg>
  </trk>
</gpx>